<?xml version='1.0' encoding='UTF-8'?><gpx version="1.1" creator="JPX - https://github.com/jenetics/jpx" xmlns="http://www.topografix.com/GPX/1/1"><trk><trkseg><trkpt lat="42.76936562411611" lon="10.31240181264747"><ele>43.0</ele><time>2026-04-26T06:37:35Z</time></trkpt><trkpt lat="42.76949935453907" lon="10.312401482752493"><ele>43.0</ele><time>2026-04-26T06:40:16Z</time></trkpt><trkpt lat="42.76954987149626" lon="10.31250141065898"><ele>43.0</ele><time>2026-04-26T06:40:29Z</time></trkpt><trkpt lat="42.76954862934743" lon="10.312587317243409"><ele>43.0</ele><time>2026-04-26T06:40:36Z</time></trkpt><trkpt lat="42.76952842937419" lon="10.31266974672814"><ele>43.0</ele><time>2026-04-26T06:40:43Z</time></trkpt><trkpt lat="42.7695058395009" lon="10.312757618466664"><ele>43.0</ele><time>2026-04-26T06:40:50Z</time></trkpt><trkpt lat="42.76950044811057" lon="10.312672087086906"><ele>43.00000000000001</ele><time>2026-04-26T06:41:56Z</time></trkpt><trkpt lat="42.76947924232333" lon="10.31259047503562"><ele>43.0</ele><time>2026-04-26T06:42:03Z</time></trkpt><trkpt lat="42.76948029417362" lon="10.312500473926088"><ele>43.0</ele><time>2026-04-26T06:42:11Z</time></trkpt><trkpt lat="42.76947955972236" lon="10.312410949979315"><ele>43.0</ele><time>2026-04-26T06:42:18Z</time></trkpt><trkpt lat="42.76941711136658" lon="10.31243730007634"><ele>43.0</ele><time>2026-04-26T06:43:26.001Z</time></trkpt><trkpt lat="42.76948712740742" lon="10.31237051929718"><ele>43.00000000000001</ele><time>2026-04-26T06:43:37.001Z</time></trkpt><trkpt lat="42.769496091606186" lon="10.31227911759523"><ele>43.0</ele><time>2026-04-26T06:46:02.998Z</time></trkpt><trkpt lat="42.769495375412106" lon="10.312178954807312"><ele>43.333333333333336</ele><time>2026-04-26T06:46:05.998Z</time></trkpt><trkpt lat="42.76943886883392" lon="10.312133361440898"><ele>43.66666666666667</ele><time>2026-04-26T06:46:11.998Z</time></trkpt><trkpt lat="42.7693786296378" lon="10.312177137101154"><ele>44.0</ele><time>2026-04-26T06:46:13.997Z</time></trkpt><trkpt lat="42.76931330356925" lon="10.312222468177616"><ele>44.333333333333336</ele><time>2026-04-26T06:46:15.997Z</time></trkpt><trkpt lat="42.76923186997062" lon="10.312266101611105"><ele>44.666666666666664</ele><time>2026-04-26T06:46:17.997Z</time></trkpt><trkpt lat="42.769118092218854" lon="10.312328875754984"><ele>45.0</ele><time>2026-04-26T06:46:20.997Z</time></trkpt><trkpt lat="42.76905598676318" lon="10.312396541129846"><ele>43.833333333333336</ele><time>2026-04-26T06:46:22.997Z</time></trkpt><trkpt lat="42.769041008880414" lon="10.312511335435728"><ele>42.666666666666664</ele><time>2026-04-26T06:46:25.997Z</time></trkpt><trkpt lat="42.76906960437969" lon="10.312591429162108"><ele>41.5</ele><time>2026-04-26T06:46:27.997Z</time></trkpt><trkpt lat="42.76910495746865" lon="10.312697367787516"><ele>40.33333333333333</ele><time>2026-04-26T06:46:30.997Z</time></trkpt><trkpt lat="42.769048904600304" lon="10.312810961170143"><ele>39.166666666666664</ele><time>2026-04-26T06:49:56.994Z</time></trkpt><trkpt lat="42.768971436625996" lon="10.312852411200103"><ele>38.0</ele><time>2026-04-26T07:07:21.004Z</time></trkpt><trkpt lat="42.76890462442655" lon="10.312847976958032"><ele>38.0</ele><time>2026-04-26T07:07:24.004Z</time></trkpt><trkpt lat="42.76896912024464" lon="10.312842171800593"><ele>38.0</ele><time>2026-04-26T07:07:37.004Z</time></trkpt><trkpt lat="42.768963773180644" lon="10.312955207190658"><ele>38.0</ele><time>2026-04-26T07:08:05.003Z</time></trkpt><trkpt lat="42.76893493561001" lon="10.31310212523995"><ele>38.0</ele><time>2026-04-26T07:08:29.003Z</time></trkpt><trkpt lat="42.76888671848521" lon="10.313176209811799"><ele>38.0</ele><time>2026-04-26T07:08:32.003Z</time></trkpt><trkpt lat="42.768814845312" lon="10.313196135429818"><ele>38.0</ele><time>2026-04-26T07:08:33.003Z</time></trkpt><trkpt lat="42.768728452040826" lon="10.313208377832382"><ele>38.166666666666664</ele><time>2026-04-26T07:08:34.003Z</time></trkpt><trkpt lat="42.76864144823347" lon="10.313220486580336"><ele>38.33333333333333</ele><time>2026-04-26T07:08:35.005Z</time></trkpt><trkpt lat="42.768559026360265" lon="10.313233492597716"><ele>38.5</ele><time>2026-04-26T07:08:36.005Z</time></trkpt><trkpt lat="42.76847926166796" lon="10.313245118332647"><ele>38.666666666666664</ele><time>2026-04-26T07:08:37.005Z</time></trkpt><trkpt lat="42.76840268715154" lon="10.313256824621337"><ele>38.833333333333336</ele><time>2026-04-26T07:08:38.005Z</time></trkpt><trkpt lat="42.76832487865435" lon="10.31326942100363"><ele>39.0</ele><time>2026-04-26T07:08:39.005Z</time></trkpt><trkpt lat="42.76819188585661" lon="10.31327112044387"><ele>38.2</ele><time>2026-04-26T07:08:40.005Z</time></trkpt><trkpt lat="42.76808750227647" lon="10.3132907212949"><ele>37.4</ele><time>2026-04-26T07:08:41.005Z</time></trkpt><trkpt lat="42.76797625328855" lon="10.31330182695049"><ele>36.6</ele><time>2026-04-26T07:08:42.005Z</time></trkpt><trkpt lat="42.767877330922964" lon="10.313323275496417"><ele>35.8</ele><time>2026-04-26T07:08:43.005Z</time></trkpt><trkpt lat="42.76777947149353" lon="10.31332982985544"><ele>35.0</ele><time>2026-04-26T07:08:44.004Z</time></trkpt><trkpt lat="42.767677312964445" lon="10.313343633981418"><ele>33.8</ele><time>2026-04-26T07:08:45.005Z</time></trkpt><trkpt lat="42.767574997101406" lon="10.313358585682188"><ele>32.6</ele><time>2026-04-26T07:08:46.005Z</time></trkpt><trkpt lat="42.76747335325786" lon="10.313391046917141"><ele>31.4</ele><time>2026-04-26T07:08:47.005Z</time></trkpt><trkpt lat="42.7673845587361" lon="10.313421764889219"><ele>30.2</ele><time>2026-04-26T07:08:48.005Z</time></trkpt><trkpt lat="42.76728785079358" lon="10.313460384225138"><ele>29.0</ele><time>2026-04-26T07:08:49.005Z</time></trkpt><trkpt lat="42.76718667225224" lon="10.31350082152301"><ele>29.0</ele><time>2026-04-26T07:08:50.005Z</time></trkpt><trkpt lat="42.76708144712131" lon="10.313544075620928"><ele>29.0</ele><time>2026-04-26T07:08:51.005Z</time></trkpt><trkpt lat="42.76697662731877" lon="10.313575018246757"><ele>29.0</ele><time>2026-04-26T07:08:52.005Z</time></trkpt><trkpt lat="42.766866684604835" lon="10.313605395103023"><ele>29.0</ele><time>2026-04-26T07:08:53.005Z</time></trkpt><trkpt lat="42.766759787566954" lon="10.313624109892602"><ele>29.0</ele><time>2026-04-26T07:08:54.005Z</time></trkpt><trkpt lat="42.766644800210955" lon="10.313633793038308"><ele>27.5</ele><time>2026-04-26T07:08:55.005Z</time></trkpt><trkpt lat="42.7665134437721" lon="10.31364155779723"><ele>26.0</ele><time>2026-04-26T07:08:56.005Z</time></trkpt><trkpt lat="42.7663629120544" lon="10.31365269913789"><ele>24.5</ele><time>2026-04-26T07:08:57.005Z</time></trkpt><trkpt lat="42.76623810349266" lon="10.313666653134709"><ele>23.0</ele><time>2026-04-26T07:08:58.005Z</time></trkpt><trkpt lat="42.766118531404004" lon="10.313674763090795"><ele>22.2</ele><time>2026-04-26T07:08:59.005Z</time></trkpt><trkpt lat="42.766008388206856" lon="10.31368738488168"><ele>21.4</ele><time>2026-04-26T07:09:00.005Z</time></trkpt><trkpt lat="42.76590235123837" lon="10.3136949434352"><ele>20.599999999999998</ele><time>2026-04-26T07:09:01.005Z</time></trkpt><trkpt lat="42.76580266454983" lon="10.313693099791458"><ele>19.799999999999997</ele><time>2026-04-26T07:09:02.005Z</time></trkpt><trkpt lat="42.76570756504046" lon="10.313681210158371"><ele>19.0</ele><time>2026-04-26T07:09:03.005Z</time></trkpt><trkpt lat="42.7656221892999" lon="10.313662322181033"><ele>19.0</ele><time>2026-04-26T07:09:04.005Z</time></trkpt><trkpt lat="42.76555389943117" lon="10.313631934696541"><ele>19.0</ele><time>2026-04-26T07:09:05.005Z</time></trkpt><trkpt lat="42.76546136449433" lon="10.31352483607014"><ele>19.0</ele><time>2026-04-26T07:09:07.004Z</time></trkpt><trkpt lat="42.76543302006785" lon="10.313423882380622"><ele>19.0</ele><time>2026-04-26T07:09:08.004Z</time></trkpt><trkpt lat="42.76541300238014" lon="10.313330961890692"><ele>19.0</ele><time>2026-04-26T07:09:09.004Z</time></trkpt><trkpt lat="42.76538849982701" lon="10.313240267546588"><ele>19.0</ele><time>2026-04-26T07:09:10.004Z</time></trkpt><trkpt lat="42.765357030528556" lon="10.313147173320058"><ele>19.166666666666664</ele><time>2026-04-26T07:09:11.004Z</time></trkpt><trkpt lat="42.76533378005226" lon="10.313062170150925"><ele>19.333333333333332</ele><time>2026-04-26T07:09:12.004Z</time></trkpt><trkpt lat="42.76531123919734" lon="10.31297942322498"><ele>19.5</ele><time>2026-04-26T07:09:13.004Z</time></trkpt><trkpt lat="42.76525146199655" lon="10.312825276582698"><ele>19.666666666666668</ele><time>2026-04-26T07:09:15.004Z</time></trkpt><trkpt lat="42.76521844572081" lon="10.312747317954743"><ele>19.833333333333336</ele><time>2026-04-26T07:09:16.004Z</time></trkpt><trkpt lat="42.765184299201394" lon="10.312665894824468"><ele>20.0</ele><time>2026-04-26T07:09:17.004Z</time></trkpt><trkpt lat="42.76515505859879" lon="10.312586850200743"><ele>19.833333333333336</ele><time>2026-04-26T07:09:18.004Z</time></trkpt><trkpt lat="42.76510727264414" lon="10.312460726432617"><ele>19.666666666666668</ele><time>2026-04-26T07:09:20.004Z</time></trkpt><trkpt lat="42.765057547761316" lon="10.312289955931004"><ele>19.5</ele><time>2026-04-26T07:09:22.004Z</time></trkpt><trkpt lat="42.76503481388247" lon="10.312191543421"><ele>19.333333333333332</ele><time>2026-04-26T07:09:23.004Z</time></trkpt><trkpt lat="42.76502033160992" lon="10.312104190466385"><ele>19.166666666666664</ele><time>2026-04-26T07:09:24.004Z</time></trkpt><trkpt lat="42.76500612973094" lon="10.31201465917826"><ele>19.0</ele><time>2026-04-26T07:09:25.004Z</time></trkpt><trkpt lat="42.764994589835524" lon="10.311914964670054"><ele>19.0</ele><time>2026-04-26T07:09:26.004Z</time></trkpt><trkpt lat="42.76499121178759" lon="10.311813265805139"><ele>19.0</ele><time>2026-04-26T07:09:27.004Z</time></trkpt><trkpt lat="42.76498452767584" lon="10.311722186041877"><ele>19.0</ele><time>2026-04-26T07:09:28.004Z</time></trkpt><trkpt lat="42.764992660223605" lon="10.311619913817044"><ele>19.0</ele><time>2026-04-26T07:09:29.004Z</time></trkpt><trkpt lat="42.76501460143825" lon="10.311532129313832"><ele>19.0</ele><time>2026-04-26T07:09:30.004Z</time></trkpt><trkpt lat="42.76505731888646" lon="10.311432651481208"><ele>19.0</ele><time>2026-04-26T07:09:31.004Z</time></trkpt><trkpt lat="42.765104396462405" lon="10.311349110524462"><ele>19.0</ele><time>2026-04-26T07:09:32.004Z</time></trkpt><trkpt lat="42.76515917234646" lon="10.311258438833706"><ele>19.166666666666664</ele><time>2026-04-26T07:09:33.004Z</time></trkpt><trkpt lat="42.765203226248964" lon="10.311173914381548"><ele>19.333333333333332</ele><time>2026-04-26T07:09:34.004Z</time></trkpt><trkpt lat="42.7652493573701" lon="10.311091487535604"><ele>19.5</ele><time>2026-04-26T07:09:35.004Z</time></trkpt><trkpt lat="42.76528455585908" lon="10.311011014849152"><ele>19.666666666666668</ele><time>2026-04-26T07:09:36.004Z</time></trkpt><trkpt lat="42.7653159524976" lon="10.310932348087878"><ele>19.833333333333336</ele><time>2026-04-26T07:09:37.004Z</time></trkpt><trkpt lat="42.765338789045494" lon="10.310762574294964"><ele>20.0</ele><time>2026-04-26T07:09:39.004Z</time></trkpt><trkpt lat="42.76532977325799" lon="10.310667864649329"><ele>20.5</ele><time>2026-04-26T07:09:40.004Z</time></trkpt><trkpt lat="42.765313157381534" lon="10.310571325546219"><ele>21.0</ele><time>2026-04-26T07:09:41.004Z</time></trkpt><trkpt lat="42.76528710156999" lon="10.310468973853876"><ele>21.5</ele><time>2026-04-26T07:09:42.004Z</time></trkpt><trkpt lat="42.7652514913715" lon="10.310365743183972"><ele>22.0</ele><time>2026-04-26T07:09:43.004Z</time></trkpt><trkpt lat="42.76520785215611" lon="10.310265370274243"><ele>22.5</ele><time>2026-04-26T07:09:44.004Z</time></trkpt><trkpt lat="42.76516741158513" lon="10.31016652038783"><ele>23.0</ele><time>2026-04-26T07:09:45.004Z</time></trkpt><trkpt lat="42.76512515199783" lon="10.310072191233221"><ele>23.0</ele><time>2026-04-26T07:09:46.004Z</time></trkpt><trkpt lat="42.76508254102299" lon="10.309974567135233"><ele>23.0</ele><time>2026-04-26T07:09:47.004Z</time></trkpt><trkpt lat="42.76503958264851" lon="10.309886400612118"><ele>23.0</ele><time>2026-04-26T07:09:48.004Z</time></trkpt><trkpt lat="42.76500406150195" lon="10.309785735817085"><ele>23.0</ele><time>2026-04-26T07:09:49.004Z</time></trkpt><trkpt lat="42.76497804225324" lon="10.309691495876029"><ele>23.0</ele><time>2026-04-26T07:09:50.004Z</time></trkpt><trkpt lat="42.764963387741595" lon="10.309600797926924"><ele>23.0</ele><time>2026-04-26T07:09:51.004Z</time></trkpt><trkpt lat="42.76496073120465" lon="10.309509964853099"><ele>23.0</ele><time>2026-04-26T07:09:52.004Z</time></trkpt><trkpt lat="42.76495789317888" lon="10.309389711857865"><ele>23.0</ele><time>2026-04-26T07:09:53.004Z</time></trkpt><trkpt lat="42.76496487773079" lon="10.3092535978352"><ele>23.0</ele><time>2026-04-26T07:09:54.004Z</time></trkpt><trkpt lat="42.76496573727593" lon="10.30913991581672"><ele>23.0</ele><time>2026-04-26T07:09:55.004Z</time></trkpt><trkpt lat="42.76495858403261" lon="10.309017100295627"><ele>23.0</ele><time>2026-04-26T07:09:56.004Z</time></trkpt><trkpt lat="42.764957545444986" lon="10.30889827483716"><ele>21.833333333333336</ele><time>2026-04-26T07:09:57.004Z</time></trkpt><trkpt lat="42.76495044356848" lon="10.308788004048703"><ele>20.666666666666668</ele><time>2026-04-26T07:09:58.004Z</time></trkpt><trkpt lat="42.76493433601016" lon="10.308670559510677"><ele>19.5</ele><time>2026-04-26T07:09:59.004Z</time></trkpt><trkpt lat="42.76491530824311" lon="10.308548217202267"><ele>18.333333333333332</ele><time>2026-04-26T07:10:00.004Z</time></trkpt><trkpt lat="42.764894621257774" lon="10.308424845566503"><ele>17.166666666666664</ele><time>2026-04-26T07:10:01.004Z</time></trkpt><trkpt lat="42.76487878256343" lon="10.308301659041573"><ele>16.0</ele><time>2026-04-26T07:10:02.004Z</time></trkpt><trkpt lat="42.76486209057912" lon="10.308178992281524"><ele>15.200000000000001</ele><time>2026-04-26T07:10:03.004Z</time></trkpt><trkpt lat="42.764854940860175" lon="10.308051492444934"><ele>14.400000000000002</ele><time>2026-04-26T07:10:04.004Z</time></trkpt><trkpt lat="42.76485180086386" lon="10.307924550883891"><ele>13.6</ele><time>2026-04-26T07:10:05.004Z</time></trkpt><trkpt lat="42.764853939484965" lon="10.307795583999292"><ele>12.8</ele><time>2026-04-26T07:10:06.004Z</time></trkpt><trkpt lat="42.76485229833553" lon="10.307667731647784"><ele>12.0</ele><time>2026-04-26T07:10:07.004Z</time></trkpt><trkpt lat="42.764848727905736" lon="10.30753958099873"><ele>12.0</ele><time>2026-04-26T07:10:08.004Z</time></trkpt><trkpt lat="42.76484538717089" lon="10.307411082136023"><ele>12.0</ele><time>2026-04-26T07:10:09.004Z</time></trkpt><trkpt lat="42.7648399131104" lon="10.30729081957237"><ele>12.0</ele><time>2026-04-26T07:10:10.004Z</time></trkpt><trkpt lat="42.76483610346993" lon="10.307162245573918"><ele>12.0</ele><time>2026-04-26T07:10:11.003Z</time></trkpt><trkpt lat="42.764831941921955" lon="10.307030177844469"><ele>12.0</ele><time>2026-04-26T07:10:12.003Z</time></trkpt><trkpt lat="42.7648183916977" lon="10.30690610105594"><ele>11.6</ele><time>2026-04-26T07:10:13.003Z</time></trkpt><trkpt lat="42.76479272944552" lon="10.306782252728842"><ele>11.2</ele><time>2026-04-26T07:10:14.003Z</time></trkpt><trkpt lat="42.76476061893944" lon="10.306656608016866"><ele>10.8</ele><time>2026-04-26T07:10:15.003Z</time></trkpt><trkpt lat="42.76472075897624" lon="10.306539300561175"><ele>10.4</ele><time>2026-04-26T07:10:16.003Z</time></trkpt><trkpt lat="42.76468464224087" lon="10.306413638169563"><ele>10.0</ele><time>2026-04-26T07:10:17.003Z</time></trkpt><trkpt lat="42.76465412989081" lon="10.306292148112826"><ele>10.0</ele><time>2026-04-26T07:10:18.003Z</time></trkpt><trkpt lat="42.76462315896949" lon="10.306168324454404"><ele>10.0</ele><time>2026-04-26T07:10:19.003Z</time></trkpt><trkpt lat="42.76459358011789" lon="10.306046245726835"><ele>10.0</ele><time>2026-04-26T07:10:20.003Z</time></trkpt><trkpt lat="42.76456167379478" lon="10.305929315623167"><ele>10.0</ele><time>2026-04-26T07:10:21.003Z</time></trkpt><trkpt lat="42.76452976266709" lon="10.30581661049448"><ele>10.0</ele><time>2026-04-26T07:10:22.003Z</time></trkpt><trkpt lat="42.764497280656386" lon="10.305704573340565"><ele>10.0</ele><time>2026-04-26T07:10:23.003Z</time></trkpt><trkpt lat="42.76446837626176" lon="10.305591474820627"><ele>10.0</ele><time>2026-04-26T07:10:24.003Z</time></trkpt><trkpt lat="42.76444682157558" lon="10.305481523687419"><ele>10.0</ele><time>2026-04-26T07:10:25.003Z</time></trkpt><trkpt lat="42.764429187904796" lon="10.305371744543159"><ele>10.0</ele><time>2026-04-26T07:10:26.003Z</time></trkpt><trkpt lat="42.76441278015431" lon="10.305254426897"><ele>10.0</ele><time>2026-04-26T07:10:27.003Z</time></trkpt><trkpt lat="42.764393223905664" lon="10.305136537035327"><ele>10.0</ele><time>2026-04-26T07:10:28.003Z</time></trkpt><trkpt lat="42.76437359432454" lon="10.305015042992846"><ele>10.166666666666668</ele><time>2026-04-26T07:10:29.003Z</time></trkpt><trkpt lat="42.764354436125174" lon="10.304896018820315"><ele>10.333333333333334</ele><time>2026-04-26T07:10:30.003Z</time></trkpt><trkpt lat="42.76433787105613" lon="10.304779238058813"><ele>10.5</ele><time>2026-04-26T07:10:31.003Z</time></trkpt><trkpt lat="42.7643213204207" lon="10.304665894565236"><ele>10.666666666666666</ele><time>2026-04-26T07:10:32.003Z</time></trkpt><trkpt lat="42.76430708730761" lon="10.30455096985032"><ele>10.833333333333332</ele><time>2026-04-26T07:10:33.003Z</time></trkpt><trkpt lat="42.76429071020138" lon="10.304435164426726"><ele>11.0</ele><time>2026-04-26T07:10:34.003Z</time></trkpt><trkpt lat="42.76427973726105" lon="10.304312110675417"><ele>11.0</ele><time>2026-04-26T07:10:35.003Z</time></trkpt><trkpt lat="42.76426374874531" lon="10.304198235439626"><ele>11.0</ele><time>2026-04-26T07:10:36.003Z</time></trkpt><trkpt lat="42.76424245457232" lon="10.304094238764467"><ele>11.0</ele><time>2026-04-26T07:10:37.003Z</time></trkpt><trkpt lat="42.76422249233804" lon="10.30398906197511"><ele>11.0</ele><time>2026-04-26T07:10:38.003Z</time></trkpt><trkpt lat="42.764203892826984" lon="10.303888279609883"><ele>11.0</ele><time>2026-04-26T07:10:39.003Z</time></trkpt><trkpt lat="42.76418581382509" lon="10.30378198338376"><ele>11.0</ele><time>2026-04-26T07:10:40.003Z</time></trkpt><trkpt lat="42.76416797019088" lon="10.30367559068911"><ele>11.0</ele><time>2026-04-26T07:10:41.005Z</time></trkpt><trkpt lat="42.76414698775853" lon="10.303565906422499"><ele>11.0</ele><time>2026-04-26T07:10:42.005Z</time></trkpt><trkpt lat="42.7641253335583" lon="10.303453705024026"><ele>11.0</ele><time>2026-04-26T07:10:43.005Z</time></trkpt><trkpt lat="42.76410423430194" lon="10.303344411718356"><ele>11.0</ele><time>2026-04-26T07:10:44.006Z</time></trkpt><trkpt lat="42.764085012265106" lon="10.303233986648884"><ele>11.0</ele><time>2026-04-26T07:10:45.005Z</time></trkpt><trkpt lat="42.76406430312548" lon="10.303131262703175"><ele>11.0</ele><time>2026-04-26T07:10:46.005Z</time></trkpt><trkpt lat="42.76403088503518" lon="10.303044229640268"><ele>11.5</ele><time>2026-04-26T07:10:47.005Z</time></trkpt><trkpt lat="42.76398708403575" lon="10.30297113566322"><ele>12.0</ele><time>2026-04-26T07:10:48.005Z</time></trkpt><trkpt lat="42.76392363506808" lon="10.302908705809594"><ele>12.5</ele><time>2026-04-26T07:10:49.005Z</time></trkpt><trkpt lat="42.76384961871561" lon="10.302857679818807"><ele>13.0</ele><time>2026-04-26T07:10:50.006Z</time></trkpt><trkpt lat="42.763772170914415" lon="10.302798986837772"><ele>13.500000000000002</ele><time>2026-04-26T07:10:51.005Z</time></trkpt><trkpt lat="42.763684819098785" lon="10.302732904624994"><ele>14.0</ele><time>2026-04-26T07:10:52.005Z</time></trkpt><trkpt lat="42.763591904936966" lon="10.302665579880676"><ele>13.399999999999999</ele><time>2026-04-26T07:10:53.005Z</time></trkpt><trkpt lat="42.76350043498038" lon="10.302595355687217"><ele>12.799999999999999</ele><time>2026-04-26T07:10:54.005Z</time></trkpt><trkpt lat="42.763408239849156" lon="10.302524107497698"><ele>12.2</ele><time>2026-04-26T07:10:55.005Z</time></trkpt><trkpt lat="42.763314564953056" lon="10.302451902300296"><ele>11.600000000000001</ele><time>2026-04-26T07:10:56.005Z</time></trkpt><trkpt lat="42.76322220263806" lon="10.302375040936893"><ele>11.0</ele><time>2026-04-26T07:10:57.005Z</time></trkpt><trkpt lat="42.76312997231953" lon="10.302296616515724"><ele>12.200000000000001</ele><time>2026-04-26T07:10:58.005Z</time></trkpt><trkpt lat="42.76304004739033" lon="10.302214717362942"><ele>13.4</ele><time>2026-04-26T07:10:59.005Z</time></trkpt><trkpt lat="42.76295327787318" lon="10.302131655429953"><ele>14.6</ele><time>2026-04-26T07:11:00.005Z</time></trkpt><trkpt lat="42.76287493664244" lon="10.302048063198203"><ele>15.8</ele><time>2026-04-26T07:11:01.005Z</time></trkpt><trkpt lat="42.762805851662065" lon="10.30196079126893"><ele>17.0</ele><time>2026-04-26T07:11:02.005Z</time></trkpt><trkpt lat="42.762746314369366" lon="10.301853100472432"><ele>15.6</ele><time>2026-04-26T07:11:03.005Z</time></trkpt><trkpt lat="42.76269248996538" lon="10.301735745998187"><ele>14.2</ele><time>2026-04-26T07:11:04.005Z</time></trkpt><trkpt lat="42.76264387151917" lon="10.301617475922848"><ele>12.8</ele><time>2026-04-26T07:11:05.005Z</time></trkpt><trkpt lat="42.7625933022123" lon="10.301491880314328"><ele>11.4</ele><time>2026-04-26T07:11:06.005Z</time></trkpt><trkpt lat="42.76254178954204" lon="10.301361186537285"><ele>10.0</ele><time>2026-04-26T07:11:07.005Z</time></trkpt><trkpt lat="42.76249038729787" lon="10.301235886468762"><ele>10.0</ele><time>2026-04-26T07:11:08.005Z</time></trkpt><trkpt lat="42.762446510317936" lon="10.301104567216798"><ele>10.0</ele><time>2026-04-26T07:11:09.005Z</time></trkpt><trkpt lat="42.762388340958246" lon="10.300967124725856"><ele>10.0</ele><time>2026-04-26T07:11:10.005Z</time></trkpt><trkpt lat="42.76233269095016" lon="10.300838176099854"><ele>10.0</ele><time>2026-04-26T07:11:11.005Z</time></trkpt><trkpt lat="42.762278152972115" lon="10.300709889904688"><ele>10.0</ele><time>2026-04-26T07:11:12.005Z</time></trkpt><trkpt lat="42.76222341153123" lon="10.300578064388235"><ele>10.6</ele><time>2026-04-26T07:11:13.005Z</time></trkpt><trkpt lat="42.76217287869279" lon="10.300446082810728"><ele>11.2</ele><time>2026-04-26T07:11:14.005Z</time></trkpt><trkpt lat="42.76212919804625" lon="10.30030957914238"><ele>11.8</ele><time>2026-04-26T07:11:15.005Z</time></trkpt><trkpt lat="42.76209315226885" lon="10.30017251000672"><ele>12.4</ele><time>2026-04-26T07:11:16.005Z</time></trkpt><trkpt lat="42.76207312270228" lon="10.300034877218488"><ele>13.0</ele><time>2026-04-26T07:11:17.005Z</time></trkpt><trkpt lat="42.762067262384456" lon="10.299900857240656"><ele>13.0</ele><time>2026-04-26T07:11:18.005Z</time></trkpt><trkpt lat="42.76207477373267" lon="10.29977949989831"><ele>13.0</ele><time>2026-04-26T07:11:19.005Z</time></trkpt><trkpt lat="42.76208704532806" lon="10.299659197014481"><ele>13.0</ele><time>2026-04-26T07:11:20.005Z</time></trkpt><trkpt lat="42.76210677986311" lon="10.299535291850006"><ele>13.0</ele><time>2026-04-26T07:11:21.005Z</time></trkpt><trkpt lat="42.76212600163252" lon="10.29941205097222"><ele>13.0</ele><time>2026-04-26T07:11:22.005Z</time></trkpt><trkpt lat="42.762151490238736" lon="10.29927907182776"><ele>13.0</ele><time>2026-04-26T07:11:23.005Z</time></trkpt><trkpt lat="42.7621786401293" lon="10.299145622238179"><ele>13.0</ele><time>2026-04-26T07:11:24.005Z</time></trkpt><trkpt lat="42.76220188569384" lon="10.299010560779822"><ele>13.0</ele><time>2026-04-26T07:11:25.005Z</time></trkpt><trkpt lat="42.76223074324417" lon="10.298869330763063"><ele>13.0</ele><time>2026-04-26T07:11:26.005Z</time></trkpt><trkpt lat="42.76226479782167" lon="10.29871963705196"><ele>13.0</ele><time>2026-04-26T07:11:27.005Z</time></trkpt><trkpt lat="42.762295542687895" lon="10.298567813615316"><ele>12.75</ele><time>2026-04-26T07:11:28.005Z</time></trkpt><trkpt lat="42.76232485647312" lon="10.298413348351938"><ele>12.5</ele><time>2026-04-26T07:11:29.005Z</time></trkpt><trkpt lat="42.762355453487686" lon="10.298261805112018"><ele>12.25</ele><time>2026-04-26T07:11:30.005Z</time></trkpt><trkpt lat="42.76238907922086" lon="10.29811282999907"><ele>12.0</ele><time>2026-04-26T07:11:31.005Z</time></trkpt><trkpt lat="42.76243130856654" lon="10.29796669906088"><ele>11.75</ele><time>2026-04-26T07:11:32.005Z</time></trkpt><trkpt lat="42.76248283332357" lon="10.297808615756997"><ele>11.5</ele><time>2026-04-26T07:11:33.005Z</time></trkpt><trkpt lat="42.76252632592124" lon="10.297645186635156"><ele>11.25</ele><time>2026-04-26T07:11:34.005Z</time></trkpt><trkpt lat="42.76255670984843" lon="10.297467942928147"><ele>11.0</ele><time>2026-04-26T07:11:35.005Z</time></trkpt><trkpt lat="42.76255402088729" lon="10.2972928852925"><ele>11.5</ele><time>2026-04-26T07:11:36.005Z</time></trkpt><trkpt lat="42.76251491413889" lon="10.297123274591064"><ele>12.0</ele><time>2026-04-26T07:11:37.005Z</time></trkpt><trkpt lat="42.76245080227339" lon="10.296951347144493"><ele>12.5</ele><time>2026-04-26T07:11:38.005Z</time></trkpt><trkpt lat="42.762372762165334" lon="10.296783669959767"><ele>13.0</ele><time>2026-04-26T07:11:39.005Z</time></trkpt><trkpt lat="42.76228356997992" lon="10.296634285874328"><ele>13.0</ele><time>2026-04-26T07:11:40.005Z</time></trkpt><trkpt lat="42.762200990874284" lon="10.296490105276973"><ele>13.0</ele><time>2026-04-26T07:11:41.005Z</time></trkpt><trkpt lat="42.76213009903281" lon="10.296364379980254"><ele>13.0</ele><time>2026-04-26T07:11:42.005Z</time></trkpt><trkpt lat="42.76206754073374" lon="10.29625470444682"><ele>13.0</ele><time>2026-04-26T07:11:43.005Z</time></trkpt><trkpt lat="42.762010606645426" lon="10.296163623646555"><ele>13.0</ele><time>2026-04-26T07:11:44.005Z</time></trkpt><trkpt lat="42.761965934206444" lon="10.296087772078184"><ele>13.600000000000001</ele><time>2026-04-26T07:11:45.005Z</time></trkpt><trkpt lat="42.76187867229039" lon="10.296015685539807"><ele>14.200000000000001</ele><time>2026-04-26T07:11:47.005Z</time></trkpt><trkpt lat="42.761809875958065" lon="10.296095218894145"><ele>14.8</ele><time>2026-04-26T07:11:49.005Z</time></trkpt><trkpt lat="42.76182676246085" lon="10.296243106382224"><ele>15.4</ele><time>2026-04-26T07:11:51.005Z</time></trkpt><trkpt lat="42.76182765472548" lon="10.296339193864181"><ele>16.0</ele><time>2026-04-26T07:12:07.004Z</time></trkpt><trkpt lat="42.76174750604025" lon="10.29628715996127"><ele>17.166666666666664</ele><time>2026-04-26T07:12:11.004Z</time></trkpt><trkpt lat="42.76167769994053" lon="10.296274856585688"><ele>18.333333333333332</ele><time>2026-04-26T07:12:14.004Z</time></trkpt><trkpt lat="42.76161777652583" lon="10.29633686591315"><ele>19.5</ele><time>2026-04-26T07:12:21.004Z</time></trkpt><trkpt lat="42.761521647783724" lon="10.296337865043922"><ele>20.666666666666668</ele><time>2026-04-26T07:12:25.004Z</time></trkpt><trkpt lat="42.76145589946168" lon="10.296339587103406"><ele>21.833333333333336</ele><time>2026-04-26T07:12:28.004Z</time></trkpt><trkpt lat="42.76138061274337" lon="10.296380343631936"><ele>23.0</ele><time>2026-04-26T07:12:31.004Z</time></trkpt><trkpt lat="42.76131188701223" lon="10.296381969518363"><ele>23.0</ele><time>2026-04-26T07:12:39.004Z</time></trkpt><trkpt lat="42.76124289867141" lon="10.296381842400773"><ele>23.0</ele><time>2026-04-26T07:12:42.004Z</time></trkpt><trkpt lat="42.761180722325385" lon="10.29635741352885"><ele>23.0</ele><time>2026-04-26T07:12:46.004Z</time></trkpt><trkpt lat="42.76111631153323" lon="10.29638661076041"><ele>23.0</ele><time>2026-04-26T07:12:50.006Z</time></trkpt><trkpt lat="42.761032630128355" lon="10.29639551424932"><ele>23.0</ele><time>2026-04-26T07:12:54.005Z</time></trkpt><trkpt lat="42.76096462314034" lon="10.296383893367526"><ele>23.0</ele><time>2026-04-26T07:12:59.005Z</time></trkpt><trkpt lat="42.760898646898625" lon="10.296381509405135"><ele>23.0</ele><time>2026-04-26T07:13:04.006Z</time></trkpt><trkpt lat="42.76082545344409" lon="10.296369432908621"><ele>27.0</ele><time>2026-04-26T07:13:08.006Z</time></trkpt><trkpt lat="42.760724050152426" lon="10.296316994235182"><ele>31.0</ele><time>2026-04-26T07:13:11.006Z</time></trkpt><trkpt lat="42.76066301820083" lon="10.296236992194661"><ele>35.0</ele><time>2026-04-26T07:13:14.006Z</time></trkpt><trkpt lat="42.760598262320734" lon="10.296190618601528"><ele>39.0</ele><time>2026-04-26T07:13:16.006Z</time></trkpt><trkpt lat="42.7605115709016" lon="10.296132540072449"><ele>43.0</ele><time>2026-04-26T07:13:18.006Z</time></trkpt><trkpt lat="42.76045149057354" lon="10.296079950270482"><ele>47.0</ele><time>2026-04-26T07:13:20.006Z</time></trkpt><trkpt lat="42.76039817793535" lon="10.296031085829986"><ele>47.0</ele><time>2026-04-26T07:13:22.006Z</time></trkpt><trkpt lat="42.76033297205262" lon="10.29602018789644"><ele>47.0</ele><time>2026-04-26T07:13:25.006Z</time></trkpt><trkpt lat="42.7602965587299" lon="10.296104236885451"><ele>47.0</ele><time>2026-04-26T07:13:29.005Z</time></trkpt><trkpt lat="42.76019458219861" lon="10.296108689827914"><ele>47.0</ele><time>2026-04-26T07:13:49.005Z</time></trkpt><trkpt lat="42.760167800174486" lon="10.296193767953126"><ele>47.0</ele><time>2026-04-26T07:13:52.005Z</time></trkpt><trkpt lat="42.76012082379665" lon="10.296260254487214"><ele>47.0</ele><time>2026-04-26T07:13:58.005Z</time></trkpt><trkpt lat="42.76005012726957" lon="10.296293590366755"><ele>46.83333333333333</ele><time>2026-04-26T07:14:02.005Z</time></trkpt><trkpt lat="42.760029033746996" lon="10.29638197515514"><ele>46.666666666666664</ele><time>2026-04-26T07:14:05.005Z</time></trkpt><trkpt lat="42.759974428774434" lon="10.296472479811094"><ele>46.5</ele><time>2026-04-26T07:14:08.005Z</time></trkpt><trkpt lat="42.759926702114676" lon="10.296529051730682"><ele>46.333333333333336</ele><time>2026-04-26T07:14:10.005Z</time></trkpt><trkpt lat="42.75989719062876" lon="10.29660896368211"><ele>46.16666666666667</ele><time>2026-04-26T07:14:12.005Z</time></trkpt><trkpt lat="42.75981854706211" lon="10.296670249893108"><ele>46.0</ele><time>2026-04-26T07:14:15.005Z</time></trkpt><trkpt lat="42.75973842066647" lon="10.296712474726046"><ele>46.0</ele><time>2026-04-26T07:14:18.005Z</time></trkpt><trkpt lat="42.75966484690351" lon="10.296700328291763"><ele>46.0</ele><time>2026-04-26T07:14:21.005Z</time></trkpt><trkpt lat="42.759589725140984" lon="10.296689882513212"><ele>46.0</ele><time>2026-04-26T07:14:28.005Z</time></trkpt><trkpt lat="42.75951559301232" lon="10.296723993946516"><ele>46.0</ele><time>2026-04-26T07:14:32.004Z</time></trkpt><trkpt lat="42.759437945474005" lon="10.296756306994698"><ele>46.0</ele><time>2026-04-26T07:14:35.004Z</time></trkpt><trkpt lat="42.759372311586674" lon="10.296757091835897"><ele>46.0</ele><time>2026-04-26T07:14:38.004Z</time></trkpt><trkpt lat="42.759305550011966" lon="10.29675718304182"><ele>46.0</ele><time>2026-04-26T07:14:41.004Z</time></trkpt><trkpt lat="42.75931610334998" lon="10.296632625734699"><ele>44.0</ele><time>2026-04-26T07:14:44.004Z</time></trkpt><trkpt lat="42.759347565325115" lon="10.296479182672734"><ele>42.0</ele><time>2026-04-26T07:14:46.004Z</time></trkpt><trkpt lat="42.75927302721712" lon="10.296518904368334"><ele>40.0</ele><time>2026-04-26T07:14:47.004Z</time></trkpt><trkpt lat="42.75927960665573" lon="10.296370290017924"><ele>38.0</ele><time>2026-04-26T07:14:50.004Z</time></trkpt><trkpt lat="42.75926015962684" lon="10.29621499455411"><ele>36.0</ele><time>2026-04-26T07:14:51.004Z</time></trkpt><trkpt lat="42.75924778154328" lon="10.296091030068641"><ele>36.0</ele><time>2026-04-26T07:14:52.004Z</time></trkpt><trkpt lat="42.75923151020155" lon="10.2959658224002"><ele>36.0</ele><time>2026-04-26T07:14:53.006Z</time></trkpt><trkpt lat="42.75919291907758" lon="10.29586838559102"><ele>36.0</ele><time>2026-04-26T07:14:54.006Z</time></trkpt><trkpt lat="42.75912911832764" lon="10.29580273981392"><ele>36.0</ele><time>2026-04-26T07:14:55.006Z</time></trkpt><trkpt lat="42.75905882525547" lon="10.295748741951813"><ele>36.0</ele><time>2026-04-26T07:14:56.006Z</time></trkpt><trkpt lat="42.75898611147678" lon="10.295664566803696"><ele>36.0</ele><time>2026-04-26T07:14:57.006Z</time></trkpt><trkpt lat="42.75892401397537" lon="10.295561734969967"><ele>37.8</ele><time>2026-04-26T07:14:58.006Z</time></trkpt><trkpt lat="42.75887154109301" lon="10.295455967987426"><ele>39.6</ele><time>2026-04-26T07:14:59.006Z</time></trkpt><trkpt lat="42.75881113353759" lon="10.295353707513938"><ele>41.4</ele><time>2026-04-26T07:15:00.006Z</time></trkpt><trkpt lat="42.75873573425551" lon="10.29527209665323"><ele>43.2</ele><time>2026-04-26T07:15:01.006Z</time></trkpt><trkpt lat="42.75864689464199" lon="10.295209273727142"><ele>45.0</ele><time>2026-04-26T07:15:02.006Z</time></trkpt><trkpt lat="42.758561801166316" lon="10.295142976194894"><ele>42.4</ele><time>2026-04-26T07:15:03.006Z</time></trkpt><trkpt lat="42.758476576301575" lon="10.295080001714194"><ele>39.8</ele><time>2026-04-26T07:15:04.006Z</time></trkpt><trkpt lat="42.758388121291404" lon="10.295036727085568"><ele>37.2</ele><time>2026-04-26T07:15:05.006Z</time></trkpt><trkpt lat="42.75828629628007" lon="10.294945521875736"><ele>34.6</ele><time>2026-04-26T07:15:06.006Z</time></trkpt><trkpt lat="42.758211356051355" lon="10.294966390150865"><ele>32.0</ele><time>2026-04-26T07:15:07.006Z</time></trkpt><trkpt lat="42.75813851521101" lon="10.295006549110765"><ele>31.999999999999996</ele><time>2026-04-26T07:15:08.006Z</time></trkpt><trkpt lat="42.75806135101349" lon="10.2950305283284"><ele>32.0</ele><time>2026-04-26T07:15:09.006Z</time></trkpt><trkpt lat="42.75797888673851" lon="10.295023214619606"><ele>32.0</ele><time>2026-04-26T07:15:10.006Z</time></trkpt><trkpt lat="42.75789031715071" lon="10.295017579441174"><ele>32.0</ele><time>2026-04-26T07:15:11.006Z</time></trkpt><trkpt lat="42.75781419012193" lon="10.295019712092433"><ele>31.999999999999996</ele><time>2026-04-26T07:15:12.005Z</time></trkpt><trkpt lat="42.757739184769186" lon="10.295004761641819"><ele>32.0</ele><time>2026-04-26T07:15:13.005Z</time></trkpt><trkpt lat="42.75766292942605" lon="10.294977111747063"><ele>33.2</ele><time>2026-04-26T07:15:14.005Z</time></trkpt><trkpt lat="42.75758975160778" lon="10.294925524465832"><ele>34.400000000000006</ele><time>2026-04-26T07:15:15.005Z</time></trkpt><trkpt lat="42.757525374990394" lon="10.294839760734453"><ele>35.599999999999994</ele><time>2026-04-26T07:15:16.005Z</time></trkpt><trkpt lat="42.75748031742214" lon="10.29473762650754"><ele>36.8</ele><time>2026-04-26T07:15:17.005Z</time></trkpt><trkpt lat="42.757429385820785" lon="10.294611598613397"><ele>38.0</ele><time>2026-04-26T07:15:18.005Z</time></trkpt><trkpt lat="42.7573608049416" lon="10.29447123785485"><ele>38.0</ele><time>2026-04-26T07:15:19.005Z</time></trkpt><trkpt lat="42.75728455275881" lon="10.294349422594191"><ele>38.0</ele><time>2026-04-26T07:15:20.005Z</time></trkpt><trkpt lat="42.757214526246116" lon="10.294254993857994"><ele>38.0</ele><time>2026-04-26T07:15:21.005Z</time></trkpt><trkpt lat="42.75716048059477" lon="10.294142835186559"><ele>38.0</ele><time>2026-04-26T07:15:22.005Z</time></trkpt><trkpt lat="42.7570821298786" lon="10.294075105163932"><ele>38.0</ele><time>2026-04-26T07:15:23.005Z</time></trkpt><trkpt lat="42.756988932523946" lon="10.293957349910452"><ele>37.6</ele><time>2026-04-26T07:15:25.005Z</time></trkpt><trkpt lat="42.756949546257104" lon="10.293882079308045"><ele>37.199999999999996</ele><time>2026-04-26T07:15:26.005Z</time></trkpt><trkpt lat="42.756839739642515" lon="10.293821026109585"><ele>36.8</ele><time>2026-04-26T07:15:28.005Z</time></trkpt><trkpt lat="42.75673855905618" lon="10.293793833668424"><ele>36.4</ele><time>2026-04-26T07:15:29.005Z</time></trkpt><trkpt lat="42.756660063676904" lon="10.293734622757054"><ele>36.0</ele><time>2026-04-26T07:15:30.005Z</time></trkpt><trkpt lat="42.75660887819139" lon="10.293659538375207"><ele>36.0</ele><time>2026-04-26T07:15:31.005Z</time></trkpt><trkpt lat="42.75655083754071" lon="10.293571069967678"><ele>36.0</ele><time>2026-04-26T07:15:32.005Z</time></trkpt><trkpt lat="42.75649098020637" lon="10.293473982840608"><ele>36.0</ele><time>2026-04-26T07:15:33.005Z</time></trkpt><trkpt lat="42.756437690204805" lon="10.293400549476752"><ele>36.0</ele><time>2026-04-26T07:15:34.005Z</time></trkpt><trkpt lat="42.75636705069798" lon="10.29333323075264"><ele>36.0</ele><time>2026-04-26T07:15:35.005Z</time></trkpt><trkpt lat="42.75627657796126" lon="10.29322124558156"><ele>36.0</ele><time>2026-04-26T07:15:36.005Z</time></trkpt><trkpt lat="42.756203231783566" lon="10.293102995070472"><ele>36.0</ele><time>2026-04-26T07:15:37.005Z</time></trkpt><trkpt lat="42.75613172768354" lon="10.292976760370156"><ele>36.0</ele><time>2026-04-26T07:15:38.005Z</time></trkpt><trkpt lat="42.75607462900697" lon="10.29288378051862"><ele>36.0</ele><time>2026-04-26T07:15:39.005Z</time></trkpt><trkpt lat="42.756012738423756" lon="10.292821666647336"><ele>36.0</ele><time>2026-04-26T07:15:40.005Z</time></trkpt><trkpt lat="42.75594332460675" lon="10.292758582970713"><ele>35.2</ele><time>2026-04-26T07:15:41.005Z</time></trkpt><trkpt lat="42.75586630360337" lon="10.292723920109887"><ele>34.400000000000006</ele><time>2026-04-26T07:15:42.005Z</time></trkpt><trkpt lat="42.75578638885746" lon="10.29268751019062"><ele>33.6</ele><time>2026-04-26T07:15:43.005Z</time></trkpt><trkpt lat="42.755714949128325" lon="10.292629439509117"><ele>32.800000000000004</ele><time>2026-04-26T07:15:44.005Z</time></trkpt><trkpt lat="42.755671185684484" lon="10.292563404034663"><ele>32.0</ele><time>2026-04-26T07:15:45.005Z</time></trkpt><trkpt lat="42.75563415242633" lon="10.292352302329624"><ele>32.0</ele><time>2026-04-26T07:15:47.005Z</time></trkpt><trkpt lat="42.755591265174424" lon="10.29228600439233"><ele>32.0</ele><time>2026-04-26T07:15:48.005Z</time></trkpt><trkpt lat="42.75551260680815" lon="10.29224589057191"><ele>32.0</ele><time>2026-04-26T07:15:49.005Z</time></trkpt><trkpt lat="42.75541380389417" lon="10.292208510702801"><ele>32.0</ele><time>2026-04-26T07:15:50.005Z</time></trkpt><trkpt lat="42.75532589686584" lon="10.292132556402619"><ele>32.0</ele><time>2026-04-26T07:15:51.005Z</time></trkpt><trkpt lat="42.7552537484684" lon="10.292038191496575"><ele>32.2</ele><time>2026-04-26T07:15:52.005Z</time></trkpt><trkpt lat="42.75518390442277" lon="10.291946035542024"><ele>32.400000000000006</ele><time>2026-04-26T07:15:53.005Z</time></trkpt><trkpt lat="42.755132919608386" lon="10.291831259229681"><ele>32.599999999999994</ele><time>2026-04-26T07:15:54.005Z</time></trkpt><trkpt lat="42.75509057833285" lon="10.29167750082353"><ele>32.8</ele><time>2026-04-26T07:15:55.005Z</time></trkpt><trkpt lat="42.7550421068851" lon="10.291526689250349"><ele>33.0</ele><time>2026-04-26T07:15:56.005Z</time></trkpt><trkpt lat="42.75500179391217" lon="10.291359150231019"><ele>33.0</ele><time>2026-04-26T07:15:57.005Z</time></trkpt><trkpt lat="42.75497465920391" lon="10.291224919137584"><ele>33.0</ele><time>2026-04-26T07:15:58.005Z</time></trkpt><trkpt lat="42.7549704057062" lon="10.291093343249871"><ele>33.0</ele><time>2026-04-26T07:15:59.005Z</time></trkpt><trkpt lat="42.75498174124405" lon="10.290950800658523"><ele>33.0</ele><time>2026-04-26T07:16:00.005Z</time></trkpt><trkpt lat="42.755000568921915" lon="10.290817349256093"><ele>33.0</ele><time>2026-04-26T07:16:01.005Z</time></trkpt><trkpt lat="42.75501249256344" lon="10.29071086099826"><ele>33.0</ele><time>2026-04-26T07:16:02.005Z</time></trkpt><trkpt lat="42.75501776787837" lon="10.29062245778738"><ele>33.0</ele><time>2026-04-26T07:16:03.005Z</time></trkpt><trkpt lat="42.75499353793184" lon="10.290532336156367"><ele>33.0</ele><time>2026-04-26T07:16:04.005Z</time></trkpt><trkpt lat="42.75495828645864" lon="10.290434083771478"><ele>33.0</ele><time>2026-04-26T07:16:05.005Z</time></trkpt><trkpt lat="42.75492523065722" lon="10.29032549317842"><ele>33.0</ele><time>2026-04-26T07:16:06.005Z</time></trkpt><trkpt lat="42.75489241590574" lon="10.290206273517343"><ele>33.0</ele><time>2026-04-26T07:16:07.005Z</time></trkpt><trkpt lat="42.75485742438399" lon="10.290099644893816"><ele>34.8</ele><time>2026-04-26T07:16:08.005Z</time></trkpt><trkpt lat="42.75482399996169" lon="10.290013489435847"><ele>36.599999999999994</ele><time>2026-04-26T07:16:09.005Z</time></trkpt><trkpt lat="42.75476680649267" lon="10.289871622078872"><ele>38.400000000000006</ele><time>2026-04-26T07:16:11.005Z</time></trkpt><trkpt lat="42.754705328419966" lon="10.289712202465207"><ele>40.2</ele><time>2026-04-26T07:16:13.005Z</time></trkpt><trkpt lat="42.754675209668115" lon="10.289631495805631"><ele>42.0</ele><time>2026-04-26T07:16:14.005Z</time></trkpt><trkpt lat="42.75464325505782" lon="10.289556681105006"><ele>44.14285714285714</ele><time>2026-04-26T07:16:15.005Z</time></trkpt><trkpt lat="42.75461541902437" lon="10.28947560936179"><ele>46.285714285714285</ele><time>2026-04-26T07:16:16.004Z</time></trkpt><trkpt lat="42.7545896320208" lon="10.289388130660727"><ele>48.42857142857143</ele><time>2026-04-26T07:16:17.004Z</time></trkpt><trkpt lat="42.754569123470226" lon="10.289300361851932"><ele>50.57142857142857</ele><time>2026-04-26T07:16:18.004Z</time></trkpt><trkpt lat="42.75454956840207" lon="10.289195406225367"><ele>52.71428571428571</ele><time>2026-04-26T07:16:19.004Z</time></trkpt><trkpt lat="42.75451885377272" lon="10.289101877806363"><ele>54.857142857142854</ele><time>2026-04-26T07:16:20.004Z</time></trkpt><trkpt lat="42.754493341105196" lon="10.289001779987201"><ele>57.0</ele><time>2026-04-26T07:16:21.004Z</time></trkpt><trkpt lat="42.75448559536652" lon="10.288896322421664"><ele>56.8</ele><time>2026-04-26T07:16:22.004Z</time></trkpt><trkpt lat="42.754479713696924" lon="10.288743570779285"><ele>56.6</ele><time>2026-04-26T07:16:24.004Z</time></trkpt><trkpt lat="42.754394864842375" lon="10.288638168222288"><ele>56.39999999999999</ele><time>2026-04-26T07:16:26.004Z</time></trkpt><trkpt lat="42.75432559012026" lon="10.288626387976102"><ele>56.199999999999996</ele><time>2026-04-26T07:16:27.004Z</time></trkpt><trkpt lat="42.754248290174615" lon="10.288645454367755"><ele>56.0</ele><time>2026-04-26T07:16:28.004Z</time></trkpt><trkpt lat="42.75416520206595" lon="10.288699807035838"><ele>56.0</ele><time>2026-04-26T07:16:29.004Z</time></trkpt><trkpt lat="42.75407616063926" lon="10.288762170881546"><ele>55.99999999999999</ele><time>2026-04-26T07:16:30.004Z</time></trkpt><trkpt lat="42.75398715492968" lon="10.288798406869445"><ele>55.99999999999999</ele><time>2026-04-26T07:16:31.004Z</time></trkpt><trkpt lat="42.75390313346229" lon="10.288811664261122"><ele>56.0</ele><time>2026-04-26T07:16:32.004Z</time></trkpt><trkpt lat="42.753811041341805" lon="10.28880257735084"><ele>56.0</ele><time>2026-04-26T07:16:33.004Z</time></trkpt><trkpt lat="42.753718453036775" lon="10.288776405554355"><ele>56.0</ele><time>2026-04-26T07:16:34.004Z</time></trkpt><trkpt lat="42.75363887050557" lon="10.288714395610631"><ele>55.99999999999999</ele><time>2026-04-26T07:16:35.004Z</time></trkpt><trkpt lat="42.753566827078565" lon="10.288640716116321"><ele>55.99999999999999</ele><time>2026-04-26T07:16:36.004Z</time></trkpt><trkpt lat="42.75349929596617" lon="10.288550277811098"><ele>56.0</ele><time>2026-04-26T07:16:37.004Z</time></trkpt><trkpt lat="42.753435315474945" lon="10.288438137046956"><ele>56.0</ele><time>2026-04-26T07:16:38.004Z</time></trkpt><trkpt lat="42.753384966421244" lon="10.288327117653557"><ele>54.66666666666667</ele><time>2026-04-26T07:16:39.004Z</time></trkpt><trkpt lat="42.753340576992535" lon="10.288212784705753"><ele>53.333333333333336</ele><time>2026-04-26T07:16:40.004Z</time></trkpt><trkpt lat="42.75331360170399" lon="10.288112989767326"><ele>52.0</ele><time>2026-04-26T07:16:41.004Z</time></trkpt><trkpt lat="42.75330095216296" lon="10.288010421328549"><ele>50.66666666666667</ele><time>2026-04-26T07:16:42.004Z</time></trkpt><trkpt lat="42.753285926297146" lon="10.287919524174741"><ele>49.333333333333336</ele><time>2026-04-26T07:16:43.004Z</time></trkpt><trkpt lat="42.753223405578794" lon="10.287869688049863"><ele>48.0</ele><time>2026-04-26T07:16:45.004Z</time></trkpt><trkpt lat="42.75312000234429" lon="10.287972886143123"><ele>48.0</ele><time>2026-04-26T07:16:47.004Z</time></trkpt><trkpt lat="42.753084542264176" lon="10.288063444103123"><ele>48.0</ele><time>2026-04-26T07:16:48.004Z</time></trkpt><trkpt lat="42.753033019474834" lon="10.288160549470867"><ele>48.0</ele><time>2026-04-26T07:16:49.004Z</time></trkpt><trkpt lat="42.753003904571614" lon="10.288247894070203"><ele>48.0</ele><time>2026-04-26T07:16:50.004Z</time></trkpt><trkpt lat="42.75296618998284" lon="10.288323921294053"><ele>48.0</ele><time>2026-04-26T07:16:51.004Z</time></trkpt><trkpt lat="42.752900971496615" lon="10.28844597976021"><ele>48.0</ele><time>2026-04-26T07:16:53.004Z</time></trkpt><trkpt lat="42.75283919210757" lon="10.288528598382491"><ele>48.0</ele><time>2026-04-26T07:16:54.004Z</time></trkpt><trkpt lat="42.75277687222924" lon="10.288600723582073"><ele>48.0</ele><time>2026-04-26T07:16:55.004Z</time></trkpt><trkpt lat="42.75272217047623" lon="10.288649172023915"><ele>48.0</ele><time>2026-04-26T07:16:56.004Z</time></trkpt><trkpt lat="42.75266125545713" lon="10.288696010259747"><ele>48.0</ele><time>2026-04-26T07:16:58.004Z</time></trkpt><trkpt lat="42.75258150509889" lon="10.28873774472125"><ele>48.0</ele><time>2026-04-26T07:17:00.006Z</time></trkpt><trkpt lat="42.752496001370865" lon="10.288775199810779"><ele>48.0</ele><time>2026-04-26T07:17:02.006Z</time></trkpt><trkpt lat="42.75239866756273" lon="10.288813726016691"><ele>51.8</ele><time>2026-04-26T07:17:04.006Z</time></trkpt><trkpt lat="42.752293299868626" lon="10.288811616577432"><ele>55.599999999999994</ele><time>2026-04-26T07:17:06.006Z</time></trkpt><trkpt lat="42.75219821054581" lon="10.288809682746045"><ele>59.400000000000006</ele><time>2026-04-26T07:17:08.007Z</time></trkpt><trkpt lat="42.75210683320711" lon="10.288808181576476"><ele>63.2</ele><time>2026-04-26T07:17:10.006Z</time></trkpt><trkpt lat="42.75201548051041" lon="10.288784799192227"><ele>67.0</ele><time>2026-04-26T07:17:12.006Z</time></trkpt><trkpt lat="42.75193370858484" lon="10.288754773418054"><ele>69.4</ele><time>2026-04-26T07:17:15.006Z</time></trkpt><trkpt lat="42.751848775561555" lon="10.288706435927141"><ele>71.80000000000001</ele><time>2026-04-26T07:17:27.006Z</time></trkpt><trkpt lat="42.751767870424914" lon="10.288645469786767"><ele>74.2</ele><time>2026-04-26T07:17:29.006Z</time></trkpt><trkpt lat="42.75166089117336" lon="10.288569418155967"><ele>76.60000000000001</ele><time>2026-04-26T07:17:31.006Z</time></trkpt><trkpt lat="42.751575664607444" lon="10.288500025108371"><ele>79.0</ele><time>2026-04-26T07:17:33.006Z</time></trkpt><trkpt lat="42.75152439907163" lon="10.288421036836272"><ele>79.0</ele><time>2026-04-26T07:17:35.006Z</time></trkpt><trkpt lat="42.75144607019801" lon="10.288366170434704"><ele>79.0</ele><time>2026-04-26T07:17:37.006Z</time></trkpt><trkpt lat="42.75136335221081" lon="10.288323061392392"><ele>79.0</ele><time>2026-04-26T07:17:39.006Z</time></trkpt><trkpt lat="42.75130820283804" lon="10.288267758528649"><ele>79.0</ele><time>2026-04-26T07:17:41.006Z</time></trkpt><trkpt lat="42.75124987395596" lon="10.288193336423578"><ele>79.0</ele><time>2026-04-26T07:17:43.006Z</time></trkpt><trkpt lat="42.751175851417585" lon="10.288151898993018"><ele>79.0</ele><time>2026-04-26T07:17:45.006Z</time></trkpt><trkpt lat="42.751102125046174" lon="10.288120625209821"><ele>78.4</ele><time>2026-04-26T07:17:47.006Z</time></trkpt><trkpt lat="42.751004113482765" lon="10.288098468254708"><ele>77.80000000000001</ele><time>2026-04-26T07:17:49.006Z</time></trkpt><trkpt lat="42.75091991990939" lon="10.288090930808874"><ele>77.19999999999999</ele><time>2026-04-26T07:17:51.006Z</time></trkpt><trkpt lat="42.75082334383297" lon="10.288114938548398"><ele>76.6</ele><time>2026-04-26T07:17:53.006Z</time></trkpt><trkpt lat="42.75073394520297" lon="10.288125173644758"><ele>76.0</ele><time>2026-04-26T07:17:55.006Z</time></trkpt><trkpt lat="42.75063760220894" lon="10.28814100334171"><ele>76.0</ele><time>2026-04-26T07:17:57.006Z</time></trkpt><trkpt lat="42.75053055249894" lon="10.288145923413637"><ele>76.0</ele><time>2026-04-26T07:17:59.006Z</time></trkpt><trkpt lat="42.75044559829464" lon="10.28810418236264"><ele>76.0</ele><time>2026-04-26T07:18:01.006Z</time></trkpt><trkpt lat="42.7503907428714" lon="10.288005437732862"><ele>76.0</ele><time>2026-04-26T07:18:03.005Z</time></trkpt><trkpt lat="42.75034944715313" lon="10.287911440083255"><ele>76.0</ele><time>2026-04-26T07:18:06.005Z</time></trkpt><trkpt lat="42.75031429510893" lon="10.28781168504021"><ele>79.66666666666666</ele><time>2026-04-26T07:18:08.005Z</time></trkpt><trkpt lat="42.75033964196379" lon="10.287724982150545"><ele>83.33333333333333</ele><time>2026-04-26T07:18:21.005Z</time></trkpt><trkpt lat="42.7503902112775" lon="10.287671587458345"><ele>87.0</ele><time>2026-04-26T07:18:23.005Z</time></trkpt><trkpt lat="42.75047677426905" lon="10.287641279621102"><ele>90.66666666666666</ele><time>2026-04-26T07:18:25.005Z</time></trkpt><trkpt lat="42.75054865236325" lon="10.287624852599313"><ele>94.33333333333333</ele><time>2026-04-26T07:18:26.005Z</time></trkpt><trkpt lat="42.75062518806299" lon="10.287605645799124"><ele>98.0</ele><time>2026-04-26T07:18:27.005Z</time></trkpt><trkpt lat="42.75070489539194" lon="10.287582817309268"><ele>97.99999999999999</ele><time>2026-04-26T07:18:28.005Z</time></trkpt><trkpt lat="42.75078583758522" lon="10.287569607668479"><ele>98.0</ele><time>2026-04-26T07:18:29.005Z</time></trkpt><trkpt lat="42.75085632446968" lon="10.28756593054901"><ele>98.0</ele><time>2026-04-26T07:18:30.005Z</time></trkpt><trkpt lat="42.7509363682041" lon="10.287560362063555"><ele>98.0</ele><time>2026-04-26T07:18:31.005Z</time></trkpt><trkpt lat="42.751015038511476" lon="10.287553617971776"><ele>97.99999999999999</ele><time>2026-04-26T07:18:32.005Z</time></trkpt><trkpt lat="42.75108946277559" lon="10.287551820619854"><ele>98.0</ele><time>2026-04-26T07:18:33.005Z</time></trkpt><trkpt lat="42.75116261405447" lon="10.287552893129037"><ele>99.60000000000001</ele><time>2026-04-26T07:18:34.005Z</time></trkpt><trkpt lat="42.751282708301915" lon="10.287580727299293"><ele>101.2</ele><time>2026-04-26T07:18:36.005Z</time></trkpt><trkpt lat="42.75134643581293" lon="10.287605867715786"><ele>102.8</ele><time>2026-04-26T07:18:37.005Z</time></trkpt><trkpt lat="42.75144830566371" lon="10.287650555137862"><ele>104.4</ele><time>2026-04-26T07:18:39.005Z</time></trkpt><trkpt lat="42.751534364194484" lon="10.287704133884732"><ele>106.0</ele><time>2026-04-26T07:18:41.005Z</time></trkpt><trkpt lat="42.75162416207063" lon="10.287740601007103"><ele>106.0</ele><time>2026-04-26T07:18:43.005Z</time></trkpt><trkpt lat="42.75174357759238" lon="10.28771603907754"><ele>106.0</ele><time>2026-04-26T07:18:45.005Z</time></trkpt><trkpt lat="42.75181302428727" lon="10.287679007597818"><ele>106.0</ele><time>2026-04-26T07:18:46.005Z</time></trkpt><trkpt lat="42.75189730864574" lon="10.287633740769367"><ele>106.0</ele><time>2026-04-26T07:18:47.005Z</time></trkpt><trkpt lat="42.75197344411078" lon="10.28759641989288"><ele>106.0</ele><time>2026-04-26T07:18:48.005Z</time></trkpt><trkpt lat="42.75205887412863" lon="10.287515860818537"><ele>104.16666666666667</ele><time>2026-04-26T07:18:50.005Z</time></trkpt><trkpt lat="42.752102156014566" lon="10.287377543589411"><ele>102.33333333333334</ele><time>2026-04-26T07:18:52.005Z</time></trkpt><trkpt lat="42.752116127203216" lon="10.287290148475824"><ele>100.5</ele><time>2026-04-26T07:18:53.005Z</time></trkpt><trkpt lat="42.75211991257704" lon="10.287202146694762"><ele>98.66666666666667</ele><time>2026-04-26T07:18:54.005Z</time></trkpt><trkpt lat="42.75213897378413" lon="10.287084185061008"><ele>96.83333333333334</ele><time>2026-04-26T07:18:55.005Z</time></trkpt><trkpt lat="42.75217190963418" lon="10.286939634281833"><ele>95.0</ele><time>2026-04-26T07:18:56.005Z</time></trkpt><trkpt lat="42.75218963480666" lon="10.286840877096672"><ele>95.0</ele><time>2026-04-26T07:18:57.005Z</time></trkpt><trkpt lat="42.752201261998565" lon="10.28673261041796"><ele>95.0</ele><time>2026-04-26T07:18:58.005Z</time></trkpt><trkpt lat="42.75219560164518" lon="10.286611241212631"><ele>95.0</ele><time>2026-04-26T07:18:59.005Z</time></trkpt><trkpt lat="42.75218963302676" lon="10.286478727550664"><ele>95.0</ele><time>2026-04-26T07:19:00.005Z</time></trkpt><trkpt lat="42.752195049651206" lon="10.286364947535708"><ele>95.0</ele><time>2026-04-26T07:19:01.005Z</time></trkpt><trkpt lat="42.75221246095076" lon="10.28626979989972"><ele>95.0</ele><time>2026-04-26T07:19:02.005Z</time></trkpt><trkpt lat="42.75224167234522" lon="10.286164168296365"><ele>96.66666666666667</ele><time>2026-04-26T07:19:03.005Z</time></trkpt><trkpt lat="42.75226880861505" lon="10.286065420873062"><ele>98.33333333333334</ele><time>2026-04-26T07:19:04.005Z</time></trkpt><trkpt lat="42.752290981865045" lon="10.2859325718427"><ele>100.0</ele><time>2026-04-26T07:19:06.007Z</time></trkpt><trkpt lat="42.75228274430128" lon="10.285841524498617"><ele>101.66666666666667</ele><time>2026-04-26T07:19:07.006Z</time></trkpt><trkpt lat="42.7522665760517" lon="10.28570997138194"><ele>103.33333333333333</ele><time>2026-04-26T07:19:09.007Z</time></trkpt><trkpt lat="42.75222788435536" lon="10.285585206019212"><ele>105.0</ele><time>2026-04-26T07:19:11.007Z</time></trkpt><trkpt lat="42.75221795371393" lon="10.285493974236397"><ele>107.33333333333333</ele><time>2026-04-26T07:19:12.007Z</time></trkpt><trkpt lat="42.752196766160374" lon="10.285340142566596"><ele>109.66666666666666</ele><time>2026-04-26T07:19:14.007Z</time></trkpt><trkpt lat="42.75219280427432" lon="10.285246719733198"><ele>112.0</ele><time>2026-04-26T07:19:15.007Z</time></trkpt><trkpt lat="42.75217139872352" lon="10.285161512214442"><ele>114.33333333333333</ele><time>2026-04-26T07:19:16.007Z</time></trkpt><trkpt lat="42.752132406278456" lon="10.285080077430795"><ele>116.66666666666666</ele><time>2026-04-26T07:19:17.006Z</time></trkpt><trkpt lat="42.752094996019544" lon="10.284935854801095"><ele>119.0</ele><time>2026-04-26T07:19:19.007Z</time></trkpt><trkpt lat="42.75211914955253" lon="10.28485011672921"><ele>119.0</ele><time>2026-04-26T07:19:20.007Z</time></trkpt><trkpt lat="42.75215888797168" lon="10.284773099809167"><ele>119.0</ele><time>2026-04-26T07:19:21.007Z</time></trkpt><trkpt lat="42.75224958478683" lon="10.28473640012242"><ele>119.0</ele><time>2026-04-26T07:19:23.007Z</time></trkpt><trkpt lat="42.752357193053626" lon="10.284739460949602"><ele>119.0</ele><time>2026-04-26T07:19:25.007Z</time></trkpt><trkpt lat="42.752468548173375" lon="10.284761030094852"><ele>119.0</ele><time>2026-04-26T07:19:27.007Z</time></trkpt><trkpt lat="42.752563470277494" lon="10.284796515258142"><ele>119.0</ele><time>2026-04-26T07:19:29.007Z</time></trkpt><trkpt lat="42.7526598718296" lon="10.284812725568045"><ele>119.0</ele><time>2026-04-26T07:19:31.007Z</time></trkpt><trkpt lat="42.752776541296484" lon="10.284830911440183"><ele>119.0</ele><time>2026-04-26T07:19:33.007Z</time></trkpt><trkpt lat="42.75289747599394" lon="10.284819977689347"><ele>119.0</ele><time>2026-04-26T07:19:35.007Z</time></trkpt><trkpt lat="42.752976203447865" lon="10.284807142848326"><ele>119.0</ele><time>2026-04-26T07:19:36.007Z</time></trkpt><trkpt lat="42.753043624365915" lon="10.284792000202936"><ele>120.99999999999999</ele><time>2026-04-26T07:19:37.007Z</time></trkpt><trkpt lat="42.75312981640526" lon="10.284767344486898"><ele>123.0</ele><time>2026-04-26T07:19:38.007Z</time></trkpt><trkpt lat="42.75321342422038" lon="10.284738893885084"><ele>125.0</ele><time>2026-04-26T07:19:39.007Z</time></trkpt><trkpt lat="42.75328535657953" lon="10.284704654985118"><ele>127.0</ele><time>2026-04-26T07:19:40.007Z</time></trkpt><trkpt lat="42.753345743739054" lon="10.284676045831537"><ele>129.0</ele><time>2026-04-26T07:19:41.007Z</time></trkpt><trkpt lat="42.75342544102191" lon="10.284679767023192"><ele>131.0</ele><time>2026-04-26T07:19:43.007Z</time></trkpt><trkpt lat="42.75350662368916" lon="10.284807997175585"><ele>135.71428571428572</ele><time>2026-04-26T07:19:45.007Z</time></trkpt><trkpt lat="42.75353986559228" lon="10.284888045576446"><ele>140.42857142857144</ele><time>2026-04-26T07:19:46.007Z</time></trkpt><trkpt lat="42.75357221866662" lon="10.284973411633132"><ele>145.14285714285714</ele><time>2026-04-26T07:19:47.007Z</time></trkpt><trkpt lat="42.75361410554146" lon="10.285047438066544"><ele>149.85714285714286</ele><time>2026-04-26T07:19:48.007Z</time></trkpt><trkpt lat="42.75365242236635" lon="10.285129052277806"><ele>154.57142857142856</ele><time>2026-04-26T07:19:49.007Z</time></trkpt><trkpt lat="42.753699759168335" lon="10.285225250537463"><ele>159.28571428571428</ele><time>2026-04-26T07:19:50.007Z</time></trkpt><trkpt lat="42.75373549134461" lon="10.285311438247202"><ele>164.0</ele><time>2026-04-26T07:19:51.007Z</time></trkpt><trkpt lat="42.75376571454413" lon="10.28539636802229"><ele>164.0</ele><time>2026-04-26T07:19:52.007Z</time></trkpt><trkpt lat="42.75379250621606" lon="10.285492067962059"><ele>164.0</ele><time>2026-04-26T07:19:53.007Z</time></trkpt><trkpt lat="42.75382776914204" lon="10.285582163882234"><ele>164.0</ele><time>2026-04-26T07:19:54.006Z</time></trkpt><trkpt lat="42.75387246233841" lon="10.285738786391684"><ele>164.0</ele><time>2026-04-26T07:19:56.006Z</time></trkpt><trkpt lat="42.75390288824657" lon="10.285827697756675"><ele>164.0</ele><time>2026-04-26T07:19:57.006Z</time></trkpt><trkpt lat="42.75394494378404" lon="10.285976668338444"><ele>160.85714285714283</ele><time>2026-04-26T07:19:59.006Z</time></trkpt><trkpt lat="42.75400427893541" lon="10.286091861574025"><ele>157.71428571428572</ele><time>2026-04-26T07:20:01.006Z</time></trkpt><trkpt lat="42.75405510146562" lon="10.286149686338282"><ele>154.57142857142856</ele><time>2026-04-26T07:20:02.006Z</time></trkpt><trkpt lat="42.754109393065384" lon="10.286216368024593"><ele>151.42857142857142</ele><time>2026-04-26T07:20:03.006Z</time></trkpt><trkpt lat="42.75415878348802" lon="10.28627692904995"><ele>148.28571428571428</ele><time>2026-04-26T07:20:04.006Z</time></trkpt><trkpt lat="42.75421310568041" lon="10.286331305389798"><ele>145.14285714285714</ele><time>2026-04-26T07:20:05.006Z</time></trkpt><trkpt lat="42.75427395344178" lon="10.286369629924167"><ele>142.0</ele><time>2026-04-26T07:20:06.006Z</time></trkpt><trkpt lat="42.75433837851699" lon="10.28637204131188"><ele>139.16666666666669</ele><time>2026-04-26T07:20:07.006Z</time></trkpt><trkpt lat="42.75440114771976" lon="10.286344990443393"><ele>136.33333333333334</ele><time>2026-04-26T07:20:08.006Z</time></trkpt><trkpt lat="42.754461626064234" lon="10.286305020734316"><ele>133.5</ele><time>2026-04-26T07:20:09.006Z</time></trkpt><trkpt lat="42.75451442529624" lon="10.286241157108474"><ele>130.66666666666666</ele><time>2026-04-26T07:20:10.006Z</time></trkpt><trkpt lat="42.75455585490494" lon="10.286165579439544"><ele>127.83333333333333</ele><time>2026-04-26T07:20:11.006Z</time></trkpt><trkpt lat="42.7545886936125" lon="10.28608537525624"><ele>125.0</ele><time>2026-04-26T07:20:12.006Z</time></trkpt><trkpt lat="42.754632640595204" lon="10.285941833135919"><ele>125.0</ele><time>2026-04-26T07:20:14.006Z</time></trkpt><trkpt lat="42.754665921390696" lon="10.285817205996546"><ele>125.0</ele><time>2026-04-26T07:20:16.006Z</time></trkpt><trkpt lat="42.754721530304465" lon="10.28572632754103"><ele>125.0</ele><time>2026-04-26T07:20:18.006Z</time></trkpt><trkpt lat="42.754749523019356" lon="10.285636137189268"><ele>125.0</ele><time>2026-04-26T07:20:20.006Z</time></trkpt><trkpt lat="42.754798022966995" lon="10.285473066442094"><ele>125.0</ele><time>2026-04-26T07:20:22.006Z</time></trkpt><trkpt lat="42.75482975277444" lon="10.285387569058669"><ele>129.5</ele><time>2026-04-26T07:20:23.006Z</time></trkpt><trkpt lat="42.75486134283018" lon="10.28529246213149"><ele>134.0</ele><time>2026-04-26T07:20:24.006Z</time></trkpt><trkpt lat="42.754901762047" lon="10.285195212460168"><ele>138.5</ele><time>2026-04-26T07:20:25.006Z</time></trkpt><trkpt lat="42.75494683608468" lon="10.285111427140087"><ele>143.0</ele><time>2026-04-26T07:20:26.006Z</time></trkpt><trkpt lat="42.75498728153871" lon="10.285032044166792"><ele>147.5</ele><time>2026-04-26T07:20:27.006Z</time></trkpt><trkpt lat="42.75501919672279" lon="10.284954844070967"><ele>152.0</ele><time>2026-04-26T07:20:28.006Z</time></trkpt><trkpt lat="42.7550828622411" lon="10.28482395115684"><ele>156.5</ele><time>2026-04-26T07:20:30.006Z</time></trkpt><trkpt lat="42.75518826324506" lon="10.284707994927729"><ele>161.0</ele><time>2026-04-26T07:20:32.006Z</time></trkpt><trkpt lat="42.75524800217897" lon="10.284625385679306"><ele>165.5</ele><time>2026-04-26T07:20:33.006Z</time></trkpt><trkpt lat="42.755292737641376" lon="10.284559755670594"><ele>170.0</ele><time>2026-04-26T07:20:34.006Z</time></trkpt><trkpt lat="42.7553438700605" lon="10.284501042696936"><ele>174.5</ele><time>2026-04-26T07:20:35.006Z</time></trkpt><trkpt lat="42.755397774582676" lon="10.284408298364259"><ele>179.0</ele><time>2026-04-26T07:20:36.006Z</time></trkpt><trkpt lat="42.755449420554164" lon="10.284304389400393"><ele>179.0</ele><time>2026-04-26T07:20:37.006Z</time></trkpt><trkpt lat="42.75550629200093" lon="10.284220820639181"><ele>179.0</ele><time>2026-04-26T07:20:39.006Z</time></trkpt><trkpt lat="42.75561851780316" lon="10.284316276669994"><ele>179.0</ele><time>2026-04-26T07:20:42.006Z</time></trkpt><trkpt lat="42.75567569065472" lon="10.284400875700044"><ele>179.0</ele><time>2026-04-26T07:20:43.006Z</time></trkpt><trkpt lat="42.75571951339875" lon="10.284496370127018"><ele>179.0</ele><time>2026-04-26T07:20:44.006Z</time></trkpt><trkpt lat="42.75575474321355" lon="10.284584617723523"><ele>179.0</ele><time>2026-04-26T07:20:45.006Z</time></trkpt><trkpt lat="42.75578673358292" lon="10.284670738785426"><ele>179.0</ele><time>2026-04-26T07:20:46.006Z</time></trkpt><trkpt lat="42.755822267620054" lon="10.284763266956094"><ele>179.0</ele><time>2026-04-26T07:20:47.006Z</time></trkpt><trkpt lat="42.75587042118174" lon="10.284855967335782"><ele>179.0</ele><time>2026-04-26T07:20:48.006Z</time></trkpt><trkpt lat="42.755929567260324" lon="10.284952580009021"><ele>179.0</ele><time>2026-04-26T07:20:49.006Z</time></trkpt><trkpt lat="42.755989411478076" lon="10.285044776178806"><ele>179.0</ele><time>2026-04-26T07:20:50.006Z</time></trkpt><trkpt lat="42.75604122730626" lon="10.285133480059471"><ele>181.0</ele><time>2026-04-26T07:20:51.006Z</time></trkpt><trkpt lat="42.75609809714172" lon="10.285220551042178"><ele>183.0</ele><time>2026-04-26T07:20:52.006Z</time></trkpt><trkpt lat="42.756148806672435" lon="10.28530994983719"><ele>185.0</ele><time>2026-04-26T07:20:53.006Z</time></trkpt><trkpt lat="42.756217288354556" lon="10.285400460883423"><ele>187.0</ele><time>2026-04-26T07:20:54.006Z</time></trkpt><trkpt lat="42.75628683505316" lon="10.285492071429758"><ele>189.0</ele><time>2026-04-26T07:20:55.006Z</time></trkpt><trkpt lat="42.75635623591736" lon="10.285577610074085"><ele>184.0</ele><time>2026-04-26T07:20:56.006Z</time></trkpt><trkpt lat="42.75641367758104" lon="10.285657681883468"><ele>179.0</ele><time>2026-04-26T07:20:57.006Z</time></trkpt><trkpt lat="42.75648198469587" lon="10.285745274378925"><ele>174.0</ele><time>2026-04-26T07:20:58.006Z</time></trkpt><trkpt lat="42.75654807816985" lon="10.285818986646483"><ele>169.0</ele><time>2026-04-26T07:20:59.005Z</time></trkpt><trkpt lat="42.756621073659275" lon="10.285907171721776"><ele>164.0</ele><time>2026-04-26T07:21:00.005Z</time></trkpt><trkpt lat="42.75668620556949" lon="10.285995102582163"><ele>164.0</ele><time>2026-04-26T07:21:01.005Z</time></trkpt><trkpt lat="42.756744682335615" lon="10.286094388866848"><ele>164.0</ele><time>2026-04-26T07:21:02.005Z</time></trkpt><trkpt lat="42.7567927658969" lon="10.286185262220693"><ele>164.0</ele><time>2026-04-26T07:21:03.005Z</time></trkpt><trkpt lat="42.75687648830778" lon="10.28629944530961"><ele>164.0</ele><time>2026-04-26T07:21:05.005Z</time></trkpt><trkpt lat="42.75697816975784" lon="10.286368331489703"><ele>164.0</ele><time>2026-04-26T07:21:07.005Z</time></trkpt><trkpt lat="42.757092806333034" lon="10.286407550444586"><ele>163.7142857142857</ele><time>2026-04-26T07:21:09.005Z</time></trkpt><trkpt lat="42.7571555243395" lon="10.286425755604748"><ele>163.42857142857142</ele><time>2026-04-26T07:21:10.005Z</time></trkpt><trkpt lat="42.757235234682696" lon="10.28643630434852"><ele>163.14285714285714</ele><time>2026-04-26T07:21:11.007Z</time></trkpt><trkpt lat="42.75730297375499" lon="10.286431030725401"><ele>162.85714285714283</ele><time>2026-04-26T07:21:12.007Z</time></trkpt><trkpt lat="42.757391247152185" lon="10.28641932510836"><ele>162.57142857142856</ele><time>2026-04-26T07:21:14.007Z</time></trkpt><trkpt lat="42.757456883264105" lon="10.286407549095856"><ele>162.28571428571428</ele><time>2026-04-26T07:21:16.007Z</time></trkpt><trkpt lat="42.75752834553568" lon="10.28639889608254"><ele>162.0</ele><time>2026-04-26T07:21:18.007Z</time></trkpt><trkpt lat="42.75762689342697" lon="10.286327990058766"><ele>165.66666666666666</ele><time>2026-04-26T07:21:20.008Z</time></trkpt><trkpt lat="42.757705190007215" lon="10.28628943010376"><ele>169.33333333333334</ele><time>2026-04-26T07:21:21.007Z</time></trkpt><trkpt lat="42.757766114724745" lon="10.28626263037617"><ele>173.0</ele><time>2026-04-26T07:21:22.007Z</time></trkpt><trkpt lat="42.757881050162815" lon="10.286211195085064"><ele>176.66666666666669</ele><time>2026-04-26T07:21:24.006Z</time></trkpt><trkpt lat="42.75794473823679" lon="10.286161273012567"><ele>180.33333333333334</ele><time>2026-04-26T07:21:25.006Z</time></trkpt><trkpt lat="42.75800489581463" lon="10.28609635507509"><ele>184.0</ele><time>2026-04-26T07:21:26.006Z</time></trkpt><trkpt lat="42.75805943476249" lon="10.286028229230974"><ele>184.0</ele><time>2026-04-26T07:21:27.006Z</time></trkpt><trkpt lat="42.75811317783751" lon="10.285979035588895"><ele>184.0</ele><time>2026-04-26T07:21:28.006Z</time></trkpt><trkpt lat="42.75821676292464" lon="10.28589212767348"><ele>184.0</ele><time>2026-04-26T07:21:30.006Z</time></trkpt><trkpt lat="42.75830821948294" lon="10.28583120027574"><ele>184.0</ele><time>2026-04-26T07:21:31.006Z</time></trkpt><trkpt lat="42.75838216073854" lon="10.285808607405096"><ele>184.0</ele><time>2026-04-26T07:21:32.006Z</time></trkpt><trkpt lat="42.758492188907326" lon="10.28578836763273"><ele>184.33333333333334</ele><time>2026-04-26T07:21:34.006Z</time></trkpt><trkpt lat="42.75857689547646" lon="10.28571909305504"><ele>184.66666666666669</ele><time>2026-04-26T07:21:36.006Z</time></trkpt><trkpt lat="42.75861311552378" lon="10.285616134866238"><ele>185.0</ele><time>2026-04-26T07:21:38.006Z</time></trkpt><trkpt lat="42.75860802483288" lon="10.285496119358168"><ele>185.33333333333334</ele><time>2026-04-26T07:21:40.006Z</time></trkpt><trkpt lat="42.75860733773065" lon="10.285383114796224"><ele>185.66666666666666</ele><time>2026-04-26T07:21:42.006Z</time></trkpt><trkpt lat="42.75868791428111" lon="10.28534805454527"><ele>186.0</ele><time>2026-04-26T07:21:44.006Z</time></trkpt><trkpt lat="42.75879626536697" lon="10.285391938597483"><ele>189.4</ele><time>2026-04-26T07:21:46.006Z</time></trkpt><trkpt lat="42.75890529526467" lon="10.285401087036995"><ele>192.8</ele><time>2026-04-26T07:21:48.006Z</time></trkpt><trkpt lat="42.759015801236586" lon="10.285402327241702"><ele>196.20000000000002</ele><time>2026-04-26T07:21:50.006Z</time></trkpt><trkpt lat="42.75908196006908" lon="10.285394987048306"><ele>199.60000000000002</ele><time>2026-04-26T07:21:51.006Z</time></trkpt><trkpt lat="42.75916012899572" lon="10.285405605345094"><ele>203.0</ele><time>2026-04-26T07:21:52.006Z</time></trkpt><trkpt lat="42.759251183899565" lon="10.285413740010219"><ele>203.0</ele><time>2026-04-26T07:21:54.006Z</time></trkpt><trkpt lat="42.75931755277598" lon="10.285378842571276"><ele>203.0</ele><time>2026-04-26T07:21:59.006Z</time></trkpt><trkpt lat="42.75924499494774" lon="10.285294472590758"><ele>203.0</ele><time>2026-04-26T07:23:18.008Z</time></trkpt><trkpt lat="42.75917280353864" lon="10.285239823330349"><ele>203.0</ele><time>2026-04-26T07:23:20.007Z</time></trkpt><trkpt lat="42.75908831405451" lon="10.285155532948119"><ele>203.0</ele><time>2026-04-26T07:23:22.007Z</time></trkpt><trkpt lat="42.75898314823892" lon="10.285001663837049"><ele>203.00000000000003</ele><time>2026-04-26T07:23:24.007Z</time></trkpt><trkpt lat="42.758935844812314" lon="10.284944250565834"><ele>203.0</ele><time>2026-04-26T07:23:25.007Z</time></trkpt><trkpt lat="42.75888143253242" lon="10.284877833027585"><ele>203.0</ele><time>2026-04-26T07:23:26.007Z</time></trkpt><trkpt lat="42.7588249639054" lon="10.28480782243674"><ele>203.0</ele><time>2026-04-26T07:23:27.007Z</time></trkpt><trkpt lat="42.758764887564986" lon="10.284744051037345"><ele>203.00000000000003</ele><time>2026-04-26T07:23:28.007Z</time></trkpt><trkpt lat="42.758694611606174" lon="10.284675605565141"><ele>203.0</ele><time>2026-04-26T07:23:29.008Z</time></trkpt><trkpt lat="42.758629069587826" lon="10.284613895080074"><ele>204.8</ele><time>2026-04-26T07:23:30.007Z</time></trkpt><trkpt lat="42.75856374333765" lon="10.284553158040199"><ele>206.60000000000002</ele><time>2026-04-26T07:23:31.007Z</time></trkpt><trkpt lat="42.758499666677594" lon="10.28449413718113"><ele>208.39999999999998</ele><time>2026-04-26T07:23:32.007Z</time></trkpt><trkpt lat="42.75844414755413" lon="10.284430749605903"><ele>210.2</ele><time>2026-04-26T07:23:33.007Z</time></trkpt><trkpt lat="42.75836449961444" lon="10.284287000769872"><ele>212.0</ele><time>2026-04-26T07:23:35.007Z</time></trkpt><trkpt lat="42.75830843440407" lon="10.284191530810299"><ele>212.8</ele><time>2026-04-26T07:23:36.007Z</time></trkpt><trkpt lat="42.75825398967972" lon="10.2840903247759"><ele>213.6</ele><time>2026-04-26T07:23:37.007Z</time></trkpt><trkpt lat="42.75820638730735" lon="10.284007610401323"><ele>214.40000000000003</ele><time>2026-04-26T07:23:38.007Z</time></trkpt><trkpt lat="42.75810599899031" lon="10.283917326686831"><ele>215.20000000000002</ele><time>2026-04-26T07:23:40.007Z</time></trkpt><trkpt lat="42.75802330816334" lon="10.283921014666593"><ele>216.0</ele><time>2026-04-26T07:23:42.007Z</time></trkpt><trkpt lat="42.757965597685946" lon="10.284056422812345"><ele>216.0</ele><time>2026-04-26T07:23:44.007Z</time></trkpt><trkpt lat="42.757923780146086" lon="10.284135936606488"><ele>216.0</ele><time>2026-04-26T07:23:45.007Z</time></trkpt><trkpt lat="42.75787668936635" lon="10.284217183515086"><ele>216.0</ele><time>2026-04-26T07:23:46.007Z</time></trkpt><trkpt lat="42.75783156031934" lon="10.284277640606094"><ele>216.0</ele><time>2026-04-26T07:23:47.007Z</time></trkpt><trkpt lat="42.757778762989275" lon="10.28432743293591"><ele>216.0</ele><time>2026-04-26T07:23:48.007Z</time></trkpt><trkpt lat="42.757661072795024" lon="10.284401471092137"><ele>216.0</ele><time>2026-04-26T07:23:50.007Z</time></trkpt><trkpt lat="42.757595630802065" lon="10.284444656625203"><ele>217.66666666666666</ele><time>2026-04-26T07:23:51.007Z</time></trkpt><trkpt lat="42.75753218835701" lon="10.284474821535431"><ele>219.33333333333331</ele><time>2026-04-26T07:23:52.007Z</time></trkpt><trkpt lat="42.75746083137325" lon="10.284500069975008"><ele>221.0</ele><time>2026-04-26T07:23:53.007Z</time></trkpt><trkpt lat="42.75737448464491" lon="10.284506495922306"><ele>222.66666666666666</ele><time>2026-04-26T07:23:54.007Z</time></trkpt><trkpt lat="42.75730460299956" lon="10.284471936793413"><ele>224.33333333333331</ele><time>2026-04-26T07:23:55.007Z</time></trkpt><trkpt lat="42.75724845518797" lon="10.28440158210488"><ele>226.0</ele><time>2026-04-26T07:23:56.007Z</time></trkpt><trkpt lat="42.7571789123967" lon="10.284314728806901"><ele>225.99999999999997</ele><time>2026-04-26T07:23:57.007Z</time></trkpt><trkpt lat="42.757102211028354" lon="10.28422837734081"><ele>226.0</ele><time>2026-04-26T07:23:58.007Z</time></trkpt><trkpt lat="42.757041815600324" lon="10.284163316501564"><ele>226.0</ele><time>2026-04-26T07:23:59.007Z</time></trkpt><trkpt lat="42.75698149993855" lon="10.284115298003108"><ele>226.0</ele><time>2026-04-26T07:24:00.007Z</time></trkpt><trkpt lat="42.756916788157305" lon="10.284022985903265"><ele>225.99999999999997</ele><time>2026-04-26T07:24:01.007Z</time></trkpt><trkpt lat="42.75686730627295" lon="10.283933205533963"><ele>226.0</ele><time>2026-04-26T07:24:02.007Z</time></trkpt><trkpt lat="42.75680603896632" lon="10.283808361059508"><ele>228.60000000000002</ele><time>2026-04-26T07:24:03.007Z</time></trkpt><trkpt lat="42.75674518733938" lon="10.283688014526694"><ele>231.20000000000002</ele><time>2026-04-26T07:24:04.007Z</time></trkpt><trkpt lat="42.756683885423726" lon="10.283588233349136"><ele>233.79999999999998</ele><time>2026-04-26T07:24:05.007Z</time></trkpt><trkpt lat="42.75661154844934" lon="10.283502954536015"><ele>236.39999999999998</ele><time>2026-04-26T07:24:06.007Z</time></trkpt><trkpt lat="42.7565333079095" lon="10.283414319128223"><ele>239.0</ele><time>2026-04-26T07:24:07.007Z</time></trkpt><trkpt lat="42.7564610708252" lon="10.283330724539178"><ele>239.00000000000003</ele><time>2026-04-26T07:24:08.007Z</time></trkpt><trkpt lat="42.756395757957655" lon="10.283248917408006"><ele>239.0</ele><time>2026-04-26T07:24:09.007Z</time></trkpt><trkpt lat="42.75634467850051" lon="10.283177308743713"><ele>239.0</ele><time>2026-04-26T07:24:10.007Z</time></trkpt><trkpt lat="42.756314174881496" lon="10.283094243745172"><ele>239.0</ele><time>2026-04-26T07:24:11.007Z</time></trkpt><trkpt lat="42.75630575667347" lon="10.282988908131935"><ele>239.00000000000003</ele><time>2026-04-26T07:24:12.007Z</time></trkpt><trkpt lat="42.75630948655932" lon="10.282878670271462"><ele>239.0</ele><time>2026-04-26T07:24:13.007Z</time></trkpt><trkpt lat="42.75630478621971" lon="10.28278595318782"><ele>241.16666666666669</ele><time>2026-04-26T07:24:14.007Z</time></trkpt><trkpt lat="42.75628534938907" lon="10.282696265461105"><ele>243.33333333333334</ele><time>2026-04-26T07:24:15.007Z</time></trkpt><trkpt lat="42.75625942113955" lon="10.282600824154565"><ele>245.5</ele><time>2026-04-26T07:24:16.007Z</time></trkpt><trkpt lat="42.75623950396635" lon="10.28248793687091"><ele>247.66666666666669</ele><time>2026-04-26T07:24:17.007Z</time></trkpt><trkpt lat="42.75622300998198" lon="10.282384898630163"><ele>249.83333333333334</ele><time>2026-04-26T07:24:18.007Z</time></trkpt><trkpt lat="42.756194796880216" lon="10.282276056818302"><ele>252.0</ele><time>2026-04-26T07:24:19.007Z</time></trkpt><trkpt lat="42.75614606886503" lon="10.282181734640846"><ele>252.66666666666666</ele><time>2026-04-26T07:24:20.007Z</time></trkpt><trkpt lat="42.75607810259527" lon="10.282106530760068"><ele>253.33333333333331</ele><time>2026-04-26T07:24:21.007Z</time></trkpt><trkpt lat="42.75600211687624" lon="10.282043797809392"><ele>254.0</ele><time>2026-04-26T07:24:22.007Z</time></trkpt><trkpt lat="42.75591475028138" lon="10.281968204899686"><ele>254.66666666666666</ele><time>2026-04-26T07:24:23.007Z</time></trkpt><trkpt lat="42.755836684304036" lon="10.281914229499526"><ele>255.33333333333331</ele><time>2026-04-26T07:24:24.007Z</time></trkpt><trkpt lat="42.75576262941544" lon="10.28187069654156"><ele>256.0</ele><time>2026-04-26T07:24:25.007Z</time></trkpt><trkpt lat="42.75569632720768" lon="10.281838749494103"><ele>255.99999999999997</ele><time>2026-04-26T07:24:26.007Z</time></trkpt><trkpt lat="42.755626431653376" lon="10.28178529755344"><ele>256.0</ele><time>2026-04-26T07:24:27.007Z</time></trkpt><trkpt lat="42.755555727171895" lon="10.281721153122545"><ele>256.0</ele><time>2026-04-26T07:24:28.007Z</time></trkpt><trkpt lat="42.75548020058982" lon="10.281648810674763"><ele>256.0</ele><time>2026-04-26T07:24:29.007Z</time></trkpt><trkpt lat="42.75540457464764" lon="10.28158417266998"><ele>255.99999999999997</ele><time>2026-04-26T07:24:30.007Z</time></trkpt><trkpt lat="42.755330542443325" lon="10.281532910111004"><ele>256.0</ele><time>2026-04-26T07:24:31.007Z</time></trkpt><trkpt lat="42.75525406029774" lon="10.281507969144803"><ele>255.8</ele><time>2026-04-26T07:24:32.006Z</time></trkpt><trkpt lat="42.755179697467184" lon="10.281493360007449"><ele>255.60000000000002</ele><time>2026-04-26T07:24:33.006Z</time></trkpt><trkpt lat="42.755084086407145" lon="10.281546338202926"><ele>255.4</ele><time>2026-04-26T07:24:35.006Z</time></trkpt><trkpt lat="42.75506821940206" lon="10.281713843462185"><ele>255.2</ele><time>2026-04-26T07:24:37.006Z</time></trkpt><trkpt lat="42.755047636253686" lon="10.281845965267516"><ele>255.0</ele><time>2026-04-26T07:24:38.006Z</time></trkpt><trkpt lat="42.75502273882074" lon="10.28196754983613"><ele>255.0</ele><time>2026-04-26T07:24:39.006Z</time></trkpt><trkpt lat="42.75498138947031" lon="10.282087767840666"><ele>255.0</ele><time>2026-04-26T07:24:40.006Z</time></trkpt><trkpt lat="42.75494254770766" lon="10.282199339704988"><ele>255.0</ele><time>2026-04-26T07:24:41.006Z</time></trkpt><trkpt lat="42.754899132914936" lon="10.282315781760492"><ele>255.0</ele><time>2026-04-26T07:24:42.006Z</time></trkpt><trkpt lat="42.75485695449699" lon="10.282415728205951"><ele>255.0</ele><time>2026-04-26T07:24:43.006Z</time></trkpt><trkpt lat="42.75481364115886" lon="10.282514886546863"><ele>252.57142857142858</ele><time>2026-04-26T07:24:44.006Z</time></trkpt><trkpt lat="42.75477802785136" lon="10.282591103490411"><ele>250.14285714285717</ele><time>2026-04-26T07:24:45.006Z</time></trkpt><trkpt lat="42.75472911661668" lon="10.282653420457395"><ele>247.71428571428572</ele><time>2026-04-26T07:24:46.006Z</time></trkpt><trkpt lat="42.75466731475829" lon="10.282698819269584"><ele>245.28571428571428</ele><time>2026-04-26T07:24:47.006Z</time></trkpt><trkpt lat="42.754589759924826" lon="10.28272311087057"><ele>242.85714285714286</ele><time>2026-04-26T07:24:48.006Z</time></trkpt><trkpt lat="42.75451266146897" lon="10.282721365504981"><ele>240.42857142857144</ele><time>2026-04-26T07:24:49.006Z</time></trkpt><trkpt lat="42.75444753543708" lon="10.282683420400136"><ele>238.0</ele><time>2026-04-26T07:24:50.006Z</time></trkpt><trkpt lat="42.75437926152015" lon="10.28261684025391"><ele>239.2</ele><time>2026-04-26T07:24:51.006Z</time></trkpt><trkpt lat="42.7543408391136" lon="10.282536676645972"><ele>240.4</ele><time>2026-04-26T07:24:52.006Z</time></trkpt><trkpt lat="42.75429231205598" lon="10.282435569962132"><ele>241.59999999999997</ele><time>2026-04-26T07:24:53.006Z</time></trkpt><trkpt lat="42.7542405786867" lon="10.282348347911784"><ele>242.79999999999998</ele><time>2026-04-26T07:24:54.006Z</time></trkpt><trkpt lat="42.754181153811444" lon="10.282244971704602"><ele>244.0</ele><time>2026-04-26T07:24:55.006Z</time></trkpt><trkpt lat="42.754119944644465" lon="10.282116757719502"><ele>247.2</ele><time>2026-04-26T07:24:56.006Z</time></trkpt><trkpt lat="42.754052622894655" lon="10.28199473816721"><ele>250.39999999999998</ele><time>2026-04-26T07:24:57.006Z</time></trkpt><trkpt lat="42.753987253606674" lon="10.281906634967623"><ele>253.6</ele><time>2026-04-26T07:24:58.006Z</time></trkpt><trkpt lat="42.753906646454816" lon="10.281859476692834"><ele>256.8</ele><time>2026-04-26T07:24:59.006Z</time></trkpt><trkpt lat="42.753820388177246" lon="10.28183473364771"><ele>260.0</ele><time>2026-04-26T07:25:00.006Z</time></trkpt><trkpt lat="42.753740670202305" lon="10.281815911453341"><ele>260.0</ele><time>2026-04-26T07:25:01.006Z</time></trkpt><trkpt lat="42.75365369789714" lon="10.281774503666412"><ele>260.0</ele><time>2026-04-26T07:25:02.006Z</time></trkpt><trkpt lat="42.75355248723864" lon="10.28170391953356"><ele>260.0</ele><time>2026-04-26T07:25:03.006Z</time></trkpt><trkpt lat="42.75347047161865" lon="10.281607239717522"><ele>260.0</ele><time>2026-04-26T07:25:04.006Z</time></trkpt><trkpt lat="42.75340695482193" lon="10.281500235264874"><ele>260.0</ele><time>2026-04-26T07:25:05.006Z</time></trkpt><trkpt lat="42.7533439788335" lon="10.281384212816631"><ele>259.8</ele><time>2026-04-26T07:25:06.006Z</time></trkpt><trkpt lat="42.75330394539181" lon="10.28127371092071"><ele>259.6</ele><time>2026-04-26T07:25:07.006Z</time></trkpt><trkpt lat="42.75327420304144" lon="10.281157487684135"><ele>259.4</ele><time>2026-04-26T07:25:08.006Z</time></trkpt><trkpt lat="42.753256996403906" lon="10.28103175718146"><ele>259.2</ele><time>2026-04-26T07:25:09.006Z</time></trkpt><trkpt lat="42.753227455311226" lon="10.280933820971425"><ele>259.0</ele><time>2026-04-26T07:25:10.006Z</time></trkpt><trkpt lat="42.753218369441655" lon="10.280791761711345"><ele>259.0</ele><time>2026-04-26T07:25:11.006Z</time></trkpt><trkpt lat="42.75322113608015" lon="10.280666058516482"><ele>259.0</ele><time>2026-04-26T07:25:12.006Z</time></trkpt><trkpt lat="42.75323690523131" lon="10.280539421483514"><ele>259.0</ele><time>2026-04-26T07:25:13.006Z</time></trkpt><trkpt lat="42.753253574371946" lon="10.280429112739553"><ele>259.0</ele><time>2026-04-26T07:25:14.006Z</time></trkpt><trkpt lat="42.75327172637923" lon="10.280344587245686"><ele>259.0</ele><time>2026-04-26T07:25:15.006Z</time></trkpt><trkpt lat="42.753285829907945" lon="10.280202031482085"><ele>259.0</ele><time>2026-04-26T07:25:17.006Z</time></trkpt><trkpt lat="42.75328194391494" lon="10.28010954998326"><ele>259.8333333333333</ele><time>2026-04-26T07:25:23.008Z</time></trkpt><trkpt lat="42.75328921644971" lon="10.280012149816397"><ele>260.66666666666663</ele><time>2026-04-26T07:25:32.008Z</time></trkpt><trkpt lat="42.75331028492679" lon="10.27985389844166"><ele>261.5</ele><time>2026-04-26T07:25:34.007Z</time></trkpt><trkpt lat="42.75331125715319" lon="10.279762696194386"><ele>262.3333333333333</ele><time>2026-04-26T07:25:35.008Z</time></trkpt><trkpt lat="42.75330622671335" lon="10.27967658062123"><ele>263.1666666666667</ele><time>2026-04-26T07:25:36.008Z</time></trkpt><trkpt lat="42.75331040042671" lon="10.279516754217592"><ele>264.0</ele><time>2026-04-26T07:25:38.008Z</time></trkpt><trkpt lat="42.753311235229276" lon="10.279376690262938"><ele>265.5</ele><time>2026-04-26T07:25:40.007Z</time></trkpt><trkpt lat="42.75318908978761" lon="10.279303808146643"><ele>267.0</ele><time>2026-04-26T07:25:42.007Z</time></trkpt><trkpt lat="42.75308735098394" lon="10.279233182189504"><ele>268.5</ele><time>2026-04-26T07:25:43.007Z</time></trkpt><trkpt lat="42.75298640205566" lon="10.279156915178772"><ele>270.0</ele><time>2026-04-26T07:25:44.007Z</time></trkpt><trkpt lat="42.75290438556809" lon="10.279061015305695"><ele>270.0</ele><time>2026-04-26T07:25:45.007Z</time></trkpt><trkpt lat="42.75284098284731" lon="10.278966337255815"><ele>270.0</ele><time>2026-04-26T07:25:46.007Z</time></trkpt><trkpt lat="42.752783887770825" lon="10.278866991398248"><ele>270.0</ele><time>2026-04-26T07:25:47.007Z</time></trkpt><trkpt lat="42.752723661967174" lon="10.278771499165536"><ele>270.0</ele><time>2026-04-26T07:25:48.007Z</time></trkpt><trkpt lat="42.752652111777444" lon="10.278686005933325"><ele>270.0</ele><time>2026-04-26T07:25:49.007Z</time></trkpt><trkpt lat="42.7525842876218" lon="10.278618553235122"><ele>268.4</ele><time>2026-04-26T07:25:50.007Z</time></trkpt><trkpt lat="42.75252153085751" lon="10.27858075464379"><ele>266.8</ele><time>2026-04-26T07:25:51.007Z</time></trkpt><trkpt lat="42.7524591582198" lon="10.27855102817576"><ele>265.2</ele><time>2026-04-26T07:25:52.007Z</time></trkpt><trkpt lat="42.752416786956765" lon="10.278651569662715"><ele>263.6</ele><time>2026-04-26T07:25:54.007Z</time></trkpt><trkpt lat="42.752407364149626" lon="10.278857949414656"><ele>262.0</ele><time>2026-04-26T07:25:56.007Z</time></trkpt><trkpt lat="42.752383583102464" lon="10.2789983162927"><ele>262.0</ele><time>2026-04-26T07:25:57.007Z</time></trkpt><trkpt lat="42.752340921501045" lon="10.279141105076452"><ele>262.0</ele><time>2026-04-26T07:25:58.007Z</time></trkpt><trkpt lat="42.75230062810725" lon="10.279272783439492"><ele>262.0</ele><time>2026-04-26T07:25:59.007Z</time></trkpt><trkpt lat="42.75225567399756" lon="10.27940426076197"><ele>262.0</ele><time>2026-04-26T07:26:00.007Z</time></trkpt><trkpt lat="42.752217221732046" lon="10.279537349909832"><ele>262.0</ele><time>2026-04-26T07:26:01.007Z</time></trkpt><trkpt lat="42.75215575001315" lon="10.27965548416562"><ele>262.0</ele><time>2026-04-26T07:26:02.007Z</time></trkpt><trkpt lat="42.75210837502281" lon="10.279762970458004"><ele>262.0</ele><time>2026-04-26T07:26:03.007Z</time></trkpt><trkpt lat="42.75204873768729" lon="10.279862755862466"><ele>262.0</ele><time>2026-04-26T07:26:04.007Z</time></trkpt><trkpt lat="42.751997708088425" lon="10.27993645093325"><ele>262.0</ele><time>2026-04-26T07:26:05.007Z</time></trkpt><trkpt lat="42.75193269708688" lon="10.27999084252952"><ele>262.0</ele><time>2026-04-26T07:26:06.007Z</time></trkpt><trkpt lat="42.751871141080365" lon="10.280012518994479"><ele>262.0</ele><time>2026-04-26T07:26:07.007Z</time></trkpt><trkpt lat="42.7518013727876" lon="10.280027176403333"><ele>262.3333333333333</ele><time>2026-04-26T07:26:08.007Z</time></trkpt><trkpt lat="42.751724670735015" lon="10.280079333283021"><ele>262.66666666666663</ele><time>2026-04-26T07:26:10.007Z</time></trkpt><trkpt lat="42.75168603896423" lon="10.280175185202054"><ele>263.0</ele><time>2026-04-26T07:26:11.007Z</time></trkpt><trkpt lat="42.75164972472071" lon="10.280274221237713"><ele>263.3333333333333</ele><time>2026-04-26T07:26:12.007Z</time></trkpt><trkpt lat="42.75161301186813" lon="10.280345464629868"><ele>263.6666666666667</ele><time>2026-04-26T07:26:13.007Z</time></trkpt><trkpt lat="42.75154411485058" lon="10.28038147921326"><ele>264.0</ele><time>2026-04-26T07:26:14.007Z</time></trkpt><trkpt lat="42.75147518145811" lon="10.280404947006254"><ele>264.0</ele><time>2026-04-26T07:26:15.007Z</time></trkpt><trkpt lat="42.75140015139466" lon="10.28043743423331"><ele>264.0</ele><time>2026-04-26T07:26:16.007Z</time></trkpt><trkpt lat="42.75132782358123" lon="10.280495163962856"><ele>264.0</ele><time>2026-04-26T07:26:17.007Z</time></trkpt><trkpt lat="42.75126424821765" lon="10.28056903336054"><ele>264.0</ele><time>2026-04-26T07:26:18.007Z</time></trkpt><trkpt lat="42.75120282022411" lon="10.28063569104821"><ele>264.0</ele><time>2026-04-26T07:26:19.007Z</time></trkpt><trkpt lat="42.75113203959931" lon="10.280678591316038"><ele>264.0</ele><time>2026-04-26T07:26:20.007Z</time></trkpt><trkpt lat="42.751052805482566" lon="10.280731158827878"><ele>262.0</ele><time>2026-04-26T07:26:21.007Z</time></trkpt><trkpt lat="42.75095977236857" lon="10.280792682369789"><ele>260.0</ele><time>2026-04-26T07:26:22.007Z</time></trkpt><trkpt lat="42.75085708642203" lon="10.280842459318066"><ele>258.0</ele><time>2026-04-26T07:26:23.007Z</time></trkpt><trkpt lat="42.75075331381842" lon="10.280876441771966"><ele>256.0</ele><time>2026-04-26T07:26:24.007Z</time></trkpt><trkpt lat="42.750654416361144" lon="10.280903832089434"><ele>254.0</ele><time>2026-04-26T07:26:25.007Z</time></trkpt><trkpt lat="42.75053215383993" lon="10.280940789904234"><ele>254.0</ele><time>2026-04-26T07:26:26.007Z</time></trkpt><trkpt lat="42.7503879687094" lon="10.280975024090953"><ele>254.0</ele><time>2026-04-26T07:26:27.007Z</time></trkpt><trkpt lat="42.750263396934095" lon="10.28101219941228"><ele>254.0</ele><time>2026-04-26T07:26:28.007Z</time></trkpt><trkpt lat="42.75015345629112" lon="10.281033901892387"><ele>254.0</ele><time>2026-04-26T07:26:29.007Z</time></trkpt><trkpt lat="42.750048629266416" lon="10.281044616593741"><ele>256.0</ele><time>2026-04-26T07:26:30.007Z</time></trkpt><trkpt lat="42.74995711090532" lon="10.281041511517332"><ele>258.0</ele><time>2026-04-26T07:26:31.007Z</time></trkpt><trkpt lat="42.749867770091164" lon="10.281010905101146"><ele>260.0</ele><time>2026-04-26T07:26:32.007Z</time></trkpt><trkpt lat="42.749761538107045" lon="10.280963857503643"><ele>262.0</ele><time>2026-04-26T07:26:33.007Z</time></trkpt><trkpt lat="42.74966780573246" lon="10.280916818866235"><ele>264.0</ele><time>2026-04-26T07:26:34.007Z</time></trkpt><trkpt lat="42.74958772209674" lon="10.28087986389086"><ele>264.0</ele><time>2026-04-26T07:26:35.007Z</time></trkpt><trkpt lat="42.74954312453473" lon="10.280980098510158"><ele>264.0</ele><time>2026-04-26T07:26:38.007Z</time></trkpt><trkpt lat="42.749535868063525" lon="10.281162967916343"><ele>264.0</ele><time>2026-04-26T07:26:40.007Z</time></trkpt><trkpt lat="42.74952692950493" lon="10.281293979190117"><ele>264.0</ele><time>2026-04-26T07:26:41.007Z</time></trkpt><trkpt lat="42.749499321954005" lon="10.281422058502732"><ele>264.0</ele><time>2026-04-26T07:26:42.007Z</time></trkpt><trkpt lat="42.74944766074673" lon="10.281516216595008"><ele>263.0</ele><time>2026-04-26T07:26:43.006Z</time></trkpt><trkpt lat="42.749370326845515" lon="10.281573221177378"><ele>262.0</ele><time>2026-04-26T07:26:44.006Z</time></trkpt><trkpt lat="42.74930226633908" lon="10.281597129398007"><ele>261.0</ele><time>2026-04-26T07:26:45.006Z</time></trkpt><trkpt lat="42.74921881251232" lon="10.28160791678402"><ele>260.0</ele><time>2026-04-26T07:26:46.006Z</time></trkpt><trkpt lat="42.74912846384698" lon="10.281603712308431"><ele>259.0</ele><time>2026-04-26T07:26:47.006Z</time></trkpt><trkpt lat="42.74902605054482" lon="10.281585568326449"><ele>258.0</ele><time>2026-04-26T07:26:48.006Z</time></trkpt><trkpt lat="42.74890299140937" lon="10.281568141392158"><ele>258.0</ele><time>2026-04-26T07:26:49.006Z</time></trkpt><trkpt lat="42.748786179492924" lon="10.281546425591108"><ele>258.0</ele><time>2026-04-26T07:26:50.006Z</time></trkpt><trkpt lat="42.74867086725492" lon="10.281525270816891"><ele>258.0</ele><time>2026-04-26T07:26:51.006Z</time></trkpt><trkpt lat="42.748576314095" lon="10.281507630943977"><ele>258.0</ele><time>2026-04-26T07:26:52.006Z</time></trkpt><trkpt lat="42.74847941187866" lon="10.281483572113222"><ele>258.0</ele><time>2026-04-26T07:26:53.006Z</time></trkpt><trkpt lat="42.74835902956292" lon="10.28146682083793"><ele>260.0</ele><time>2026-04-26T07:26:54.006Z</time></trkpt><trkpt lat="42.74825773810467" lon="10.281459275597639"><ele>262.0</ele><time>2026-04-26T07:26:55.006Z</time></trkpt><trkpt lat="42.748167018539526" lon="10.281448560579491"><ele>264.0</ele><time>2026-04-26T07:26:56.006Z</time></trkpt><trkpt lat="42.74808164914844" lon="10.281426233131798"><ele>266.0</ele><time>2026-04-26T07:26:58.006Z</time></trkpt><trkpt lat="42.748152971489596" lon="10.281320698907127"><ele>268.0</ele><time>2026-04-26T07:27:01.006Z</time></trkpt><trkpt lat="42.748234990364814" lon="10.281318841957946"><ele>270.25</ele><time>2026-04-26T07:27:02.006Z</time></trkpt><trkpt lat="42.74835013219715" lon="10.281323189138222"><ele>272.5</ele><time>2026-04-26T07:27:03.006Z</time></trkpt><trkpt lat="42.7484786262823" lon="10.28129050025579"><ele>274.75</ele><time>2026-04-26T07:27:04.006Z</time></trkpt><trkpt lat="42.7486049171394" lon="10.281221912926558"><ele>277.0</ele><time>2026-04-26T07:27:05.006Z</time></trkpt><trkpt lat="42.74873960874095" lon="10.281144454213168"><ele>277.0</ele><time>2026-04-26T07:27:06.006Z</time></trkpt><trkpt lat="42.748865902989515" lon="10.28107406512551"><ele>277.0</ele><time>2026-04-26T07:27:07.006Z</time></trkpt><trkpt lat="42.74893413122702" lon="10.281016792938873"><ele>277.0</ele><time>2026-04-26T07:27:08.006Z</time></trkpt><trkpt lat="42.74897112469491" lon="10.280839448442146"><ele>277.0</ele><time>2026-04-26T07:27:10.006Z</time></trkpt><trkpt lat="42.74899728851532" lon="10.280685739641623"><ele>280.8</ele><time>2026-04-26T07:27:11.006Z</time></trkpt><trkpt lat="42.74903763484475" lon="10.280547928365728"><ele>284.6</ele><time>2026-04-26T07:27:12.006Z</time></trkpt><trkpt lat="42.74908879680049" lon="10.280416641256059"><ele>288.40000000000003</ele><time>2026-04-26T07:27:13.006Z</time></trkpt><trkpt lat="42.749151180125274" lon="10.280311384481866"><ele>292.2</ele><time>2026-04-26T07:27:14.006Z</time></trkpt><trkpt lat="42.74922535324696" lon="10.280217598577469"><ele>296.0</ele><time>2026-04-26T07:27:15.006Z</time></trkpt><trkpt lat="42.7493026737096" lon="10.280162798996797"><ele>293.75</ele><time>2026-04-26T07:27:16.006Z</time></trkpt><trkpt lat="42.7494088416784" lon="10.280127156908204"><ele>291.5</ele><time>2026-04-26T07:27:17.006Z</time></trkpt><trkpt lat="42.74956333086142" lon="10.28011617697145"><ele>289.25</ele><time>2026-04-26T07:27:18.006Z</time></trkpt><trkpt lat="42.74973331844878" lon="10.280102537629094"><ele>287.0</ele><time>2026-04-26T07:27:19.006Z</time></trkpt><trkpt lat="42.74987327707377" lon="10.280094273230572"><ele>287.0</ele><time>2026-04-26T07:27:20.006Z</time></trkpt><trkpt lat="42.74998445421134" lon="10.280077637632132"><ele>287.0</ele><time>2026-04-26T07:27:21.006Z</time></trkpt><trkpt lat="42.75008699976627" lon="10.280040961531371"><ele>287.0</ele><time>2026-04-26T07:27:22.006Z</time></trkpt><trkpt lat="42.75018252347478" lon="10.279981549795172"><ele>287.0</ele><time>2026-04-26T07:27:23.006Z</time></trkpt><trkpt lat="42.750271184029124" lon="10.27988749423766"><ele>287.0</ele><time>2026-04-26T07:27:24.006Z</time></trkpt><trkpt lat="42.750351904404944" lon="10.279823090441523"><ele>288.4</ele><time>2026-04-26T07:27:25.006Z</time></trkpt><trkpt lat="42.75046631756354" lon="10.279806508150001"><ele>289.79999999999995</ele><time>2026-04-26T07:27:27.006Z</time></trkpt><trkpt lat="42.75055380397884" lon="10.279843089298822"><ele>291.2</ele><time>2026-04-26T07:27:28.009Z</time></trkpt><trkpt lat="42.750654492953075" lon="10.27984976194428"><ele>292.59999999999997</ele><time>2026-04-26T07:27:29.008Z</time></trkpt><trkpt lat="42.75074201241787" lon="10.279828757357993"><ele>294.0</ele><time>2026-04-26T07:27:30.008Z</time></trkpt><trkpt lat="42.75080583584268" lon="10.279765461200531"><ele>294.0</ele><time>2026-04-26T07:27:31.008Z</time></trkpt><trkpt lat="42.75086316692072" lon="10.27967149951561"><ele>294.0</ele><time>2026-04-26T07:27:32.008Z</time></trkpt><trkpt lat="42.75089053973212" lon="10.279545189436575"><ele>294.0</ele><time>2026-04-26T07:27:33.008Z</time></trkpt><trkpt lat="42.750900295174134" lon="10.279410149217348"><ele>294.0</ele><time>2026-04-26T07:27:34.009Z</time></trkpt><trkpt lat="42.7509445795228" lon="10.279248140136009"><ele>294.0</ele><time>2026-04-26T07:27:35.008Z</time></trkpt><trkpt lat="42.7509876781268" lon="10.27910468783408"><ele>294.0</ele><time>2026-04-26T07:27:36.008Z</time></trkpt><trkpt lat="42.75102065616037" lon="10.278977350666583"><ele>294.0</ele><time>2026-04-26T07:27:37.008Z</time></trkpt><trkpt lat="42.75102915806278" lon="10.278837879088819"><ele>294.0</ele><time>2026-04-26T07:27:38.008Z</time></trkpt><trkpt lat="42.751039060899494" lon="10.278677538006018"><ele>294.0</ele><time>2026-04-26T07:27:39.008Z</time></trkpt><trkpt lat="42.75103989426811" lon="10.278531470717887"><ele>294.0</ele><time>2026-04-26T07:27:40.008Z</time></trkpt><trkpt lat="42.75102032323881" lon="10.278439634817541"><ele>294.8333333333333</ele><time>2026-04-26T07:27:41.008Z</time></trkpt><trkpt lat="42.75099378355211" lon="10.278361675725742"><ele>295.6666666666667</ele><time>2026-04-26T07:27:42.008Z</time></trkpt><trkpt lat="42.75100081427242" lon="10.278269196937194"><ele>296.5</ele><time>2026-04-26T07:27:45.008Z</time></trkpt><trkpt lat="42.750967661714824" lon="10.278137935963313"><ele>297.33333333333337</ele><time>2026-04-26T07:30:25.007Z</time></trkpt><trkpt lat="42.750961870372464" lon="10.278011948477365"><ele>298.1666666666667</ele><time>2026-04-26T07:30:27.007Z</time></trkpt><trkpt lat="42.75098294084774" lon="10.277895577130158"><ele>299.0</ele><time>2026-04-26T07:30:29.007Z</time></trkpt><trkpt lat="42.751025119389645" lon="10.277740197145594"><ele>298.59999999999997</ele><time>2026-04-26T07:30:31.007Z</time></trkpt><trkpt lat="42.751062446487104" lon="10.277578246977859"><ele>298.2</ele><time>2026-04-26T07:30:33.007Z</time></trkpt><trkpt lat="42.75110521921715" lon="10.277430688737528"><ele>297.79999999999995</ele><time>2026-04-26T07:30:35.007Z</time></trkpt><trkpt lat="42.75114886586595" lon="10.27726269181251"><ele>297.4</ele><time>2026-04-26T07:30:37.007Z</time></trkpt><trkpt lat="42.75117478298336" lon="10.277177552610707"><ele>297.0</ele><time>2026-04-26T07:30:38.007Z</time></trkpt><trkpt lat="42.751204495251024" lon="10.277089318504727"><ele>296.4</ele><time>2026-04-26T07:30:39.007Z</time></trkpt><trkpt lat="42.75123724925104" lon="10.27698497101212"><ele>295.79999999999995</ele><time>2026-04-26T07:30:40.007Z</time></trkpt><trkpt lat="42.751255464091926" lon="10.276867790281633"><ele>295.2</ele><time>2026-04-26T07:30:41.007Z</time></trkpt><trkpt lat="42.75128690080622" lon="10.2767406836892"><ele>294.59999999999997</ele><time>2026-04-26T07:30:42.007Z</time></trkpt><trkpt lat="42.7513185053527" lon="10.276616035466471"><ele>294.0</ele><time>2026-04-26T07:30:43.007Z</time></trkpt><trkpt lat="42.75135621165333" lon="10.276506084960404"><ele>292.0</ele><time>2026-04-26T07:30:44.007Z</time></trkpt><trkpt lat="42.751393062253435" lon="10.27640402109975"><ele>290.0</ele><time>2026-04-26T07:30:45.007Z</time></trkpt><trkpt lat="42.75142059450222" lon="10.276307185151317"><ele>288.0</ele><time>2026-04-26T07:30:46.007Z</time></trkpt><trkpt lat="42.75145601587748" lon="10.276216232320051"><ele>286.0</ele><time>2026-04-26T07:30:47.007Z</time></trkpt><trkpt lat="42.7514961941954" lon="10.276129180964773"><ele>284.0</ele><time>2026-04-26T07:30:48.007Z</time></trkpt><trkpt lat="42.75153040137779" lon="10.27603839287961"><ele>282.0</ele><time>2026-04-26T07:30:49.007Z</time></trkpt><trkpt lat="42.75156070571572" lon="10.275939448728398"><ele>282.0</ele><time>2026-04-26T07:30:50.007Z</time></trkpt><trkpt lat="42.75159669949379" lon="10.275849868946263"><ele>282.0</ele><time>2026-04-26T07:30:51.007Z</time></trkpt><trkpt lat="42.751632870466615" lon="10.275759944772513"><ele>282.0</ele><time>2026-04-26T07:30:52.007Z</time></trkpt><trkpt lat="42.75165781064068" lon="10.275662746737535"><ele>282.0</ele><time>2026-04-26T07:30:53.007Z</time></trkpt><trkpt lat="42.751682484796774" lon="10.27555360253403"><ele>282.0</ele><time>2026-04-26T07:30:54.007Z</time></trkpt><trkpt lat="42.75170849585999" lon="10.275452463480743"><ele>282.0</ele><time>2026-04-26T07:30:55.007Z</time></trkpt><trkpt lat="42.75173319645546" lon="10.275323424153658"><ele>282.0</ele><time>2026-04-26T07:30:56.007Z</time></trkpt><trkpt lat="42.75176106957098" lon="10.275189771467351"><ele>282.0</ele><time>2026-04-26T07:30:57.007Z</time></trkpt><trkpt lat="42.75179681826965" lon="10.275084028075483"><ele>282.0</ele><time>2026-04-26T07:30:58.007Z</time></trkpt><trkpt lat="42.75183906540325" lon="10.275001917870407"><ele>282.0</ele><time>2026-04-26T07:30:59.007Z</time></trkpt><trkpt lat="42.75190357826221" lon="10.274941946060164"><ele>282.0</ele><time>2026-04-26T07:31:00.007Z</time></trkpt><trkpt lat="42.751969718388764" lon="10.27491364864386"><ele>282.0</ele><time>2026-04-26T07:31:01.007Z</time></trkpt><trkpt lat="42.752040252090666" lon="10.274894006864209"><ele>282.0</ele><time>2026-04-26T07:31:02.007Z</time></trkpt><trkpt lat="42.752127414299935" lon="10.274881398404538"><ele>282.0</ele><time>2026-04-26T07:31:03.007Z</time></trkpt><trkpt lat="42.75221161534568" lon="10.274877112367227"><ele>282.0</ele><time>2026-04-26T07:31:04.007Z</time></trkpt><trkpt lat="42.7522864186382" lon="10.2748768359757"><ele>282.0</ele><time>2026-04-26T07:31:05.007Z</time></trkpt><trkpt lat="42.75238841992667" lon="10.27482475809951"><ele>282.0</ele><time>2026-04-26T07:31:07.007Z</time></trkpt><trkpt lat="42.75243818940345" lon="10.274751100601772"><ele>282.0</ele><time>2026-04-26T07:31:08.007Z</time></trkpt><trkpt lat="42.75249550485773" lon="10.274663686914558"><ele>281.4</ele><time>2026-04-26T07:31:09.007Z</time></trkpt><trkpt lat="42.75255681913711" lon="10.274578006531405"><ele>280.79999999999995</ele><time>2026-04-26T07:31:10.007Z</time></trkpt><trkpt lat="42.75262815557037" lon="10.274486555093507"><ele>280.2</ele><time>2026-04-26T07:31:11.007Z</time></trkpt><trkpt lat="42.752691062645894" lon="10.27439013074919"><ele>279.59999999999997</ele><time>2026-04-26T07:31:12.007Z</time></trkpt><trkpt lat="42.75275309013448" lon="10.2743018252733"><ele>279.0</ele><time>2026-04-26T07:31:13.007Z</time></trkpt><trkpt lat="42.75281661085843" lon="10.27422615676151"><ele>279.0</ele><time>2026-04-26T07:31:14.007Z</time></trkpt><trkpt lat="42.75287322912151" lon="10.274164760508967"><ele>279.0</ele><time>2026-04-26T07:31:15.007Z</time></trkpt><trkpt lat="42.75293543852206" lon="10.274129583620114"><ele>279.0</ele><time>2026-04-26T07:31:16.007Z</time></trkpt><trkpt lat="42.75300305531759" lon="10.274099489233134"><ele>279.0</ele><time>2026-04-26T07:31:17.007Z</time></trkpt><trkpt lat="42.75306312876142" lon="10.274060660949868"><ele>279.0</ele><time>2026-04-26T07:31:18.007Z</time></trkpt><trkpt lat="42.753122109961744" lon="10.273925088693847"><ele>279.0</ele><time>2026-04-26T07:31:20.007Z</time></trkpt><trkpt lat="42.75317218251736" lon="10.273800357447914"><ele>279.3333333333333</ele><time>2026-04-26T07:31:22.007Z</time></trkpt><trkpt lat="42.75316415472303" lon="10.273711067560855"><ele>279.6666666666667</ele><time>2026-04-26T07:31:24.006Z</time></trkpt><trkpt lat="42.75309882952036" lon="10.273625103777583"><ele>280.0</ele><time>2026-04-26T07:31:26.006Z</time></trkpt><trkpt lat="42.75302616395012" lon="10.273529979928227"><ele>280.33333333333337</ele><time>2026-04-26T07:31:28.006Z</time></trkpt><trkpt lat="42.752933785465885" lon="10.273414684299958"><ele>280.6666666666667</ele><time>2026-04-26T07:31:30.006Z</time></trkpt><trkpt lat="42.752895503503844" lon="10.273345418457634"><ele>281.0</ele><time>2026-04-26T07:31:31.006Z</time></trkpt><trkpt lat="42.75285135364864" lon="10.273253560587237"><ele>281.0</ele><time>2026-04-26T07:31:33.006Z</time></trkpt><trkpt lat="42.752795806946466" lon="10.273186771605905"><ele>281.0</ele><time>2026-04-26T07:31:35.006Z</time></trkpt><trkpt lat="42.75273576238085" lon="10.27309383864642"><ele>281.0</ele><time>2026-04-26T07:31:37.006Z</time></trkpt><trkpt lat="42.75268826729461" lon="10.273002218503144"><ele>281.0</ele><time>2026-04-26T07:31:39.006Z</time></trkpt><trkpt lat="42.752663566669305" lon="10.272922601796687"><ele>281.0</ele><time>2026-04-26T07:31:42.009Z</time></trkpt><trkpt lat="42.75263323910253" lon="10.272847343319357"><ele>281.0</ele><time>2026-04-26T07:31:44.009Z</time></trkpt><trkpt lat="42.752584413620994" lon="10.272738407560576"><ele>274.6</ele><time>2026-04-26T07:31:46.009Z</time></trkpt><trkpt lat="42.75253661310608" lon="10.272626865930333"><ele>268.20000000000005</ele><time>2026-04-26T07:31:48.008Z</time></trkpt><trkpt lat="42.75248722694596" lon="10.27251775456509"><ele>261.79999999999995</ele><time>2026-04-26T07:31:50.008Z</time></trkpt><trkpt lat="42.752425117455424" lon="10.272393623393764"><ele>255.39999999999998</ele><time>2026-04-26T07:31:52.009Z</time></trkpt><trkpt lat="42.75238717367719" lon="10.272299870595436"><ele>249.0</ele><time>2026-04-26T07:31:53.009Z</time></trkpt><trkpt lat="42.75234470845462" lon="10.272205250987152"><ele>249.0</ele><time>2026-04-26T07:31:54.009Z</time></trkpt><trkpt lat="42.7522999344897" lon="10.272113040707643"><ele>249.0</ele><time>2026-04-26T07:31:55.009Z</time></trkpt><trkpt lat="42.752258608124386" lon="10.272023555807431"><ele>249.0</ele><time>2026-04-26T07:31:56.009Z</time></trkpt><trkpt lat="42.752218406723976" lon="10.271932544615014"><ele>249.0</ele><time>2026-04-26T07:31:57.009Z</time></trkpt><trkpt lat="42.752175239627604" lon="10.27186387895971"><ele>249.0</ele><time>2026-04-26T07:31:58.009Z</time></trkpt><trkpt lat="42.75208892490652" lon="10.271749022766967"><ele>249.0</ele><time>2026-04-26T07:32:00.009Z</time></trkpt><trkpt lat="42.752007257733304" lon="10.271642771453644"><ele>249.0</ele><time>2026-04-26T07:32:02.009Z</time></trkpt><trkpt lat="42.75196123739513" lon="10.271501744962857"><ele>249.0</ele><time>2026-04-26T07:32:04.009Z</time></trkpt><trkpt lat="42.75197646234189" lon="10.271390347970828"><ele>249.0</ele><time>2026-04-26T07:32:06.009Z</time></trkpt><trkpt lat="42.75201006330508" lon="10.27131512950267"><ele>249.0</ele><time>2026-04-26T07:32:08.009Z</time></trkpt><trkpt lat="42.75205054587449" lon="10.271206916765854"><ele>249.0</ele><time>2026-04-26T07:32:10.009Z</time></trkpt><trkpt lat="42.752086055337315" lon="10.27108615525457"><ele>249.0</ele><time>2026-04-26T07:32:12.008Z</time></trkpt><trkpt lat="42.75213802935672" lon="10.270975589274702"><ele>246.39999999999998</ele><time>2026-04-26T07:32:14.008Z</time></trkpt><trkpt lat="42.752165110768544" lon="10.270863140358275"><ele>243.79999999999998</ele><time>2026-04-26T07:32:16.008Z</time></trkpt><trkpt lat="42.752193078082634" lon="10.270746785377694"><ele>241.20000000000002</ele><time>2026-04-26T07:32:18.008Z</time></trkpt><trkpt lat="42.75222151155349" lon="10.270624567652717"><ele>238.60000000000002</ele><time>2026-04-26T07:32:20.008Z</time></trkpt><trkpt lat="42.75215433197605" lon="10.270538282423088"><ele>236.0</ele><time>2026-04-26T07:32:23.008Z</time></trkpt><trkpt lat="42.752073908667946" lon="10.270609088593108"><ele>236.0</ele><time>2026-04-26T07:32:25.008Z</time></trkpt><trkpt lat="42.75199800597796" lon="10.27069798734424"><ele>236.00000000000003</ele><time>2026-04-26T07:32:27.008Z</time></trkpt><trkpt lat="42.75194466471116" lon="10.270796318693575"><ele>236.00000000000003</ele><time>2026-04-26T07:32:29.008Z</time></trkpt><trkpt lat="42.751862691911114" lon="10.270865076783858"><ele>236.0</ele><time>2026-04-26T07:32:31.008Z</time></trkpt><trkpt lat="42.75177483981022" lon="10.270899438993304"><ele>236.0</ele><time>2026-04-26T07:32:33.008Z</time></trkpt><trkpt lat="42.75167155225085" lon="10.27091423584155"><ele>229.60000000000002</ele><time>2026-04-26T07:32:35.008Z</time></trkpt><trkpt lat="42.75155881660441" lon="10.270900646648657"><ele>223.20000000000002</ele><time>2026-04-26T07:32:37.008Z</time></trkpt><trkpt lat="42.75145583142189" lon="10.270906247717578"><ele>216.8</ele><time>2026-04-26T07:32:39.008Z</time></trkpt><trkpt lat="42.75135983782229" lon="10.27093304290057"><ele>210.39999999999998</ele><time>2026-04-26T07:32:41.008Z</time></trkpt><trkpt lat="42.751273950043604" lon="10.270978776990704"><ele>204.0</ele><time>2026-04-26T07:32:43.008Z</time></trkpt><trkpt lat="42.75117441465996" lon="10.27104006889623"><ele>204.0</ele><time>2026-04-26T07:32:45.008Z</time></trkpt><trkpt lat="42.75113741390795" lon="10.270944072748515"><ele>204.0</ele><time>2026-04-26T07:32:48.008Z</time></trkpt><trkpt lat="42.75118465247825" lon="10.270865355785158"><ele>204.0</ele><time>2026-04-26T07:32:51.008Z</time></trkpt><trkpt lat="42.75124538519125" lon="10.270782130041303"><ele>204.0</ele><time>2026-04-26T07:32:54.008Z</time></trkpt><trkpt lat="42.751301955493474" lon="10.270716886022411"><ele>204.0</ele><time>2026-04-26T07:32:56.008Z</time></trkpt><trkpt lat="42.75135514335384" lon="10.27066186624368"><ele>204.0</ele><time>2026-04-26T07:32:58.008Z</time></trkpt><trkpt lat="42.75141270876581" lon="10.270616970811638"><ele>204.0</ele><time>2026-04-26T07:33:00.008Z</time></trkpt><trkpt lat="42.751476388395005" lon="10.270535376955078"><ele>200.2</ele><time>2026-04-26T07:33:02.008Z</time></trkpt><trkpt lat="42.75154375109968" lon="10.270454170898372"><ele>196.39999999999998</ele><time>2026-04-26T07:33:04.008Z</time></trkpt><trkpt lat="42.751594795771254" lon="10.270362733117363"><ele>192.6</ele><time>2026-04-26T07:33:06.008Z</time></trkpt><trkpt lat="42.751596477794614" lon="10.270232165106886"><ele>188.8</ele><time>2026-04-26T07:33:08.008Z</time></trkpt><trkpt lat="42.75163048243228" lon="10.270108747985768"><ele>185.0</ele><time>2026-04-26T07:33:10.008Z</time></trkpt><trkpt lat="42.75171165275618" lon="10.270017155649503"><ele>185.0</ele><time>2026-04-26T07:33:12.008Z</time></trkpt><trkpt lat="42.75177902056637" lon="10.269982196441408"><ele>185.0</ele><time>2026-04-26T07:33:13.008Z</time></trkpt><trkpt lat="42.75184764548999" lon="10.26992359848809"><ele>185.0</ele><time>2026-04-26T07:33:15.008Z</time></trkpt><trkpt lat="42.75184645769156" lon="10.269832105689822"><ele>185.0</ele><time>2026-04-26T07:33:17.007Z</time></trkpt><trkpt lat="42.751816392883896" lon="10.26972341063994"><ele>185.0</ele><time>2026-04-26T07:33:19.007Z</time></trkpt><trkpt lat="42.751764297261296" lon="10.26962749671954"><ele>185.0</ele><time>2026-04-26T07:33:21.007Z</time></trkpt><trkpt lat="42.751726845575774" lon="10.269520432755002"><ele>184.4</ele><time>2026-04-26T07:33:23.007Z</time></trkpt><trkpt lat="42.75171770587391" lon="10.26939967574783"><ele>183.8</ele><time>2026-04-26T07:33:25.007Z</time></trkpt><trkpt lat="42.751688079336816" lon="10.269248441472998"><ele>183.2</ele><time>2026-04-26T07:33:27.007Z</time></trkpt><trkpt lat="42.75166189951796" lon="10.269090445790109"><ele>182.6</ele><time>2026-04-26T07:33:29.007Z</time></trkpt><trkpt lat="42.75164357321773" lon="10.268960410855765"><ele>182.0</ele><time>2026-04-26T07:33:31.007Z</time></trkpt><trkpt lat="42.751581708413305" lon="10.268903134659597"><ele>184.83333333333331</ele><time>2026-04-26T07:33:34.007Z</time></trkpt><trkpt lat="42.751490919212685" lon="10.268878492446225"><ele>187.66666666666666</ele><time>2026-04-26T07:33:36.007Z</time></trkpt><trkpt lat="42.75141898425088" lon="10.268853598920973"><ele>190.5</ele><time>2026-04-26T07:33:37.007Z</time></trkpt><trkpt lat="42.751344771859586" lon="10.268816330217922"><ele>193.33333333333331</ele><time>2026-04-26T07:33:38.007Z</time></trkpt><trkpt lat="42.751287192163474" lon="10.268772228484815"><ele>196.16666666666666</ele><time>2026-04-26T07:33:39.007Z</time></trkpt><trkpt lat="42.75120383544087" lon="10.268691449210788"><ele>199.0</ele><time>2026-04-26T07:33:41.007Z</time></trkpt><trkpt lat="42.7511272579229" lon="10.268577328657537"><ele>198.99999999999997</ele><time>2026-04-26T07:33:43.007Z</time></trkpt><trkpt lat="42.75107633363376" lon="10.268476760665807"><ele>199.0</ele><time>2026-04-26T07:33:45.007Z</time></trkpt><trkpt lat="42.75103732776688" lon="10.268393515471484"><ele>199.0</ele><time>2026-04-26T07:33:47.009Z</time></trkpt><trkpt lat="42.75100394000576" lon="10.268307310413203"><ele>199.0</ele><time>2026-04-26T07:33:49.009Z</time></trkpt><trkpt lat="42.750966010530874" lon="10.268205738823328"><ele>198.99999999999997</ele><time>2026-04-26T07:33:51.009Z</time></trkpt><trkpt lat="42.750898013721965" lon="10.268144476015381"><ele>199.0</ele><time>2026-04-26T07:33:53.009Z</time></trkpt><trkpt lat="42.750869842644335" lon="10.268252071868854"><ele>191.66666666666666</ele><time>2026-04-26T07:33:57.01Z</time></trkpt><trkpt lat="42.75088872159505" lon="10.268396097667418"><ele>184.33333333333331</ele><time>2026-04-26T07:33:59.01Z</time></trkpt><trkpt lat="42.750892009260326" lon="10.268512346418161"><ele>177.0</ele><time>2026-04-26T07:34:00.01Z</time></trkpt><trkpt lat="42.750897135683104" lon="10.268605647195136"><ele>169.66666666666666</ele><time>2026-04-26T07:34:01.01Z</time></trkpt><trkpt lat="42.750915478297685" lon="10.268708438685115"><ele>162.33333333333331</ele><time>2026-04-26T07:34:02.01Z</time></trkpt><trkpt lat="42.750945770334994" lon="10.268808588316302"><ele>155.0</ele><time>2026-04-26T07:34:03.01Z</time></trkpt><trkpt lat="42.75097984029941" lon="10.268909330680044"><ele>152.83333333333331</ele><time>2026-04-26T07:34:04.01Z</time></trkpt><trkpt lat="42.751018020867235" lon="10.269003861950447"><ele>150.66666666666666</ele><time>2026-04-26T07:34:05.01Z</time></trkpt><trkpt lat="42.75106325049842" lon="10.269093385743343"><ele>148.5</ele><time>2026-04-26T07:34:06.01Z</time></trkpt><trkpt lat="42.75110287584899" lon="10.269180471038085"><ele>146.33333333333334</ele><time>2026-04-26T07:34:07.01Z</time></trkpt><trkpt lat="42.751129063916316" lon="10.26926915545965"><ele>144.16666666666669</ele><time>2026-04-26T07:34:08.01Z</time></trkpt><trkpt lat="42.751095038541244" lon="10.269401761956146"><ele>142.0</ele><time>2026-04-26T07:34:10.01Z</time></trkpt><trkpt lat="42.75101389935239" lon="10.269405481526038"><ele>142.0</ele><time>2026-04-26T07:34:12.01Z</time></trkpt><trkpt lat="42.75097555031283" lon="10.269286624335376"><ele>142.0</ele><time>2026-04-26T07:34:14.01Z</time></trkpt><trkpt lat="42.75094742194716" lon="10.269205072334392"><ele>142.0</ele><time>2026-04-26T07:34:16.009Z</time></trkpt><trkpt lat="42.750913735865645" lon="10.269103597865989"><ele>142.0</ele><time>2026-04-26T07:34:18.009Z</time></trkpt><trkpt lat="42.75083715200289" lon="10.269083502866222"><ele>142.0</ele><time>2026-04-26T07:34:20.009Z</time></trkpt><trkpt lat="42.750799328873946" lon="10.26901413720025"><ele>142.0</ele><time>2026-04-26T07:34:21.009Z</time></trkpt><trkpt lat="42.75075621808113" lon="10.268935073233646"><ele>144.6</ele><time>2026-04-26T07:34:22.009Z</time></trkpt><trkpt lat="42.75072077860619" lon="10.268861050860766"><ele>147.2</ele><time>2026-04-26T07:34:23.009Z</time></trkpt><trkpt lat="42.75064516924598" lon="10.268743787943327"><ele>149.8</ele><time>2026-04-26T07:34:25.009Z</time></trkpt><trkpt lat="42.75056836708622" lon="10.268629620435277"><ele>152.4</ele><time>2026-04-26T07:34:27.009Z</time></trkpt><trkpt lat="42.75050711700356" lon="10.26849351878298"><ele>155.0</ele><time>2026-04-26T07:34:29.009Z</time></trkpt><trkpt lat="42.75048785430724" lon="10.268409108301201"><ele>155.0</ele><time>2026-04-26T07:34:30.009Z</time></trkpt><trkpt lat="42.75045925996768" lon="10.268318666314983"><ele>155.0</ele><time>2026-04-26T07:34:31.009Z</time></trkpt><trkpt lat="42.75041052144929" lon="10.268240415218074"><ele>155.0</ele><time>2026-04-26T07:34:32.009Z</time></trkpt><trkpt lat="42.75036647290392" lon="10.268172073514283"><ele>155.0</ele><time>2026-04-26T07:34:33.009Z</time></trkpt><trkpt lat="42.75033643666754" lon="10.268064321572911"><ele>155.0</ele><time>2026-04-26T07:34:35.009Z</time></trkpt><trkpt lat="42.75028495403488" lon="10.267964339629653"><ele>155.0</ele><time>2026-04-26T07:34:37.009Z</time></trkpt><trkpt lat="42.75018651776302" lon="10.267879968416631"><ele>149.6</ele><time>2026-04-26T07:34:39.009Z</time></trkpt><trkpt lat="42.75008931585576" lon="10.267832545995034"><ele>144.2</ele><time>2026-04-26T07:34:41.009Z</time></trkpt><trkpt lat="42.750017906521485" lon="10.26772751135918"><ele>138.8</ele><time>2026-04-26T07:34:43.009Z</time></trkpt><trkpt lat="42.74991238019898" lon="10.2676558338983"><ele>133.4</ele><time>2026-04-26T07:34:45.009Z</time></trkpt><trkpt lat="42.74983868046067" lon="10.267572134921298"><ele>128.0</ele><time>2026-04-26T07:34:47.009Z</time></trkpt><trkpt lat="42.74975823044634" lon="10.267472048185398"><ele>128.0</ele><time>2026-04-26T07:34:49.009Z</time></trkpt><trkpt lat="42.749693590787196" lon="10.267359890600796"><ele>128.0</ele><time>2026-04-26T07:34:51.009Z</time></trkpt><trkpt lat="42.74960261325416" lon="10.267305965135119"><ele>128.0</ele><time>2026-04-26T07:34:53.009Z</time></trkpt><trkpt lat="42.74950680545943" lon="10.267260235707631"><ele>128.0</ele><time>2026-04-26T07:34:55.009Z</time></trkpt><trkpt lat="42.74942491336993" lon="10.267128377631641"><ele>128.0</ele><time>2026-04-26T07:34:57.009Z</time></trkpt><trkpt lat="42.74938069617224" lon="10.266975060660709"><ele>130.16666666666666</ele><time>2026-04-26T07:34:59.009Z</time></trkpt><trkpt lat="42.749378857204476" lon="10.266886325638914"><ele>132.33333333333331</ele><time>2026-04-26T07:35:00.009Z</time></trkpt><trkpt lat="42.749368811763375" lon="10.26671374105615"><ele>134.5</ele><time>2026-04-26T07:35:02.009Z</time></trkpt><trkpt lat="42.7493496157015" lon="10.266619334531214"><ele>136.66666666666666</ele><time>2026-04-26T07:35:03.009Z</time></trkpt><trkpt lat="42.749334972457895" lon="10.266513155188825"><ele>138.83333333333334</ele><time>2026-04-26T07:35:04.009Z</time></trkpt><trkpt lat="42.749327820971615" lon="10.266400701778926"><ele>141.0</ele><time>2026-04-26T07:35:05.009Z</time></trkpt><trkpt lat="42.74932914965507" lon="10.266283817031896"><ele>140.33333333333334</ele><time>2026-04-26T07:35:06.009Z</time></trkpt><trkpt lat="42.749338683611484" lon="10.266164340165165"><ele>139.66666666666666</ele><time>2026-04-26T07:35:07.009Z</time></trkpt><trkpt lat="42.74935062697915" lon="10.266055775697906"><ele>139.0</ele><time>2026-04-26T07:35:08.009Z</time></trkpt><trkpt lat="42.74936641886394" lon="10.265956680221704"><ele>138.33333333333331</ele><time>2026-04-26T07:35:09.009Z</time></trkpt><trkpt lat="42.74939214443233" lon="10.265867650939873"><ele>137.66666666666666</ele><time>2026-04-26T07:35:10.009Z</time></trkpt><trkpt lat="42.74940595490659" lon="10.265782092248028"><ele>137.0</ele><time>2026-04-26T07:35:12.009Z</time></trkpt><trkpt lat="42.74935700641464" lon="10.265706297788235"><ele>132.79999999999998</ele><time>2026-04-26T07:35:14.009Z</time></trkpt><trkpt lat="42.74926450585654" lon="10.26572256503363"><ele>128.6</ele><time>2026-04-26T07:35:16.009Z</time></trkpt><trkpt lat="42.74919313204178" lon="10.265767850626258"><ele>124.39999999999999</ele><time>2026-04-26T07:35:18.009Z</time></trkpt><trkpt lat="42.74911794292313" lon="10.26575167943832"><ele>120.19999999999999</ele><time>2026-04-26T07:35:20.008Z</time></trkpt><trkpt lat="42.74901757684757" lon="10.265681530399318"><ele>116.0</ele><time>2026-04-26T07:35:22.008Z</time></trkpt><trkpt lat="42.748933222873525" lon="10.26552544257845"><ele>115.99999999999999</ele><time>2026-04-26T07:35:24.008Z</time></trkpt><trkpt lat="42.74887786304777" lon="10.265422973981615"><ele>116.0</ele><time>2026-04-26T07:35:25.008Z</time></trkpt><trkpt lat="42.748828199932674" lon="10.265331224373377"><ele>116.0</ele><time>2026-04-26T07:35:26.008Z</time></trkpt><trkpt lat="42.74877471590179" lon="10.265258206403761"><ele>116.0</ele><time>2026-04-26T07:35:27.008Z</time></trkpt><trkpt lat="42.748723829626215" lon="10.265195154065427"><ele>115.99999999999999</ele><time>2026-04-26T07:35:28.008Z</time></trkpt><trkpt lat="42.74866176915728" lon="10.265086883470065"><ele>116.0</ele><time>2026-04-26T07:35:30.008Z</time></trkpt><trkpt lat="42.74858616152362" lon="10.265078252521974"><ele>112.16666666666666</ele><time>2026-04-26T07:35:32.008Z</time></trkpt><trkpt lat="42.74850010015202" lon="10.265070117308639"><ele>108.33333333333333</ele><time>2026-04-26T07:35:34.008Z</time></trkpt><trkpt lat="42.74841081516863" lon="10.264998007417491"><ele>104.5</ele><time>2026-04-26T07:35:36.008Z</time></trkpt><trkpt lat="42.74836687636071" lon="10.264929450753716"><ele>100.66666666666666</ele><time>2026-04-26T07:35:37.008Z</time></trkpt><trkpt lat="42.748294964116106" lon="10.264799701602772"><ele>96.83333333333333</ele><time>2026-04-26T07:35:39.008Z</time></trkpt><trkpt lat="42.74825327887874" lon="10.264719454367935"><ele>93.0</ele><time>2026-04-26T07:35:40.008Z</time></trkpt><trkpt lat="42.74819828875203" lon="10.264632122979394"><ele>93.0</ele><time>2026-04-26T07:35:41.008Z</time></trkpt><trkpt lat="42.74814540567133" lon="10.264553395745432"><ele>93.0</ele><time>2026-04-26T07:35:42.008Z</time></trkpt><trkpt lat="42.748110168737675" lon="10.264465662327817"><ele>93.0</ele><time>2026-04-26T07:35:43.008Z</time></trkpt><trkpt lat="42.74809121681023" lon="10.264376056488413"><ele>93.0</ele><time>2026-04-26T07:35:44.008Z</time></trkpt><trkpt lat="42.74807824135172" lon="10.264274816302729"><ele>93.0</ele><time>2026-04-26T07:35:45.008Z</time></trkpt><trkpt lat="42.74807571818818" lon="10.264170392997586"><ele>93.0</ele><time>2026-04-26T07:35:46.008Z</time></trkpt><trkpt lat="42.74808092706904" lon="10.264063088726294"><ele>93.00000000000001</ele><time>2026-04-26T07:35:47.008Z</time></trkpt><trkpt lat="42.74808854697451" lon="10.26395831926574"><ele>93.0</ele><time>2026-04-26T07:35:48.008Z</time></trkpt><trkpt lat="42.74810924593749" lon="10.26386656650405"><ele>93.0</ele><time>2026-04-26T07:35:49.008Z</time></trkpt><trkpt lat="42.748128665707476" lon="10.263783554351368"><ele>93.0</ele><time>2026-04-26T07:35:50.008Z</time></trkpt><trkpt lat="42.748171632998364" lon="10.263696215131354"><ele>93.0</ele><time>2026-04-26T07:36:29.009Z</time></trkpt><trkpt lat="42.74818401506473" lon="10.263591720620301"><ele>93.00000000000001</ele><time>2026-04-26T07:36:32.009Z</time></trkpt><trkpt lat="42.74820379231525" lon="10.2634912485134"><ele>93.0</ele><time>2026-04-26T07:36:34.009Z</time></trkpt><trkpt lat="42.74818370243046" lon="10.263385394163832"><ele>94.2</ele><time>2026-04-26T07:36:36.009Z</time></trkpt><trkpt lat="42.74812585304264" lon="10.263303987317208"><ele>95.4</ele><time>2026-04-26T07:36:38.009Z</time></trkpt><trkpt lat="42.74803360115054" lon="10.26321678328765"><ele>96.60000000000001</ele><time>2026-04-26T07:36:40.009Z</time></trkpt><trkpt lat="42.7479723336396" lon="10.263174200595863"><ele>97.80000000000001</ele><time>2026-04-26T07:36:41.009Z</time></trkpt><trkpt lat="42.74787539327402" lon="10.263132834723542"><ele>99.0</ele><time>2026-04-26T07:36:42.008Z</time></trkpt><trkpt lat="42.74776872312342" lon="10.263080941832843"><ele>94.83333333333333</ele><time>2026-04-26T07:36:43.008Z</time></trkpt><trkpt lat="42.74767937476511" lon="10.263032907425803"><ele>90.66666666666667</ele><time>2026-04-26T07:36:44.008Z</time></trkpt><trkpt lat="42.747606788298434" lon="10.262974501641255"><ele>86.5</ele><time>2026-04-26T07:36:45.008Z</time></trkpt><trkpt lat="42.74756152541302" lon="10.262872367053383"><ele>82.33333333333334</ele><time>2026-04-26T07:36:46.008Z</time></trkpt><trkpt lat="42.74752665545773" lon="10.262769869780287"><ele>78.16666666666667</ele><time>2026-04-26T07:36:47.008Z</time></trkpt><trkpt lat="42.74750666232392" lon="10.262641163664481"><ele>74.0</ele><time>2026-04-26T07:36:48.008Z</time></trkpt><trkpt lat="42.74750787760684" lon="10.262505363872641"><ele>74.0</ele><time>2026-04-26T07:36:49.008Z</time></trkpt><trkpt lat="42.74752417457295" lon="10.262360766568474"><ele>74.0</ele><time>2026-04-26T07:36:50.008Z</time></trkpt><trkpt lat="42.747555808598015" lon="10.262222871127255"><ele>74.0</ele><time>2026-04-26T07:36:51.008Z</time></trkpt><trkpt lat="42.74760832317298" lon="10.262084692551127"><ele>74.0</ele><time>2026-04-26T07:36:52.008Z</time></trkpt><trkpt lat="42.747660520432014" lon="10.261954589473293"><ele>74.0</ele><time>2026-04-26T07:36:53.008Z</time></trkpt><trkpt lat="42.74772303068409" lon="10.261836344640864"><ele>78.6</ele><time>2026-04-26T07:36:54.008Z</time></trkpt><trkpt lat="42.7477892201114" lon="10.261717219270547"><ele>83.2</ele><time>2026-04-26T07:36:55.008Z</time></trkpt><trkpt lat="42.74784512977563" lon="10.261611173018155"><ele>87.8</ele><time>2026-04-26T07:36:56.008Z</time></trkpt><trkpt lat="42.74790776901276" lon="10.261490224729204"><ele>92.39999999999999</ele><time>2026-04-26T07:36:57.008Z</time></trkpt><trkpt lat="42.74794219667851" lon="10.261398649623382"><ele>97.0</ele><time>2026-04-26T07:36:58.008Z</time></trkpt><trkpt lat="42.74793427548279" lon="10.261237889498119"><ele>98.0</ele><time>2026-04-26T07:37:00.008Z</time></trkpt><trkpt lat="42.747817775129505" lon="10.261118136940395"><ele>99.0</ele><time>2026-04-26T07:37:02.008Z</time></trkpt><trkpt lat="42.747713061236105" lon="10.261075717775999"><ele>100.0</ele><time>2026-04-26T07:37:03.008Z</time></trkpt><trkpt lat="42.74759707337801" lon="10.260982639568427"><ele>101.0</ele><time>2026-04-26T07:37:04.008Z</time></trkpt><trkpt lat="42.74750987219855" lon="10.260932408853575"><ele>97.4</ele><time>2026-04-26T07:37:05.008Z</time></trkpt><trkpt lat="42.74743831033869" lon="10.260906161606904"><ele>93.8</ele><time>2026-04-26T07:37:06.008Z</time></trkpt><trkpt lat="42.7473486447979" lon="10.260926883164503"><ele>90.2</ele><time>2026-04-26T07:37:07.008Z</time></trkpt><trkpt lat="42.74723791774091" lon="10.260926201783501"><ele>86.60000000000001</ele><time>2026-04-26T07:37:08.008Z</time></trkpt><trkpt lat="42.74711678038289" lon="10.260894383691575"><ele>83.0</ele><time>2026-04-26T07:37:09.008Z</time></trkpt><trkpt lat="42.747008527501606" lon="10.260857769862353"><ele>83.0</ele><time>2026-04-26T07:37:10.008Z</time></trkpt><trkpt lat="42.7469082726371" lon="10.260837695585007"><ele>83.0</ele><time>2026-04-26T07:37:11.008Z</time></trkpt><trkpt lat="42.74681166804959" lon="10.26083718631907"><ele>83.0</ele><time>2026-04-26T07:37:12.008Z</time></trkpt><trkpt lat="42.746714115566775" lon="10.26083728829415"><ele>83.0</ele><time>2026-04-26T07:37:13.008Z</time></trkpt><trkpt lat="42.74661750482457" lon="10.260840840620952"><ele>83.0</ele><time>2026-04-26T07:37:14.008Z</time></trkpt><trkpt lat="42.74653948749911" lon="10.260848086923808"><ele>82.5</ele><time>2026-04-26T07:37:15.008Z</time></trkpt><trkpt lat="42.74647051543768" lon="10.260848179233538"><ele>82.0</ele><time>2026-04-26T07:37:16.008Z</time></trkpt><trkpt lat="42.74640490127407" lon="10.260779077463667"><ele>81.5</ele><time>2026-04-26T07:37:18.008Z</time></trkpt><trkpt lat="42.746439436273434" lon="10.260700265832032"><ele>81.0</ele><time>2026-04-26T07:37:20.008Z</time></trkpt><trkpt lat="42.7465732077777" lon="10.260677199744542"><ele>80.5</ele><time>2026-04-26T07:37:22.008Z</time></trkpt><trkpt lat="42.74665698014" lon="10.260640508100323"><ele>80.0</ele><time>2026-04-26T07:37:23.008Z</time></trkpt><trkpt lat="42.74673894916388" lon="10.26059955896398"><ele>81.33333333333334</ele><time>2026-04-26T07:37:24.008Z</time></trkpt><trkpt lat="42.74681376291087" lon="10.260536880274415"><ele>82.66666666666667</ele><time>2026-04-26T07:37:25.008Z</time></trkpt><trkpt lat="42.74689112353221" lon="10.26046199392133"><ele>84.0</ele><time>2026-04-26T07:37:26.008Z</time></trkpt><trkpt lat="42.74695301660855" lon="10.260390864021836"><ele>85.33333333333333</ele><time>2026-04-26T07:37:27.008Z</time></trkpt><trkpt lat="42.747008550419494" lon="10.26030816821131"><ele>86.66666666666666</ele><time>2026-04-26T07:37:28.008Z</time></trkpt><trkpt lat="42.74705552671278" lon="10.260202535333415"><ele>88.0</ele><time>2026-04-26T07:37:29.008Z</time></trkpt><trkpt lat="42.74709997962119" lon="10.260106472363345"><ele>90.60000000000001</ele><time>2026-04-26T07:37:30.008Z</time></trkpt><trkpt lat="42.74714197608337" lon="10.260007813749183"><ele>93.2</ele><time>2026-04-26T07:37:31.008Z</time></trkpt><trkpt lat="42.747166763791235" lon="10.25991037163401"><ele>95.8</ele><time>2026-04-26T07:37:32.008Z</time></trkpt><trkpt lat="42.74717623440432" lon="10.2597864304267"><ele>98.4</ele><time>2026-04-26T07:37:33.008Z</time></trkpt><trkpt lat="42.747185200612996" lon="10.259635116777577"><ele>101.0</ele><time>2026-04-26T07:37:34.008Z</time></trkpt><trkpt lat="42.74720467343265" lon="10.25948364952327"><ele>101.0</ele><time>2026-04-26T07:37:35.008Z</time></trkpt><trkpt lat="42.74723088111948" lon="10.259356996916143"><ele>101.0</ele><time>2026-04-26T07:37:36.008Z</time></trkpt><trkpt lat="42.74726134112561" lon="10.259236232349352"><ele>101.0</ele><time>2026-04-26T07:37:37.008Z</time></trkpt><trkpt lat="42.74730027886371" lon="10.259120673821705"><ele>101.0</ele><time>2026-04-26T07:37:38.008Z</time></trkpt><trkpt lat="42.74733829409871" lon="10.259012171941508"><ele>101.0</ele><time>2026-04-26T07:37:39.008Z</time></trkpt><trkpt lat="42.74737818562393" lon="10.258909259985156"><ele>101.0</ele><time>2026-04-26T07:37:40.008Z</time></trkpt><trkpt lat="42.747399608579926" lon="10.258796543901688"><ele>101.0</ele><time>2026-04-26T07:37:41.008Z</time></trkpt><trkpt lat="42.74738642433202" lon="10.258681262880458"><ele>101.0</ele><time>2026-04-26T07:37:42.008Z</time></trkpt><trkpt lat="42.74736915496683" lon="10.258553493885609"><ele>101.0</ele><time>2026-04-26T07:37:43.008Z</time></trkpt><trkpt lat="42.74735510763527" lon="10.258412723811535"><ele>101.0</ele><time>2026-04-26T07:37:44.008Z</time></trkpt><trkpt lat="42.7473587158287" lon="10.258296613580995"><ele>100.99999999999999</ele><time>2026-04-26T07:37:45.008Z</time></trkpt><trkpt lat="42.74737086290033" lon="10.258192990589842"><ele>101.0</ele><time>2026-04-26T07:37:46.007Z</time></trkpt><trkpt lat="42.74740086196635" lon="10.25810383275728"><ele>101.0</ele><time>2026-04-26T07:37:47.007Z</time></trkpt><trkpt lat="42.74746076999471" lon="10.258037719387607"><ele>101.0</ele><time>2026-04-26T07:37:48.007Z</time></trkpt><trkpt lat="42.74753388147234" lon="10.257992623368827"><ele>100.99999999999999</ele><time>2026-04-26T07:37:49.007Z</time></trkpt><trkpt lat="42.747630106715214" lon="10.257947058089998"><ele>101.0</ele><time>2026-04-26T07:37:50.007Z</time></trkpt><trkpt lat="42.74773559669896" lon="10.257882040409752"><ele>100.6</ele><time>2026-04-26T07:37:51.007Z</time></trkpt><trkpt lat="42.747836053328975" lon="10.257782083196659"><ele>100.19999999999999</ele><time>2026-04-26T07:37:52.007Z</time></trkpt><trkpt lat="42.747937530607906" lon="10.257691139347807"><ele>99.80000000000001</ele><time>2026-04-26T07:37:53.007Z</time></trkpt><trkpt lat="42.748032495191296" lon="10.257616354358731"><ele>99.4</ele><time>2026-04-26T07:37:54.007Z</time></trkpt><trkpt lat="42.74811942918143" lon="10.257569343633474"><ele>99.0</ele><time>2026-04-26T07:37:55.007Z</time></trkpt><trkpt lat="42.74820587548145" lon="10.257556970931155"><ele>99.0</ele><time>2026-04-26T07:37:56.007Z</time></trkpt><trkpt lat="42.74830575990609" lon="10.257561253961299"><ele>99.0</ele><time>2026-04-26T07:37:57.007Z</time></trkpt><trkpt lat="42.74842131319437" lon="10.257561348570542"><ele>99.0</ele><time>2026-04-26T07:37:58.01Z</time></trkpt><trkpt lat="42.74853710209994" lon="10.257538393606401"><ele>99.0</ele><time>2026-04-26T07:37:59.01Z</time></trkpt><trkpt lat="42.74863991457047" lon="10.25751076525304"><ele>99.0</ele><time>2026-04-26T07:38:00.01Z</time></trkpt><trkpt lat="42.748726768718655" lon="10.25748641108951"><ele>100.83333333333333</ele><time>2026-04-26T07:38:01.01Z</time></trkpt><trkpt lat="42.74879644595219" lon="10.257458302531534"><ele>102.66666666666666</ele><time>2026-04-26T07:38:02.01Z</time></trkpt><trkpt lat="42.748840793674916" lon="10.257392286837284"><ele>104.5</ele><time>2026-04-26T07:38:03.01Z</time></trkpt><trkpt lat="42.7488773598174" lon="10.25730190684887"><ele>106.33333333333333</ele><time>2026-04-26T07:38:04.01Z</time></trkpt><trkpt lat="42.748910262156244" lon="10.257175762876356"><ele>108.16666666666666</ele><time>2026-04-26T07:38:05.01Z</time></trkpt><trkpt lat="42.74892822509362" lon="10.257035373821951"><ele>110.0</ele><time>2026-04-26T07:38:06.01Z</time></trkpt><trkpt lat="42.74892732901431" lon="10.256899307328107"><ele>110.0</ele><time>2026-04-26T07:38:07.01Z</time></trkpt><trkpt lat="42.748904839597785" lon="10.256750877496202"><ele>110.0</ele><time>2026-04-26T07:38:08.01Z</time></trkpt><trkpt lat="42.74888452106701" lon="10.2565884171519"><ele>110.0</ele><time>2026-04-26T07:38:09.01Z</time></trkpt><trkpt lat="42.74887568800329" lon="10.256437747120083"><ele>110.0</ele><time>2026-04-26T07:38:10.011Z</time></trkpt><trkpt lat="42.7488729554244" lon="10.256282033620117"><ele>109.5</ele><time>2026-04-26T07:38:11.01Z</time></trkpt><trkpt lat="42.74887416080373" lon="10.256115263199552"><ele>109.0</ele><time>2026-04-26T07:38:12.01Z</time></trkpt><trkpt lat="42.74887869235126" lon="10.255948553971418"><ele>108.5</ele><time>2026-04-26T07:38:13.01Z</time></trkpt><trkpt lat="42.748886910555754" lon="10.255792059503221"><ele>108.0</ele><time>2026-04-26T07:38:14.01Z</time></trkpt><trkpt lat="42.748889685433625" lon="10.255651419758305"><ele>107.16666666666667</ele><time>2026-04-26T07:38:15.01Z</time></trkpt><trkpt lat="42.74889008355315" lon="10.255526345263414"><ele>106.33333333333334</ele><time>2026-04-26T07:38:16.01Z</time></trkpt><trkpt lat="42.74889884696533" lon="10.255408435011688"><ele>105.5</ele><time>2026-04-26T07:38:17.01Z</time></trkpt><trkpt lat="42.748917062472515" lon="10.2553140657514"><ele>104.66666666666667</ele><time>2026-04-26T07:38:18.01Z</time></trkpt><trkpt lat="42.748984759089986" lon="10.255205743013873"><ele>103.83333333333334</ele><time>2026-04-26T07:38:20.01Z</time></trkpt><trkpt lat="42.749057695426636" lon="10.255168288482148"><ele>103.0</ele><time>2026-04-26T07:38:21.01Z</time></trkpt><trkpt lat="42.74912932140062" lon="10.255129812819112"><ele>103.0</ele><time>2026-04-26T07:38:22.01Z</time></trkpt><trkpt lat="42.74919395189054" lon="10.255030014182633"><ele>103.0</ele><time>2026-04-26T07:38:24.01Z</time></trkpt><trkpt lat="42.749189951373026" lon="10.254932997560573"><ele>103.0</ele><time>2026-04-26T07:38:25.01Z</time></trkpt><trkpt lat="42.74918285477479" lon="10.254782937297367"><ele>103.0</ele><time>2026-04-26T07:38:26.01Z</time></trkpt><trkpt lat="42.74918347135577" lon="10.254596683127959"><ele>103.0</ele><time>2026-04-26T07:38:27.01Z</time></trkpt><trkpt lat="42.74916480553928" lon="10.254425955035744"><ele>103.2</ele><time>2026-04-26T07:38:28.01Z</time></trkpt><trkpt lat="42.749147436573075" lon="10.254266228280368"><ele>103.4</ele><time>2026-04-26T07:38:29.01Z</time></trkpt><trkpt lat="42.74914812526281" lon="10.254126116190083"><ele>103.60000000000001</ele><time>2026-04-26T07:38:30.01Z</time></trkpt><trkpt lat="42.74917002446227" lon="10.2540046232796"><ele>103.80000000000001</ele><time>2026-04-26T07:38:31.01Z</time></trkpt><trkpt lat="42.74917923910697" lon="10.253901047529373"><ele>104.0</ele><time>2026-04-26T07:38:32.01Z</time></trkpt><trkpt lat="42.749198886861066" lon="10.253801192241273"><ele>103.99999999999999</ele><time>2026-04-26T07:38:33.01Z</time></trkpt><trkpt lat="42.749261714244" lon="10.253703441986314"><ele>104.0</ele><time>2026-04-26T07:38:35.01Z</time></trkpt><trkpt lat="42.74932555215007" lon="10.253645877977833"><ele>104.0</ele><time>2026-04-26T07:38:36.01Z</time></trkpt><trkpt lat="42.749418879080885" lon="10.2535944226399"><ele>104.0</ele><time>2026-04-26T07:38:37.01Z</time></trkpt><trkpt lat="42.74948708748057" lon="10.253534265120196"><ele>103.99999999999999</ele><time>2026-04-26T07:38:38.01Z</time></trkpt><trkpt lat="42.749551397501065" lon="10.25344923374408"><ele>104.0</ele><time>2026-04-26T07:38:39.01Z</time></trkpt><trkpt lat="42.749607882599506" lon="10.253344900105793"><ele>97.8</ele><time>2026-04-26T07:38:40.01Z</time></trkpt><trkpt lat="42.749661812921296" lon="10.253234641155254"><ele>91.60000000000001</ele><time>2026-04-26T07:38:41.01Z</time></trkpt><trkpt lat="42.7497179488036" lon="10.253127508406362"><ele>85.4</ele><time>2026-04-26T07:38:42.01Z</time></trkpt><trkpt lat="42.74977586071685" lon="10.253018444506761"><ele>79.2</ele><time>2026-04-26T07:38:43.01Z</time></trkpt><trkpt lat="42.74983862084576" lon="10.252921611888308"><ele>73.0</ele><time>2026-04-26T07:38:44.01Z</time></trkpt><trkpt lat="42.749905216461165" lon="10.252852239678148"><ele>73.0</ele><time>2026-04-26T07:38:45.01Z</time></trkpt><trkpt lat="42.749967717133316" lon="10.252789705835758"><ele>73.0</ele><time>2026-04-26T07:38:46.01Z</time></trkpt><trkpt lat="42.75002263052768" lon="10.252729018727331"><ele>73.0</ele><time>2026-04-26T07:38:47.01Z</time></trkpt><trkpt lat="42.750071401413784" lon="10.252664440042983"><ele>73.0</ele><time>2026-04-26T07:38:48.01Z</time></trkpt><trkpt lat="42.750113562380214" lon="10.25258143892634"><ele>73.0</ele><time>2026-04-26T07:38:49.01Z</time></trkpt><trkpt lat="42.7501392344" lon="10.252476267091307"><ele>73.0</ele><time>2026-04-26T07:38:50.01Z</time></trkpt><trkpt lat="42.750147710124345" lon="10.252360850579018"><ele>71.16666666666666</ele><time>2026-04-26T07:38:51.01Z</time></trkpt><trkpt lat="42.750144144460066" lon="10.252234477402816"><ele>69.33333333333333</ele><time>2026-04-26T07:38:52.01Z</time></trkpt><trkpt lat="42.750135996505726" lon="10.252110250302858"><ele>67.5</ele><time>2026-04-26T07:38:53.01Z</time></trkpt><trkpt lat="42.75012168627486" lon="10.25198508088347"><ele>65.66666666666667</ele><time>2026-04-26T07:38:54.01Z</time></trkpt><trkpt lat="42.750105115300734" lon="10.251874903785712"><ele>63.833333333333336</ele><time>2026-04-26T07:38:55.01Z</time></trkpt><trkpt lat="42.75009131374674" lon="10.251775782868101"><ele>62.0</ele><time>2026-04-26T07:38:56.01Z</time></trkpt><trkpt lat="42.75004799333968" lon="10.251632624929124"><ele>62.0</ele><time>2026-04-26T07:38:58.01Z</time></trkpt><trkpt lat="42.75005792688229" lon="10.251523674133685"><ele>62.0</ele><time>2026-04-26T07:39:00.009Z</time></trkpt><trkpt lat="42.75015555365663" lon="10.251531943359694"><ele>62.0</ele><time>2026-04-26T07:39:02.009Z</time></trkpt><trkpt lat="42.750208660569484" lon="10.251671025954808"><ele>62.0</ele><time>2026-04-26T07:39:04.009Z</time></trkpt><trkpt lat="42.75029044839096" lon="10.251726695809491"><ele>62.0</ele><time>2026-04-26T07:39:06.009Z</time></trkpt><trkpt lat="42.75033500644815" lon="10.251599482745835"><ele>59.333333333333336</ele><time>2026-04-26T07:39:08.009Z</time></trkpt><trkpt lat="42.75031976985539" lon="10.25150312732246"><ele>56.66666666666667</ele><time>2026-04-26T07:39:09.009Z</time></trkpt><trkpt lat="42.75028649014073" lon="10.251407886474622"><ele>54.0</ele><time>2026-04-26T07:39:10.009Z</time></trkpt><trkpt lat="42.750247143027394" lon="10.25132670924068"><ele>51.333333333333336</ele><time>2026-04-26T07:39:11.009Z</time></trkpt><trkpt lat="42.75020801475006" lon="10.251247966841714"><ele>48.66666666666667</ele><time>2026-04-26T07:39:12.009Z</time></trkpt><trkpt lat="42.75019617838213" lon="10.251112065958424"><ele>46.0</ele><time>2026-04-26T07:39:14.009Z</time></trkpt><trkpt lat="42.750231523958824" lon="10.251022975110804"><ele>44.333333333333336</ele><time>2026-04-26T07:39:15.009Z</time></trkpt><trkpt lat="42.75027878338902" lon="10.250941689150258"><ele>42.66666666666667</ele><time>2026-04-26T07:39:16.009Z</time></trkpt><trkpt lat="42.75034263944859" lon="10.250844715739127"><ele>41.0</ele><time>2026-04-26T07:39:17.009Z</time></trkpt><trkpt lat="42.75039911534808" lon="10.250742173834805"><ele>39.333333333333336</ele><time>2026-04-26T07:39:18.009Z</time></trkpt><trkpt lat="42.750441143162725" lon="10.250643264656706"><ele>37.666666666666664</ele><time>2026-04-26T07:39:19.009Z</time></trkpt><trkpt lat="42.75048751695386" lon="10.250568228353968"><ele>36.0</ele><time>2026-04-26T07:39:20.009Z</time></trkpt><trkpt lat="42.75059718760518" lon="10.250539510253452"><ele>36.0</ele><time>2026-04-26T07:39:22.009Z</time></trkpt><trkpt lat="42.75066445229039" lon="10.250655052589057"><ele>36.0</ele><time>2026-04-26T07:39:24.009Z</time></trkpt><trkpt lat="42.75070452488637" lon="10.250803621664943"><ele>36.0</ele><time>2026-04-26T07:39:26.009Z</time></trkpt><trkpt lat="42.75078807370723" lon="10.250836015336096"><ele>36.0</ele><time>2026-04-26T07:39:28.009Z</time></trkpt><trkpt lat="42.750829334866594" lon="10.250706844200852"><ele>36.0</ele><time>2026-04-26T07:39:30.009Z</time></trkpt><trkpt lat="42.750829401239336" lon="10.25059906382808"><ele>34.4</ele><time>2026-04-26T07:39:31.009Z</time></trkpt><trkpt lat="42.75082296222216" lon="10.250471154389755"><ele>32.8</ele><time>2026-04-26T07:39:32.009Z</time></trkpt><trkpt lat="42.75082903256338" lon="10.250328593537418"><ele>31.199999999999996</ele><time>2026-04-26T07:39:33.009Z</time></trkpt><trkpt lat="42.750822868933675" lon="10.250206297121146"><ele>29.599999999999998</ele><time>2026-04-26T07:39:34.009Z</time></trkpt><trkpt lat="42.750802764884426" lon="10.250086203172978"><ele>28.0</ele><time>2026-04-26T07:39:35.009Z</time></trkpt><trkpt lat="42.75077635474177" lon="10.249938361694333"><ele>28.0</ele><time>2026-04-26T07:39:36.009Z</time></trkpt><trkpt lat="42.75074631387349" lon="10.24986215583744"><ele>27.999999999999996</ele><time>2026-04-26T07:39:37.009Z</time></trkpt><trkpt lat="42.75075299276777" lon="10.249756601325112"><ele>27.999999999999996</ele><time>2026-04-26T07:39:40.009Z</time></trkpt><trkpt lat="42.75086485276435" lon="10.249675677054165"><ele>28.0</ele><time>2026-04-26T07:39:42.009Z</time></trkpt><trkpt lat="42.750941390158246" lon="10.24962917878202"><ele>28.0</ele><time>2026-04-26T07:39:43.009Z</time></trkpt><trkpt lat="42.75102412388784" lon="10.249549536734312"><ele>22.5</ele><time>2026-04-26T07:39:44.009Z</time></trkpt><trkpt lat="42.75111533377341" lon="10.249457908809593"><ele>17.0</ele><time>2026-04-26T07:39:45.009Z</time></trkpt><trkpt lat="42.75120498962532" lon="10.249360633971818"><ele>11.5</ele><time>2026-04-26T07:39:46.009Z</time></trkpt><trkpt lat="42.75129834992496" lon="10.24926546210228"><ele>6.0</ele><time>2026-04-26T07:39:47.009Z</time></trkpt><trkpt lat="42.751385869617295" lon="10.249177529628563"><ele>6.0</ele><time>2026-04-26T07:39:48.009Z</time></trkpt><trkpt lat="42.75145804124429" lon="10.249123909426508"><ele>6.0</ele><time>2026-04-26T07:39:49.009Z</time></trkpt><trkpt lat="42.75153556756273" lon="10.249084243830204"><ele>6.0</ele><time>2026-04-26T07:39:50.009Z</time></trkpt><trkpt lat="42.75162178210686" lon="10.249100048275228"><ele>6.0</ele><time>2026-04-26T07:39:51.009Z</time></trkpt><trkpt lat="42.75170129464904" lon="10.249136343720116"><ele>6.0</ele><time>2026-04-26T07:39:52.009Z</time></trkpt><trkpt lat="42.75177686934925" lon="10.249171677129649"><ele>6.0</ele><time>2026-04-26T07:39:53.009Z</time></trkpt><trkpt lat="42.75186212576471" lon="10.249165257322247"><ele>5.833333333333333</ele><time>2026-04-26T07:39:55.009Z</time></trkpt><trkpt lat="42.75191972064323" lon="10.24902369397381"><ele>5.666666666666667</ele><time>2026-04-26T07:39:57.009Z</time></trkpt><trkpt lat="42.75193629497796" lon="10.248912322680502"><ele>5.5</ele><time>2026-04-26T07:39:58.009Z</time></trkpt><trkpt lat="42.751960479616784" lon="10.248809456082629"><ele>5.333333333333334</ele><time>2026-04-26T07:39:59.009Z</time></trkpt><trkpt lat="42.75199065865606" lon="10.248702825459311"><ele>5.166666666666667</ele><time>2026-04-26T07:40:00.009Z</time></trkpt><trkpt lat="42.75202643088947" lon="10.24860416164332"><ele>5.0</ele><time>2026-04-26T07:40:01.009Z</time></trkpt><trkpt lat="42.75206507916938" lon="10.248525372263718"><ele>4.6</ele><time>2026-04-26T07:40:02.009Z</time></trkpt><trkpt lat="42.75217587849108" lon="10.248479350744738"><ele>4.2</ele><time>2026-04-26T07:40:04.011Z</time></trkpt><trkpt lat="42.75224847242197" lon="10.248476984093296"><ele>3.8</ele><time>2026-04-26T07:40:05.011Z</time></trkpt><trkpt lat="42.752337947343726" lon="10.248510388782528"><ele>3.4</ele><time>2026-04-26T07:40:06.011Z</time></trkpt><trkpt lat="42.752445703798024" lon="10.248556336448592"><ele>3.0</ele><time>2026-04-26T07:40:07.011Z</time></trkpt><trkpt lat="42.75255017413423" lon="10.24859504309704"><ele>3.0</ele><time>2026-04-26T07:40:08.01Z</time></trkpt><trkpt lat="42.752638336962384" lon="10.248637623720036"><ele>3.0</ele><time>2026-04-26T07:40:09.01Z</time></trkpt><trkpt lat="42.75273214923852" lon="10.248678632301765"><ele>3.0</ele><time>2026-04-26T07:40:10.01Z</time></trkpt><trkpt lat="42.75281759816177" lon="10.24870354414779"><ele>3.0</ele><time>2026-04-26T07:40:11.011Z</time></trkpt><trkpt lat="42.75289899060764" lon="10.248718160412023"><ele>3.0</ele><time>2026-04-26T07:40:12.011Z</time></trkpt><trkpt lat="42.75297055044266" lon="10.248711593678149"><ele>3.0</ele><time>2026-04-26T07:40:13.01Z</time></trkpt><trkpt lat="42.75303750951101" lon="10.248693785844761"><ele>3.666666666666667</ele><time>2026-04-26T07:40:14.01Z</time></trkpt><trkpt lat="42.753100640094004" lon="10.248643857726847"><ele>4.333333333333334</ele><time>2026-04-26T07:40:15.01Z</time></trkpt><trkpt lat="42.753155608374804" lon="10.248567066544824"><ele>5.0</ele><time>2026-04-26T07:40:16.011Z</time></trkpt><trkpt lat="42.75320396064698" lon="10.24847329887944"><ele>5.666666666666667</ele><time>2026-04-26T07:40:17.01Z</time></trkpt><trkpt lat="42.75325599743569" lon="10.24837320095225"><ele>6.333333333333334</ele><time>2026-04-26T07:40:18.01Z</time></trkpt><trkpt lat="42.75333396630408" lon="10.248277645032639"><ele>7.0</ele><time>2026-04-26T07:40:19.01Z</time></trkpt><trkpt lat="42.75340697679539" lon="10.248150959729106"><ele>6.5</ele><time>2026-04-26T07:40:20.01Z</time></trkpt><trkpt lat="42.75349319264048" lon="10.248026985845062"><ele>6.0</ele><time>2026-04-26T07:40:21.01Z</time></trkpt><trkpt lat="42.75358257434004" lon="10.247907326806516"><ele>5.5</ele><time>2026-04-26T07:40:22.01Z</time></trkpt><trkpt lat="42.753674511166196" lon="10.247803012490278"><ele>5.0</ele><time>2026-04-26T07:40:23.01Z</time></trkpt><trkpt lat="42.753741578024304" lon="10.247705636621577"><ele>5.0</ele><time>2026-04-26T07:40:24.01Z</time></trkpt><trkpt lat="42.753816933821994" lon="10.247637954179172"><ele>5.0</ele><time>2026-04-26T07:40:25.01Z</time></trkpt><trkpt lat="42.75387067815507" lon="10.247558551182475"><ele>5.0</ele><time>2026-04-26T07:40:26.01Z</time></trkpt><trkpt lat="42.75397323684368" lon="10.247443123762709"><ele>5.0</ele><time>2026-04-26T07:40:28.01Z</time></trkpt><trkpt lat="42.754056598449196" lon="10.247369118658696"><ele>5.0</ele><time>2026-04-26T07:40:29.01Z</time></trkpt><trkpt lat="42.754120736239955" lon="10.247326723385738"><ele>4.833333333333334</ele><time>2026-04-26T07:40:30.01Z</time></trkpt><trkpt lat="42.75420176982119" lon="10.247290531238443"><ele>4.666666666666667</ele><time>2026-04-26T07:40:32.009Z</time></trkpt><trkpt lat="42.75427807842688" lon="10.247252719810513"><ele>4.5</ele><time>2026-04-26T07:40:45.009Z</time></trkpt><trkpt lat="42.754376645510504" lon="10.247324997218122"><ele>4.333333333333333</ele><time>2026-04-26T07:40:48.009Z</time></trkpt><trkpt lat="42.75442270163098" lon="10.24739399311421"><ele>4.166666666666666</ele><time>2026-04-26T07:40:49.009Z</time></trkpt><trkpt lat="42.75447375953002" lon="10.247484935064122"><ele>4.0</ele><time>2026-04-26T07:40:50.009Z</time></trkpt><trkpt lat="42.7545326225854" lon="10.24757974401932"><ele>4.0</ele><time>2026-04-26T07:40:51.009Z</time></trkpt><trkpt lat="42.75460211949771" lon="10.247678242062893"><ele>4.0</ele><time>2026-04-26T07:40:52.009Z</time></trkpt><trkpt lat="42.75468077081174" lon="10.24778657603234"><ele>4.0</ele><time>2026-04-26T07:40:53.009Z</time></trkpt><trkpt lat="42.75476323107622" lon="10.247897048496"><ele>4.0</ele><time>2026-04-26T07:40:54.009Z</time></trkpt><trkpt lat="42.7548513831755" lon="10.247999982425824"><ele>4.0</ele><time>2026-04-26T07:40:55.009Z</time></trkpt><trkpt lat="42.75496251686537" lon="10.248106567454201"><ele>4.666666666666666</ele><time>2026-04-26T07:40:56.009Z</time></trkpt><trkpt lat="42.75508828285117" lon="10.248212480267147"><ele>5.333333333333333</ele><time>2026-04-26T07:40:57.009Z</time></trkpt><trkpt lat="42.755222270464195" lon="10.248324743068551"><ele>6.0</ele><time>2026-04-26T07:40:58.009Z</time></trkpt><trkpt lat="42.75536987332859" lon="10.248450832913795"><ele>6.0</ele><time>2026-04-26T07:40:59.009Z</time></trkpt><trkpt lat="42.75550826462136" lon="10.248561314268093"><ele>6.0</ele><time>2026-04-26T07:41:00.009Z</time></trkpt><trkpt lat="42.75565384321412" lon="10.248688755169914"><ele>6.0</ele><time>2026-04-26T07:41:01.009Z</time></trkpt><trkpt lat="42.75579559736518" lon="10.248803487277371"><ele>6.0</ele><time>2026-04-26T07:41:02.009Z</time></trkpt><trkpt lat="42.75593700688733" lon="10.248909138493671"><ele>6.0</ele><time>2026-04-26T07:41:03.009Z</time></trkpt><trkpt lat="42.75606286438424" lon="10.248995541053217"><ele>6.0</ele><time>2026-04-26T07:41:04.009Z</time></trkpt><trkpt lat="42.75618877462212" lon="10.249063623724755"><ele>6.0</ele><time>2026-04-26T07:41:05.009Z</time></trkpt><trkpt lat="42.75630898992333" lon="10.249125532640226"><ele>7.0</ele><time>2026-04-26T07:41:06.009Z</time></trkpt><trkpt lat="42.75643034239307" lon="10.249196799738794"><ele>8.0</ele><time>2026-04-26T07:41:07.009Z</time></trkpt><trkpt lat="42.75654591564292" lon="10.249286388385478"><ele>9.0</ele><time>2026-04-26T07:41:08.009Z</time></trkpt><trkpt lat="42.75665908321863" lon="10.249381369719314"><ele>10.0</ele><time>2026-04-26T07:41:09.009Z</time></trkpt><trkpt lat="42.75676742024056" lon="10.249501729539801"><ele>10.0</ele><time>2026-04-26T07:41:10.009Z</time></trkpt><trkpt lat="42.75687037557889" lon="10.249623514465783"><ele>10.0</ele><time>2026-04-26T07:41:11.009Z</time></trkpt><trkpt lat="42.75697052240299" lon="10.249744475376199"><ele>10.0</ele><time>2026-04-26T07:41:12.009Z</time></trkpt><trkpt lat="42.75705936388928" lon="10.249859915779897"><ele>10.0</ele><time>2026-04-26T07:41:13.009Z</time></trkpt><trkpt lat="42.757141380776574" lon="10.249992748179075"><ele>10.0</ele><time>2026-04-26T07:41:14.009Z</time></trkpt><trkpt lat="42.75722146078969" lon="10.250133337665256"><ele>10.0</ele><time>2026-04-26T07:41:15.009Z</time></trkpt><trkpt lat="42.75729954905404" lon="10.250298170642173"><ele>10.0</ele><time>2026-04-26T07:41:16.009Z</time></trkpt><trkpt lat="42.75735680638248" lon="10.250459151342406"><ele>10.0</ele><time>2026-04-26T07:41:17.009Z</time></trkpt><trkpt lat="42.75740777944773" lon="10.250633210605466"><ele>12.0</ele><time>2026-04-26T07:41:18.009Z</time></trkpt><trkpt lat="42.75746214271963" lon="10.250809775274904"><ele>14.0</ele><time>2026-04-26T07:41:19.009Z</time></trkpt><trkpt lat="42.757518591205695" lon="10.250983914074633"><ele>16.0</ele><time>2026-04-26T07:41:20.009Z</time></trkpt><trkpt lat="42.75756905534686" lon="10.251152259731349"><ele>18.0</ele><time>2026-04-26T07:41:21.009Z</time></trkpt><trkpt lat="42.75762433759905" lon="10.251315866140164"><ele>17.6</ele><time>2026-04-26T07:41:22.009Z</time></trkpt><trkpt lat="42.757663321651" lon="10.251469207972422"><ele>17.200000000000003</ele><time>2026-04-26T07:41:23.009Z</time></trkpt><trkpt lat="42.75771028003242" lon="10.251609790192017"><ele>16.8</ele><time>2026-04-26T07:41:24.009Z</time></trkpt><trkpt lat="42.757748761051076" lon="10.251730884045802"><ele>16.400000000000002</ele><time>2026-04-26T07:41:25.009Z</time></trkpt><trkpt lat="42.757776339386595" lon="10.251861762717098"><ele>16.0</ele><time>2026-04-26T07:41:26.009Z</time></trkpt><trkpt lat="42.757800102953034" lon="10.251984137775445"><ele>16.0</ele><time>2026-04-26T07:41:27.009Z</time></trkpt><trkpt lat="42.75781798372925" lon="10.252111977713792"><ele>16.0</ele><time>2026-04-26T07:41:28.009Z</time></trkpt><trkpt lat="42.75783394669236" lon="10.252207446793529"><ele>16.0</ele><time>2026-04-26T07:41:29.009Z</time></trkpt><trkpt lat="42.757859170788386" lon="10.252326726619408"><ele>16.0</ele><time>2026-04-26T07:41:31.009Z</time></trkpt><trkpt lat="42.757978021834255" lon="10.252333007629044"><ele>16.0</ele><time>2026-04-26T07:41:34.009Z</time></trkpt><trkpt lat="42.758048333549034" lon="10.252303768977887"><ele>17.200000000000003</ele><time>2026-04-26T07:41:35.009Z</time></trkpt><trkpt lat="42.75813247146139" lon="10.252295385702638"><ele>18.400000000000002</ele><time>2026-04-26T07:41:36.008Z</time></trkpt><trkpt lat="42.75822746615368" lon="10.252323768900375"><ele>19.6</ele><time>2026-04-26T07:41:37.008Z</time></trkpt><trkpt lat="42.758315055864486" lon="10.252359782629668"><ele>20.8</ele><time>2026-04-26T07:41:38.008Z</time></trkpt><trkpt lat="42.758394462500895" lon="10.252421384967402"><ele>22.0</ele><time>2026-04-26T07:41:39.008Z</time></trkpt><trkpt lat="42.75847676857745" lon="10.252474282275099"><ele>20.833333333333332</ele><time>2026-04-26T07:41:40.008Z</time></trkpt><trkpt lat="42.75856743698645" lon="10.252527004224325"><ele>19.666666666666664</ele><time>2026-04-26T07:41:41.008Z</time></trkpt><trkpt lat="42.75865225880706" lon="10.252586492897883"><ele>18.5</ele><time>2026-04-26T07:41:42.008Z</time></trkpt><trkpt lat="42.758728331929966" lon="10.252639690359128"><ele>17.333333333333332</ele><time>2026-04-26T07:41:43.008Z</time></trkpt><trkpt lat="42.75879604534757" lon="10.252699195162288"><ele>16.166666666666668</ele><time>2026-04-26T07:41:44.008Z</time></trkpt><trkpt lat="42.75885477241583" lon="10.252764380258672"><ele>15.0</ele><time>2026-04-26T07:41:45.008Z</time></trkpt><trkpt lat="42.75890528350827" lon="10.252837249088447"><ele>15.0</ele><time>2026-04-26T07:41:46.008Z</time></trkpt><trkpt lat="42.75896210414024" lon="10.252896634053007"><ele>15.0</ele><time>2026-04-26T07:41:47.008Z</time></trkpt><trkpt lat="42.75901762014838" lon="10.252956556038898"><ele>15.0</ele><time>2026-04-26T07:41:48.008Z</time></trkpt><trkpt lat="42.75906946018075" lon="10.253026249917365"><ele>15.0</ele><time>2026-04-26T07:41:49.008Z</time></trkpt><trkpt lat="42.75913155455559" lon="10.253094193621603"><ele>15.0</ele><time>2026-04-26T07:41:50.008Z</time></trkpt><trkpt lat="42.759198769393585" lon="10.253173723840845"><ele>15.0</ele><time>2026-04-26T07:41:51.008Z</time></trkpt><trkpt lat="42.75926186221541" lon="10.253229079283436"><ele>15.333333333333334</ele><time>2026-04-26T07:41:52.008Z</time></trkpt><trkpt lat="42.759321898206046" lon="10.253285309531165"><ele>15.666666666666668</ele><time>2026-04-26T07:41:53.008Z</time></trkpt><trkpt lat="42.75938529041675" lon="10.253317513340841"><ele>16.0</ele><time>2026-04-26T07:41:54.008Z</time></trkpt><trkpt lat="42.75945490342483" lon="10.253316137855368"><ele>16.333333333333336</ele><time>2026-04-26T07:41:55.008Z</time></trkpt><trkpt lat="42.759520953906886" lon="10.253287007363355"><ele>16.666666666666668</ele><time>2026-04-26T07:41:56.008Z</time></trkpt><trkpt lat="42.75958674219449" lon="10.253211956649503"><ele>17.0</ele><time>2026-04-26T07:41:57.008Z</time></trkpt><trkpt lat="42.75964081555035" lon="10.25311702290654"><ele>17.0</ele><time>2026-04-26T07:41:58.008Z</time></trkpt><trkpt lat="42.75970155940026" lon="10.253008403818448"><ele>17.0</ele><time>2026-04-26T07:41:59.008Z</time></trkpt><trkpt lat="42.759762582840686" lon="10.25291418008255"><ele>17.0</ele><time>2026-04-26T07:42:00.008Z</time></trkpt><trkpt lat="42.75981302276099" lon="10.252825267021109"><ele>17.0</ele><time>2026-04-26T07:42:01.008Z</time></trkpt><trkpt lat="42.75986669131186" lon="10.2527397915394"><ele>17.0</ele><time>2026-04-26T07:42:02.008Z</time></trkpt><trkpt lat="42.7599087199873" lon="10.252663406897954"><ele>17.0</ele><time>2026-04-26T07:42:03.008Z</time></trkpt><trkpt lat="42.7599503107999" lon="10.252583970238362"><ele>17.0</ele><time>2026-04-26T07:42:04.008Z</time></trkpt><trkpt lat="42.75999636616584" lon="10.25251619928177"><ele>17.0</ele><time>2026-04-26T07:42:05.008Z</time></trkpt><trkpt lat="42.760077882226824" lon="10.252410124013005"><ele>17.0</ele><time>2026-04-26T07:42:07.008Z</time></trkpt><trkpt lat="42.7601913399359" lon="10.252368927123573"><ele>17.0</ele><time>2026-04-26T07:42:09.008Z</time></trkpt><trkpt lat="42.76032039979763" lon="10.252404121120398"><ele>17.0</ele><time>2026-04-26T07:42:11.01Z</time></trkpt><trkpt lat="42.76038196958567" lon="10.252433439378697"><ele>18.333333333333336</ele><time>2026-04-26T07:42:12.01Z</time></trkpt><trkpt lat="42.76044517359873" lon="10.252469770309549"><ele>19.666666666666668</ele><time>2026-04-26T07:42:13.011Z</time></trkpt><trkpt lat="42.760511307482346" lon="10.252513816945106"><ele>21.0</ele><time>2026-04-26T07:42:14.01Z</time></trkpt><trkpt lat="42.76057948797813" lon="10.252578083545604"><ele>22.333333333333336</ele><time>2026-04-26T07:42:15.01Z</time></trkpt><trkpt lat="42.76064974891233" lon="10.252642932377366"><ele>23.666666666666668</ele><time>2026-04-26T07:42:16.011Z</time></trkpt><trkpt lat="42.76072158561446" lon="10.252711170787535"><ele>25.0</ele><time>2026-04-26T07:42:17.011Z</time></trkpt><trkpt lat="42.76079532875348" lon="10.252781057887654"><ele>25.000000000000004</ele><time>2026-04-26T07:42:18.011Z</time></trkpt><trkpt lat="42.760867270035384" lon="10.252849383246447"><ele>25.0</ele><time>2026-04-26T07:42:19.011Z</time></trkpt><trkpt lat="42.76094313422616" lon="10.252907043221864"><ele>25.0</ele><time>2026-04-26T07:42:20.011Z</time></trkpt><trkpt lat="42.76101516436037" lon="10.252963361758182"><ele>25.0</ele><time>2026-04-26T07:42:21.011Z</time></trkpt><trkpt lat="42.76107780314082" lon="10.25303663311406"><ele>25.000000000000004</ele><time>2026-04-26T07:42:22.01Z</time></trkpt><trkpt lat="42.761119596883944" lon="10.253119199848602"><ele>25.0</ele><time>2026-04-26T07:42:23.011Z</time></trkpt><trkpt lat="42.76114637110991" lon="10.253229473482156"><ele>28.0</ele><time>2026-04-26T07:42:24.011Z</time></trkpt><trkpt lat="42.76118042917477" lon="10.253331998979759"><ele>31.0</ele><time>2026-04-26T07:42:25.011Z</time></trkpt><trkpt lat="42.7612236976689" lon="10.253447336788904"><ele>34.0</ele><time>2026-04-26T07:42:26.011Z</time></trkpt><trkpt lat="42.7612699606042" lon="10.25356191677901"><ele>37.0</ele><time>2026-04-26T07:42:27.011Z</time></trkpt><trkpt lat="42.76131839907421" lon="10.253686333635695"><ele>40.0</ele><time>2026-04-26T07:42:28.011Z</time></trkpt><trkpt lat="42.761369397393615" lon="10.253813808377053"><ele>40.0</ele><time>2026-04-26T07:42:29.011Z</time></trkpt><trkpt lat="42.76141149316054" lon="10.253917955458423"><ele>40.0</ele><time>2026-04-26T07:42:30.011Z</time></trkpt><trkpt lat="42.76147183347388" lon="10.254027022504888"><ele>40.0</ele><time>2026-04-26T07:42:31.011Z</time></trkpt><trkpt lat="42.76154329086932" lon="10.254137868937665"><ele>40.0</ele><time>2026-04-26T07:42:32.011Z</time></trkpt><trkpt lat="42.76161488247924" lon="10.254241236375332"><ele>40.0</ele><time>2026-04-26T07:42:33.011Z</time></trkpt><trkpt lat="42.76167049340213" lon="10.254334543384182"><ele>40.0</ele><time>2026-04-26T07:42:34.011Z</time></trkpt><trkpt lat="42.76175446860362" lon="10.254496314629282"><ele>40.0</ele><time>2026-04-26T07:42:35.011Z</time></trkpt><trkpt lat="42.76183085873808" lon="10.254633877896008"><ele>40.0</ele><time>2026-04-26T07:42:36.011Z</time></trkpt><trkpt lat="42.76190484073869" lon="10.254756236086427"><ele>40.0</ele><time>2026-04-26T07:42:37.011Z</time></trkpt><trkpt lat="42.76198064351659" lon="10.25487098815667"><ele>40.0</ele><time>2026-04-26T07:42:38.011Z</time></trkpt><trkpt lat="42.76206432114092" lon="10.254975532197783"><ele>40.0</ele><time>2026-04-26T07:42:39.011Z</time></trkpt><trkpt lat="42.76214975274645" lon="10.25507022485002"><ele>40.0</ele><time>2026-04-26T07:42:40.011Z</time></trkpt><trkpt lat="42.7622457506458" lon="10.255153387345155"><ele>40.0</ele><time>2026-04-26T07:42:41.011Z</time></trkpt><trkpt lat="42.7623383072679" lon="10.255231257913694"><ele>40.0</ele><time>2026-04-26T07:42:42.011Z</time></trkpt><trkpt lat="42.762431996513584" lon="10.255312087358798"><ele>40.0</ele><time>2026-04-26T07:42:43.011Z</time></trkpt><trkpt lat="42.76250214345081" lon="10.255410150682843"><ele>40.0</ele><time>2026-04-26T07:42:44.011Z</time></trkpt><trkpt lat="42.762551738107774" lon="10.255531461782262"><ele>40.0</ele><time>2026-04-26T07:42:45.011Z</time></trkpt><trkpt lat="42.762603875878376" lon="10.25567097804027"><ele>40.0</ele><time>2026-04-26T07:42:46.011Z</time></trkpt><trkpt lat="42.76265141450578" lon="10.255800117487084"><ele>40.0</ele><time>2026-04-26T07:42:47.011Z</time></trkpt><trkpt lat="42.762691313436676" lon="10.255920571477718"><ele>43.4</ele><time>2026-04-26T07:42:48.01Z</time></trkpt><trkpt lat="42.76274146817437" lon="10.256031850219705"><ele>46.8</ele><time>2026-04-26T07:42:49.01Z</time></trkpt><trkpt lat="42.76281270323786" lon="10.256123463919897"><ele>50.2</ele><time>2026-04-26T07:42:50.01Z</time></trkpt><trkpt lat="42.762894369073614" lon="10.256209988646292"><ele>53.6</ele><time>2026-04-26T07:42:51.01Z</time></trkpt><trkpt lat="42.76298813698097" lon="10.256298552706378"><ele>57.0</ele><time>2026-04-26T07:42:52.01Z</time></trkpt><trkpt lat="42.76308497262644" lon="10.256390580405247"><ele>53.4</ele><time>2026-04-26T07:42:53.01Z</time></trkpt><trkpt lat="42.76319170900834" lon="10.256473520093989"><ele>49.800000000000004</ele><time>2026-04-26T07:42:54.01Z</time></trkpt><trkpt lat="42.76328906208419" lon="10.256548711032652"><ele>46.2</ele><time>2026-04-26T07:42:55.01Z</time></trkpt><trkpt lat="42.76338496802856" lon="10.256626024679807"><ele>42.6</ele><time>2026-04-26T07:42:56.01Z</time></trkpt><trkpt lat="42.763463524888955" lon="10.256711157131582"><ele>39.0</ele><time>2026-04-26T07:42:57.01Z</time></trkpt><trkpt lat="42.763527285736565" lon="10.256806052767923"><ele>39.333333333333336</ele><time>2026-04-26T07:42:58.01Z</time></trkpt><trkpt lat="42.76357330128139" lon="10.256905123446124"><ele>39.666666666666664</ele><time>2026-04-26T07:42:59.01Z</time></trkpt><trkpt lat="42.76359993013285" lon="10.257006697297676"><ele>40.0</ele><time>2026-04-26T07:43:00.01Z</time></trkpt><trkpt lat="42.7636126809398" lon="10.257105081770092"><ele>40.33333333333333</ele><time>2026-04-26T07:43:01.01Z</time></trkpt><trkpt lat="42.763617209297976" lon="10.257191754639916"><ele>40.666666666666664</ele><time>2026-04-26T07:43:02.01Z</time></trkpt><trkpt lat="42.76363860936153" lon="10.257320201749168"><ele>41.0</ele><time>2026-04-26T07:43:04.01Z</time></trkpt><trkpt lat="42.763669058499495" lon="10.257444374840777"><ele>41.0</ele><time>2026-04-26T07:43:06.01Z</time></trkpt><trkpt lat="42.76371343486627" lon="10.257523250847557"><ele>41.0</ele><time>2026-04-26T07:43:08.01Z</time></trkpt><trkpt lat="42.76378698142204" lon="10.257570953478206"><ele>41.0</ele><time>2026-04-26T07:43:11.01Z</time></trkpt><trkpt lat="42.76384779631291" lon="10.25762730950467"><ele>41.0</ele><time>2026-04-26T07:43:16.01Z</time></trkpt><trkpt lat="42.76391866280346" lon="10.257692065447008"><ele>41.0</ele><time>2026-04-26T07:43:20.01Z</time></trkpt><trkpt lat="42.76393442282683" lon="10.25779296484097"><ele>41.0</ele><time>2026-04-26T07:43:24.01Z</time></trkpt><trkpt lat="42.76385102835967" lon="10.257812179431077"><ele>41.0</ele><time>2026-04-26T07:43:30.01Z</time></trkpt><trkpt lat="42.76381168702496" lon="10.25788191719878"><ele>41.0</ele><time>2026-04-26T07:43:32.01Z</time></trkpt><trkpt lat="42.76382057126412" lon="10.258028059295215"><ele>41.0</ele><time>2026-04-26T07:43:34.01Z</time></trkpt><trkpt lat="42.76381582871456" lon="10.258146481465683"><ele>41.0</ele><time>2026-04-26T07:43:35.01Z</time></trkpt><trkpt lat="42.76381342662998" lon="10.25826232580576"><ele>41.0</ele><time>2026-04-26T07:43:36.01Z</time></trkpt><trkpt lat="42.76381575080072" lon="10.258383241462173"><ele>41.0</ele><time>2026-04-26T07:43:37.01Z</time></trkpt><trkpt lat="42.763814869302" lon="10.258482430824255"><ele>41.166666666666664</ele><time>2026-04-26T07:43:38.01Z</time></trkpt><trkpt lat="42.763816042109745" lon="10.25857930977673"><ele>41.33333333333333</ele><time>2026-04-26T07:43:39.01Z</time></trkpt><trkpt lat="42.763827583962104" lon="10.258673850566973"><ele>41.5</ele><time>2026-04-26T07:43:40.01Z</time></trkpt><trkpt lat="42.76388700161546" lon="10.25877323086598"><ele>41.666666666666664</ele><time>2026-04-26T07:43:42.01Z</time></trkpt><trkpt lat="42.76392994886205" lon="10.258918412146212"><ele>41.833333333333336</ele><time>2026-04-26T07:43:44.01Z</time></trkpt><trkpt lat="42.7639896828965" lon="10.259018544247718"><ele>42.0</ele><time>2026-04-26T07:43:47.01Z</time></trkpt><trkpt lat="42.76400180272115" lon="10.259162099763424"><ele>43.0</ele><time>2026-04-26T07:43:49.01Z</time></trkpt><trkpt lat="42.76400088614976" lon="10.259335122710429"><ele>44.0</ele><time>2026-04-26T07:43:51.01Z</time></trkpt><trkpt lat="42.76401897677744" lon="10.259426693795564"><ele>45.0</ele><time>2026-04-26T07:43:53.009Z</time></trkpt><trkpt lat="42.76403681496052" lon="10.259571560616033"><ele>46.0</ele><time>2026-04-26T07:43:56.009Z</time></trkpt><trkpt lat="42.76406145140348" lon="10.259694733736367"><ele>47.0</ele><time>2026-04-26T07:43:58.009Z</time></trkpt><trkpt lat="42.76409706082892" lon="10.259768933675275"><ele>47.33333333333333</ele><time>2026-04-26T07:43:59.009Z</time></trkpt><trkpt lat="42.764128141420755" lon="10.259852664141427"><ele>47.666666666666664</ele><time>2026-04-26T07:44:00.009Z</time></trkpt><trkpt lat="42.764151779984836" lon="10.25995640008797"><ele>48.0</ele><time>2026-04-26T07:44:02.009Z</time></trkpt><trkpt lat="42.76419651476209" lon="10.260055022727148"><ele>48.33333333333333</ele><time>2026-04-26T07:44:05.009Z</time></trkpt><trkpt lat="42.76421318860204" lon="10.260159318252358"><ele>48.666666666666664</ele><time>2026-04-26T07:44:09.009Z</time></trkpt><trkpt lat="42.76420665328131" lon="10.260245480649276"><ele>49.0</ele><time>2026-04-26T07:44:11.009Z</time></trkpt><trkpt lat="42.764207024701975" lon="10.26035057090441"><ele>48.99999999999999</ele><time>2026-04-26T07:44:13.009Z</time></trkpt><trkpt lat="42.76421520083091" lon="10.260477811971182"><ele>49.0</ele><time>2026-04-26T07:44:17.011Z</time></trkpt><trkpt lat="42.76423618643546" lon="10.260579432519298"><ele>49.0</ele><time>2026-04-26T07:44:19.011Z</time></trkpt><trkpt lat="42.76423233259961" lon="10.260671843464127"><ele>49.0</ele><time>2026-04-26T07:44:21.011Z</time></trkpt><trkpt lat="42.76427079806467" lon="10.260777687686542"><ele>48.99999999999999</ele><time>2026-04-26T07:44:23.011Z</time></trkpt><trkpt lat="42.76427616758981" lon="10.260932993906447"><ele>49.0</ele><time>2026-04-26T07:44:24.011Z</time></trkpt><trkpt lat="42.76432416325345" lon="10.260997164704223"><ele>50.33333333333333</ele><time>2026-04-26T07:44:25.011Z</time></trkpt><trkpt lat="42.764371068289336" lon="10.261098140253443"><ele>51.666666666666664</ele><time>2026-04-26T07:44:28.011Z</time></trkpt><trkpt lat="42.76441879196164" lon="10.261174942210358"><ele>53.0</ele><time>2026-04-26T07:44:30.011Z</time></trkpt><trkpt lat="42.764480234124306" lon="10.261262986500206"><ele>54.33333333333333</ele><time>2026-04-26T07:44:32.011Z</time></trkpt><trkpt lat="42.764538851652475" lon="10.261356002062593"><ele>55.666666666666664</ele><time>2026-04-26T07:44:34.011Z</time></trkpt><trkpt lat="42.7646014268334" lon="10.26146536822149"><ele>57.0</ele><time>2026-04-26T07:44:36.011Z</time></trkpt><trkpt lat="42.76465314476026" lon="10.261534206035083"><ele>57.400000000000006</ele><time>2026-04-26T07:44:37.011Z</time></trkpt><trkpt lat="42.76469204132418" lon="10.261620483992221"><ele>57.800000000000004</ele><time>2026-04-26T07:44:38.011Z</time></trkpt><trkpt lat="42.76473459567733" lon="10.261691152709759"><ele>58.2</ele><time>2026-04-26T07:44:39.011Z</time></trkpt><trkpt lat="42.76478606032104" lon="10.261876259256573"><ele>58.6</ele><time>2026-04-26T07:44:40.011Z</time></trkpt><trkpt lat="42.76485074764448" lon="10.261997848589047"><ele>59.0</ele><time>2026-04-26T07:44:42.011Z</time></trkpt><trkpt lat="42.76489248432938" lon="10.262070626005462"><ele>59.00000000000001</ele><time>2026-04-26T07:44:43.011Z</time></trkpt><trkpt lat="42.76492986800346" lon="10.2622098666391"><ele>59.0</ele><time>2026-04-26T07:44:45.011Z</time></trkpt><trkpt lat="42.76496259120702" lon="10.262287320732849"><ele>59.0</ele><time>2026-04-26T07:44:46.011Z</time></trkpt><trkpt lat="42.765006404196924" lon="10.262433787714475"><ele>59.0</ele><time>2026-04-26T07:44:48.011Z</time></trkpt><trkpt lat="42.76504809077241" lon="10.262512462666914"><ele>59.00000000000001</ele><time>2026-04-26T07:44:53.011Z</time></trkpt><trkpt lat="42.765114742493616" lon="10.26255804629811"><ele>59.0</ele><time>2026-04-26T07:44:56.01Z</time></trkpt><trkpt lat="42.76501367583254" lon="10.262427693743108"><ele>59.16666666666667</ele><time>2026-04-26T07:44:59.01Z</time></trkpt><trkpt lat="42.76505302539044" lon="10.26249793749351"><ele>59.333333333333336</ele><time>2026-04-26T07:45:03.01Z</time></trkpt><trkpt lat="42.765112598207786" lon="10.262560018423127"><ele>59.5</ele><time>2026-04-26T07:45:11.01Z</time></trkpt><trkpt lat="42.765194219370215" lon="10.262574503210999"><ele>59.66666666666667</ele><time>2026-04-26T07:45:13.01Z</time></trkpt><trkpt lat="42.765261017707424" lon="10.262531408682982"><ele>59.833333333333336</ele><time>2026-04-26T07:45:16.01Z</time></trkpt><trkpt lat="42.76532777008116" lon="10.262523579358419"><ele>60.0</ele><time>2026-04-26T07:45:20.01Z</time></trkpt><trkpt lat="42.76541894972101" lon="10.262515235838523"><ele>62.833333333333336</ele><time>2026-04-26T07:45:23.01Z</time></trkpt><trkpt lat="42.76550676960665" lon="10.262500764802143"><ele>65.66666666666667</ele><time>2026-04-26T07:45:25.01Z</time></trkpt><trkpt lat="42.765585939877056" lon="10.262509584878003"><ele>68.5</ele><time>2026-04-26T07:45:27.01Z</time></trkpt><trkpt lat="42.765663675371755" lon="10.262536123770257"><ele>71.33333333333334</ele><time>2026-04-26T07:45:30.01Z</time></trkpt><trkpt lat="42.765747276930874" lon="10.262546469930566"><ele>74.16666666666667</ele><time>2026-04-26T07:45:33.01Z</time></trkpt><trkpt lat="42.76584444224244" lon="10.262562498504026"><ele>77.0</ele><time>2026-04-26T07:45:54.01Z</time></trkpt><trkpt lat="42.765926778700155" lon="10.262563565635693"><ele>77.0</ele><time>2026-04-26T07:46:50.011Z</time></trkpt><trkpt lat="42.765990942839125" lon="10.262619247311441"><ele>77.0</ele><time>2026-04-26T07:46:55.011Z</time></trkpt><trkpt lat="42.76605112586327" lon="10.262659421262121"><ele>77.0</ele><time>2026-04-26T07:46:57.011Z</time></trkpt><trkpt lat="42.766142164999806" lon="10.262628725279997"><ele>77.0</ele><time>2026-04-26T07:47:00.01Z</time></trkpt><trkpt lat="42.76619879710786" lon="10.262535267212643"><ele>77.0</ele><time>2026-04-26T07:47:02.01Z</time></trkpt><trkpt lat="42.766290133765445" lon="10.262454051776775"><ele>77.0</ele><time>2026-04-26T07:47:04.01Z</time></trkpt><trkpt lat="42.76638204618268" lon="10.262426351494199"><ele>79.66666666666667</ele><time>2026-04-26T07:47:06.01Z</time></trkpt><trkpt lat="42.76645873669476" lon="10.262420399300458"><ele>82.33333333333334</ele><time>2026-04-26T07:47:09.01Z</time></trkpt><trkpt lat="42.76651866103315" lon="10.262393368235704"><ele>85.0</ele><time>2026-04-26T07:47:22.01Z</time></trkpt><trkpt lat="42.76659660181806" lon="10.262351493380017"><ele>87.66666666666667</ele><time>2026-04-26T07:47:25.01Z</time></trkpt><trkpt lat="42.76669808508053" lon="10.262293523704487"><ele>90.33333333333333</ele><time>2026-04-26T07:47:27.01Z</time></trkpt><trkpt lat="42.76676033059542" lon="10.26223004646114"><ele>93.0</ele><time>2026-04-26T07:47:29.01Z</time></trkpt><trkpt lat="42.766842449746584" lon="10.26211993684792"><ele>99.5</ele><time>2026-04-26T07:47:31.01Z</time></trkpt><trkpt lat="42.76692085434461" lon="10.262032429312836"><ele>106.0</ele><time>2026-04-26T07:47:33.01Z</time></trkpt><trkpt lat="42.76696803728386" lon="10.261929898777662"><ele>112.5</ele><time>2026-04-26T07:47:35.01Z</time></trkpt><trkpt lat="42.766997535990164" lon="10.261798104172184"><ele>119.0</ele><time>2026-04-26T07:47:37.01Z</time></trkpt><trkpt lat="42.7670222170636" lon="10.261699083417987"><ele>125.5</ele><time>2026-04-26T07:47:39.01Z</time></trkpt><trkpt lat="42.76708815499279" lon="10.261639648715482"><ele>132.0</ele><time>2026-04-26T07:47:41.01Z</time></trkpt><trkpt lat="42.76711259733045" lon="10.261532253781827"><ele>132.0</ele><time>2026-04-26T07:47:44.01Z</time></trkpt><trkpt lat="42.767060869702696" lon="10.26146255204562"><ele>132.0</ele><time>2026-04-26T07:47:47.01Z</time></trkpt><trkpt lat="42.767074359906765" lon="10.26136967846774"><ele>132.0</ele><time>2026-04-26T07:47:49.01Z</time></trkpt><trkpt lat="42.76711338174653" lon="10.26127502863458"><ele>132.0</ele><time>2026-04-26T07:47:51.01Z</time></trkpt><trkpt lat="42.76708423441646" lon="10.261145656849033"><ele>132.0</ele><time>2026-04-26T07:47:53.01Z</time></trkpt><trkpt lat="42.76709483560978" lon="10.26100074522331"><ele>132.0</ele><time>2026-04-26T07:47:55.01Z</time></trkpt><trkpt lat="42.76712168480228" lon="10.260866000711728"><ele>132.5</ele><time>2026-04-26T07:47:57.01Z</time></trkpt><trkpt lat="42.767117783939526" lon="10.260731886278796"><ele>133.0</ele><time>2026-04-26T07:47:59.01Z</time></trkpt><trkpt lat="42.767135088146645" lon="10.260617721766659"><ele>133.5</ele><time>2026-04-26T07:48:01.01Z</time></trkpt><trkpt lat="42.76718620151406" lon="10.260526433067708"><ele>134.0</ele><time>2026-04-26T07:48:03.009Z</time></trkpt><trkpt lat="42.767205010766055" lon="10.260426653675522"><ele>134.5</ele><time>2026-04-26T07:48:05.009Z</time></trkpt><trkpt lat="42.76717746201853" lon="10.260332912739464"><ele>135.0</ele><time>2026-04-26T07:48:07.009Z</time></trkpt><trkpt lat="42.76709249630588" lon="10.260297781890898"><ele>135.6</ele><time>2026-04-26T07:48:10.009Z</time></trkpt><trkpt lat="42.76699381959" lon="10.260234745688226"><ele>136.2</ele><time>2026-04-26T07:48:12.009Z</time></trkpt><trkpt lat="42.76690059508479" lon="10.260160042415416"><ele>136.8</ele><time>2026-04-26T07:48:14.009Z</time></trkpt><trkpt lat="42.766847664956934" lon="10.260040558268354"><ele>137.4</ele><time>2026-04-26T07:48:17.009Z</time></trkpt><trkpt lat="42.76685801730804" lon="10.259903630664926"><ele>138.0</ele><time>2026-04-26T07:48:19.009Z</time></trkpt><trkpt lat="42.766887450866854" lon="10.2597984320391"><ele>138.0</ele><time>2026-04-26T07:48:20.009Z</time></trkpt><trkpt lat="42.766931763767964" lon="10.259696836360677"><ele>138.0</ele><time>2026-04-26T07:48:21.009Z</time></trkpt><trkpt lat="42.7670074069821" lon="10.259580563677456"><ele>138.0</ele><time>2026-04-26T07:48:23.009Z</time></trkpt><trkpt lat="42.7670787909748" lon="10.25946600095693"><ele>138.0</ele><time>2026-04-26T07:48:25.009Z</time></trkpt><trkpt lat="42.767153902791165" lon="10.259360750031998"><ele>138.0</ele><time>2026-04-26T07:48:27.009Z</time></trkpt><trkpt lat="42.767184160389164" lon="10.259236091035364"><ele>138.0</ele><time>2026-04-26T07:48:29.011Z</time></trkpt><trkpt lat="42.767244191891656" lon="10.259162727022042"><ele>138.0</ele><time>2026-04-26T07:48:31.012Z</time></trkpt><trkpt lat="42.767274781355475" lon="10.259041031883584"><ele>138.0</ele><time>2026-04-26T07:48:33.011Z</time></trkpt><trkpt lat="42.767259154635354" lon="10.25890549553262"><ele>138.0</ele><time>2026-04-26T07:48:35.011Z</time></trkpt><trkpt lat="42.76723263194869" lon="10.258783537267814"><ele>138.0</ele><time>2026-04-26T07:48:37.012Z</time></trkpt><trkpt lat="42.767181546384045" lon="10.258701342845916"><ele>138.0</ele><time>2026-04-26T07:48:39.012Z</time></trkpt><trkpt lat="42.76709114697426" lon="10.258645233642087"><ele>139.6</ele><time>2026-04-26T07:48:41.011Z</time></trkpt><trkpt lat="42.76699585466378" lon="10.258560558331203"><ele>141.20000000000002</ele><time>2026-04-26T07:48:43.011Z</time></trkpt><trkpt lat="42.766940275156635" lon="10.258427382135912"><ele>142.8</ele><time>2026-04-26T07:48:45.011Z</time></trkpt><trkpt lat="42.76689176614986" lon="10.258320810886346"><ele>144.4</ele><time>2026-04-26T07:48:47.011Z</time></trkpt><trkpt lat="42.766890076987" lon="10.258231774012012"><ele>146.0</ele><time>2026-04-26T07:48:48.011Z</time></trkpt><trkpt lat="42.766880233109994" lon="10.258132311231773"><ele>140.33333333333331</ele><time>2026-04-26T07:48:49.011Z</time></trkpt><trkpt lat="42.766839561667275" lon="10.258039329922216"><ele>134.66666666666666</ele><time>2026-04-26T07:48:50.011Z</time></trkpt><trkpt lat="42.766793745502675" lon="10.257936114382476"><ele>129.0</ele><time>2026-04-26T07:48:51.011Z</time></trkpt><trkpt lat="42.76675555312878" lon="10.257852301490294"><ele>123.33333333333334</ele><time>2026-04-26T07:48:52.011Z</time></trkpt><trkpt lat="42.766730529343825" lon="10.257773523034775"><ele>117.66666666666667</ele><time>2026-04-26T07:48:53.011Z</time></trkpt><trkpt lat="42.766716221697244" lon="10.257634058525031"><ele>112.0</ele><time>2026-04-26T07:48:55.011Z</time></trkpt><trkpt lat="42.766731795664015" lon="10.257453575589768"><ele>112.00000000000001</ele><time>2026-04-26T07:48:57.011Z</time></trkpt><trkpt lat="42.766747702110074" lon="10.257354002120163"><ele>112.0</ele><time>2026-04-26T07:48:58.011Z</time></trkpt><trkpt lat="42.7666981520658" lon="10.257257313427678"><ele>112.0</ele><time>2026-04-26T07:49:01.011Z</time></trkpt><trkpt lat="42.766626671265485" lon="10.257214081893293"><ele>112.0</ele><time>2026-04-26T07:49:03.011Z</time></trkpt><trkpt lat="42.76656295496776" lon="10.257153680549884"><ele>112.00000000000001</ele><time>2026-04-26T07:49:05.011Z</time></trkpt><trkpt lat="42.76652462430437" lon="10.25703432697071"><ele>112.0</ele><time>2026-04-26T07:49:07.011Z</time></trkpt><trkpt lat="42.76654485193256" lon="10.25688135751511"><ele>112.50000000000001</ele><time>2026-04-26T07:49:09.011Z</time></trkpt><trkpt lat="42.76655925461016" lon="10.256797149808238"><ele>113.0</ele><time>2026-04-26T07:49:10.011Z</time></trkpt><trkpt lat="42.766587753690864" lon="10.256720508246378"><ele>113.5</ele><time>2026-04-26T07:49:11.011Z</time></trkpt><trkpt lat="42.76665694165309" lon="10.256583797620452"><ele>114.0</ele><time>2026-04-26T07:49:13.011Z</time></trkpt><trkpt lat="42.76666683676741" lon="10.256492403167346"><ele>114.50000000000001</ele><time>2026-04-26T07:49:14.011Z</time></trkpt><trkpt lat="42.76666856066967" lon="10.256400943332624"><ele>115.0</ele><time>2026-04-26T07:49:15.011Z</time></trkpt><trkpt lat="42.76667742359564" lon="10.256309956356048"><ele>115.0</ele><time>2026-04-26T07:49:16.01Z</time></trkpt><trkpt lat="42.76670847538233" lon="10.256130840995645"><ele>115.0</ele><time>2026-04-26T07:49:18.01Z</time></trkpt><trkpt lat="42.76672044762396" lon="10.256037841747839"><ele>115.0</ele><time>2026-04-26T07:49:19.01Z</time></trkpt><trkpt lat="42.76673664959946" lon="10.255942926117608"><ele>115.0</ele><time>2026-04-26T07:49:20.01Z</time></trkpt><trkpt lat="42.76676486339689" lon="10.255820707686759"><ele>115.0</ele><time>2026-04-26T07:49:21.01Z</time></trkpt><trkpt lat="42.76678012565168" lon="10.255703938624666"><ele>115.16666666666667</ele><time>2026-04-26T07:49:22.01Z</time></trkpt><trkpt lat="42.76679390602973" lon="10.255619142336267"><ele>115.33333333333334</ele><time>2026-04-26T07:49:23.01Z</time></trkpt><trkpt lat="42.766841278097765" lon="10.255479114904233"><ele>115.5</ele><time>2026-04-26T07:49:25.01Z</time></trkpt><trkpt lat="42.766891573281505" lon="10.25541866869175"><ele>115.66666666666666</ele><time>2026-04-26T07:49:30.01Z</time></trkpt><trkpt lat="42.76696914950109" lon="10.25543847468794"><ele>115.83333333333333</ele><time>2026-04-26T07:49:33.01Z</time></trkpt><trkpt lat="42.76703821589505" lon="10.25547630552032"><ele>116.0</ele><time>2026-04-26T07:49:39.01Z</time></trkpt><trkpt lat="42.7671061028196" lon="10.255483135069456"><ele>115.99999999999999</ele><time>2026-04-26T07:52:15.01Z</time></trkpt><trkpt lat="42.76703277252296" lon="10.25544682230234"><ele>116.0</ele><time>2026-04-26T07:52:26.01Z</time></trkpt><trkpt lat="42.76695016770195" lon="10.255451525795102"><ele>116.0</ele><time>2026-04-26T07:52:29.01Z</time></trkpt><trkpt lat="42.76686918052812" lon="10.255396957851202"><ele>116.0</ele><time>2026-04-26T07:52:32.01Z</time></trkpt><trkpt lat="42.76686224271656" lon="10.25528369625345"><ele>115.99999999999999</ele><time>2026-04-26T07:52:34.01Z</time></trkpt><trkpt lat="42.7668755393875" lon="10.255194419649843"><ele>116.0</ele><time>2026-04-26T07:52:36.01Z</time></trkpt><trkpt lat="42.76685732592353" lon="10.255111264378062"><ele>115.99999999999999</ele><time>2026-04-26T07:52:40.012Z</time></trkpt><trkpt lat="42.76683296746108" lon="10.254994592768186"><ele>116.0</ele><time>2026-04-26T07:54:45.011Z</time></trkpt><trkpt lat="42.766849112883904" lon="10.255100723738677"><ele>116.0</ele><time>2026-04-26T07:54:52.013Z</time></trkpt><trkpt lat="42.76693725327031" lon="10.25512634576844"><ele>116.0</ele><time>2026-04-26T07:54:55.013Z</time></trkpt><trkpt lat="42.76700618308304" lon="10.255147814211991"><ele>115.99999999999999</ele><time>2026-04-26T07:54:57.012Z</time></trkpt><trkpt lat="42.7670920781492" lon="10.255202010334697"><ele>116.0</ele><time>2026-04-26T07:55:03.012Z</time></trkpt><trkpt lat="42.76714782418039" lon="10.255242143423917"><ele>115.14285714285715</ele><time>2026-04-26T07:55:04.012Z</time></trkpt><trkpt lat="42.7672201046245" lon="10.255270777673148"><ele>114.28571428571429</ele><time>2026-04-26T07:55:05.012Z</time></trkpt><trkpt lat="42.767299814367234" lon="10.255296270429088"><ele>113.42857142857143</ele><time>2026-04-26T07:55:06.012Z</time></trkpt><trkpt lat="42.767367812397815" lon="10.255307875843616"><ele>112.57142857142858</ele><time>2026-04-26T07:55:07.012Z</time></trkpt><trkpt lat="42.767434836049475" lon="10.255314394152588"><ele>111.71428571428572</ele><time>2026-04-26T07:55:08.012Z</time></trkpt><trkpt lat="42.7675029851488" lon="10.25533624206257"><ele>110.85714285714285</ele><time>2026-04-26T07:55:09.012Z</time></trkpt><trkpt lat="42.767572045707766" lon="10.255373694835457"><ele>110.0</ele><time>2026-04-26T07:55:10.012Z</time></trkpt><trkpt lat="42.76766339559648" lon="10.25542514442973"><ele>110.49999999999999</ele><time>2026-04-26T07:55:11.012Z</time></trkpt><trkpt lat="42.76772812361189" lon="10.255483063764908"><ele>111.0</ele><time>2026-04-26T07:55:12.012Z</time></trkpt><trkpt lat="42.76779508570368" lon="10.25555915965161"><ele>111.5</ele><time>2026-04-26T07:55:13.012Z</time></trkpt><trkpt lat="42.767853174694025" lon="10.255644344422063"><ele>112.0</ele><time>2026-04-26T07:55:14.012Z</time></trkpt><trkpt lat="42.76791493368225" lon="10.255718777207557"><ele>112.49999999999999</ele><time>2026-04-26T07:55:15.012Z</time></trkpt><trkpt lat="42.76798152892788" lon="10.255777131144853"><ele>113.0</ele><time>2026-04-26T07:55:16.012Z</time></trkpt><trkpt lat="42.768060009910876" lon="10.255821798697864"><ele>112.99999999999999</ele><time>2026-04-26T07:55:17.012Z</time></trkpt><trkpt lat="42.768140004423344" lon="10.25585707050788"><ele>113.0</ele><time>2026-04-26T07:55:18.012Z</time></trkpt><trkpt lat="42.76821410321346" lon="10.25588061372808"><ele>113.0</ele><time>2026-04-26T07:55:19.012Z</time></trkpt><trkpt lat="42.76828786698733" lon="10.255895259624912"><ele>113.0</ele><time>2026-04-26T07:55:20.012Z</time></trkpt><trkpt lat="42.76837418664131" lon="10.255919448541935"><ele>112.99999999999999</ele><time>2026-04-26T07:55:21.012Z</time></trkpt><trkpt lat="42.76846686065228" lon="10.255953089336852"><ele>113.0</ele><time>2026-04-26T07:55:22.012Z</time></trkpt><trkpt lat="42.768547107794724" lon="10.2559585086757"><ele>111.83333333333333</ele><time>2026-04-26T07:55:23.012Z</time></trkpt><trkpt lat="42.76862895044442" lon="10.255954176037726"><ele>110.66666666666666</ele><time>2026-04-26T07:55:24.012Z</time></trkpt><trkpt lat="42.768712111321825" lon="10.25592727281337"><ele>109.5</ele><time>2026-04-26T07:55:25.012Z</time></trkpt><trkpt lat="42.76879996215765" lon="10.255901849432428"><ele>108.33333333333334</ele><time>2026-04-26T07:55:26.012Z</time></trkpt><trkpt lat="42.76889069615876" lon="10.25587409034238"><ele>107.16666666666667</ele><time>2026-04-26T07:55:27.012Z</time></trkpt><trkpt lat="42.76898609788332" lon="10.255846784382795"><ele>106.0</ele><time>2026-04-26T07:55:28.012Z</time></trkpt><trkpt lat="42.76908012779149" lon="10.255823147788092"><ele>106.00000000000001</ele><time>2026-04-26T07:55:29.012Z</time></trkpt><trkpt lat="42.769169949581816" lon="10.255804491231297"><ele>106.0</ele><time>2026-04-26T07:55:30.012Z</time></trkpt><trkpt lat="42.769251937790216" lon="10.255774079167548"><ele>106.0</ele><time>2026-04-26T07:55:31.012Z</time></trkpt><trkpt lat="42.76932480924738" lon="10.255742994070573"><ele>106.0</ele><time>2026-04-26T07:55:32.012Z</time></trkpt><trkpt lat="42.769380231224574" lon="10.255689256090758"><ele>106.00000000000001</ele><time>2026-04-26T07:55:33.012Z</time></trkpt><trkpt lat="42.76942072354358" lon="10.255615868841677"><ele>106.0</ele><time>2026-04-26T07:55:34.012Z</time></trkpt><trkpt lat="42.76943446534364" lon="10.255516389424875"><ele>105.50000000000001</ele><time>2026-04-26T07:55:35.012Z</time></trkpt><trkpt lat="42.769441605387925" lon="10.255394393699738"><ele>105.0</ele><time>2026-04-26T07:55:36.012Z</time></trkpt><trkpt lat="42.76945356373492" lon="10.255271736250807"><ele>104.5</ele><time>2026-04-26T07:55:37.012Z</time></trkpt><trkpt lat="42.76947039686109" lon="10.255147132357479"><ele>104.0</ele><time>2026-04-26T07:55:38.012Z</time></trkpt><trkpt lat="42.76950344131897" lon="10.255037272884804"><ele>103.50000000000001</ele><time>2026-04-26T07:55:39.012Z</time></trkpt><trkpt lat="42.76954787499584" lon="10.25494509285097"><ele>103.0</ele><time>2026-04-26T07:55:40.012Z</time></trkpt><trkpt lat="42.769615837454765" lon="10.254852757396215"><ele>101.2</ele><time>2026-04-26T07:55:41.012Z</time></trkpt><trkpt lat="42.76968449765376" lon="10.254762625362664"><ele>99.4</ele><time>2026-04-26T07:55:42.012Z</time></trkpt><trkpt lat="42.769753050106495" lon="10.254671667221254"><ele>97.60000000000001</ele><time>2026-04-26T07:55:43.012Z</time></trkpt><trkpt lat="42.769827395737494" lon="10.254580558823758"><ele>95.80000000000001</ele><time>2026-04-26T07:55:44.012Z</time></trkpt><trkpt lat="42.769916688350115" lon="10.254484270397336"><ele>94.0</ele><time>2026-04-26T07:55:45.012Z</time></trkpt><trkpt lat="42.770010546866004" lon="10.25439106646979"><ele>94.0</ele><time>2026-04-26T07:55:46.012Z</time></trkpt><trkpt lat="42.770105602491995" lon="10.254319437346526"><ele>94.0</ele><time>2026-04-26T07:55:47.012Z</time></trkpt><trkpt lat="42.770202706984236" lon="10.254255353345549"><ele>94.0</ele><time>2026-04-26T07:55:48.012Z</time></trkpt><trkpt lat="42.77029820658081" lon="10.254182836566795"><ele>94.0</ele><time>2026-04-26T07:55:49.012Z</time></trkpt><trkpt lat="42.77039413669805" lon="10.25411026971667"><ele>94.0</ele><time>2026-04-26T07:55:50.012Z</time></trkpt><trkpt lat="42.77048172482324" lon="10.254027197380504"><ele>94.80000000000001</ele><time>2026-04-26T07:55:51.012Z</time></trkpt><trkpt lat="42.770560501995455" lon="10.253934688463394"><ele>95.60000000000001</ele><time>2026-04-26T07:55:52.012Z</time></trkpt><trkpt lat="42.77063719866695" lon="10.25384245985289"><ele>96.4</ele><time>2026-04-26T07:55:53.011Z</time></trkpt><trkpt lat="42.770708202389436" lon="10.253741599112315"><ele>97.2</ele><time>2026-04-26T07:55:54.011Z</time></trkpt><trkpt lat="42.770765931790095" lon="10.253636853691471"><ele>98.0</ele><time>2026-04-26T07:55:55.011Z</time></trkpt><trkpt lat="42.77081341380995" lon="10.253527668026805"><ele>98.0</ele><time>2026-04-26T07:55:56.011Z</time></trkpt><trkpt lat="42.77084434688979" lon="10.25340553167556"><ele>98.0</ele><time>2026-04-26T07:55:57.011Z</time></trkpt><trkpt lat="42.77088682164143" lon="10.253273440348016"><ele>98.0</ele><time>2026-04-26T07:55:58.011Z</time></trkpt><trkpt lat="42.770922103281436" lon="10.253147622745232"><ele>98.0</ele><time>2026-04-26T07:55:59.011Z</time></trkpt><trkpt lat="42.77094657154995" lon="10.253022054404282"><ele>98.0</ele><time>2026-04-26T07:56:00.011Z</time></trkpt><trkpt lat="42.77097166897953" lon="10.252902688695151"><ele>98.66666666666666</ele><time>2026-04-26T07:56:01.011Z</time></trkpt><trkpt lat="42.771006214830635" lon="10.252789052571956"><ele>99.33333333333333</ele><time>2026-04-26T07:56:02.011Z</time></trkpt><trkpt lat="42.77105499026437" lon="10.252692502890914"><ele>100.0</ele><time>2026-04-26T07:56:03.011Z</time></trkpt><trkpt lat="42.771104142323175" lon="10.25259605774808"><ele>100.66666666666666</ele><time>2026-04-26T07:56:04.011Z</time></trkpt><trkpt lat="42.77114504453225" lon="10.252504516108768"><ele>101.33333333333333</ele><time>2026-04-26T07:56:05.011Z</time></trkpt><trkpt lat="42.77118355223356" lon="10.25241134989205"><ele>102.0</ele><time>2026-04-26T07:56:06.011Z</time></trkpt><trkpt lat="42.77122763920983" lon="10.252323293524745"><ele>100.0</ele><time>2026-04-26T07:56:07.011Z</time></trkpt><trkpt lat="42.771278196253824" lon="10.252240874622766"><ele>98.0</ele><time>2026-04-26T07:56:08.011Z</time></trkpt><trkpt lat="42.771348657825996" lon="10.252188762327663"><ele>96.0</ele><time>2026-04-26T07:56:09.011Z</time></trkpt><trkpt lat="42.77140217494861" lon="10.252123019833002"><ele>94.0</ele><time>2026-04-26T07:56:10.011Z</time></trkpt><trkpt lat="42.771452620163004" lon="10.25203672243421"><ele>92.0</ele><time>2026-04-26T07:56:11.011Z</time></trkpt><trkpt lat="42.77146982158604" lon="10.251933973448082"><ele>90.0</ele><time>2026-04-26T07:56:12.011Z</time></trkpt><trkpt lat="42.771463733245305" lon="10.25180428785593"><ele>90.0</ele><time>2026-04-26T07:56:13.011Z</time></trkpt><trkpt lat="42.77144169663629" lon="10.251682363184202"><ele>90.0</ele><time>2026-04-26T07:56:14.011Z</time></trkpt><trkpt lat="42.771410378409854" lon="10.251551360736975"><ele>90.0</ele><time>2026-04-26T07:56:15.011Z</time></trkpt><trkpt lat="42.771372983410096" lon="10.251425347048345"><ele>90.0</ele><time>2026-04-26T07:56:16.011Z</time></trkpt><trkpt lat="42.77133836009833" lon="10.251299918991467"><ele>90.0</ele><time>2026-04-26T07:56:17.011Z</time></trkpt><trkpt lat="42.77131631277849" lon="10.251157982991453"><ele>88.6</ele><time>2026-04-26T07:56:18.011Z</time></trkpt><trkpt lat="42.77131088801173" lon="10.251023220201771"><ele>87.2</ele><time>2026-04-26T07:56:19.011Z</time></trkpt><trkpt lat="42.77131159286217" lon="10.250875484475749"><ele>85.80000000000001</ele><time>2026-04-26T07:56:20.011Z</time></trkpt><trkpt lat="42.77131866093356" lon="10.25073434933835"><ele>84.4</ele><time>2026-04-26T07:56:21.011Z</time></trkpt><trkpt lat="42.77133750666686" lon="10.250602119357623"><ele>83.0</ele><time>2026-04-26T07:56:22.011Z</time></trkpt><trkpt lat="42.771374803481926" lon="10.250488809441082"><ele>81.16666666666667</ele><time>2026-04-26T07:56:23.011Z</time></trkpt><trkpt lat="42.77142216066903" lon="10.25037853330711"><ele>79.33333333333334</ele><time>2026-04-26T07:56:24.011Z</time></trkpt><trkpt lat="42.77146984351645" lon="10.250262945549812"><ele>77.5</ele><time>2026-04-26T07:56:25.011Z</time></trkpt><trkpt lat="42.77149542788776" lon="10.250150286314472"><ele>75.66666666666667</ele><time>2026-04-26T07:56:26.011Z</time></trkpt><trkpt lat="42.771490754174515" lon="10.25002938481771"><ele>73.83333333333333</ele><time>2026-04-26T07:56:27.011Z</time></trkpt><trkpt lat="42.77147093877309" lon="10.249929498505528"><ele>72.0</ele><time>2026-04-26T07:56:28.011Z</time></trkpt><trkpt lat="42.77143056345197" lon="10.249846554067036"><ele>72.0</ele><time>2026-04-26T07:56:29.011Z</time></trkpt><trkpt lat="42.77136891686479" lon="10.249785110522058"><ele>72.0</ele><time>2026-04-26T07:56:30.011Z</time></trkpt><trkpt lat="42.771293528080626" lon="10.249772656619445"><ele>72.0</ele><time>2026-04-26T07:56:31.011Z</time></trkpt><trkpt lat="42.771216937476055" lon="10.249813564233673"><ele>72.0</ele><time>2026-04-26T07:56:32.011Z</time></trkpt><trkpt lat="42.77113584456461" lon="10.24989913003522"><ele>72.0</ele><time>2026-04-26T07:56:33.011Z</time></trkpt><trkpt lat="42.77104332332888" lon="10.24999206393803"><ele>69.8</ele><time>2026-04-26T07:56:34.011Z</time></trkpt><trkpt lat="42.77095863891302" lon="10.250075808609978"><ele>67.6</ele><time>2026-04-26T07:56:35.011Z</time></trkpt><trkpt lat="42.77089685149736" lon="10.250172379019702"><ele>65.39999999999999</ele><time>2026-04-26T07:56:36.011Z</time></trkpt><trkpt lat="42.77086581408726" lon="10.250298098423642"><ele>63.199999999999996</ele><time>2026-04-26T07:56:37.011Z</time></trkpt><trkpt lat="42.77086837823457" lon="10.250439104948304"><ele>61.0</ele><time>2026-04-26T07:56:38.011Z</time></trkpt><trkpt lat="42.77087236781105" lon="10.250599263722"><ele>62.83333333333333</ele><time>2026-04-26T07:56:39.011Z</time></trkpt><trkpt lat="42.77087670869443" lon="10.250749561759092"><ele>64.66666666666666</ele><time>2026-04-26T07:56:40.011Z</time></trkpt><trkpt lat="42.77088367212912" lon="10.2508639610043"><ele>66.5</ele><time>2026-04-26T07:56:41.011Z</time></trkpt><trkpt lat="42.77086598475383" lon="10.250960324577074"><ele>68.33333333333333</ele><time>2026-04-26T07:56:43.011Z</time></trkpt><trkpt lat="42.77077776373047" lon="10.250942999955992"><ele>70.16666666666667</ele><time>2026-04-26T07:56:45.011Z</time></trkpt><trkpt lat="42.77073183189771" lon="10.250873333917383"><ele>72.0</ele><time>2026-04-26T07:56:46.011Z</time></trkpt><trkpt lat="42.77070209837455" lon="10.250760908617185"><ele>69.25</ele><time>2026-04-26T07:56:47.011Z</time></trkpt><trkpt lat="42.770690976584326" lon="10.250586356294217"><ele>66.5</ele><time>2026-04-26T07:56:48.011Z</time></trkpt><trkpt lat="42.77066906250551" lon="10.250388068354697"><ele>63.75</ele><time>2026-04-26T07:56:49.011Z</time></trkpt><trkpt lat="42.77065375769488" lon="10.250231397045525"><ele>61.0</ele><time>2026-04-26T07:56:50.011Z</time></trkpt><trkpt lat="42.7706583119181" lon="10.250101601827094"><ele>61.0</ele><time>2026-04-26T07:56:51.011Z</time></trkpt><trkpt lat="42.77069097171371" lon="10.249985256751422"><ele>60.99999999999999</ele><time>2026-04-26T07:56:52.013Z</time></trkpt><trkpt lat="42.77073554080263" lon="10.249870295731986"><ele>60.99999999999999</ele><time>2026-04-26T07:56:53.013Z</time></trkpt><trkpt lat="42.77079772962295" lon="10.24976052391922"><ele>61.0</ele><time>2026-04-26T07:56:54.013Z</time></trkpt><trkpt lat="42.770863156830515" lon="10.249661565382445"><ele>61.0</ele><time>2026-04-26T07:56:55.014Z</time></trkpt><trkpt lat="42.770926724657286" lon="10.249563676326883"><ele>60.599999999999994</ele><time>2026-04-26T07:56:56.013Z</time></trkpt><trkpt lat="42.770977795233456" lon="10.249471330725045"><ele>60.199999999999996</ele><time>2026-04-26T07:56:57.013Z</time></trkpt><trkpt lat="42.77103350804075" lon="10.249368502396829"><ele>59.800000000000004</ele><time>2026-04-26T07:56:58.013Z</time></trkpt><trkpt lat="42.77109050269812" lon="10.249268741127898"><ele>59.400000000000006</ele><time>2026-04-26T07:56:59.013Z</time></trkpt><trkpt lat="42.771152198522216" lon="10.24917086608115"><ele>59.0</ele><time>2026-04-26T07:57:00.013Z</time></trkpt><trkpt lat="42.77121762894746" lon="10.249078046721097"><ele>59.0</ele><time>2026-04-26T07:57:01.013Z</time></trkpt><trkpt lat="42.77128851967603" lon="10.248988878484091"><ele>59.00000000000001</ele><time>2026-04-26T07:57:02.012Z</time></trkpt><trkpt lat="42.77136956991052" lon="10.24890082250183"><ele>59.00000000000001</ele><time>2026-04-26T07:57:03.012Z</time></trkpt><trkpt lat="42.77145687534228" lon="10.24881699660831"><ele>59.0</ele><time>2026-04-26T07:57:04.013Z</time></trkpt><trkpt lat="42.77154310672162" lon="10.248736875133003"><ele>59.0</ele><time>2026-04-26T07:57:05.013Z</time></trkpt><trkpt lat="42.7716171746278" lon="10.248644599952737"><ele>56.800000000000004</ele><time>2026-04-26T07:57:06.013Z</time></trkpt><trkpt lat="42.7716784574025" lon="10.24853249517706"><ele>54.60000000000001</ele><time>2026-04-26T07:57:07.013Z</time></trkpt><trkpt lat="42.771719728314345" lon="10.248433681103098"><ele>52.4</ele><time>2026-04-26T07:57:08.013Z</time></trkpt><trkpt lat="42.771771508324164" lon="10.248304701389044"><ele>50.2</ele><time>2026-04-26T07:57:09.013Z</time></trkpt><trkpt lat="42.77182914186638" lon="10.248188127989499"><ele>48.0</ele><time>2026-04-26T07:57:10.013Z</time></trkpt><trkpt lat="42.771872183975" lon="10.248100591240526"><ele>47.4</ele><time>2026-04-26T07:57:11.013Z</time></trkpt><trkpt lat="42.77192944787152" lon="10.248010020827461"><ele>46.8</ele><time>2026-04-26T07:57:12.013Z</time></trkpt><trkpt lat="42.77199622952296" lon="10.24789210422492"><ele>46.2</ele><time>2026-04-26T07:57:13.013Z</time></trkpt><trkpt lat="42.772068708731595" lon="10.247778770250187"><ele>45.6</ele><time>2026-04-26T07:57:14.013Z</time></trkpt><trkpt lat="42.772149356714365" lon="10.247676975764158"><ele>45.0</ele><time>2026-04-26T07:57:15.013Z</time></trkpt><trkpt lat="42.77223357341898" lon="10.247590361043672"><ele>45.0</ele><time>2026-04-26T07:57:16.013Z</time></trkpt><trkpt lat="42.77231206440513" lon="10.247512786144183"><ele>45.0</ele><time>2026-04-26T07:57:17.013Z</time></trkpt><trkpt lat="42.77240510718568" lon="10.247435027032274"><ele>45.0</ele><time>2026-04-26T07:57:18.013Z</time></trkpt><trkpt lat="42.772500284571855" lon="10.247356261066773"><ele>45.0</ele><time>2026-04-26T07:57:19.013Z</time></trkpt><trkpt lat="42.772593671312336" lon="10.247293251881457"><ele>45.0</ele><time>2026-04-26T07:57:20.013Z</time></trkpt><trkpt lat="42.77268813851643" lon="10.24724907003633"><ele>43.2</ele><time>2026-04-26T07:57:21.013Z</time></trkpt><trkpt lat="42.77279727957849" lon="10.247236676774177"><ele>41.4</ele><time>2026-04-26T07:57:22.013Z</time></trkpt><trkpt lat="42.77290858337098" lon="10.247243531276574"><ele>39.6</ele><time>2026-04-26T07:57:23.013Z</time></trkpt><trkpt lat="42.773013886039884" lon="10.247263651454416"><ele>37.8</ele><time>2026-04-26T07:57:24.013Z</time></trkpt><trkpt lat="42.77311550201156" lon="10.247294539991136"><ele>36.0</ele><time>2026-04-26T07:57:25.013Z</time></trkpt><trkpt lat="42.773209581324146" lon="10.24735077766833"><ele>36.0</ele><time>2026-04-26T07:57:26.013Z</time></trkpt><trkpt lat="42.77329217935313" lon="10.247430777064642"><ele>36.0</ele><time>2026-04-26T07:57:27.013Z</time></trkpt><trkpt lat="42.773348569633455" lon="10.247520495913012"><ele>36.0</ele><time>2026-04-26T07:57:28.013Z</time></trkpt><trkpt lat="42.773386165810265" lon="10.247620432416987"><ele>36.0</ele><time>2026-04-26T07:57:29.013Z</time></trkpt><trkpt lat="42.773416153960376" lon="10.247742302865795"><ele>36.0</ele><time>2026-04-26T07:57:30.013Z</time></trkpt><trkpt lat="42.7734400474572" lon="10.247876550141966"><ele>36.0</ele><time>2026-04-26T07:57:31.013Z</time></trkpt><trkpt lat="42.77348073428167" lon="10.247982362963523"><ele>36.0</ele><time>2026-04-26T07:57:32.013Z</time></trkpt><trkpt lat="42.77351691690849" lon="10.248058295541968"><ele>36.0</ele><time>2026-04-26T07:57:33.013Z</time></trkpt><trkpt lat="42.77357183101446" lon="10.248107298224237"><ele>36.0</ele><time>2026-04-26T07:57:34.013Z</time></trkpt><trkpt lat="42.77368818275062" lon="10.248122422549677"><ele>36.0</ele><time>2026-04-26T07:57:36.013Z</time></trkpt><trkpt lat="42.77373740308885" lon="10.248066880327038"><ele>36.0</ele><time>2026-04-26T07:57:37.013Z</time></trkpt><trkpt lat="42.77379085103212" lon="10.247970485689816"><ele>34.666666666666664</ele><time>2026-04-26T07:57:38.013Z</time></trkpt><trkpt lat="42.77385332413422" lon="10.2478811297967"><ele>33.333333333333336</ele><time>2026-04-26T07:57:39.013Z</time></trkpt><trkpt lat="42.77391706935084" lon="10.247800279943743"><ele>32.0</ele><time>2026-04-26T07:57:40.013Z</time></trkpt><trkpt lat="42.77398206550858" lon="10.247723938549568"><ele>30.666666666666668</ele><time>2026-04-26T07:57:41.013Z</time></trkpt><trkpt lat="42.77404408283159" lon="10.247649999480506"><ele>29.333333333333336</ele><time>2026-04-26T07:57:42.013Z</time></trkpt><trkpt lat="42.77409651056799" lon="10.247576841096768"><ele>28.0</ele><time>2026-04-26T07:57:43.013Z</time></trkpt><trkpt lat="42.77413297738565" lon="10.247488649000543"><ele>28.000000000000004</ele><time>2026-04-26T07:57:44.013Z</time></trkpt><trkpt lat="42.77415106745472" lon="10.247387376195125"><ele>28.0</ele><time>2026-04-26T07:57:45.013Z</time></trkpt><trkpt lat="42.77416200802777" lon="10.247282621582869"><ele>28.0</ele><time>2026-04-26T07:57:46.013Z</time></trkpt><trkpt lat="42.77417686908883" lon="10.247176981982488"><ele>28.0</ele><time>2026-04-26T07:57:47.013Z</time></trkpt><trkpt lat="42.774186108527516" lon="10.247065280665536"><ele>28.000000000000004</ele><time>2026-04-26T07:57:48.013Z</time></trkpt><trkpt lat="42.77419234980773" lon="10.24695534654954"><ele>28.0</ele><time>2026-04-26T07:57:49.013Z</time></trkpt><trkpt lat="42.774198145573436" lon="10.246840774116452"><ele>27.799999999999997</ele><time>2026-04-26T07:57:50.013Z</time></trkpt><trkpt lat="42.77420451566046" lon="10.246720823240222"><ele>27.599999999999998</ele><time>2026-04-26T07:57:51.013Z</time></trkpt><trkpt lat="42.77420960025028" lon="10.246606473363427"><ele>27.400000000000002</ele><time>2026-04-26T07:57:52.013Z</time></trkpt><trkpt lat="42.7742176447994" lon="10.24648850664043"><ele>27.200000000000003</ele><time>2026-04-26T07:57:53.013Z</time></trkpt><trkpt lat="42.774217255514685" lon="10.246337742375642"><ele>27.0</ele><time>2026-04-26T07:57:54.012Z</time></trkpt><trkpt lat="42.77420469689393" lon="10.246168553062756"><ele>27.0</ele><time>2026-04-26T07:57:55.012Z</time></trkpt><trkpt lat="42.77417876941368" lon="10.246004977681263"><ele>27.000000000000004</ele><time>2026-04-26T07:57:56.012Z</time></trkpt><trkpt lat="42.77414458521372" lon="10.245861118714181"><ele>27.000000000000004</ele><time>2026-04-26T07:57:57.012Z</time></trkpt><trkpt lat="42.774112126561036" lon="10.245741888962483"><ele>27.0</ele><time>2026-04-26T07:57:58.012Z</time></trkpt><trkpt lat="42.774098406542365" lon="10.245625794611442"><ele>27.0</ele><time>2026-04-26T07:57:59.012Z</time></trkpt><trkpt lat="42.774112379507855" lon="10.245513476393189"><ele>27.166666666666668</ele><time>2026-04-26T07:58:00.012Z</time></trkpt><trkpt lat="42.774156720486644" lon="10.245415711019167"><ele>27.333333333333336</ele><time>2026-04-26T07:58:01.012Z</time></trkpt><trkpt lat="42.774212018308376" lon="10.2453557080235"><ele>27.5</ele><time>2026-04-26T07:58:02.012Z</time></trkpt><trkpt lat="42.774288855816486" lon="10.245321629057678"><ele>27.666666666666668</ele><time>2026-04-26T07:58:03.012Z</time></trkpt><trkpt lat="42.774380814228024" lon="10.2453008705651"><ele>27.833333333333336</ele><time>2026-04-26T07:58:04.012Z</time></trkpt><trkpt lat="42.77447457738099" lon="10.245299422236359"><ele>28.0</ele><time>2026-04-26T07:58:05.012Z</time></trkpt><trkpt lat="42.77457274754479" lon="10.245301215536614"><ele>28.0</ele><time>2026-04-26T07:58:06.012Z</time></trkpt><trkpt lat="42.774667941232345" lon="10.245285267737675"><ele>27.999999999999996</ele><time>2026-04-26T07:58:07.012Z</time></trkpt><trkpt lat="42.77474629063444" lon="10.24523210152359"><ele>27.999999999999996</ele><time>2026-04-26T07:58:08.012Z</time></trkpt><trkpt lat="42.7748191142528" lon="10.245129137432277"><ele>28.0</ele><time>2026-04-26T07:58:09.012Z</time></trkpt><trkpt lat="42.77489152032293" lon="10.245012408400962"><ele>28.0</ele><time>2026-04-26T07:58:10.012Z</time></trkpt><trkpt lat="42.774967881795234" lon="10.244895831709941"><ele>28.0</ele><time>2026-04-26T07:58:11.012Z</time></trkpt><trkpt lat="42.77503810502172" lon="10.24478132061546"><ele>27.999999999999996</ele><time>2026-04-26T07:58:12.012Z</time></trkpt><trkpt lat="42.7751019553854" lon="10.24467050698731"><ele>27.999999999999996</ele><time>2026-04-26T07:58:13.012Z</time></trkpt><trkpt lat="42.775163627652034" lon="10.244567215788939"><ele>28.0</ele><time>2026-04-26T07:58:14.012Z</time></trkpt><trkpt lat="42.77522058272715" lon="10.24447662485896"><ele>28.0</ele><time>2026-04-26T07:58:15.012Z</time></trkpt><trkpt lat="42.775273074596676" lon="10.24439886211302"><ele>29.599999999999998</ele><time>2026-04-26T07:58:16.012Z</time></trkpt><trkpt lat="42.775341553824674" lon="10.244314193128963"><ele>31.199999999999996</ele><time>2026-04-26T07:58:18.012Z</time></trkpt><trkpt lat="42.77541878440621" lon="10.244325354610737"><ele>32.8</ele><time>2026-04-26T07:58:39.012Z</time></trkpt><trkpt lat="42.775538912334085" lon="10.244425099234853"><ele>34.4</ele><time>2026-04-26T07:58:41.012Z</time></trkpt><trkpt lat="42.77562437314314" lon="10.244494968725364"><ele>36.0</ele><time>2026-04-26T07:58:42.012Z</time></trkpt><trkpt lat="42.77570835213932" lon="10.244581533230205"><ele>36.0</ele><time>2026-04-26T07:58:43.012Z</time></trkpt><trkpt lat="42.775788327705186" lon="10.24466274052934"><ele>36.0</ele><time>2026-04-26T07:58:44.012Z</time></trkpt><trkpt lat="42.775876895744396" lon="10.244747147056877"><ele>36.0</ele><time>2026-04-26T07:58:45.012Z</time></trkpt><trkpt lat="42.77596016858306" lon="10.244834805773868"><ele>36.0</ele><time>2026-04-26T07:58:46.012Z</time></trkpt><trkpt lat="42.776051410764154" lon="10.244933868239478"><ele>36.0</ele><time>2026-04-26T07:58:47.012Z</time></trkpt><trkpt lat="42.77613924825268" lon="10.245035114772142"><ele>39.25</ele><time>2026-04-26T07:58:48.012Z</time></trkpt><trkpt lat="42.77622287321612" lon="10.245147560338921"><ele>42.5</ele><time>2026-04-26T07:58:49.012Z</time></trkpt><trkpt lat="42.776312142872506" lon="10.24526071931487"><ele>45.75</ele><time>2026-04-26T07:58:50.012Z</time></trkpt><trkpt lat="42.77641696273422" lon="10.24537046941854"><ele>49.0</ele><time>2026-04-26T07:58:51.012Z</time></trkpt><trkpt lat="42.77651255777195" lon="10.245476534079547"><ele>49.0</ele><time>2026-04-26T07:58:52.012Z</time></trkpt><trkpt lat="42.77661255435542" lon="10.24560182009572"><ele>49.0</ele><time>2026-04-26T07:58:53.012Z</time></trkpt><trkpt lat="42.77670754814458" lon="10.245716906494074"><ele>49.0</ele><time>2026-04-26T07:58:54.012Z</time></trkpt><trkpt lat="42.77678180813615" lon="10.245814656161684"><ele>49.0</ele><time>2026-04-26T07:58:55.012Z</time></trkpt><trkpt lat="42.77686242595152" lon="10.245901964811994"><ele>49.6</ele><time>2026-04-26T07:58:56.012Z</time></trkpt><trkpt lat="42.77694692416914" lon="10.245981684031827"><ele>50.2</ele><time>2026-04-26T07:58:57.012Z</time></trkpt><trkpt lat="42.77704620754104" lon="10.246052162268317"><ele>50.800000000000004</ele><time>2026-04-26T07:58:58.014Z</time></trkpt><trkpt lat="42.77715230861676" lon="10.246110068102897"><ele>51.400000000000006</ele><time>2026-04-26T07:58:59.013Z</time></trkpt><trkpt lat="42.77726531625347" lon="10.24616617498368"><ele>52.0</ele><time>2026-04-26T07:59:00.013Z</time></trkpt><trkpt lat="42.77738335701344" lon="10.246228103516644"><ele>52.0</ele><time>2026-04-26T07:59:01.014Z</time></trkpt><trkpt lat="42.77750270823425" lon="10.24629207446218"><ele>52.0</ele><time>2026-04-26T07:59:02.013Z</time></trkpt><trkpt lat="42.77762030226216" lon="10.246348384936013"><ele>52.0</ele><time>2026-04-26T07:59:03.013Z</time></trkpt><trkpt lat="42.777734776905426" lon="10.246402065829432"><ele>52.0</ele><time>2026-04-26T07:59:04.013Z</time></trkpt><trkpt lat="42.77784772962758" lon="10.246447736742354"><ele>51.25</ele><time>2026-04-26T07:59:05.013Z</time></trkpt><trkpt lat="42.777951896298774" lon="10.246483555455372"><ele>50.5</ele><time>2026-04-26T07:59:06.013Z</time></trkpt><trkpt lat="42.77805979994568" lon="10.246506527326407"><ele>49.75</ele><time>2026-04-26T07:59:07.013Z</time></trkpt><trkpt lat="42.77817486829668" lon="10.246516750279532"><ele>49.0</ele><time>2026-04-26T07:59:08.013Z</time></trkpt><trkpt lat="42.77829879347559" lon="10.246514736702396"><ele>49.0</ele><time>2026-04-26T07:59:09.013Z</time></trkpt><trkpt lat="42.77842440625981" lon="10.246502047521549"><ele>49.0</ele><time>2026-04-26T07:59:10.013Z</time></trkpt><trkpt lat="42.77854449079561" lon="10.246469382542676"><ele>49.0</ele><time>2026-04-26T07:59:11.013Z</time></trkpt><trkpt lat="42.778661665021794" lon="10.24644329977802"><ele>49.0</ele><time>2026-04-26T07:59:12.013Z</time></trkpt><trkpt lat="42.7787676940235" lon="10.246410336150392"><ele>50.5</ele><time>2026-04-26T07:59:13.013Z</time></trkpt><trkpt lat="42.77887075269944" lon="10.246373099730128"><ele>52.0</ele><time>2026-04-26T07:59:14.013Z</time></trkpt><trkpt lat="42.778982874433765" lon="10.246315508838297"><ele>53.5</ele><time>2026-04-26T07:59:15.013Z</time></trkpt><trkpt lat="42.77909253679431" lon="10.246264780466916"><ele>55.0</ele><time>2026-04-26T07:59:16.013Z</time></trkpt><trkpt lat="42.77920080778237" lon="10.246172820023856"><ele>55.0</ele><time>2026-04-26T07:59:17.013Z</time></trkpt><trkpt lat="42.77931395590587" lon="10.246082638065387"><ele>55.0</ele><time>2026-04-26T07:59:18.013Z</time></trkpt><trkpt lat="42.77941460586826" lon="10.245990733296516"><ele>55.0</ele><time>2026-04-26T07:59:19.013Z</time></trkpt><trkpt lat="42.77952644917803" lon="10.245908521772156"><ele>55.0</ele><time>2026-04-26T07:59:20.013Z</time></trkpt><trkpt lat="42.77963849867005" lon="10.245832948552982"><ele>53.25</ele><time>2026-04-26T07:59:21.013Z</time></trkpt><trkpt lat="42.77975823546004" lon="10.245765457960395"><ele>51.5</ele><time>2026-04-26T07:59:22.013Z</time></trkpt><trkpt lat="42.77987718114736" lon="10.24570609657565"><ele>49.75</ele><time>2026-04-26T07:59:23.013Z</time></trkpt><trkpt lat="42.7800007455886" lon="10.245650856668533"><ele>48.0</ele><time>2026-04-26T07:59:24.013Z</time></trkpt><trkpt lat="42.78012183642978" lon="10.245597489069795"><ele>45.25</ele><time>2026-04-26T07:59:25.013Z</time></trkpt><trkpt lat="42.78024095449484" lon="10.24554632149855"><ele>42.5</ele><time>2026-04-26T07:59:26.013Z</time></trkpt><trkpt lat="42.780337802783514" lon="10.245496979761079"><ele>39.75</ele><time>2026-04-26T07:59:27.013Z</time></trkpt><trkpt lat="42.780448883614966" lon="10.245449413030657"><ele>37.0</ele><time>2026-04-26T07:59:28.013Z</time></trkpt><trkpt lat="42.780550757423796" lon="10.24539938427853"><ele>37.0</ele><time>2026-04-26T07:59:29.013Z</time></trkpt><trkpt lat="42.780659454122826" lon="10.245361697397435"><ele>37.0</ele><time>2026-04-26T07:59:30.013Z</time></trkpt><trkpt lat="42.78077174531678" lon="10.245303336678017"><ele>37.0</ele><time>2026-04-26T07:59:31.013Z</time></trkpt><trkpt lat="42.780881880462815" lon="10.245255140516182"><ele>37.0</ele><time>2026-04-26T07:59:32.013Z</time></trkpt><trkpt lat="42.78099934874953" lon="10.24520101623065"><ele>35.5</ele><time>2026-04-26T07:59:33.013Z</time></trkpt><trkpt lat="42.78112984298078" lon="10.245151251507933"><ele>34.0</ele><time>2026-04-26T07:59:34.013Z</time></trkpt><trkpt lat="42.78127174907058" lon="10.245104662139525"><ele>32.5</ele><time>2026-04-26T07:59:35.013Z</time></trkpt><trkpt lat="42.78141181079806" lon="10.245062534492204"><ele>31.0</ele><time>2026-04-26T07:59:36.013Z</time></trkpt><trkpt lat="42.78154459920616" lon="10.245025208607434"><ele>31.0</ele><time>2026-04-26T07:59:37.013Z</time></trkpt><trkpt lat="42.781673755000234" lon="10.244979448400526"><ele>31.0</ele><time>2026-04-26T07:59:38.013Z</time></trkpt><trkpt lat="42.78181024839556" lon="10.244946869612923"><ele>31.0</ele><time>2026-04-26T07:59:39.013Z</time></trkpt><trkpt lat="42.781938415200116" lon="10.24491076183196"><ele>31.0</ele><time>2026-04-26T07:59:40.013Z</time></trkpt><trkpt lat="42.78205993245683" lon="10.244881170280095"><ele>29.25</ele><time>2026-04-26T07:59:41.013Z</time></trkpt><trkpt lat="42.78219623743136" lon="10.244867777626107"><ele>27.5</ele><time>2026-04-26T07:59:42.013Z</time></trkpt><trkpt lat="42.78231650975958" lon="10.244857797054953"><ele>25.75</ele><time>2026-04-26T07:59:43.013Z</time></trkpt><trkpt lat="42.78243163812957" lon="10.24485644355053"><ele>24.0</ele><time>2026-04-26T07:59:44.013Z</time></trkpt><trkpt lat="42.782529645439155" lon="10.244864649803176"><ele>24.0</ele><time>2026-04-26T07:59:45.013Z</time></trkpt><trkpt lat="42.782631714285735" lon="10.244900631411461"><ele>24.0</ele><time>2026-04-26T07:59:46.013Z</time></trkpt><trkpt lat="42.782735214788616" lon="10.244956716786069"><ele>24.0</ele><time>2026-04-26T07:59:47.013Z</time></trkpt><trkpt lat="42.78282163071417" lon="10.245004805002505"><ele>24.0</ele><time>2026-04-26T07:59:48.013Z</time></trkpt><trkpt lat="42.782940319107446" lon="10.245078222896165"><ele>24.0</ele><time>2026-04-26T07:59:49.013Z</time></trkpt><trkpt lat="42.78305068287243" lon="10.245141753495007"><ele>21.5</ele><time>2026-04-26T07:59:50.013Z</time></trkpt><trkpt lat="42.78317287504098" lon="10.245221021608677"><ele>19.0</ele><time>2026-04-26T07:59:51.013Z</time></trkpt><trkpt lat="42.78329466894464" lon="10.245275623996106"><ele>16.5</ele><time>2026-04-26T07:59:52.013Z</time></trkpt><trkpt lat="42.783419959431356" lon="10.245326854282201"><ele>14.0</ele><time>2026-04-26T07:59:53.013Z</time></trkpt><trkpt lat="42.78352074013497" lon="10.245371390598292"><ele>13.2</ele><time>2026-04-26T07:59:54.013Z</time></trkpt><trkpt lat="42.78363851555162" lon="10.245388020320638"><ele>12.399999999999999</ele><time>2026-04-26T07:59:55.013Z</time></trkpt><trkpt lat="42.78374794907556" lon="10.245413353766281"><ele>11.6</ele><time>2026-04-26T07:59:56.013Z</time></trkpt><trkpt lat="42.783848883072395" lon="10.245435144416199"><ele>10.8</ele><time>2026-04-26T07:59:57.013Z</time></trkpt><trkpt lat="42.78394809956087" lon="10.245458610769294"><ele>10.0</ele><time>2026-04-26T07:59:58.013Z</time></trkpt><trkpt lat="42.78406558535531" lon="10.245484511945683"><ele>10.0</ele><time>2026-04-26T07:59:59.013Z</time></trkpt><trkpt lat="42.78417238543149" lon="10.245511648466344"><ele>10.0</ele><time>2026-04-26T08:00:00.013Z</time></trkpt><trkpt lat="42.78428075822242" lon="10.24553656167547"><ele>10.0</ele><time>2026-04-26T08:00:01.013Z</time></trkpt><trkpt lat="42.78437745323297" lon="10.245549963638888"><ele>10.0</ele><time>2026-04-26T08:00:02.012Z</time></trkpt><trkpt lat="42.78449181999368" lon="10.245589449745136"><ele>10.0</ele><time>2026-04-26T08:00:03.012Z</time></trkpt><trkpt lat="42.784608518730245" lon="10.24561257591418"><ele>9.666666666666668</ele><time>2026-04-26T08:00:04.012Z</time></trkpt><trkpt lat="42.78471144944474" lon="10.245632379318922"><ele>9.333333333333334</ele><time>2026-04-26T08:00:05.012Z</time></trkpt><trkpt lat="42.78479728478607" lon="10.245637640158883"><ele>9.0</ele><time>2026-04-26T08:00:06.012Z</time></trkpt><trkpt lat="42.78487121006039" lon="10.24565172929586"><ele>8.666666666666666</ele><time>2026-04-26T08:00:07.012Z</time></trkpt><trkpt lat="42.784942782889885" lon="10.24565653317558"><ele>8.333333333333332</ele><time>2026-04-26T08:00:08.012Z</time></trkpt><trkpt lat="42.78501783954959" lon="10.245618112845808"><ele>8.0</ele><time>2026-04-26T08:00:10.012Z</time></trkpt><trkpt lat="42.785089110894084" lon="10.24551498977489"><ele>8.0</ele><time>2026-04-26T08:00:12.012Z</time></trkpt><trkpt lat="42.78510902162042" lon="10.245425428356667"><ele>7.999999999999999</ele><time>2026-04-26T08:00:13.012Z</time></trkpt><trkpt lat="42.785119536299334" lon="10.245333619801777"><ele>8.0</ele><time>2026-04-26T08:00:14.012Z</time></trkpt><trkpt lat="42.78514643653549" lon="10.245240615891609"><ele>8.0</ele><time>2026-04-26T08:00:15.012Z</time></trkpt><trkpt lat="42.78519049182336" lon="10.245142309022889"><ele>7.999999999999999</ele><time>2026-04-26T08:00:16.012Z</time></trkpt><trkpt lat="42.78523189544098" lon="10.245052244603706"><ele>8.0</ele><time>2026-04-26T08:00:17.012Z</time></trkpt><trkpt lat="42.785290035804564" lon="10.244986492323962"><ele>8.0</ele><time>2026-04-26T08:00:18.012Z</time></trkpt><trkpt lat="42.78535091212298" lon="10.244914900272262"><ele>7.499999999999999</ele><time>2026-04-26T08:00:19.012Z</time></trkpt><trkpt lat="42.785419928463455" lon="10.24482938805492"><ele>7.0</ele><time>2026-04-26T08:00:20.012Z</time></trkpt><trkpt lat="42.78549248555791" lon="10.244750551292665"><ele>6.5</ele><time>2026-04-26T08:00:21.012Z</time></trkpt><trkpt lat="42.78556251888581" lon="10.244681386129734"><ele>6.0</ele><time>2026-04-26T08:00:22.012Z</time></trkpt><trkpt lat="42.785631778005076" lon="10.244621529649576"><ele>5.5</ele><time>2026-04-26T08:00:23.012Z</time></trkpt><trkpt lat="42.785696764718104" lon="10.244576716112904"><ele>5.0</ele><time>2026-04-26T08:00:24.012Z</time></trkpt><trkpt lat="42.78580645362447" lon="10.244527200488376"><ele>4.8</ele><time>2026-04-26T08:00:26.012Z</time></trkpt><trkpt lat="42.78589931983521" lon="10.24447641558473"><ele>4.6</ele><time>2026-04-26T08:00:49.012Z</time></trkpt><trkpt lat="42.78594021898064" lon="10.244353973357132"><ele>4.4</ele><time>2026-04-26T08:00:52.012Z</time></trkpt><trkpt lat="42.78594197487299" lon="10.244221194835589"><ele>4.2</ele><time>2026-04-26T08:00:54.012Z</time></trkpt><trkpt lat="42.78593476529988" lon="10.24411539190156"><ele>4.0</ele><time>2026-04-26T08:00:56.012Z</time></trkpt><trkpt lat="42.785927071366075" lon="10.24400697066806"><ele>3.833333333333333</ele><time>2026-04-26T08:00:59.012Z</time></trkpt><trkpt lat="42.78592523347502" lon="10.243896854671139"><ele>3.6666666666666665</ele><time>2026-04-26T08:01:01.012Z</time></trkpt><trkpt lat="42.78591815889686" lon="10.24374355748289"><ele>3.5</ele><time>2026-04-26T08:01:03.012Z</time></trkpt><trkpt lat="42.785917037011515" lon="10.243650636088722"><ele>3.333333333333333</ele><time>2026-04-26T08:01:04.013Z</time></trkpt><trkpt lat="42.785915672996204" lon="10.243528398292021"><ele>3.1666666666666665</ele><time>2026-04-26T08:01:05.013Z</time></trkpt><trkpt lat="42.78591161687485" lon="10.243399646000936"><ele>3.0</ele><time>2026-04-26T08:01:06.013Z</time></trkpt><trkpt lat="42.7859079067532" lon="10.243261630146131"><ele>3.5</ele><time>2026-04-26T08:01:07.014Z</time></trkpt><trkpt lat="42.785904985787724" lon="10.243113019003843"><ele>4.0</ele><time>2026-04-26T08:01:08.013Z</time></trkpt><trkpt lat="42.78590010015453" lon="10.242962530932916"><ele>4.5</ele><time>2026-04-26T08:01:09.013Z</time></trkpt><trkpt lat="42.785896505104795" lon="10.242801165152175"><ele>5.0</ele><time>2026-04-26T08:01:10.013Z</time></trkpt><trkpt lat="42.78589009507288" lon="10.242639415768776"><ele>5.0</ele><time>2026-04-26T08:01:11.014Z</time></trkpt><trkpt lat="42.7858858609346" lon="10.24248153466815"><ele>5.0</ele><time>2026-04-26T08:01:12.014Z</time></trkpt><trkpt lat="42.78589625668914" lon="10.242328968348948"><ele>5.0</ele><time>2026-04-26T08:01:13.014Z</time></trkpt><trkpt lat="42.785925227876156" lon="10.2421899223788"><ele>5.0</ele><time>2026-04-26T08:01:14.013Z</time></trkpt><trkpt lat="42.78597668221971" lon="10.242075661163726"><ele>5.0</ele><time>2026-04-26T08:01:15.013Z</time></trkpt><trkpt lat="42.78604711411256" lon="10.24197775984738"><ele>5.75</ele><time>2026-04-26T08:01:16.013Z</time></trkpt><trkpt lat="42.7861341281182" lon="10.241891412771173"><ele>6.5</ele><time>2026-04-26T08:01:17.013Z</time></trkpt><trkpt lat="42.78622883177746" lon="10.241798617398018"><ele>7.25</ele><time>2026-04-26T08:01:18.013Z</time></trkpt><trkpt lat="42.7863287414533" lon="10.241697116043877"><ele>8.0</ele><time>2026-04-26T08:01:19.013Z</time></trkpt><trkpt lat="42.78643037543504" lon="10.241581278710235"><ele>11.25</ele><time>2026-04-26T08:01:20.013Z</time></trkpt><trkpt lat="42.78652533420597" lon="10.241450288143932"><ele>14.5</ele><time>2026-04-26T08:01:21.013Z</time></trkpt><trkpt lat="42.786615332288115" lon="10.241302618008291"><ele>17.75</ele><time>2026-04-26T08:01:22.013Z</time></trkpt><trkpt lat="42.786711379549594" lon="10.241143141266019"><ele>21.0</ele><time>2026-04-26T08:01:23.013Z</time></trkpt><trkpt lat="42.786797869714434" lon="10.240982202487505"><ele>21.75</ele><time>2026-04-26T08:01:24.013Z</time></trkpt><trkpt lat="42.78688952112524" lon="10.240849464188134"><ele>22.5</ele><time>2026-04-26T08:01:25.013Z</time></trkpt><trkpt lat="42.7870001040995" lon="10.240724988498267"><ele>23.25</ele><time>2026-04-26T08:01:26.013Z</time></trkpt><trkpt lat="42.787109877542" lon="10.240622788078667"><ele>24.0</ele><time>2026-04-26T08:01:27.013Z</time></trkpt><trkpt lat="42.7872205161049" lon="10.240529691233942"><ele>24.0</ele><time>2026-04-26T08:01:28.013Z</time></trkpt><trkpt lat="42.78734095299339" lon="10.240453987352355"><ele>24.0</ele><time>2026-04-26T08:01:29.013Z</time></trkpt><trkpt lat="42.78746016466382" lon="10.240409710839156"><ele>24.0</ele><time>2026-04-26T08:01:30.013Z</time></trkpt><trkpt lat="42.78756997623086" lon="10.24037306891497"><ele>24.0</ele><time>2026-04-26T08:01:31.013Z</time></trkpt><trkpt lat="42.787669723398714" lon="10.240334779359777"><ele>22.8</ele><time>2026-04-26T08:01:32.013Z</time></trkpt><trkpt lat="42.78774768151701" lon="10.240262621494583"><ele>21.599999999999998</ele><time>2026-04-26T08:01:33.013Z</time></trkpt><trkpt lat="42.78781267641024" lon="10.240169082212963"><ele>20.4</ele><time>2026-04-26T08:01:34.013Z</time></trkpt><trkpt lat="42.78787021628156" lon="10.240035421446711"><ele>19.2</ele><time>2026-04-26T08:01:35.013Z</time></trkpt><trkpt lat="42.78791840816803" lon="10.239885178510622"><ele>18.0</ele><time>2026-04-26T08:01:36.013Z</time></trkpt><trkpt lat="42.78797465007361" lon="10.239725133145377"><ele>18.0</ele><time>2026-04-26T08:01:37.013Z</time></trkpt><trkpt lat="42.78803394185439" lon="10.239544638071846"><ele>18.0</ele><time>2026-04-26T08:01:38.013Z</time></trkpt><trkpt lat="42.7880962499989" lon="10.2393653247345"><ele>18.0</ele><time>2026-04-26T08:01:39.013Z</time></trkpt><trkpt lat="42.78815291409154" lon="10.239203038733708"><ele>18.0</ele><time>2026-04-26T08:01:40.013Z</time></trkpt><trkpt lat="42.78820001039867" lon="10.239054580885044"><ele>18.6</ele><time>2026-04-26T08:01:41.013Z</time></trkpt><trkpt lat="42.78823023794128" lon="10.238915777662433"><ele>19.200000000000003</ele><time>2026-04-26T08:01:42.013Z</time></trkpt><trkpt lat="42.788235627202006" lon="10.238777760968267"><ele>19.8</ele><time>2026-04-26T08:01:43.013Z</time></trkpt><trkpt lat="42.78821206996811" lon="10.238647558161563"><ele>20.400000000000002</ele><time>2026-04-26T08:01:44.013Z</time></trkpt><trkpt lat="42.7881573226513" lon="10.238541381994548"><ele>21.0</ele><time>2026-04-26T08:01:45.013Z</time></trkpt><trkpt lat="42.78808124060649" lon="10.238479213106235"><ele>21.0</ele><time>2026-04-26T08:01:46.013Z</time></trkpt><trkpt lat="42.787978365226486" lon="10.23843472443812"><ele>21.0</ele><time>2026-04-26T08:01:47.013Z</time></trkpt><trkpt lat="42.787857059867854" lon="10.238378574602857"><ele>21.0</ele><time>2026-04-26T08:01:48.013Z</time></trkpt><trkpt lat="42.787732201180845" lon="10.238312850961771"><ele>21.0</ele><time>2026-04-26T08:01:49.013Z</time></trkpt><trkpt lat="42.787617574906456" lon="10.23826116662617"><ele>21.6</ele><time>2026-04-26T08:01:50.013Z</time></trkpt><trkpt lat="42.78750889738535" lon="10.238237988063377"><ele>22.200000000000003</ele><time>2026-04-26T08:01:51.013Z</time></trkpt><trkpt lat="42.787400511956605" lon="10.23826031082797"><ele>22.799999999999997</ele><time>2026-04-26T08:01:52.013Z</time></trkpt><trkpt lat="42.78730112269242" lon="10.238315392593018"><ele>23.4</ele><time>2026-04-26T08:01:53.013Z</time></trkpt><trkpt lat="42.78721209512932" lon="10.238408126042891"><ele>24.0</ele><time>2026-04-26T08:01:54.013Z</time></trkpt><trkpt lat="42.78713069181247" lon="10.238519054786204"><ele>24.0</ele><time>2026-04-26T08:01:55.013Z</time></trkpt><trkpt lat="42.78704522366492" lon="10.238605868444333"><ele>24.0</ele><time>2026-04-26T08:01:56.013Z</time></trkpt><trkpt lat="42.786960459463884" lon="10.23865355645716"><ele>24.0</ele><time>2026-04-26T08:01:57.012Z</time></trkpt><trkpt lat="42.786869554370014" lon="10.238657158747902"><ele>24.0</ele><time>2026-04-26T08:01:58.012Z</time></trkpt><trkpt lat="42.786768093211094" lon="10.23861902264109"><ele>24.0</ele><time>2026-04-26T08:01:59.012Z</time></trkpt><trkpt lat="42.78667017110178" lon="10.238555066423501"><ele>24.75</ele><time>2026-04-26T08:02:00.012Z</time></trkpt><trkpt lat="42.78656003577907" lon="10.238467603622412"><ele>25.5</ele><time>2026-04-26T08:02:01.012Z</time></trkpt><trkpt lat="42.78645057888038" lon="10.23836090304689"><ele>26.25</ele><time>2026-04-26T08:02:02.012Z</time></trkpt><trkpt lat="42.78634941082182" lon="10.238259792488709"><ele>27.0</ele><time>2026-04-26T08:02:03.012Z</time></trkpt><trkpt lat="42.78624491733463" lon="10.238166941487812"><ele>25.25</ele><time>2026-04-26T08:02:04.012Z</time></trkpt><trkpt lat="42.78612912752367" lon="10.238101976984982"><ele>23.5</ele><time>2026-04-26T08:02:05.012Z</time></trkpt><trkpt lat="42.7860056651952" lon="10.238052535621938"><ele>21.75</ele><time>2026-04-26T08:02:06.012Z</time></trkpt><trkpt lat="42.785871407639114" lon="10.23803463475344"><ele>20.0</ele><time>2026-04-26T08:02:07.012Z</time></trkpt><trkpt lat="42.78572716129057" lon="10.238034471815592"><ele>20.0</ele><time>2026-04-26T08:02:08.012Z</time></trkpt><trkpt lat="42.78557461328518" lon="10.238034688113112"><ele>20.0</ele><time>2026-04-26T08:02:09.012Z</time></trkpt><trkpt lat="42.78543068187927" lon="10.238038804108834"><ele>20.0</ele><time>2026-04-26T08:02:10.012Z</time></trkpt><trkpt lat="42.785295193145515" lon="10.238043228625413"><ele>20.0</ele><time>2026-04-26T08:02:11.012Z</time></trkpt><trkpt lat="42.78517015145064" lon="10.238046275982537"><ele>22.0</ele><time>2026-04-26T08:02:12.012Z</time></trkpt><trkpt lat="42.785070137320346" lon="10.238033298748674"><ele>24.0</ele><time>2026-04-26T08:02:13.012Z</time></trkpt><trkpt lat="42.78499257984665" lon="10.238000072514485"><ele>26.0</ele><time>2026-04-26T08:02:14.012Z</time></trkpt><trkpt lat="42.78493478837364" lon="10.23795219321446"><ele>28.0</ele><time>2026-04-26T08:02:15.012Z</time></trkpt><trkpt lat="42.78489288112613" lon="10.237872812589702"><ele>29.999999999999996</ele><time>2026-04-26T08:02:16.012Z</time></trkpt><trkpt lat="42.784889366127324" lon="10.237766775655238"><ele>32.0</ele><time>2026-04-26T08:02:17.012Z</time></trkpt><trkpt lat="42.784904056493204" lon="10.237642127294023"><ele>32.0</ele><time>2026-04-26T08:02:18.012Z</time></trkpt><trkpt lat="42.78491211533714" lon="10.23749270110445"><ele>32.0</ele><time>2026-04-26T08:02:19.012Z</time></trkpt><trkpt lat="42.78491172978727" lon="10.237316422536516"><ele>32.0</ele><time>2026-04-26T08:02:20.012Z</time></trkpt><trkpt lat="42.78489286913972" lon="10.237132115811672"><ele>32.0</ele><time>2026-04-26T08:02:21.012Z</time></trkpt><trkpt lat="42.784865134639745" lon="10.236946163366948"><ele>31.5</ele><time>2026-04-26T08:02:22.012Z</time></trkpt><trkpt lat="42.78483339349683" lon="10.23676928455073"><ele>31.0</ele><time>2026-04-26T08:02:23.012Z</time></trkpt><trkpt lat="42.784801314488625" lon="10.236603936923478"><ele>30.5</ele><time>2026-04-26T08:02:24.012Z</time></trkpt><trkpt lat="42.7847794450581" lon="10.236458397168994"><ele>30.0</ele><time>2026-04-26T08:02:25.012Z</time></trkpt><trkpt lat="42.78476856391939" lon="10.236340972107929"><ele>29.666666666666668</ele><time>2026-04-26T08:02:26.012Z</time></trkpt><trkpt lat="42.78479936374197" lon="10.236247644005065"><ele>29.333333333333336</ele><time>2026-04-26T08:02:27.012Z</time></trkpt><trkpt lat="42.784862720369716" lon="10.236186942009684"><ele>29.0</ele><time>2026-04-26T08:02:28.012Z</time></trkpt><trkpt lat="42.78495303834144" lon="10.23616623188505"><ele>28.666666666666668</ele><time>2026-04-26T08:02:29.012Z</time></trkpt><trkpt lat="42.785046751711356" lon="10.23617474544121"><ele>28.333333333333336</ele><time>2026-04-26T08:02:30.012Z</time></trkpt><trkpt lat="42.78514945151552" lon="10.236170388835868"><ele>28.0</ele><time>2026-04-26T08:02:31.012Z</time></trkpt><trkpt lat="42.78526025950094" lon="10.236130059010346"><ele>28.0</ele><time>2026-04-26T08:02:32.012Z</time></trkpt><trkpt lat="42.7853768171467" lon="10.23607336470486"><ele>28.0</ele><time>2026-04-26T08:02:33.012Z</time></trkpt><trkpt lat="42.78549232019628" lon="10.235989166303357"><ele>28.0</ele><time>2026-04-26T08:02:34.012Z</time></trkpt><trkpt lat="42.78560171913195" lon="10.235883669536639"><ele>28.0</ele><time>2026-04-26T08:02:35.012Z</time></trkpt><trkpt lat="42.78569603226201" lon="10.235764046137197"><ele>29.75</ele><time>2026-04-26T08:02:36.012Z</time></trkpt><trkpt lat="42.785770201702775" lon="10.235621183096859"><ele>31.5</ele><time>2026-04-26T08:02:37.012Z</time></trkpt><trkpt lat="42.78581861869235" lon="10.235466111780394"><ele>33.25</ele><time>2026-04-26T08:02:38.012Z</time></trkpt><trkpt lat="42.7858499833826" lon="10.23530784512198"><ele>35.0</ele><time>2026-04-26T08:02:39.012Z</time></trkpt><trkpt lat="42.7858552602414" lon="10.23514151309703"><ele>35.0</ele><time>2026-04-26T08:02:40.012Z</time></trkpt><trkpt lat="42.78584663393163" lon="10.23497090336999"><ele>35.0</ele><time>2026-04-26T08:02:41.012Z</time></trkpt><trkpt lat="42.785836818708034" lon="10.234804269877685"><ele>35.0</ele><time>2026-04-26T08:02:42.012Z</time></trkpt><trkpt lat="42.78583727556384" lon="10.234648285620699"><ele>35.0</ele><time>2026-04-26T08:02:43.012Z</time></trkpt><trkpt lat="42.78586559908944" lon="10.234493883095833"><ele>34.25</ele><time>2026-04-26T08:02:44.012Z</time></trkpt><trkpt lat="42.78591380185383" lon="10.234344165495513"><ele>33.5</ele><time>2026-04-26T08:02:45.012Z</time></trkpt><trkpt lat="42.785978489634815" lon="10.234192458938578"><ele>32.75</ele><time>2026-04-26T08:02:46.012Z</time></trkpt><trkpt lat="42.78604670472736" lon="10.234053412168597"><ele>32.0</ele><time>2026-04-26T08:02:47.012Z</time></trkpt><trkpt lat="42.78612060393846" lon="10.233931690718839"><ele>34.6</ele><time>2026-04-26T08:02:48.012Z</time></trkpt><trkpt lat="42.78620623774207" lon="10.233834917622302"><ele>37.2</ele><time>2026-04-26T08:02:49.012Z</time></trkpt><trkpt lat="42.786299418066015" lon="10.233785355562091"><ele>39.8</ele><time>2026-04-26T08:02:50.012Z</time></trkpt><trkpt lat="42.78639907338374" lon="10.233801207930831"><ele>42.4</ele><time>2026-04-26T08:02:51.012Z</time></trkpt><trkpt lat="42.78648528519488" lon="10.23387212870127"><ele>45.0</ele><time>2026-04-26T08:02:52.012Z</time></trkpt><trkpt lat="42.78658291221735" lon="10.233945887745637"><ele>42.5</ele><time>2026-04-26T08:02:53.012Z</time></trkpt><trkpt lat="42.786700354290225" lon="10.234036006557659"><ele>40.0</ele><time>2026-04-26T08:02:54.012Z</time></trkpt><trkpt lat="42.78681742890591" lon="10.234120315891815"><ele>37.5</ele><time>2026-04-26T08:02:55.012Z</time></trkpt><trkpt lat="42.78694542019389" lon="10.234183239241602"><ele>35.0</ele><time>2026-04-26T08:02:56.012Z</time></trkpt><trkpt lat="42.78708286044255" lon="10.234223930860477"><ele>35.0</ele><time>2026-04-26T08:02:57.012Z</time></trkpt><trkpt lat="42.78722236858367" lon="10.234236833027955"><ele>35.0</ele><time>2026-04-26T08:02:58.012Z</time></trkpt><trkpt lat="42.78736389852309" lon="10.234229592297751"><ele>35.0</ele><time>2026-04-26T08:02:59.012Z</time></trkpt><trkpt lat="42.787500002661105" lon="10.234221474082446"><ele>35.0</ele><time>2026-04-26T08:03:00.012Z</time></trkpt><trkpt lat="42.78763498997195" lon="10.23420682146335"><ele>32.0</ele><time>2026-04-26T08:03:01.011Z</time></trkpt><trkpt lat="42.787771471755356" lon="10.234203806942741"><ele>29.0</ele><time>2026-04-26T08:03:02.011Z</time></trkpt><trkpt lat="42.78789155833103" lon="10.234196656964654"><ele>26.0</ele><time>2026-04-26T08:03:03.011Z</time></trkpt><trkpt lat="42.78799044948409" lon="10.234167951501815"><ele>23.0</ele><time>2026-04-26T08:03:04.011Z</time></trkpt><trkpt lat="42.78807416483448" lon="10.234106555622635"><ele>23.0</ele><time>2026-04-26T08:03:05.011Z</time></trkpt><trkpt lat="42.78813041187026" lon="10.23401667257221"><ele>23.0</ele><time>2026-04-26T08:03:06.011Z</time></trkpt><trkpt lat="42.78815303256587" lon="10.233906608854554"><ele>23.0</ele><time>2026-04-26T08:03:07.011Z</time></trkpt><trkpt lat="42.78814640619848" lon="10.233782970643754"><ele>23.0</ele><time>2026-04-26T08:03:08.011Z</time></trkpt><trkpt lat="42.78810384420335" lon="10.233680065897524"><ele>23.0</ele><time>2026-04-26T08:03:09.011Z</time></trkpt><trkpt lat="42.788028764812694" lon="10.23358435190847"><ele>22.25</ele><time>2026-04-26T08:03:10.014Z</time></trkpt><trkpt lat="42.78793562383346" lon="10.2334813719453"><ele>21.5</ele><time>2026-04-26T08:03:11.014Z</time></trkpt><trkpt lat="42.787834981599595" lon="10.23335217082467"><ele>20.75</ele><time>2026-04-26T08:03:12.014Z</time></trkpt><trkpt lat="42.7877454979948" lon="10.233203105165396"><ele>20.0</ele><time>2026-04-26T08:03:13.014Z</time></trkpt><trkpt lat="42.78766360389405" lon="10.233042836178756"><ele>23.75</ele><time>2026-04-26T08:03:14.013Z</time></trkpt><trkpt lat="42.78759054879532" lon="10.232878454107414"><ele>27.5</ele><time>2026-04-26T08:03:15.013Z</time></trkpt><trkpt lat="42.78751785597278" lon="10.232721378974858"><ele>31.25</ele><time>2026-04-26T08:03:16.014Z</time></trkpt><trkpt lat="42.78744443177734" lon="10.23257865060758"><ele>35.0</ele><time>2026-04-26T08:03:17.014Z</time></trkpt><trkpt lat="42.78738784039692" lon="10.232434453921755"><ele>36.6</ele><time>2026-04-26T08:03:18.014Z</time></trkpt><trkpt lat="42.78736158677417" lon="10.232287313396728"><ele>38.2</ele><time>2026-04-26T08:03:19.014Z</time></trkpt><trkpt lat="42.78738000533415" lon="10.232134483565877"><ele>39.8</ele><time>2026-04-26T08:03:20.013Z</time></trkpt><trkpt lat="42.78741767750725" lon="10.232005936743773"><ele>41.4</ele><time>2026-04-26T08:03:21.013Z</time></trkpt><trkpt lat="42.78744974948747" lon="10.231891550628655"><ele>43.0</ele><time>2026-04-26T08:03:22.014Z</time></trkpt><trkpt lat="42.78750251073153" lon="10.231811152511149"><ele>43.0</ele><time>2026-04-26T08:03:23.014Z</time></trkpt><trkpt lat="42.78757826897592" lon="10.23172049157778"><ele>43.0</ele><time>2026-04-26T08:03:24.014Z</time></trkpt><trkpt lat="42.78767468739615" lon="10.231642706565731"><ele>43.0</ele><time>2026-04-26T08:03:25.014Z</time></trkpt><trkpt lat="42.78779902010254" lon="10.231537973878472"><ele>43.0</ele><time>2026-04-26T08:03:26.014Z</time></trkpt><trkpt lat="42.78791562878732" lon="10.231428078961956"><ele>40.0</ele><time>2026-04-26T08:03:27.014Z</time></trkpt><trkpt lat="42.78803085628171" lon="10.231310743092342"><ele>37.0</ele><time>2026-04-26T08:03:28.014Z</time></trkpt><trkpt lat="42.78813606924209" lon="10.231199036210562"><ele>34.0</ele><time>2026-04-26T08:03:29.014Z</time></trkpt><trkpt lat="42.78822582526924" lon="10.231076890214126"><ele>31.0</ele><time>2026-04-26T08:03:30.014Z</time></trkpt><trkpt lat="42.78829920516552" lon="10.230947272048393"><ele>31.0</ele><time>2026-04-26T08:03:31.014Z</time></trkpt><trkpt lat="42.788356011054226" lon="10.230797798347744"><ele>31.0</ele><time>2026-04-26T08:03:32.014Z</time></trkpt><trkpt lat="42.78839049519422" lon="10.23063424525147"><ele>31.0</ele><time>2026-04-26T08:03:33.014Z</time></trkpt><trkpt lat="42.78840323710834" lon="10.230454411401418"><ele>31.0</ele><time>2026-04-26T08:03:34.014Z</time></trkpt><trkpt lat="42.78840797252885" lon="10.230270352097701"><ele>32.0</ele><time>2026-04-26T08:03:35.014Z</time></trkpt><trkpt lat="42.78841102120525" lon="10.230080127329865"><ele>33.0</ele><time>2026-04-26T08:03:36.014Z</time></trkpt><trkpt lat="42.78841548140773" lon="10.229865660757872"><ele>34.0</ele><time>2026-04-26T08:03:37.014Z</time></trkpt><trkpt lat="42.7884175221892" lon="10.22966641746509"><ele>35.0</ele><time>2026-04-26T08:03:38.014Z</time></trkpt><trkpt lat="42.7884040423433" lon="10.22946211955285"><ele>35.0</ele><time>2026-04-26T08:03:39.014Z</time></trkpt><trkpt lat="42.788373723871395" lon="10.22926914646421"><ele>35.0</ele><time>2026-04-26T08:03:40.014Z</time></trkpt><trkpt lat="42.78832205578654" lon="10.229081562009027"><ele>35.0</ele><time>2026-04-26T08:03:41.014Z</time></trkpt><trkpt lat="42.78825479812062" lon="10.22890379412357"><ele>35.0</ele><time>2026-04-26T08:03:42.014Z</time></trkpt><trkpt lat="42.78817777043144" lon="10.228725676179112"><ele>30.666666666666664</ele><time>2026-04-26T08:03:43.014Z</time></trkpt><trkpt lat="42.788100731617945" lon="10.228550264198272"><ele>26.333333333333332</ele><time>2026-04-26T08:03:44.013Z</time></trkpt><trkpt lat="42.78801723130811" lon="10.228372667255341"><ele>22.0</ele><time>2026-04-26T08:03:45.013Z</time></trkpt><trkpt lat="42.78792972830018" lon="10.22820517053026"><ele>21.0</ele><time>2026-04-26T08:03:46.013Z</time></trkpt><trkpt lat="42.78784609432428" lon="10.228034048304323"><ele>20.0</ele><time>2026-04-26T08:03:47.013Z</time></trkpt><trkpt lat="42.787755878188044" lon="10.227875805661574"><ele>19.0</ele><time>2026-04-26T08:03:48.013Z</time></trkpt><trkpt lat="42.78767110407888" lon="10.227707997188366"><ele>18.0</ele><time>2026-04-26T08:03:49.013Z</time></trkpt><trkpt lat="42.787571653857874" lon="10.22754701882024"><ele>18.75</ele><time>2026-04-26T08:03:50.013Z</time></trkpt><trkpt lat="42.78747856148605" lon="10.227407992451486"><ele>19.5</ele><time>2026-04-26T08:03:51.013Z</time></trkpt><trkpt lat="42.78738833969356" lon="10.227275688103871"><ele>20.25</ele><time>2026-04-26T08:03:52.013Z</time></trkpt><trkpt lat="42.78730325523707" lon="10.227141336960248"><ele>21.0</ele><time>2026-04-26T08:03:53.013Z</time></trkpt><trkpt lat="42.78722291165721" lon="10.227013625743501"><ele>21.0</ele><time>2026-04-26T08:03:54.013Z</time></trkpt><trkpt lat="42.78714109282435" lon="10.22688688254559"><ele>21.0</ele><time>2026-04-26T08:03:55.013Z</time></trkpt><trkpt lat="42.787070605689024" lon="10.226769125245307"><ele>21.0</ele><time>2026-04-26T08:03:56.013Z</time></trkpt><trkpt lat="42.78700691858142" lon="10.226660434487249"><ele>21.0</ele><time>2026-04-26T08:03:57.013Z</time></trkpt><trkpt lat="42.78695303998283" lon="10.226562041284664"><ele>21.0</ele><time>2026-04-26T08:03:58.013Z</time></trkpt><trkpt lat="42.78691310563008" lon="10.226462521345294"><ele>22.833333333333332</ele><time>2026-04-26T08:03:59.013Z</time></trkpt><trkpt lat="42.78689974065155" lon="10.22635753276759"><ele>24.666666666666664</ele><time>2026-04-26T08:04:00.013Z</time></trkpt><trkpt lat="42.78691746572166" lon="10.22626805033268"><ele>26.5</ele><time>2026-04-26T08:04:01.013Z</time></trkpt><trkpt lat="42.78697706125369" lon="10.226151848228007"><ele>28.333333333333332</ele><time>2026-04-26T08:04:03.013Z</time></trkpt><trkpt lat="42.78702871333938" lon="10.226082603132614"><ele>30.166666666666664</ele><time>2026-04-26T08:04:05.013Z</time></trkpt><trkpt lat="42.78703847629915" lon="10.225949642515637"><ele>32.0</ele><time>2026-04-26T08:04:08.013Z</time></trkpt><trkpt lat="42.786925991611994" lon="10.225891079626454"><ele>31.999999999999996</ele><time>2026-04-26T08:04:10.013Z</time></trkpt><trkpt lat="42.78686296614705" lon="10.225865890843107"><ele>32.0</ele><time>2026-04-26T08:04:11.013Z</time></trkpt><trkpt lat="42.786804915166165" lon="10.225831586884981"><ele>32.0</ele><time>2026-04-26T08:04:12.013Z</time></trkpt><trkpt lat="42.786727420711635" lon="10.225761972877974"><ele>32.0</ele><time>2026-04-26T08:04:13.013Z</time></trkpt><trkpt lat="42.78664409196718" lon="10.225695211893669"><ele>31.999999999999996</ele><time>2026-04-26T08:04:14.013Z</time></trkpt><trkpt lat="42.78656081036575" lon="10.22563053984212"><ele>32.0</ele><time>2026-04-26T08:04:15.013Z</time></trkpt><trkpt lat="42.7864783777449" lon="10.225579825077272"><ele>34.83333333333333</ele><time>2026-04-26T08:04:16.013Z</time></trkpt><trkpt lat="42.7864043014294" lon="10.225530415973521"><ele>37.666666666666664</ele><time>2026-04-26T08:04:17.013Z</time></trkpt><trkpt lat="42.7863361281439" lon="10.225463414482403"><ele>40.5</ele><time>2026-04-26T08:04:18.013Z</time></trkpt><trkpt lat="42.786286302591336" lon="10.225379242417306"><ele>43.33333333333333</ele><time>2026-04-26T08:04:19.013Z</time></trkpt><trkpt lat="42.78623702365709" lon="10.225290702883257"><ele>46.166666666666664</ele><time>2026-04-26T08:04:20.013Z</time></trkpt><trkpt lat="42.786171906177636" lon="10.22517376103653"><ele>49.0</ele><time>2026-04-26T08:04:22.013Z</time></trkpt><trkpt lat="42.786196000766104" lon="10.225076721583532"><ele>49.0</ele><time>2026-04-26T08:04:25.013Z</time></trkpt><trkpt lat="42.78628081092247" lon="10.225141000504697"><ele>49.0</ele><time>2026-04-26T08:04:27.013Z</time></trkpt><trkpt lat="42.78641337453521" lon="10.225208992709502"><ele>49.0</ele><time>2026-04-26T08:04:29.013Z</time></trkpt><trkpt lat="42.78650840872465" lon="10.225229039195263"><ele>49.0</ele><time>2026-04-26T08:04:30.013Z</time></trkpt><trkpt lat="42.786619616510755" lon="10.225251478635627"><ele>49.0</ele><time>2026-04-26T08:04:31.013Z</time></trkpt><trkpt lat="42.78672086843147" lon="10.225274067726442"><ele>48.99999999999999</ele><time>2026-04-26T08:04:32.013Z</time></trkpt><trkpt lat="42.78680172971313" lon="10.22528267030192"><ele>49.0</ele><time>2026-04-26T08:04:33.013Z</time></trkpt><trkpt lat="42.78686753176828" lon="10.225278957186042"><ele>49.0</ele><time>2026-04-26T08:04:34.013Z</time></trkpt><trkpt lat="42.78693508875582" lon="10.225229171668213"><ele>49.0</ele><time>2026-04-26T08:04:36.013Z</time></trkpt><trkpt lat="42.78701612905767" lon="10.22514891998739"><ele>48.99999999999999</ele><time>2026-04-26T08:04:38.013Z</time></trkpt><trkpt lat="42.78707985049665" lon="10.22503279888513"><ele>49.0</ele><time>2026-04-26T08:04:40.013Z</time></trkpt><trkpt lat="42.787093094929" lon="10.224851000321149"><ele>51.400000000000006</ele><time>2026-04-26T08:04:42.013Z</time></trkpt><trkpt lat="42.78707830071951" lon="10.224715424559438"><ele>53.8</ele><time>2026-04-26T08:04:43.013Z</time></trkpt><trkpt lat="42.787063370456416" lon="10.22459272530584"><ele>56.199999999999996</ele><time>2026-04-26T08:04:44.013Z</time></trkpt><trkpt lat="42.787056717789106" lon="10.2244875020255"><ele>58.599999999999994</ele><time>2026-04-26T08:04:45.013Z</time></trkpt><trkpt lat="42.78709871831354" lon="10.224352058700173"><ele>61.0</ele><time>2026-04-26T08:04:47.013Z</time></trkpt><trkpt lat="42.78722653033077" lon="10.224310462509791"><ele>60.99999999999999</ele><time>2026-04-26T08:04:49.012Z</time></trkpt><trkpt lat="42.78729057310995" lon="10.224270452028826"><ele>61.0</ele><time>2026-04-26T08:04:50.012Z</time></trkpt><trkpt lat="42.78734178165405" lon="10.224199013112209"><ele>61.0</ele><time>2026-04-26T08:04:51.012Z</time></trkpt><trkpt lat="42.787362261169314" lon="10.224063641676484"><ele>61.0</ele><time>2026-04-26T08:04:53.012Z</time></trkpt><trkpt lat="42.787279912324934" lon="10.224005479511703"><ele>60.99999999999999</ele><time>2026-04-26T08:04:55.012Z</time></trkpt><trkpt lat="42.78719572756272" lon="10.224012447587118"><ele>61.0</ele><time>2026-04-26T08:04:56.012Z</time></trkpt><trkpt lat="42.78710008499805" lon="10.224000001910344"><ele>64.16666666666666</ele><time>2026-04-26T08:04:57.012Z</time></trkpt><trkpt lat="42.78700435955119" lon="10.223978868675003"><ele>67.33333333333333</ele><time>2026-04-26T08:04:58.012Z</time></trkpt><trkpt lat="42.78690534713238" lon="10.223959391318367"><ele>70.5</ele><time>2026-04-26T08:04:59.012Z</time></trkpt><trkpt lat="42.786806973815494" lon="10.223935960645287"><ele>73.66666666666667</ele><time>2026-04-26T08:05:00.012Z</time></trkpt><trkpt lat="42.78672752955892" lon="10.223915710572742"><ele>76.83333333333334</ele><time>2026-04-26T08:05:01.012Z</time></trkpt><trkpt lat="42.78666085434325" lon="10.223906273724365"><ele>80.0</ele><time>2026-04-26T08:05:02.012Z</time></trkpt><trkpt lat="42.78656841187378" lon="10.223857980685885"><ele>80.0</ele><time>2026-04-26T08:05:04.012Z</time></trkpt><trkpt lat="42.78647516730011" lon="10.223735749536182"><ele>80.0</ele><time>2026-04-26T08:05:06.012Z</time></trkpt><trkpt lat="42.786469908896606" lon="10.223606241196967"><ele>80.0</ele><time>2026-04-26T08:05:08.012Z</time></trkpt><trkpt lat="42.7865128219864" lon="10.223541450390853"><ele>80.0</ele><time>2026-04-26T08:05:09.012Z</time></trkpt><trkpt lat="42.78657188899403" lon="10.223491505497934"><ele>80.0</ele><time>2026-04-26T08:05:10.012Z</time></trkpt><trkpt lat="42.786666040115634" lon="10.223472760001062"><ele>80.0</ele><time>2026-04-26T08:05:11.012Z</time></trkpt><trkpt lat="42.786756307831624" lon="10.223456777905643"><ele>80.0</ele><time>2026-04-26T08:05:12.012Z</time></trkpt><trkpt lat="42.78683181027485" lon="10.223437414374919"><ele>80.0</ele><time>2026-04-26T08:05:13.012Z</time></trkpt><trkpt lat="42.78691889785799" lon="10.223386116719702"><ele>80.0</ele><time>2026-04-26T08:05:15.012Z</time></trkpt><trkpt lat="42.78692928168161" lon="10.223293938829704"><ele>80.0</ele><time>2026-04-26T08:05:18.014Z</time></trkpt><trkpt lat="42.78683131987032" lon="10.223222717670193"><ele>80.0</ele><time>2026-04-26T08:05:20.014Z</time></trkpt><trkpt lat="42.786780803071004" lon="10.223161898566417"><ele>81.83333333333334</ele><time>2026-04-26T08:05:21.014Z</time></trkpt><trkpt lat="42.7867415371023" lon="10.223068854328453"><ele>83.66666666666667</ele><time>2026-04-26T08:05:22.015Z</time></trkpt><trkpt lat="42.78670534082113" lon="10.222961832506371"><ele>85.5</ele><time>2026-04-26T08:05:23.014Z</time></trkpt><trkpt lat="42.786674369154376" lon="10.222841512647902"><ele>87.33333333333333</ele><time>2026-04-26T08:05:24.014Z</time></trkpt><trkpt lat="42.78665192824034" lon="10.222736014530902"><ele>89.16666666666666</ele><time>2026-04-26T08:05:25.014Z</time></trkpt><trkpt lat="42.786678559756346" lon="10.222607697426394"><ele>91.0</ele><time>2026-04-26T08:05:27.014Z</time></trkpt><trkpt lat="42.786739055964624" lon="10.222555044874625"><ele>91.0</ele><time>2026-04-26T08:05:28.014Z</time></trkpt><trkpt lat="42.786807629871106" lon="10.222558597670833"><ele>91.0</ele><time>2026-04-26T08:05:29.014Z</time></trkpt><trkpt lat="42.78688558917555" lon="10.222566584352046"><ele>91.0</ele><time>2026-04-26T08:05:30.014Z</time></trkpt><trkpt lat="42.78697269681475" lon="10.222514737618775"><ele>91.0</ele><time>2026-04-26T08:05:31.014Z</time></trkpt><trkpt lat="42.787050879650906" lon="10.222419029387272"><ele>91.0</ele><time>2026-04-26T08:05:32.014Z</time></trkpt><trkpt lat="42.78713080874188" lon="10.2223223019568"><ele>94.6</ele><time>2026-04-26T08:05:33.014Z</time></trkpt><trkpt lat="42.78720953477478" lon="10.222219966044253"><ele>98.19999999999999</ele><time>2026-04-26T08:05:34.014Z</time></trkpt><trkpt lat="42.787294643261546" lon="10.22212157936176"><ele>101.80000000000001</ele><time>2026-04-26T08:05:35.014Z</time></trkpt><trkpt lat="42.78738587210881" lon="10.222030716710961"><ele>105.4</ele><time>2026-04-26T08:05:36.014Z</time></trkpt><trkpt lat="42.78747676103983" lon="10.221950811162388"><ele>109.0</ele><time>2026-04-26T08:05:37.014Z</time></trkpt><trkpt lat="42.787558363408515" lon="10.22187754894415"><ele>109.00000000000001</ele><time>2026-04-26T08:05:38.014Z</time></trkpt><trkpt lat="42.787652591727955" lon="10.221791061602103"><ele>109.0</ele><time>2026-04-26T08:05:39.014Z</time></trkpt><trkpt lat="42.787734755704186" lon="10.221721694322499"><ele>109.0</ele><time>2026-04-26T08:05:40.014Z</time></trkpt><trkpt lat="42.78778823925393" lon="10.221637241841746"><ele>109.0</ele><time>2026-04-26T08:05:41.014Z</time></trkpt><trkpt lat="42.7878228822479" lon="10.221563826048616"><ele>109.00000000000001</ele><time>2026-04-26T08:05:42.014Z</time></trkpt><trkpt lat="42.78778916758366" lon="10.221456248975786"><ele>109.0</ele><time>2026-04-26T08:05:44.014Z</time></trkpt><trkpt lat="42.78769267485755" lon="10.22142451908867"><ele>111.6</ele><time>2026-04-26T08:05:46.014Z</time></trkpt><trkpt lat="42.78761822561629" lon="10.221371563328255"><ele>114.2</ele><time>2026-04-26T08:05:47.014Z</time></trkpt><trkpt lat="42.78748238462362" lon="10.221318078727638"><ele>116.79999999999998</ele><time>2026-04-26T08:05:48.014Z</time></trkpt><trkpt lat="42.787380333491974" lon="10.221279673849274"><ele>119.39999999999999</ele><time>2026-04-26T08:05:49.014Z</time></trkpt><trkpt lat="42.787315673556336" lon="10.22122901753059"><ele>122.0</ele><time>2026-04-26T08:05:50.014Z</time></trkpt><trkpt lat="42.787291396549" lon="10.221086990467395"><ele>122.0</ele><time>2026-04-26T08:05:52.014Z</time></trkpt><trkpt lat="42.787309046311904" lon="10.220938251513829"><ele>122.0</ele><time>2026-04-26T08:05:54.014Z</time></trkpt><trkpt lat="42.787343875896326" lon="10.22079623815583"><ele>122.0</ele><time>2026-04-26T08:05:55.014Z</time></trkpt><trkpt lat="42.78741196143989" lon="10.220640931720938"><ele>122.0</ele><time>2026-04-26T08:05:56.014Z</time></trkpt><trkpt lat="42.7874529493436" lon="10.220503436541977"><ele>123.33333333333333</ele><time>2026-04-26T08:05:57.014Z</time></trkpt><trkpt lat="42.78749869188411" lon="10.22039038575834"><ele>124.66666666666666</ele><time>2026-04-26T08:05:58.014Z</time></trkpt><trkpt lat="42.787558036447166" lon="10.220291258413148"><ele>126.0</ele><time>2026-04-26T08:05:59.013Z</time></trkpt><trkpt lat="42.78761575035475" lon="10.22022114826647"><ele>127.33333333333334</ele><time>2026-04-26T08:06:00.013Z</time></trkpt><trkpt lat="42.78768582797951" lon="10.220189349731156"><ele>128.66666666666669</ele><time>2026-04-26T08:06:01.013Z</time></trkpt><trkpt lat="42.787774918375476" lon="10.220168598269657"><ele>130.0</ele><time>2026-04-26T08:06:02.013Z</time></trkpt><trkpt lat="42.78787639743137" lon="10.22014597640244"><ele>131.8</ele><time>2026-04-26T08:06:03.013Z</time></trkpt><trkpt lat="42.78799460350958" lon="10.220125249079292"><ele>133.6</ele><time>2026-04-26T08:06:04.013Z</time></trkpt><trkpt lat="42.78810102763976" lon="10.220105608799742"><ele>135.4</ele><time>2026-04-26T08:06:05.013Z</time></trkpt><trkpt lat="42.788186082746385" lon="10.220093415393029"><ele>137.2</ele><time>2026-04-26T08:06:06.013Z</time></trkpt><trkpt lat="42.788275263855084" lon="10.220056427865162"><ele>139.0</ele><time>2026-04-26T08:06:08.013Z</time></trkpt><trkpt lat="42.78823418146275" lon="10.219975756296042"><ele>139.0</ele><time>2026-04-26T08:06:10.013Z</time></trkpt><trkpt lat="42.78812750270536" lon="10.219868312038495"><ele>139.0</ele><time>2026-04-26T08:06:12.013Z</time></trkpt><trkpt lat="42.788084412043155" lon="10.21977189341603"><ele>139.0</ele><time>2026-04-26T08:06:13.013Z</time></trkpt><trkpt lat="42.7880714442709" lon="10.219667272972629"><ele>139.0</ele><time>2026-04-26T08:06:14.013Z</time></trkpt><trkpt lat="42.78808312821078" lon="10.219570916401423"><ele>139.0</ele><time>2026-04-26T08:06:15.013Z</time></trkpt><trkpt lat="42.78811452140525" lon="10.21946117204763"><ele>140.8</ele><time>2026-04-26T08:06:16.013Z</time></trkpt><trkpt lat="42.788157471596286" lon="10.21933984184042"><ele>142.60000000000002</ele><time>2026-04-26T08:06:17.013Z</time></trkpt><trkpt lat="42.78818530417118" lon="10.219206204411138"><ele>144.4</ele><time>2026-04-26T08:06:18.013Z</time></trkpt><trkpt lat="42.78819044573682" lon="10.21906125877187"><ele>146.20000000000002</ele><time>2026-04-26T08:06:19.013Z</time></trkpt><trkpt lat="42.788191688595106" lon="10.218915560059235"><ele>148.0</ele><time>2026-04-26T08:06:20.013Z</time></trkpt><trkpt lat="42.788190183442076" lon="10.218768150253322"><ele>149.6</ele><time>2026-04-26T08:06:21.013Z</time></trkpt><trkpt lat="42.78816874655288" lon="10.218631588970892"><ele>151.20000000000002</ele><time>2026-04-26T08:06:22.013Z</time></trkpt><trkpt lat="42.78813788562677" lon="10.218506684428123"><ele>152.8</ele><time>2026-04-26T08:06:23.013Z</time></trkpt><trkpt lat="42.78810815013" lon="10.218383253980058"><ele>154.4</ele><time>2026-04-26T08:06:24.013Z</time></trkpt><trkpt lat="42.788083248396795" lon="10.218271847295538"><ele>156.0</ele><time>2026-04-26T08:06:25.013Z</time></trkpt><trkpt lat="42.78803215112865" lon="10.21812444775048"><ele>158.4</ele><time>2026-04-26T08:06:27.013Z</time></trkpt><trkpt lat="42.78799217516793" lon="10.21804318507909"><ele>160.8</ele><time>2026-04-26T08:06:29.013Z</time></trkpt><trkpt lat="42.788040568930676" lon="10.217958702331199"><ele>163.20000000000002</ele><time>2026-04-26T08:06:31.013Z</time></trkpt><trkpt lat="42.78809148872665" lon="10.21790627397579"><ele>165.6</ele><time>2026-04-26T08:06:32.013Z</time></trkpt><trkpt lat="42.788211053096056" lon="10.217769076795184"><ele>168.0</ele><time>2026-04-26T08:06:34.013Z</time></trkpt><trkpt lat="42.78829190349824" lon="10.217678103230746"><ele>168.0</ele><time>2026-04-26T08:06:35.013Z</time></trkpt><trkpt lat="42.78836607197051" lon="10.217564590455831"><ele>168.0</ele><time>2026-04-26T08:06:36.013Z</time></trkpt><trkpt lat="42.788426858891164" lon="10.217459815413092"><ele>168.0</ele><time>2026-04-26T08:06:37.013Z</time></trkpt><trkpt lat="42.78849444513062" lon="10.217369715981638"><ele>168.0</ele><time>2026-04-26T08:06:38.013Z</time></trkpt><trkpt lat="42.78857903083345" lon="10.217258750518655"><ele>168.0</ele><time>2026-04-26T08:06:39.013Z</time></trkpt><trkpt lat="42.78866306174959" lon="10.217139804968697"><ele>169.5</ele><time>2026-04-26T08:06:40.013Z</time></trkpt><trkpt lat="42.788731322583686" lon="10.217032363788853"><ele>171.0</ele><time>2026-04-26T08:06:41.013Z</time></trkpt><trkpt lat="42.78880438119441" lon="10.216929738156248"><ele>172.5</ele><time>2026-04-26T08:06:42.013Z</time></trkpt><trkpt lat="42.78889556136602" lon="10.216823191597152"><ele>174.0</ele><time>2026-04-26T08:06:43.013Z</time></trkpt><trkpt lat="42.78899238348736" lon="10.216716820376945"><ele>174.0</ele><time>2026-04-26T08:06:44.013Z</time></trkpt><trkpt lat="42.78907526803626" lon="10.2166186735947"><ele>174.0</ele><time>2026-04-26T08:06:45.013Z</time></trkpt><trkpt lat="42.789141667257034" lon="10.216505802554696"><ele>174.0</ele><time>2026-04-26T08:06:46.013Z</time></trkpt><trkpt lat="42.78920916998919" lon="10.216386960207691"><ele>174.0</ele><time>2026-04-26T08:06:47.013Z</time></trkpt><trkpt lat="42.7892746390466" lon="10.216272249772922"><ele>174.0</ele><time>2026-04-26T08:06:48.013Z</time></trkpt><trkpt lat="42.789335735223744" lon="10.216185791423717"><ele>175.0</ele><time>2026-04-26T08:06:49.013Z</time></trkpt><trkpt lat="42.78939404057458" lon="10.216128760815986"><ele>176.0</ele><time>2026-04-26T08:06:50.013Z</time></trkpt><trkpt lat="42.789472338082504" lon="10.216050644852457"><ele>177.0</ele><time>2026-04-26T08:06:52.013Z</time></trkpt><trkpt lat="42.7894110050338" lon="10.216010892094403"><ele>178.0</ele><time>2026-04-26T08:06:58.013Z</time></trkpt><trkpt lat="42.78932944146081" lon="10.21607049936539"><ele>179.0</ele><time>2026-04-26T08:07:16.012Z</time></trkpt><trkpt lat="42.78925733466526" lon="10.216164870453166"><ele>180.0</ele><time>2026-04-26T08:07:18.012Z</time></trkpt><trkpt lat="42.78915515648912" lon="10.216269140564386"><ele>179.14285714285714</ele><time>2026-04-26T08:07:20.012Z</time></trkpt><trkpt lat="42.789103584273256" lon="10.216336336954383"><ele>178.2857142857143</ele><time>2026-04-26T08:07:21.012Z</time></trkpt><trkpt lat="42.789057686182694" lon="10.216402693830071"><ele>177.42857142857144</ele><time>2026-04-26T08:07:22.015Z</time></trkpt><trkpt lat="42.78901729105238" lon="10.216472578365288"><ele>176.57142857142856</ele><time>2026-04-26T08:07:23.014Z</time></trkpt><trkpt lat="42.7889751881501" lon="10.21654673411813"><ele>175.71428571428572</ele><time>2026-04-26T08:07:24.014Z</time></trkpt><trkpt lat="42.78892336190618" lon="10.216611371302292"><ele>174.85714285714286</ele><time>2026-04-26T08:07:25.015Z</time></trkpt><trkpt lat="42.78885251294279" lon="10.216640434913069"><ele>174.0</ele><time>2026-04-26T08:07:26.014Z</time></trkpt><trkpt lat="42.78877433647533" lon="10.216638150513525"><ele>174.0</ele><time>2026-04-26T08:07:27.014Z</time></trkpt><trkpt lat="42.78870519084326" lon="10.216628441506522"><ele>174.0</ele><time>2026-04-26T08:07:28.015Z</time></trkpt><trkpt lat="42.7886076454112" lon="10.216706140740952"><ele>174.0</ele><time>2026-04-26T08:07:30.014Z</time></trkpt><trkpt lat="42.78853382110446" lon="10.216792477110335"><ele>174.0</ele><time>2026-04-26T08:07:31.014Z</time></trkpt><trkpt lat="42.78845533362407" lon="10.216859761423"><ele>174.0</ele><time>2026-04-26T08:07:32.014Z</time></trkpt><trkpt lat="42.78838419938398" lon="10.216919467856957"><ele>172.79999999999998</ele><time>2026-04-26T08:07:33.014Z</time></trkpt><trkpt lat="42.78831806285786" lon="10.216968994547772"><ele>171.6</ele><time>2026-04-26T08:07:34.015Z</time></trkpt><trkpt lat="42.78825267563843" lon="10.217024227335417"><ele>170.4</ele><time>2026-04-26T08:07:35.015Z</time></trkpt><trkpt lat="42.78814740412873" lon="10.217118880293427"><ele>169.2</ele><time>2026-04-26T08:07:37.015Z</time></trkpt><trkpt lat="42.788050617955584" lon="10.217221577103697"><ele>168.0</ele><time>2026-04-26T08:07:39.014Z</time></trkpt><trkpt lat="42.787957506469645" lon="10.217324828298343"><ele>168.0</ele><time>2026-04-26T08:07:41.014Z</time></trkpt><trkpt lat="42.78787617135008" lon="10.217449965577542"><ele>168.0</ele><time>2026-04-26T08:07:43.014Z</time></trkpt><trkpt lat="42.7877997402043" lon="10.217520661804993"><ele>168.0</ele><time>2026-04-26T08:07:45.014Z</time></trkpt><trkpt lat="42.78769653882146" lon="10.217555898443191"><ele>168.0</ele><time>2026-04-26T08:07:47.014Z</time></trkpt><trkpt lat="42.787568154504584" lon="10.217559923752704"><ele>169.16666666666666</ele><time>2026-04-26T08:07:49.014Z</time></trkpt><trkpt lat="42.787484449890464" lon="10.217562818039594"><ele>170.33333333333334</ele><time>2026-04-26T08:07:50.014Z</time></trkpt><trkpt lat="42.78742005590595" lon="10.217541722342768"><ele>171.5</ele><time>2026-04-26T08:07:51.014Z</time></trkpt><trkpt lat="42.787317778460675" lon="10.217552205801523"><ele>172.66666666666669</ele><time>2026-04-26T08:07:53.014Z</time></trkpt><trkpt lat="42.78727361680199" lon="10.217616497013582"><ele>173.83333333333334</ele><time>2026-04-26T08:07:54.014Z</time></trkpt><trkpt lat="42.78722507880613" lon="10.217689958339706"><ele>175.0</ele><time>2026-04-26T08:07:55.014Z</time></trkpt><trkpt lat="42.78717445597522" lon="10.217755106816208"><ele>175.0</ele><time>2026-04-26T08:07:56.014Z</time></trkpt><trkpt lat="42.78706991249471" lon="10.217805646359231"><ele>175.0</ele><time>2026-04-26T08:07:58.014Z</time></trkpt><trkpt lat="42.787003904716535" lon="10.217787581624735"><ele>175.0</ele><time>2026-04-26T08:07:59.014Z</time></trkpt><trkpt lat="42.786937416376624" lon="10.217760658907828"><ele>175.0</ele><time>2026-04-26T08:08:00.014Z</time></trkpt><trkpt lat="42.78682078486373" lon="10.217713988537476"><ele>175.0</ele><time>2026-04-26T08:08:02.014Z</time></trkpt><trkpt lat="42.786704976360966" lon="10.217673133206892"><ele>176.0</ele><time>2026-04-26T08:08:04.014Z</time></trkpt><trkpt lat="42.78659162927131" lon="10.217695239663415"><ele>177.0</ele><time>2026-04-26T08:08:06.014Z</time></trkpt><trkpt lat="42.78653964995207" lon="10.217744823899267"><ele>178.0</ele><time>2026-04-26T08:08:07.014Z</time></trkpt><trkpt lat="42.786479037326224" lon="10.217768598671805"><ele>179.0</ele><time>2026-04-26T08:08:08.014Z</time></trkpt><trkpt lat="42.78641500233086" lon="10.217768958503076"><ele>180.0</ele><time>2026-04-26T08:08:09.014Z</time></trkpt><trkpt lat="42.78631138264311" lon="10.217723221095424"><ele>181.0</ele><time>2026-04-26T08:08:11.014Z</time></trkpt><trkpt lat="42.786201260320524" lon="10.21777295807053"><ele>181.0</ele><time>2026-04-26T08:08:13.014Z</time></trkpt><trkpt lat="42.78611180171067" lon="10.217865906282876"><ele>181.0</ele><time>2026-04-26T08:08:15.014Z</time></trkpt><trkpt lat="42.78610236659665" lon="10.217998671822913"><ele>181.0</ele><time>2026-04-26T08:08:17.014Z</time></trkpt><trkpt lat="42.786110111289325" lon="10.218151076671917"><ele>181.0</ele><time>2026-04-26T08:08:19.014Z</time></trkpt><trkpt lat="42.78609672861314" lon="10.218235824160875"><ele>181.0</ele><time>2026-04-26T08:08:20.014Z</time></trkpt><trkpt lat="42.78606391198571" lon="10.218397475692413"><ele>179.33333333333334</ele><time>2026-04-26T08:08:22.014Z</time></trkpt><trkpt lat="42.78598963889082" lon="10.218525466561124"><ele>177.66666666666669</ele><time>2026-04-26T08:08:24.014Z</time></trkpt><trkpt lat="42.785933731960995" lon="10.218589428321945"><ele>176.0</ele><time>2026-04-26T08:08:25.014Z</time></trkpt><trkpt lat="42.78587321234119" lon="10.218630991793809"><ele>174.33333333333334</ele><time>2026-04-26T08:08:26.014Z</time></trkpt><trkpt lat="42.78581074663237" lon="10.21867466250243"><ele>172.66666666666666</ele><time>2026-04-26T08:08:27.014Z</time></trkpt><trkpt lat="42.78575086936239" lon="10.218723604185517"><ele>171.0</ele><time>2026-04-26T08:08:28.014Z</time></trkpt><trkpt lat="42.78568638240967" lon="10.218741359091748"><ele>171.0</ele><time>2026-04-26T08:08:29.014Z</time></trkpt><trkpt lat="42.78558429677274" lon="10.218685304817829"><ele>171.0</ele><time>2026-04-26T08:08:31.014Z</time></trkpt><trkpt lat="42.78549920290664" lon="10.218682943470544"><ele>171.0</ele><time>2026-04-26T08:08:33.014Z</time></trkpt><trkpt lat="42.785430328213394" lon="10.218804150297958"><ele>171.0</ele><time>2026-04-26T08:08:35.014Z</time></trkpt><trkpt lat="42.7853494376846" lon="10.218917185151753"><ele>171.0</ele><time>2026-04-26T08:08:37.014Z</time></trkpt><trkpt lat="42.78527369255661" lon="10.2189927222343"><ele>169.16666666666666</ele><time>2026-04-26T08:08:39.014Z</time></trkpt><trkpt lat="42.7852108047294" lon="10.219054756812113"><ele>167.33333333333334</ele><time>2026-04-26T08:08:42.013Z</time></trkpt><trkpt lat="42.78514628066404" lon="10.219113071198802"><ele>165.5</ele><time>2026-04-26T08:08:44.013Z</time></trkpt><trkpt lat="42.78508347118371" lon="10.219173907170005"><ele>163.66666666666669</ele><time>2026-04-26T08:09:03.013Z</time></trkpt><trkpt lat="42.78500202023831" lon="10.219250314573044"><ele>161.83333333333334</ele><time>2026-04-26T08:09:06.013Z</time></trkpt><trkpt lat="42.784955995462276" lon="10.219312934291683"><ele>160.0</ele><time>2026-04-26T08:09:08.013Z</time></trkpt><trkpt lat="42.78489812092986" lon="10.21935560975285"><ele>160.0</ele><time>2026-04-26T08:09:11.013Z</time></trkpt><trkpt lat="42.784819657029466" lon="10.219392764012444"><ele>160.0</ele><time>2026-04-26T08:09:13.013Z</time></trkpt><trkpt lat="42.78469774121062" lon="10.21937927810029"><ele>160.0</ele><time>2026-04-26T08:09:15.013Z</time></trkpt><trkpt lat="42.784588847354016" lon="10.219394916093371"><ele>160.0</ele><time>2026-04-26T08:09:17.013Z</time></trkpt><trkpt lat="42.784455181539045" lon="10.219375314567033"><ele>160.0</ele><time>2026-04-26T08:09:19.013Z</time></trkpt><trkpt lat="42.78434880592853" lon="10.219311921261884"><ele>158.2</ele><time>2026-04-26T08:09:20.013Z</time></trkpt><trkpt lat="42.784240418319065" lon="10.219248595175767"><ele>156.4</ele><time>2026-04-26T08:09:21.013Z</time></trkpt><trkpt lat="42.78414985873203" lon="10.219191223453162"><ele>154.6</ele><time>2026-04-26T08:09:22.013Z</time></trkpt><trkpt lat="42.78405571189208" lon="10.219140432383206"><ele>152.8</ele><time>2026-04-26T08:09:23.013Z</time></trkpt><trkpt lat="42.78396819737567" lon="10.21909591260122"><ele>151.0</ele><time>2026-04-26T08:09:24.013Z</time></trkpt><trkpt lat="42.78388047442866" lon="10.21903394352005"><ele>153.83333333333334</ele><time>2026-04-26T08:09:25.013Z</time></trkpt><trkpt lat="42.78379989805755" lon="10.218961066273845"><ele>156.66666666666669</ele><time>2026-04-26T08:09:26.013Z</time></trkpt><trkpt lat="42.78373333615558" lon="10.218876187500978"><ele>159.5</ele><time>2026-04-26T08:09:27.013Z</time></trkpt><trkpt lat="42.783688022452914" lon="10.218790740323577"><ele>162.33333333333334</ele><time>2026-04-26T08:09:28.015Z</time></trkpt><trkpt lat="42.78365969889344" lon="10.218677101085202"><ele>165.16666666666666</ele><time>2026-04-26T08:09:29.015Z</time></trkpt><trkpt lat="42.78365272607676" lon="10.218569810757632"><ele>168.0</ele><time>2026-04-26T08:09:30.015Z</time></trkpt><trkpt lat="42.78362521897493" lon="10.218492112477259"><ele>165.0</ele><time>2026-04-26T08:09:31.015Z</time></trkpt><trkpt lat="42.78347974620977" lon="10.21841521201467"><ele>162.0</ele><time>2026-04-26T08:09:33.015Z</time></trkpt><trkpt lat="42.78339520567634" lon="10.218368517592884"><ele>159.0</ele><time>2026-04-26T08:09:34.015Z</time></trkpt><trkpt lat="42.78331410862717" lon="10.218307018058102"><ele>156.0</ele><time>2026-04-26T08:09:35.015Z</time></trkpt><trkpt lat="42.78323958101559" lon="10.218279435841746"><ele>153.0</ele><time>2026-04-26T08:09:36.015Z</time></trkpt><trkpt lat="42.78317690016955" lon="10.218252080457322"><ele>153.0</ele><time>2026-04-26T08:09:37.015Z</time></trkpt><trkpt lat="42.78311327552271" lon="10.218273236995003"><ele>153.0</ele><time>2026-04-26T08:09:38.015Z</time></trkpt><trkpt lat="42.78305653023333" lon="10.218394546144825"><ele>153.0</ele><time>2026-04-26T08:09:40.015Z</time></trkpt><trkpt lat="42.78308675670987" lon="10.21855592186312"><ele>153.0</ele><time>2026-04-26T08:09:42.014Z</time></trkpt><trkpt lat="42.78308719944515" lon="10.21864831919806"><ele>153.0</ele><time>2026-04-26T08:09:43.014Z</time></trkpt><trkpt lat="42.783091948575695" lon="10.21879877158648"><ele>150.4</ele><time>2026-04-26T08:09:45.014Z</time></trkpt><trkpt lat="42.783070992712325" lon="10.218988572515602"><ele>147.8</ele><time>2026-04-26T08:09:47.014Z</time></trkpt><trkpt lat="42.78305071003286" lon="10.219105426055766"><ele>145.2</ele><time>2026-04-26T08:09:48.014Z</time></trkpt><trkpt lat="42.78302463609189" lon="10.219258991499682"><ele>142.6</ele><time>2026-04-26T08:09:50.014Z</time></trkpt><trkpt lat="42.782979141699336" lon="10.219345891206743"><ele>140.0</ele><time>2026-04-26T08:09:51.014Z</time></trkpt><trkpt lat="42.782935510121156" lon="10.21946842300322"><ele>140.0</ele><time>2026-04-26T08:09:52.014Z</time></trkpt><trkpt lat="42.78288840318762" lon="10.219598340404097"><ele>140.0</ele><time>2026-04-26T08:09:54.014Z</time></trkpt><trkpt lat="42.78285630106649" lon="10.219682414313779"><ele>140.0</ele><time>2026-04-26T08:09:58.014Z</time></trkpt><trkpt lat="42.78284009790162" lon="10.219785230215399"><ele>140.0</ele><time>2026-04-26T08:10:01.014Z</time></trkpt><trkpt lat="42.78281032915481" lon="10.219888956959824"><ele>140.0</ele><time>2026-04-26T08:10:03.014Z</time></trkpt><trkpt lat="42.78277481018454" lon="10.219997900051862"><ele>140.0</ele><time>2026-04-26T08:10:04.014Z</time></trkpt><trkpt lat="42.78272696341957" lon="10.220070070768395"><ele>143.6</ele><time>2026-04-26T08:10:05.014Z</time></trkpt><trkpt lat="42.78266604343817" lon="10.22012040902842"><ele>147.2</ele><time>2026-04-26T08:10:07.014Z</time></trkpt><trkpt lat="42.7825726963457" lon="10.22018417175884"><ele>150.8</ele><time>2026-04-26T08:10:09.014Z</time></trkpt><trkpt lat="42.78247074567225" lon="10.220221223781113"><ele>154.4</ele><time>2026-04-26T08:10:11.014Z</time></trkpt><trkpt lat="42.78235221876952" lon="10.220217020088063"><ele>158.0</ele><time>2026-04-26T08:10:13.014Z</time></trkpt><trkpt lat="42.78226113467277" lon="10.220227195422906"><ele>158.0</ele><time>2026-04-26T08:10:14.014Z</time></trkpt><trkpt lat="42.78218959809669" lon="10.220253041481243"><ele>158.0</ele><time>2026-04-26T08:10:15.014Z</time></trkpt><trkpt lat="42.782103036433234" lon="10.220260836249441"><ele>158.0</ele><time>2026-04-26T08:10:16.014Z</time></trkpt><trkpt lat="42.78204060704082" lon="10.220211486038963"><ele>158.0</ele><time>2026-04-26T08:10:18.014Z</time></trkpt><trkpt lat="42.78198038480032" lon="10.220065912229241"><ele>158.0</ele><time>2026-04-26T08:10:20.014Z</time></trkpt><trkpt lat="42.78186630723714" lon="10.220057497858535"><ele>158.8</ele><time>2026-04-26T08:10:22.014Z</time></trkpt><trkpt lat="42.78179592631877" lon="10.220076151033188"><ele>159.60000000000002</ele><time>2026-04-26T08:10:23.014Z</time></trkpt><trkpt lat="42.78169542940253" lon="10.219999227105532"><ele>160.39999999999998</ele><time>2026-04-26T08:10:25.014Z</time></trkpt><trkpt lat="42.78160270291486" lon="10.219934822204825"><ele>161.2</ele><time>2026-04-26T08:10:27.014Z</time></trkpt><trkpt lat="42.78151968537579" lon="10.219917391151691"><ele>162.0</ele><time>2026-04-26T08:10:29.014Z</time></trkpt><trkpt lat="42.78143496824849" lon="10.22003129645444"><ele>162.0</ele><time>2026-04-26T08:10:32.014Z</time></trkpt><trkpt lat="42.78135665075526" lon="10.220050423067768"><ele>162.0</ele><time>2026-04-26T08:10:33.014Z</time></trkpt><trkpt lat="42.78129084566731" lon="10.220047832242917"><ele>162.0</ele><time>2026-04-26T08:10:34.014Z</time></trkpt><trkpt lat="42.7811965119322" lon="10.220051938922666"><ele>162.0</ele><time>2026-04-26T08:10:36.014Z</time></trkpt><trkpt lat="42.781049035701635" lon="10.220076460637475"><ele>162.0</ele><time>2026-04-26T08:10:38.014Z</time></trkpt><trkpt lat="42.7809826040224" lon="10.22005035114442"><ele>161.83333333333334</ele><time>2026-04-26T08:10:39.014Z</time></trkpt><trkpt lat="42.78090190697455" lon="10.219981481774953"><ele>161.66666666666666</ele><time>2026-04-26T08:10:40.014Z</time></trkpt><trkpt lat="42.78084196999681" lon="10.21992184506748"><ele>161.5</ele><time>2026-04-26T08:10:41.013Z</time></trkpt><trkpt lat="42.78078097841211" lon="10.21990045081513"><ele>161.33333333333331</ele><time>2026-04-26T08:10:42.013Z</time></trkpt><trkpt lat="42.78070886750894" lon="10.219975942407581"><ele>161.16666666666666</ele><time>2026-04-26T08:10:44.013Z</time></trkpt><trkpt lat="42.78063445410485" lon="10.220068634165463"><ele>161.0</ele><time>2026-04-26T08:10:45.013Z</time></trkpt><trkpt lat="42.780590981258975" lon="10.220132945974388"><ele>161.0</ele><time>2026-04-26T08:10:46.013Z</time></trkpt><trkpt lat="42.78045131577741" lon="10.220206505552145"><ele>161.0</ele><time>2026-04-26T08:10:49.013Z</time></trkpt><trkpt lat="42.78033947646261" lon="10.220213483356122"><ele>161.0</ele><time>2026-04-26T08:10:50.013Z</time></trkpt><trkpt lat="42.78024802660049" lon="10.220257660651647"><ele>161.0</ele><time>2026-04-26T08:10:51.013Z</time></trkpt><trkpt lat="42.780181454917724" lon="10.220341377785582"><ele>161.0</ele><time>2026-04-26T08:10:52.013Z</time></trkpt><trkpt lat="42.780096285241584" lon="10.220410186587676"><ele>161.66666666666666</ele><time>2026-04-26T08:10:53.013Z</time></trkpt><trkpt lat="42.78002257111939" lon="10.220452351774698"><ele>162.33333333333331</ele><time>2026-04-26T08:10:54.013Z</time></trkpt><trkpt lat="42.77998822517583" lon="10.220531055346807"><ele>163.0</ele><time>2026-04-26T08:10:56.013Z</time></trkpt><trkpt lat="42.78002366095188" lon="10.220636394562895"><ele>163.66666666666666</ele><time>2026-04-26T08:10:59.013Z</time></trkpt><trkpt lat="42.780101931548586" lon="10.22073864002368"><ele>164.33333333333334</ele><time>2026-04-26T08:11:01.013Z</time></trkpt><trkpt lat="42.780144977957946" lon="10.220823337932647"><ele>165.0</ele><time>2026-04-26T08:11:05.013Z</time></trkpt><trkpt lat="42.78010970789797" lon="10.220899353657465"><ele>165.0</ele><time>2026-04-26T08:11:07.013Z</time></trkpt><trkpt lat="42.78003417167917" lon="10.220909266008418"><ele>165.0</ele><time>2026-04-26T08:11:11.013Z</time></trkpt><trkpt lat="42.77994690477901" lon="10.220889804634295"><ele>165.0</ele><time>2026-04-26T08:11:13.013Z</time></trkpt><trkpt lat="42.77986780812445" lon="10.220933471704154"><ele>165.0</ele><time>2026-04-26T08:11:15.013Z</time></trkpt><trkpt lat="42.77979043962192" lon="10.22092737817854"><ele>165.0</ele><time>2026-04-26T08:11:18.013Z</time></trkpt><trkpt lat="42.77967519393021" lon="10.221036014019644"><ele>165.0</ele><time>2026-04-26T08:11:21.013Z</time></trkpt><trkpt lat="42.779546279213825" lon="10.22112138303128"><ele>165.0</ele><time>2026-04-26T08:11:23.013Z</time></trkpt><trkpt lat="42.779464390474736" lon="10.22119964736259"><ele>165.0</ele><time>2026-04-26T08:11:25.013Z</time></trkpt><trkpt lat="42.77940999027726" lon="10.221257964904433"><ele>165.0</ele><time>2026-04-26T08:11:27.013Z</time></trkpt><trkpt lat="42.779344508479056" lon="10.22127670423454"><ele>165.0</ele><time>2026-04-26T08:11:32.013Z</time></trkpt><trkpt lat="42.77929108877651" lon="10.22132321973855"><ele>165.0</ele><time>2026-04-26T08:12:19.014Z</time></trkpt><trkpt lat="42.779225899146184" lon="10.221394845687472"><ele>166.2</ele><time>2026-04-26T08:12:22.014Z</time></trkpt><trkpt lat="42.779148017746564" lon="10.221463406625727"><ele>167.4</ele><time>2026-04-26T08:12:25.014Z</time></trkpt><trkpt lat="42.779055208946765" lon="10.221505349849503"><ele>168.60000000000002</ele><time>2026-04-26T08:12:27.014Z</time></trkpt><trkpt lat="42.77897957599286" lon="10.221579619633266"><ele>169.8</ele><time>2026-04-26T08:12:29.014Z</time></trkpt><trkpt lat="42.778890193436496" lon="10.221609329187498"><ele>171.0</ele><time>2026-04-26T08:12:32.014Z</time></trkpt><trkpt lat="42.77876568996216" lon="10.221516233807959"><ele>171.0</ele><time>2026-04-26T08:12:34.014Z</time></trkpt><trkpt lat="42.77865778982717" lon="10.221556362292338"><ele>171.0</ele><time>2026-04-26T08:12:36.014Z</time></trkpt><trkpt lat="42.77862330342406" lon="10.221665758794886"><ele>171.0</ele><time>2026-04-26T08:12:38.014Z</time></trkpt><trkpt lat="42.7785791027574" lon="10.22183958080924"><ele>171.0</ele><time>2026-04-26T08:12:40.014Z</time></trkpt><trkpt lat="42.778490504179615" lon="10.221984233421903"><ele>171.20000000000002</ele><time>2026-04-26T08:12:42.014Z</time></trkpt><trkpt lat="42.778395779844196" lon="10.222073514575266"><ele>171.4</ele><time>2026-04-26T08:12:43.014Z</time></trkpt><trkpt lat="42.77832028560775" lon="10.222140311097883"><ele>171.6</ele><time>2026-04-26T08:12:44.014Z</time></trkpt><trkpt lat="42.77823878547068" lon="10.222228917102145"><ele>171.8</ele><time>2026-04-26T08:12:46.014Z</time></trkpt><trkpt lat="42.778158693761156" lon="10.22233349322729"><ele>172.0</ele><time>2026-04-26T08:12:49.014Z</time></trkpt><trkpt lat="42.77808275268999" lon="10.222364253201102"><ele>169.6</ele><time>2026-04-26T08:12:50.014Z</time></trkpt><trkpt lat="42.77801534738944" lon="10.222421062374691"><ele>167.2</ele><time>2026-04-26T08:12:51.013Z</time></trkpt><trkpt lat="42.77795617216265" lon="10.222455425802066"><ele>164.8</ele><time>2026-04-26T08:12:52.013Z</time></trkpt><trkpt lat="42.77785342699639" lon="10.222460896439996"><ele>162.4</ele><time>2026-04-26T08:12:54.013Z</time></trkpt><trkpt lat="42.77774368911202" lon="10.222477978597558"><ele>160.0</ele><time>2026-04-26T08:12:56.013Z</time></trkpt><trkpt lat="42.77763104894596" lon="10.222481523900056"><ele>159.83333333333334</ele><time>2026-04-26T08:12:58.013Z</time></trkpt><trkpt lat="42.77756536187912" lon="10.222506270969593"><ele>159.66666666666669</ele><time>2026-04-26T08:12:59.013Z</time></trkpt><trkpt lat="42.77745341419906" lon="10.222550016289608"><ele>159.5</ele><time>2026-04-26T08:13:01.013Z</time></trkpt><trkpt lat="42.77736774098881" lon="10.222565843509857"><ele>159.33333333333334</ele><time>2026-04-26T08:13:03.013Z</time></trkpt><trkpt lat="42.77728497318687" lon="10.222614460886389"><ele>159.16666666666666</ele><time>2026-04-26T08:13:05.013Z</time></trkpt><trkpt lat="42.77720967602754" lon="10.222621405892848"><ele>159.0</ele><time>2026-04-26T08:13:08.013Z</time></trkpt><trkpt lat="42.77711508696234" lon="10.22258643861432"><ele>159.0</ele><time>2026-04-26T08:13:11.013Z</time></trkpt><trkpt lat="42.77702614855315" lon="10.222545758684229"><ele>159.0</ele><time>2026-04-26T08:13:13.013Z</time></trkpt><trkpt lat="42.77695175397852" lon="10.222515758957423"><ele>159.0</ele><time>2026-04-26T08:13:15.013Z</time></trkpt><trkpt lat="42.7768840960709" lon="10.222478454731945"><ele>159.0</ele><time>2026-04-26T08:13:17.013Z</time></trkpt><trkpt lat="42.77681254992654" lon="10.222390154400038"><ele>159.0</ele><time>2026-04-26T08:13:20.013Z</time></trkpt><trkpt lat="42.776750936795274" lon="10.222343011731835"><ele>159.0</ele><time>2026-04-26T08:13:22.013Z</time></trkpt><trkpt lat="42.776686845802296" lon="10.222290149953206"><ele>159.14285714285714</ele><time>2026-04-26T08:13:25.013Z</time></trkpt><trkpt lat="42.77661977837027" lon="10.22225011527833"><ele>159.2857142857143</ele><time>2026-04-26T08:13:33.013Z</time></trkpt><trkpt lat="42.77655726853053" lon="10.222212362707355"><ele>159.42857142857144</ele><time>2026-04-26T08:13:40.016Z</time></trkpt><trkpt lat="42.776488478126645" lon="10.222174480358653"><ele>159.57142857142856</ele><time>2026-04-26T08:13:44.016Z</time></trkpt><trkpt lat="42.776438680860466" lon="10.222119658787355"><ele>159.71428571428572</ele><time>2026-04-26T08:13:56.016Z</time></trkpt><trkpt lat="42.77640813665803" lon="10.222197265111499"><ele>159.85714285714286</ele><time>2026-04-26T08:14:00.016Z</time></trkpt><trkpt lat="42.77635411398882" lon="10.22227557110325"><ele>160.0</ele><time>2026-04-26T08:14:03.016Z</time></trkpt><trkpt lat="42.77631860635245" lon="10.222358832414942"><ele>158.4</ele><time>2026-04-26T08:14:05.016Z</time></trkpt><trkpt lat="42.77623483768134" lon="10.22239945530775"><ele>156.8</ele><time>2026-04-26T08:14:08.015Z</time></trkpt><trkpt lat="42.77611218501356" lon="10.222379232910189"><ele>155.2</ele><time>2026-04-26T08:14:10.015Z</time></trkpt><trkpt lat="42.776051518798816" lon="10.222402544977363"><ele>153.6</ele><time>2026-04-26T08:14:11.015Z</time></trkpt><trkpt lat="42.77596078602207" lon="10.222439688225588"><ele>152.0</ele><time>2026-04-26T08:14:12.015Z</time></trkpt><trkpt lat="42.77587478344281" lon="10.222451802520522"><ele>152.0</ele><time>2026-04-26T08:14:13.015Z</time></trkpt><trkpt lat="42.77581398075409" lon="10.222476056009397"><ele>152.0</ele><time>2026-04-26T08:14:14.015Z</time></trkpt><trkpt lat="42.77572965703157" lon="10.222522961040111"><ele>152.0</ele><time>2026-04-26T08:14:16.015Z</time></trkpt><trkpt lat="42.77557391878527" lon="10.222581565877034"><ele>152.0</ele><time>2026-04-26T08:14:18.015Z</time></trkpt><trkpt lat="42.77549276787634" lon="10.222601449605154"><ele>152.0</ele><time>2026-04-26T08:14:19.015Z</time></trkpt><trkpt lat="42.77540463856598" lon="10.222604611335985"><ele>152.0</ele><time>2026-04-26T08:14:20.015Z</time></trkpt><trkpt lat="42.775323821811256" lon="10.222612007761997"><ele>152.0</ele><time>2026-04-26T08:14:21.015Z</time></trkpt><trkpt lat="42.775243349944994" lon="10.222628884848316"><ele>152.0</ele><time>2026-04-26T08:14:22.015Z</time></trkpt><trkpt lat="42.775142888649874" lon="10.222660864248894"><ele>152.0</ele><time>2026-04-26T08:14:24.015Z</time></trkpt><trkpt lat="42.77502030055226" lon="10.222605914183921"><ele>152.0</ele><time>2026-04-26T08:14:26.015Z</time></trkpt><trkpt lat="42.77496453740033" lon="10.222562215511001"><ele>152.16666666666666</ele><time>2026-04-26T08:14:27.015Z</time></trkpt><trkpt lat="42.774864946667996" lon="10.222531816558888"><ele>152.33333333333331</ele><time>2026-04-26T08:14:29.015Z</time></trkpt><trkpt lat="42.77478891584285" lon="10.222529176675167"><ele>152.5</ele><time>2026-04-26T08:14:30.015Z</time></trkpt><trkpt lat="42.7747008952044" lon="10.22250903711983"><ele>152.66666666666666</ele><time>2026-04-26T08:14:31.015Z</time></trkpt><trkpt lat="42.774613749880096" lon="10.222465189535647"><ele>152.83333333333334</ele><time>2026-04-26T08:14:32.015Z</time></trkpt><trkpt lat="42.774541204742874" lon="10.222448627823509"><ele>153.0</ele><time>2026-04-26T08:14:33.015Z</time></trkpt><trkpt lat="42.7744712417453" lon="10.222423353739353"><ele>153.0</ele><time>2026-04-26T08:14:34.015Z</time></trkpt><trkpt lat="42.774395488511296" lon="10.222395976508071"><ele>153.0</ele><time>2026-04-26T08:14:35.015Z</time></trkpt><trkpt lat="42.77434302153397" lon="10.222335069513786"><ele>153.0</ele><time>2026-04-26T08:14:36.015Z</time></trkpt><trkpt lat="42.77430698057367" lon="10.222262353310894"><ele>153.0</ele><time>2026-04-26T08:14:37.015Z</time></trkpt><trkpt lat="42.77427433762309" lon="10.222156177830458"><ele>153.0</ele><time>2026-04-26T08:14:39.015Z</time></trkpt><trkpt lat="42.77422984964554" lon="10.222086136377973"><ele>153.0</ele><time>2026-04-26T08:14:41.015Z</time></trkpt><trkpt lat="42.774175972821446" lon="10.222011422010828"><ele>153.0</ele><time>2026-04-26T08:14:44.015Z</time></trkpt><trkpt lat="42.7740789296726" lon="10.221946966762689"><ele>152.8</ele><time>2026-04-26T08:14:46.015Z</time></trkpt><trkpt lat="42.77398808141077" lon="10.221887597640727"><ele>152.60000000000002</ele><time>2026-04-26T08:14:48.015Z</time></trkpt><trkpt lat="42.773914341974944" lon="10.22184030095305"><ele>152.39999999999998</ele><time>2026-04-26T08:14:50.015Z</time></trkpt><trkpt lat="42.773839362198096" lon="10.221800020974435"><ele>152.2</ele><time>2026-04-26T08:14:52.015Z</time></trkpt><trkpt lat="42.773744753453244" lon="10.221845375366147"><ele>152.0</ele><time>2026-04-26T08:14:55.015Z</time></trkpt><trkpt lat="42.77364786129961" lon="10.22188019497823"><ele>152.0</ele><time>2026-04-26T08:14:57.015Z</time></trkpt><trkpt lat="42.77359008524778" lon="10.2219415095872"><ele>152.0</ele><time>2026-04-26T08:15:00.015Z</time></trkpt><trkpt lat="42.773558374688925" lon="10.222067035386724"><ele>152.0</ele><time>2026-04-26T08:15:03.015Z</time></trkpt><trkpt lat="42.773531492725546" lon="10.22214686921001"><ele>152.0</ele><time>2026-04-26T08:15:04.015Z</time></trkpt><trkpt lat="42.77346399194992" lon="10.22228350235735"><ele>152.0</ele><time>2026-04-26T08:15:06.015Z</time></trkpt><trkpt lat="42.773418910751374" lon="10.22237634437129"><ele>152.0</ele><time>2026-04-26T08:15:08.015Z</time></trkpt><trkpt lat="42.773361571298416" lon="10.222435275240949"><ele>151.2</ele><time>2026-04-26T08:15:10.015Z</time></trkpt><trkpt lat="42.77331599839776" lon="10.222548056108774"><ele>150.39999999999998</ele><time>2026-04-26T08:15:13.014Z</time></trkpt><trkpt lat="42.773265936633535" lon="10.22268517408219"><ele>149.60000000000002</ele><time>2026-04-26T08:15:16.014Z</time></trkpt><trkpt lat="42.7731879329022" lon="10.222724359429455"><ele>148.8</ele><time>2026-04-26T08:15:18.014Z</time></trkpt><trkpt lat="42.77309263988851" lon="10.22271577009537"><ele>148.0</ele><time>2026-04-26T08:15:20.014Z</time></trkpt><trkpt lat="42.77301973854603" lon="10.222776839478167"><ele>148.0</ele><time>2026-04-26T08:15:21.014Z</time></trkpt><trkpt lat="42.77293556989413" lon="10.222841945355391"><ele>148.0</ele><time>2026-04-26T08:15:22.014Z</time></trkpt><trkpt lat="42.7728793996663" lon="10.222935831534013"><ele>148.0</ele><time>2026-04-26T08:15:24.014Z</time></trkpt><trkpt lat="42.77283278258038" lon="10.223084132701228"><ele>148.0</ele><time>2026-04-26T08:15:27.014Z</time></trkpt><trkpt lat="42.772710420047" lon="10.223260954497938"><ele>149.0</ele><time>2026-04-26T08:15:29.014Z</time></trkpt><trkpt lat="42.77263907589591" lon="10.22337903557227"><ele>150.0</ele><time>2026-04-26T08:15:30.014Z</time></trkpt><trkpt lat="42.772582783111716" lon="10.223490806041468"><ele>151.0</ele><time>2026-04-26T08:15:31.014Z</time></trkpt><trkpt lat="42.772513726079964" lon="10.223591994511981"><ele>152.0</ele><time>2026-04-26T08:15:32.014Z</time></trkpt><trkpt lat="42.772463310692345" lon="10.2237082591354"><ele>153.0</ele><time>2026-04-26T08:15:33.014Z</time></trkpt><trkpt lat="42.7724336464029" lon="10.223786121548054"><ele>153.0</ele><time>2026-04-26T08:15:34.014Z</time></trkpt><trkpt lat="42.77241802077829" lon="10.223883611358698"><ele>153.0</ele><time>2026-04-26T08:15:38.014Z</time></trkpt><trkpt lat="42.77238808717881" lon="10.223783422338366"><ele>153.0</ele><time>2026-04-26T08:15:43.014Z</time></trkpt><trkpt lat="42.77238249199898" lon="10.223690151011333"><ele>153.0</ele><time>2026-04-26T08:16:00.015Z</time></trkpt><trkpt lat="42.77238078799207" lon="10.223568905167175"><ele>153.0</ele><time>2026-04-26T08:16:03.015Z</time></trkpt><trkpt lat="42.7723091351163" lon="10.223494771530307"><ele>153.0</ele><time>2026-04-26T08:16:05.015Z</time></trkpt><trkpt lat="42.77227161179154" lon="10.223349426027019"><ele>153.0</ele><time>2026-04-26T08:16:07.015Z</time></trkpt><trkpt lat="42.77226192718034" lon="10.223250309938285"><ele>153.0</ele><time>2026-04-26T08:16:08.015Z</time></trkpt><trkpt lat="42.7722269261121" lon="10.22309583963373"><ele>153.0</ele><time>2026-04-26T08:16:10.015Z</time></trkpt><trkpt lat="42.77217891018118" lon="10.222970329528263"><ele>153.0</ele><time>2026-04-26T08:16:12.015Z</time></trkpt><trkpt lat="42.77214960608875" lon="10.222887375035482"><ele>153.0</ele><time>2026-04-26T08:16:13.015Z</time></trkpt><trkpt lat="42.772121248097925" lon="10.222796860981152"><ele>153.0</ele><time>2026-04-26T08:16:14.015Z</time></trkpt><trkpt lat="42.77209775723837" lon="10.222657430171921"><ele>154.8</ele><time>2026-04-26T08:16:16.015Z</time></trkpt><trkpt lat="42.772143158879125" lon="10.222553772696399"><ele>156.60000000000002</ele><time>2026-04-26T08:16:18.015Z</time></trkpt><trkpt lat="42.772178779808115" lon="10.222450140056417"><ele>158.39999999999998</ele><time>2026-04-26T08:16:19.015Z</time></trkpt><trkpt lat="42.7722109732275" lon="10.222309426934158"><ele>160.2</ele><time>2026-04-26T08:16:20.015Z</time></trkpt><trkpt lat="42.77222546961439" lon="10.222182495362164"><ele>162.0</ele><time>2026-04-26T08:16:21.015Z</time></trkpt><trkpt lat="42.772240025632456" lon="10.222069166407197"><ele>162.16666666666666</ele><time>2026-04-26T08:16:22.015Z</time></trkpt><trkpt lat="42.772257962964616" lon="10.221964684416312"><ele>162.33333333333334</ele><time>2026-04-26T08:16:23.015Z</time></trkpt><trkpt lat="42.7722662149455" lon="10.22187214824829"><ele>162.5</ele><time>2026-04-26T08:16:24.015Z</time></trkpt><trkpt lat="42.77227723820063" lon="10.221777918678008"><ele>162.66666666666669</ele><time>2026-04-26T08:16:25.015Z</time></trkpt><trkpt lat="42.77234241491252" lon="10.221643619654506"><ele>162.83333333333334</ele><time>2026-04-26T08:16:27.015Z</time></trkpt><trkpt lat="42.772372463437144" lon="10.22156002478185"><ele>163.0</ele><time>2026-04-26T08:16:28.015Z</time></trkpt><trkpt lat="42.77237064117724" lon="10.221462934385341"><ele>163.5</ele><time>2026-04-26T08:16:29.015Z</time></trkpt><trkpt lat="42.77234222339203" lon="10.221379704014439"><ele>164.0</ele><time>2026-04-26T08:16:30.015Z</time></trkpt><trkpt lat="42.7723208008453" lon="10.221288715759094"><ele>164.5</ele><time>2026-04-26T08:16:31.015Z</time></trkpt><trkpt lat="42.77230839350946" lon="10.221182732580646"><ele>165.0</ele><time>2026-04-26T08:16:32.015Z</time></trkpt><trkpt lat="42.772339068347684" lon="10.221042811125162"><ele>165.5</ele><time>2026-04-26T08:16:34.015Z</time></trkpt><trkpt lat="42.77236066432898" lon="10.220941084597033"><ele>166.0</ele><time>2026-04-26T08:16:35.015Z</time></trkpt><trkpt lat="42.77237783242073" lon="10.220822945184423"><ele>166.0</ele><time>2026-04-26T08:16:36.015Z</time></trkpt><trkpt lat="42.77239262006338" lon="10.220729170472607"><ele>166.0</ele><time>2026-04-26T08:16:37.015Z</time></trkpt><trkpt lat="42.772400471940344" lon="10.220633094476968"><ele>166.0</ele><time>2026-04-26T08:16:38.015Z</time></trkpt><trkpt lat="42.77241676425707" lon="10.220526663733738"><ele>166.0</ele><time>2026-04-26T08:16:39.015Z</time></trkpt><trkpt lat="42.77244017734792" lon="10.22041611958035"><ele>166.0</ele><time>2026-04-26T08:16:40.015Z</time></trkpt><trkpt lat="42.77247276532484" lon="10.220336774022188"><ele>166.0</ele><time>2026-04-26T08:16:41.015Z</time></trkpt><trkpt lat="42.772512111200214" lon="10.220222602640241"><ele>166.33333333333334</ele><time>2026-04-26T08:16:43.015Z</time></trkpt><trkpt lat="42.77251640553334" lon="10.220131390374075"><ele>166.66666666666669</ele><time>2026-04-26T08:16:46.015Z</time></trkpt><trkpt lat="42.77251861453846" lon="10.220013186983355"><ele>167.0</ele><time>2026-04-26T08:16:48.015Z</time></trkpt><trkpt lat="42.77258838172572" lon="10.21992844755429"><ele>167.33333333333334</ele><time>2026-04-26T08:16:50.015Z</time></trkpt><trkpt lat="42.77264730833023" lon="10.219886922444184"><ele>167.66666666666666</ele><time>2026-04-26T08:16:51.015Z</time></trkpt><trkpt lat="42.77271459554259" lon="10.219855682809474"><ele>168.0</ele><time>2026-04-26T08:16:52.015Z</time></trkpt><trkpt lat="42.77277219463474" lon="10.21974352083493"><ele>170.5</ele><time>2026-04-26T08:16:54.015Z</time></trkpt><trkpt lat="42.772777229302214" lon="10.219635170947166"><ele>173.0</ele><time>2026-04-26T08:16:56.015Z</time></trkpt><trkpt lat="42.77277227193549" lon="10.21951388245024"><ele>175.5</ele><time>2026-04-26T08:16:59.015Z</time></trkpt><trkpt lat="42.77271462257068" lon="10.219449287657845"><ele>178.0</ele><time>2026-04-26T08:17:01.015Z</time></trkpt><trkpt lat="42.772670407494275" lon="10.21937404270383"><ele>180.5</ele><time>2026-04-26T08:17:03.014Z</time></trkpt><trkpt lat="42.77269744393641" lon="10.2192944887807"><ele>183.0</ele><time>2026-04-26T08:17:04.014Z</time></trkpt><trkpt lat="42.7727364345937" lon="10.21921102795106"><ele>183.0</ele><time>2026-04-26T08:17:05.014Z</time></trkpt><trkpt lat="42.77275303537157" lon="10.21907976426346"><ele>183.0</ele><time>2026-04-26T08:17:07.014Z</time></trkpt><trkpt lat="42.77270313540716" lon="10.218969251310439"><ele>183.0</ele><time>2026-04-26T08:17:09.014Z</time></trkpt><trkpt lat="42.77265799564577" lon="10.218839750476437"><ele>183.0</ele><time>2026-04-26T08:17:11.014Z</time></trkpt><trkpt lat="42.772565939765556" lon="10.218774935243554"><ele>183.0</ele><time>2026-04-26T08:17:14.014Z</time></trkpt><trkpt lat="42.77249517247144" lon="10.218696832490384"><ele>186.83333333333334</ele><time>2026-04-26T08:17:16.014Z</time></trkpt><trkpt lat="42.772518437210124" lon="10.218565518423684"><ele>190.66666666666669</ele><time>2026-04-26T08:17:18.014Z</time></trkpt><trkpt lat="42.77252900886715" lon="10.218445160018565"><ele>194.5</ele><time>2026-04-26T08:17:25.014Z</time></trkpt><trkpt lat="42.77253681043421" lon="10.218339097868354"><ele>198.33333333333334</ele><time>2026-04-26T08:17:28.014Z</time></trkpt><trkpt lat="42.772519885969956" lon="10.218254662442616"><ele>202.16666666666669</ele><time>2026-04-26T08:17:31.014Z</time></trkpt><trkpt lat="42.77245085940067" lon="10.218214284622949"><ele>206.0</ele><time>2026-04-26T08:17:33.014Z</time></trkpt><trkpt lat="42.77240511352447" lon="10.2181167018409"><ele>208.00000000000003</ele><time>2026-04-26T08:17:35.014Z</time></trkpt><trkpt lat="42.772400988553244" lon="10.218023783338936"><ele>210.0</ele><time>2026-04-26T08:17:38.014Z</time></trkpt><trkpt lat="42.772375409025614" lon="10.217932252905358"><ele>212.0</ele><time>2026-04-26T08:17:48.014Z</time></trkpt><trkpt lat="42.772343351714504" lon="10.217852872955605"><ele>214.0</ele><time>2026-04-26T08:17:51.014Z</time></trkpt><trkpt lat="42.77231457647353" lon="10.217771228851097"><ele>216.00000000000003</ele><time>2026-04-26T08:17:53.015Z</time></trkpt><trkpt lat="42.77230356909963" lon="10.217640544318456"><ele>218.0</ele><time>2026-04-26T08:17:55.017Z</time></trkpt><trkpt lat="42.77225813140464" lon="10.217536146205546"><ele>218.0</ele><time>2026-04-26T08:17:57.016Z</time></trkpt><trkpt lat="42.77219925957538" lon="10.217417325851065"><ele>218.0</ele><time>2026-04-26T08:17:59.016Z</time></trkpt><trkpt lat="42.772178900905196" lon="10.217297242473327"><ele>218.0</ele><time>2026-04-26T08:18:01.016Z</time></trkpt><trkpt lat="42.77218978560254" lon="10.217164313994797"><ele>218.0</ele><time>2026-04-26T08:18:03.016Z</time></trkpt><trkpt lat="42.772204207375864" lon="10.21707114538191"><ele>218.0</ele><time>2026-04-26T08:18:04.016Z</time></trkpt><trkpt lat="42.77222874481917" lon="10.216942712744952"><ele>218.4</ele><time>2026-04-26T08:18:06.016Z</time></trkpt><trkpt lat="42.77226097918829" lon="10.216868778509493"><ele>218.8</ele><time>2026-04-26T08:18:12.016Z</time></trkpt><trkpt lat="42.7722564629773" lon="10.216744872049306"><ele>219.2</ele><time>2026-04-26T08:19:38.015Z</time></trkpt><trkpt lat="42.7722548557434" lon="10.216607933308662"><ele>219.6</ele><time>2026-04-26T08:19:40.015Z</time></trkpt><trkpt lat="42.772257328950126" lon="10.216459592157497"><ele>220.0</ele><time>2026-04-26T08:19:42.014Z</time></trkpt><trkpt lat="42.772225594687264" lon="10.216330735852598"><ele>219.99999999999997</ele><time>2026-04-26T08:19:44.014Z</time></trkpt><trkpt lat="42.77220606717402" lon="10.21624875524069"><ele>220.0</ele><time>2026-04-26T08:19:45.014Z</time></trkpt><trkpt lat="42.77219560252151" lon="10.216159516669917"><ele>220.0</ele><time>2026-04-26T08:19:46.014Z</time></trkpt><trkpt lat="42.772195951683955" lon="10.216068159174545"><ele>220.0</ele><time>2026-04-26T08:19:47.014Z</time></trkpt><trkpt lat="42.77220623892063" lon="10.215976150447624"><ele>220.0</ele><time>2026-04-26T08:19:48.014Z</time></trkpt><trkpt lat="42.772232687416114" lon="10.215875263087574"><ele>219.99999999999997</ele><time>2026-04-26T08:19:49.014Z</time></trkpt><trkpt lat="42.77227265463262" lon="10.21576704605216"><ele>220.0</ele><time>2026-04-26T08:19:50.014Z</time></trkpt><trkpt lat="42.772327182063755" lon="10.215670700297112"><ele>219.99999999999997</ele><time>2026-04-26T08:19:51.014Z</time></trkpt><trkpt lat="42.772385475181075" lon="10.215593753213374"><ele>220.0</ele><time>2026-04-26T08:19:52.014Z</time></trkpt><trkpt lat="42.772453074779776" lon="10.21554376654346"><ele>220.0</ele><time>2026-04-26T08:19:53.014Z</time></trkpt><trkpt lat="42.77250414459565" lon="10.215477400074263"><ele>220.0</ele><time>2026-04-26T08:19:54.014Z</time></trkpt><trkpt lat="42.772500643001166" lon="10.215325035980056"><ele>219.99999999999997</ele><time>2026-04-26T08:19:56.014Z</time></trkpt><trkpt lat="42.77245610100724" lon="10.215255818444511"><ele>220.0</ele><time>2026-04-26T08:19:57.014Z</time></trkpt><trkpt lat="42.77238479257211" lon="10.215156597734165"><ele>220.0</ele><time>2026-04-26T08:19:58.016Z</time></trkpt><trkpt lat="42.77235052577398" lon="10.215059088277796"><ele>220.0</ele><time>2026-04-26T08:19:59.016Z</time></trkpt><trkpt lat="42.77239020073066" lon="10.214841999489035"><ele>220.0</ele><time>2026-04-26T08:20:01.016Z</time></trkpt><trkpt lat="42.772430172828" lon="10.214701833864746"><ele>220.0</ele><time>2026-04-26T08:20:02.016Z</time></trkpt><trkpt lat="42.77240828220727" lon="10.214566642570498"><ele>221.16666666666666</ele><time>2026-04-26T08:20:04.016Z</time></trkpt><trkpt lat="42.7722959890842" lon="10.214511155544132"><ele>222.33333333333331</ele><time>2026-04-26T08:20:06.016Z</time></trkpt><trkpt lat="42.77223623216753" lon="10.214423006250563"><ele>223.5</ele><time>2026-04-26T08:20:07.016Z</time></trkpt><trkpt lat="42.77218379463422" lon="10.214364786290643"><ele>224.66666666666669</ele><time>2026-04-26T08:20:08.016Z</time></trkpt><trkpt lat="42.772124955992744" lon="10.214333421212965"><ele>225.83333333333334</ele><time>2026-04-26T08:20:09.016Z</time></trkpt><trkpt lat="42.772060233502444" lon="10.214342196813812"><ele>227.0</ele><time>2026-04-26T08:20:10.016Z</time></trkpt><trkpt lat="42.77198866966356" lon="10.21438641492763"><ele>227.0</ele><time>2026-04-26T08:20:11.016Z</time></trkpt><trkpt lat="42.77191989089512" lon="10.214409433294904"><ele>227.0</ele><time>2026-04-26T08:20:12.016Z</time></trkpt><trkpt lat="42.7717981163905" lon="10.214376491009807"><ele>227.0</ele><time>2026-04-26T08:20:14.016Z</time></trkpt><trkpt lat="42.77173958199893" lon="10.214321211639328"><ele>227.0</ele><time>2026-04-26T08:20:15.016Z</time></trkpt><trkpt lat="42.77161654351283" lon="10.214299606807593"><ele>227.0</ele><time>2026-04-26T08:20:17.016Z</time></trkpt><trkpt lat="42.77154666634238" lon="10.214352192117369"><ele>225.83333333333334</ele><time>2026-04-26T08:20:18.016Z</time></trkpt><trkpt lat="42.771493839902334" lon="10.214420070154352"><ele>224.66666666666669</ele><time>2026-04-26T08:20:19.016Z</time></trkpt><trkpt lat="42.77141966565042" lon="10.214477619735812"><ele>223.5</ele><time>2026-04-26T08:20:20.016Z</time></trkpt><trkpt lat="42.771341232716324" lon="10.214526193466124"><ele>222.33333333333331</ele><time>2026-04-26T08:20:21.016Z</time></trkpt><trkpt lat="42.77125234980912" lon="10.214533497417113"><ele>221.16666666666666</ele><time>2026-04-26T08:20:22.016Z</time></trkpt><trkpt lat="42.771171270417184" lon="10.214501963191127"><ele>220.0</ele><time>2026-04-26T08:20:23.016Z</time></trkpt><trkpt lat="42.77110648187748" lon="10.214438055848582"><ele>220.0</ele><time>2026-04-26T08:20:24.016Z</time></trkpt><trkpt lat="42.77103852600214" lon="10.214353577119107"><ele>220.0</ele><time>2026-04-26T08:20:25.016Z</time></trkpt><trkpt lat="42.77097766205256" lon="10.214264474129646"><ele>220.0</ele><time>2026-04-26T08:20:26.016Z</time></trkpt><trkpt lat="42.770914274030076" lon="10.214177436927248"><ele>220.0</ele><time>2026-04-26T08:20:27.016Z</time></trkpt><trkpt lat="42.77081712279052" lon="10.214129778291925"><ele>220.0</ele><time>2026-04-26T08:20:29.016Z</time></trkpt><trkpt lat="42.770679719326154" lon="10.214187037019526"><ele>218.6</ele><time>2026-04-26T08:20:31.016Z</time></trkpt><trkpt lat="42.770555008737624" lon="10.214206159063167"><ele>217.2</ele><time>2026-04-26T08:20:32.016Z</time></trkpt><trkpt lat="42.770450167545484" lon="10.214226041259163"><ele>215.8</ele><time>2026-04-26T08:20:33.016Z</time></trkpt><trkpt lat="42.77035464160497" lon="10.214242416483426"><ele>214.4</ele><time>2026-04-26T08:20:34.016Z</time></trkpt><trkpt lat="42.77026517716682" lon="10.214253869465619"><ele>213.0</ele><time>2026-04-26T08:20:35.016Z</time></trkpt><trkpt lat="42.77016592675097" lon="10.214232506283631"><ele>213.0</ele><time>2026-04-26T08:20:36.016Z</time></trkpt><trkpt lat="42.77007281925334" lon="10.214179186324756"><ele>213.0</ele><time>2026-04-26T08:20:37.016Z</time></trkpt><trkpt lat="42.76997579088019" lon="10.214110055929034"><ele>213.0</ele><time>2026-04-26T08:20:38.016Z</time></trkpt><trkpt lat="42.76989012323158" lon="10.214016508579707"><ele>213.0</ele><time>2026-04-26T08:20:39.016Z</time></trkpt><trkpt lat="42.769842768244395" lon="10.213909703132806"><ele>213.0</ele><time>2026-04-26T08:20:40.016Z</time></trkpt><trkpt lat="42.76980507697571" lon="10.213833066668286"><ele>213.0</ele><time>2026-04-26T08:20:41.016Z</time></trkpt><trkpt lat="42.76977266138123" lon="10.213748962573739"><ele>213.0</ele><time>2026-04-26T08:20:42.016Z</time></trkpt><trkpt lat="42.76977486805184" lon="10.213641967539465"><ele>213.0</ele><time>2026-04-26T08:20:43.016Z</time></trkpt><trkpt lat="42.769777324904034" lon="10.213533191488219"><ele>213.0</ele><time>2026-04-26T08:20:44.016Z</time></trkpt><trkpt lat="42.769774450452196" lon="10.213428269918458"><ele>213.0</ele><time>2026-04-26T08:20:45.016Z</time></trkpt><trkpt lat="42.76974069015486" lon="10.213292816636779"><ele>213.0</ele><time>2026-04-26T08:20:47.016Z</time></trkpt><trkpt lat="42.769658291809435" lon="10.213282440829534"><ele>213.0</ele><time>2026-04-26T08:20:49.016Z</time></trkpt><trkpt lat="42.76958783134569" lon="10.213303806409955"><ele>213.0</ele><time>2026-04-26T08:20:51.016Z</time></trkpt><trkpt lat="42.769523066823226" lon="10.213337180251907"><ele>213.0</ele><time>2026-04-26T08:20:52.016Z</time></trkpt><trkpt lat="42.76944691097018" lon="10.21337539132261"><ele>213.0</ele><time>2026-04-26T08:20:53.016Z</time></trkpt><trkpt lat="42.76935301689405" lon="10.213419854224986"><ele>213.0</ele><time>2026-04-26T08:20:54.016Z</time></trkpt><trkpt lat="42.76926051681638" lon="10.213430757291082"><ele>213.0</ele><time>2026-04-26T08:20:55.016Z</time></trkpt><trkpt lat="42.76919175206219" lon="10.21338566148477"><ele>214.0</ele><time>2026-04-26T08:20:56.016Z</time></trkpt><trkpt lat="42.76911337740416" lon="10.213275848650992"><ele>215.0</ele><time>2026-04-26T08:20:57.016Z</time></trkpt><trkpt lat="42.76903303273231" lon="10.213141305925669"><ele>216.0</ele><time>2026-04-26T08:20:58.016Z</time></trkpt><trkpt lat="42.76895001868411" lon="10.21305741820195"><ele>217.0</ele><time>2026-04-26T08:20:59.016Z</time></trkpt><trkpt lat="42.768865358878806" lon="10.213027793259405"><ele>218.0</ele><time>2026-04-26T08:21:00.016Z</time></trkpt><trkpt lat="42.768777054074924" lon="10.213052654863702"><ele>218.0</ele><time>2026-04-26T08:21:01.016Z</time></trkpt><trkpt lat="42.76867654897641" lon="10.213108239655538"><ele>218.0</ele><time>2026-04-26T08:21:02.016Z</time></trkpt><trkpt lat="42.768545552661024" lon="10.213181274404604"><ele>218.0</ele><time>2026-04-26T08:21:03.016Z</time></trkpt><trkpt lat="42.768385961077165" lon="10.213268991298694"><ele>218.0</ele><time>2026-04-26T08:21:04.016Z</time></trkpt><trkpt lat="42.76823733743883" lon="10.213342685665472"><ele>213.5</ele><time>2026-04-26T08:21:05.016Z</time></trkpt><trkpt lat="42.768102798363785" lon="10.213418373482854"><ele>209.0</ele><time>2026-04-26T08:21:06.016Z</time></trkpt><trkpt lat="42.76798833482126" lon="10.213475994503783"><ele>204.5</ele><time>2026-04-26T08:21:07.016Z</time></trkpt><trkpt lat="42.76789153263775" lon="10.21353804760817"><ele>200.0</ele><time>2026-04-26T08:21:08.016Z</time></trkpt><trkpt lat="42.76781045760888" lon="10.213553175508556"><ele>200.0</ele><time>2026-04-26T08:21:09.016Z</time></trkpt><trkpt lat="42.76769265684071" lon="10.213458778568022"><ele>200.0</ele><time>2026-04-26T08:21:11.016Z</time></trkpt><trkpt lat="42.76762352382924" lon="10.213373648487439"><ele>200.0</ele><time>2026-04-26T08:21:12.016Z</time></trkpt><trkpt lat="42.76756560180849" lon="10.213236624923672"><ele>200.0</ele><time>2026-04-26T08:21:13.016Z</time></trkpt><trkpt lat="42.76749859695031" lon="10.213067713099566"><ele>202.5</ele><time>2026-04-26T08:21:14.016Z</time></trkpt><trkpt lat="42.767418610221796" lon="10.212899584258912"><ele>205.0</ele><time>2026-04-26T08:21:15.016Z</time></trkpt><trkpt lat="42.767351220107955" lon="10.212770381643079"><ele>207.5</ele><time>2026-04-26T08:21:16.015Z</time></trkpt><trkpt lat="42.76728856828645" lon="10.212654177720534"><ele>210.0</ele><time>2026-04-26T08:21:17.015Z</time></trkpt><trkpt lat="42.76723032480068" lon="10.212531429546384"><ele>210.0</ele><time>2026-04-26T08:21:18.015Z</time></trkpt><trkpt lat="42.76716075927968" lon="10.212416054087086"><ele>210.0</ele><time>2026-04-26T08:21:19.015Z</time></trkpt><trkpt lat="42.76707447548124" lon="10.21227967014892"><ele>210.0</ele><time>2026-04-26T08:21:20.015Z</time></trkpt><trkpt lat="42.766999901387756" lon="10.212157330800402"><ele>210.0</ele><time>2026-04-26T08:21:21.015Z</time></trkpt><trkpt lat="42.7669400584792" lon="10.212063522937006"><ele>210.16666666666666</ele><time>2026-04-26T08:21:22.015Z</time></trkpt><trkpt lat="42.76686294609221" lon="10.21201216060669"><ele>210.33333333333331</ele><time>2026-04-26T08:21:24.015Z</time></trkpt><trkpt lat="42.766770775634384" lon="10.21198466537079"><ele>210.5</ele><time>2026-04-26T08:21:25.015Z</time></trkpt><trkpt lat="42.76667269166076" lon="10.211996254134531"><ele>210.66666666666666</ele><time>2026-04-26T08:21:26.015Z</time></trkpt><trkpt lat="42.76660345613857" lon="10.212029291754352"><ele>210.83333333333331</ele><time>2026-04-26T08:21:27.015Z</time></trkpt><trkpt lat="42.76652243987357" lon="10.212087058091866"><ele>211.0</ele><time>2026-04-26T08:21:28.015Z</time></trkpt><trkpt lat="42.76646270861974" lon="10.212160276583884"><ele>211.0</ele><time>2026-04-26T08:21:29.015Z</time></trkpt><trkpt lat="42.76638482896218" lon="10.212216284013616"><ele>211.0</ele><time>2026-04-26T08:21:30.015Z</time></trkpt><trkpt lat="42.766294301144946" lon="10.212251058325863"><ele>211.0</ele><time>2026-04-26T08:21:31.015Z</time></trkpt><trkpt lat="42.766188660235386" lon="10.212296298749576"><ele>211.0</ele><time>2026-04-26T08:21:32.015Z</time></trkpt><trkpt lat="42.76608359993502" lon="10.212367414430371"><ele>211.0</ele><time>2026-04-26T08:21:33.015Z</time></trkpt><trkpt lat="42.76600316923973" lon="10.212449995587273"><ele>209.20000000000002</ele><time>2026-04-26T08:21:34.015Z</time></trkpt><trkpt lat="42.76592696306008" lon="10.212546946834259"><ele>207.4</ele><time>2026-04-26T08:21:35.015Z</time></trkpt><trkpt lat="42.76584304603602" lon="10.212625569141352"><ele>205.6</ele><time>2026-04-26T08:21:36.015Z</time></trkpt><trkpt lat="42.76575282654221" lon="10.212660268778423"><ele>203.8</ele><time>2026-04-26T08:21:37.015Z</time></trkpt><trkpt lat="42.76565654205486" lon="10.212687650185972"><ele>202.0</ele><time>2026-04-26T08:21:38.015Z</time></trkpt><trkpt lat="42.7655743379441" lon="10.212735951913341"><ele>202.0</ele><time>2026-04-26T08:21:39.015Z</time></trkpt><trkpt lat="42.76549771123849" lon="10.21280646629841"><ele>202.0</ele><time>2026-04-26T08:21:40.015Z</time></trkpt><trkpt lat="42.76541609167229" lon="10.212921055944788"><ele>202.0</ele><time>2026-04-26T08:21:41.015Z</time></trkpt><trkpt lat="42.765325061791806" lon="10.21301790245881"><ele>202.0</ele><time>2026-04-26T08:21:42.015Z</time></trkpt><trkpt lat="42.76522052323073" lon="10.213110293828223"><ele>201.0</ele><time>2026-04-26T08:21:43.015Z</time></trkpt><trkpt lat="42.76512800346786" lon="10.213192348969208"><ele>200.0</ele><time>2026-04-26T08:21:44.015Z</time></trkpt><trkpt lat="42.76503741805818" lon="10.213274512622595"><ele>199.0</ele><time>2026-04-26T08:21:45.015Z</time></trkpt><trkpt lat="42.764950583099555" lon="10.213349765236517"><ele>198.0</ele><time>2026-04-26T08:21:46.015Z</time></trkpt><trkpt lat="42.76486678272306" lon="10.213425121678934"><ele>197.0</ele><time>2026-04-26T08:21:47.015Z</time></trkpt><trkpt lat="42.76478367866053" lon="10.213497585907707"><ele>197.00000000000003</ele><time>2026-04-26T08:21:48.015Z</time></trkpt><trkpt lat="42.76471213413283" lon="10.213573259011337"><ele>197.0</ele><time>2026-04-26T08:21:49.015Z</time></trkpt><trkpt lat="42.76465296775279" lon="10.213639537859931"><ele>197.0</ele><time>2026-04-26T08:21:50.015Z</time></trkpt><trkpt lat="42.76459362253168" lon="10.213700902632665"><ele>197.0</ele><time>2026-04-26T08:21:51.015Z</time></trkpt><trkpt lat="42.76449670490201" lon="10.21378057232832"><ele>197.00000000000003</ele><time>2026-04-26T08:21:53.015Z</time></trkpt><trkpt lat="42.764422320733644" lon="10.213789561498869"><ele>197.0</ele><time>2026-04-26T08:21:55.015Z</time></trkpt><trkpt lat="42.764354956645846" lon="10.213782154822773"><ele>197.2</ele><time>2026-04-26T08:21:56.015Z</time></trkpt><trkpt lat="42.76424842159739" lon="10.213748008192425"><ele>197.39999999999998</ele><time>2026-04-26T08:21:58.015Z</time></trkpt><trkpt lat="42.76419743189176" lon="10.21369490887444"><ele>197.60000000000002</ele><time>2026-04-26T08:22:01.015Z</time></trkpt><trkpt lat="42.76409239466455" lon="10.213633850410863"><ele>197.8</ele><time>2026-04-26T08:22:03.016Z</time></trkpt><trkpt lat="42.764001504443975" lon="10.213544313891202"><ele>198.0</ele><time>2026-04-26T08:22:05.016Z</time></trkpt><trkpt lat="42.76394598254511" lon="10.213459799367737"><ele>198.0</ele><time>2026-04-26T08:22:06.016Z</time></trkpt><trkpt lat="42.763897683080806" lon="10.21334881827729"><ele>198.0</ele><time>2026-04-26T08:22:07.016Z</time></trkpt><trkpt lat="42.76385911999803" lon="10.213232741742585"><ele>198.0</ele><time>2026-04-26T08:22:08.016Z</time></trkpt><trkpt lat="42.76381919703024" lon="10.213104135050871"><ele>198.0</ele><time>2026-04-26T08:22:09.017Z</time></trkpt><trkpt lat="42.76377124391751" lon="10.212988408437464"><ele>198.0</ele><time>2026-04-26T08:22:10.016Z</time></trkpt><trkpt lat="42.76372267565361" lon="10.2128914606163"><ele>198.2</ele><time>2026-04-26T08:22:11.016Z</time></trkpt><trkpt lat="42.76370030932126" lon="10.212786589697092"><ele>198.4</ele><time>2026-04-26T08:22:12.017Z</time></trkpt><trkpt lat="42.763677527992655" lon="10.212669309175604"><ele>198.6</ele><time>2026-04-26T08:22:13.017Z</time></trkpt><trkpt lat="42.76367004014303" lon="10.21253138766545"><ele>198.79999999999998</ele><time>2026-04-26T08:22:14.017Z</time></trkpt><trkpt lat="42.76366348540403" lon="10.212393206324455"><ele>199.0</ele><time>2026-04-26T08:22:15.016Z</time></trkpt><trkpt lat="42.763661102028934" lon="10.212262891576607"><ele>200.0</ele><time>2026-04-26T08:22:16.016Z</time></trkpt><trkpt lat="42.7636565415056" lon="10.212102976511137"><ele>201.0</ele><time>2026-04-26T08:22:17.016Z</time></trkpt><trkpt lat="42.76365112636332" lon="10.211939475383124"><ele>202.0</ele><time>2026-04-26T08:22:18.016Z</time></trkpt><trkpt lat="42.763646954029404" lon="10.211789029966786"><ele>203.0</ele><time>2026-04-26T08:22:19.016Z</time></trkpt><trkpt lat="42.76364894939205" lon="10.211625740429541"><ele>204.0</ele><time>2026-04-26T08:22:20.016Z</time></trkpt><trkpt lat="42.76364352477081" lon="10.211468172945043"><ele>205.0</ele><time>2026-04-26T08:22:21.016Z</time></trkpt><trkpt lat="42.76364829495502" lon="10.21130301898404"><ele>206.0</ele><time>2026-04-26T08:22:22.016Z</time></trkpt><trkpt lat="42.76364233390446" lon="10.211149003888531"><ele>207.0</ele><time>2026-04-26T08:22:23.016Z</time></trkpt><trkpt lat="42.7636125450732" lon="10.211014599590388"><ele>207.0</ele><time>2026-04-26T08:22:24.016Z</time></trkpt><trkpt lat="42.76356664350241" lon="10.21088144776948"><ele>207.0</ele><time>2026-04-26T08:22:25.016Z</time></trkpt><trkpt lat="42.76350534116965" lon="10.210772730679645"><ele>207.0</ele><time>2026-04-26T08:22:26.016Z</time></trkpt><trkpt lat="42.76348026741258" lon="10.210612258475027"><ele>207.0</ele><time>2026-04-26T08:22:27.016Z</time></trkpt><trkpt lat="42.763463328911776" lon="10.210472289061226"><ele>207.0</ele><time>2026-04-26T08:22:28.016Z</time></trkpt><trkpt lat="42.76346772983379" lon="10.210328557104646"><ele>206.75</ele><time>2026-04-26T08:22:29.016Z</time></trkpt><trkpt lat="42.763498791196135" lon="10.210191650871822"><ele>206.5</ele><time>2026-04-26T08:22:30.016Z</time></trkpt><trkpt lat="42.76353826742057" lon="10.210056375419338"><ele>206.25</ele><time>2026-04-26T08:22:31.016Z</time></trkpt><trkpt lat="42.76360011581563" lon="10.209902152006046"><ele>206.0</ele><time>2026-04-26T08:22:32.016Z</time></trkpt><trkpt lat="42.763696122142846" lon="10.209732564867112"><ele>204.5</ele><time>2026-04-26T08:22:33.016Z</time></trkpt><trkpt lat="42.76377016195903" lon="10.20956446556277"><ele>203.0</ele><time>2026-04-26T08:22:34.016Z</time></trkpt><trkpt lat="42.76384532469685" lon="10.20940528109419"><ele>201.5</ele><time>2026-04-26T08:22:35.016Z</time></trkpt><trkpt lat="42.76391527433966" lon="10.209259412444544"><ele>200.0</ele><time>2026-04-26T08:22:36.016Z</time></trkpt><trkpt lat="42.76397862067269" lon="10.20912560388784"><ele>200.00000000000003</ele><time>2026-04-26T08:22:37.016Z</time></trkpt><trkpt lat="42.76401177148935" lon="10.209033061568405"><ele>200.0</ele><time>2026-04-26T08:22:38.016Z</time></trkpt><trkpt lat="42.76396453904877" lon="10.208918277286209"><ele>200.0</ele><time>2026-04-26T08:22:40.016Z</time></trkpt><trkpt lat="42.763891280902705" lon="10.20881582209852"><ele>200.0</ele><time>2026-04-26T08:22:41.016Z</time></trkpt><trkpt lat="42.76381166662858" lon="10.208754161993712"><ele>200.00000000000003</ele><time>2026-04-26T08:22:42.016Z</time></trkpt><trkpt lat="42.7637363306778" lon="10.208717067269829"><ele>200.0</ele><time>2026-04-26T08:22:43.016Z</time></trkpt><trkpt lat="42.76365984474802" lon="10.20874215554385"><ele>200.25</ele><time>2026-04-26T08:22:44.016Z</time></trkpt><trkpt lat="42.763549130348444" lon="10.208860194142162"><ele>200.5</ele><time>2026-04-26T08:22:45.016Z</time></trkpt><trkpt lat="42.76341554348591" lon="10.208968669641745"><ele>200.75</ele><time>2026-04-26T08:22:46.016Z</time></trkpt><trkpt lat="42.76329294955859" lon="10.209038690736485"><ele>201.0</ele><time>2026-04-26T08:22:47.016Z</time></trkpt><trkpt lat="42.76314618791491" lon="10.20911857208216"><ele>202.75</ele><time>2026-04-26T08:22:48.016Z</time></trkpt><trkpt lat="42.763020052567896" lon="10.209211735537288"><ele>204.5</ele><time>2026-04-26T08:22:49.016Z</time></trkpt><trkpt lat="42.762903524721736" lon="10.209299783083685"><ele>206.25</ele><time>2026-04-26T08:22:50.016Z</time></trkpt><trkpt lat="42.762794038766415" lon="10.209390793297505"><ele>208.0</ele><time>2026-04-26T08:22:51.016Z</time></trkpt><trkpt lat="42.76267058985057" lon="10.209469759137347"><ele>208.0</ele><time>2026-04-26T08:22:52.016Z</time></trkpt><trkpt lat="42.76254148737831" lon="10.209546764164488"><ele>208.0</ele><time>2026-04-26T08:22:53.016Z</time></trkpt><trkpt lat="42.762416762195684" lon="10.20961600594776"><ele>208.0</ele><time>2026-04-26T08:22:54.016Z</time></trkpt><trkpt lat="42.76229568775412" lon="10.209677437016587"><ele>208.0</ele><time>2026-04-26T08:22:55.016Z</time></trkpt><trkpt lat="42.76218948976197" lon="10.209754258357837"><ele>204.4</ele><time>2026-04-26T08:22:56.016Z</time></trkpt><trkpt lat="42.762108986925625" lon="10.209839682897348"><ele>200.8</ele><time>2026-04-26T08:22:57.016Z</time></trkpt><trkpt lat="42.762027463489815" lon="10.209942398234535"><ele>197.2</ele><time>2026-04-26T08:22:58.016Z</time></trkpt><trkpt lat="42.7619768091064" lon="10.210070422643426"><ele>193.6</ele><time>2026-04-26T08:22:59.016Z</time></trkpt><trkpt lat="42.761937691053355" lon="10.210216823332619"><ele>190.0</ele><time>2026-04-26T08:23:00.016Z</time></trkpt><trkpt lat="42.7618869542843" lon="10.210345015417248"><ele>191.25</ele><time>2026-04-26T08:23:01.016Z</time></trkpt><trkpt lat="42.76182216218208" lon="10.210447046611034"><ele>192.5</ele><time>2026-04-26T08:23:02.016Z</time></trkpt><trkpt lat="42.76174846418222" lon="10.210506647255722"><ele>193.75</ele><time>2026-04-26T08:23:03.016Z</time></trkpt><trkpt lat="42.76162593780177" lon="10.210566618700716"><ele>195.0</ele><time>2026-04-26T08:23:04.016Z</time></trkpt><trkpt lat="42.761498572525625" lon="10.21066310930298"><ele>195.0</ele><time>2026-04-26T08:23:05.016Z</time></trkpt><trkpt lat="42.76138417948666" lon="10.210754631515591"><ele>195.0</ele><time>2026-04-26T08:23:06.015Z</time></trkpt><trkpt lat="42.76128165932047" lon="10.210818786853743"><ele>195.0</ele><time>2026-04-26T08:23:07.015Z</time></trkpt><trkpt lat="42.761164325936" lon="10.210865004727635"><ele>195.0</ele><time>2026-04-26T08:23:08.015Z</time></trkpt><trkpt lat="42.76104316681792" lon="10.21089418116618"><ele>197.5</ele><time>2026-04-26T08:23:09.015Z</time></trkpt><trkpt lat="42.76091274453801" lon="10.210922607677201"><ele>200.0</ele><time>2026-04-26T08:23:10.015Z</time></trkpt><trkpt lat="42.76079557472222" lon="10.210980004091375"><ele>202.5</ele><time>2026-04-26T08:23:11.015Z</time></trkpt><trkpt lat="42.76069414027238" lon="10.211072702526415"><ele>205.0</ele><time>2026-04-26T08:23:12.015Z</time></trkpt><trkpt lat="42.760614579971396" lon="10.211195602207484"><ele>205.0</ele><time>2026-04-26T08:23:13.015Z</time></trkpt><trkpt lat="42.76053631869101" lon="10.211311566025257"><ele>205.0</ele><time>2026-04-26T08:23:14.015Z</time></trkpt><trkpt lat="42.7604393259486" lon="10.211437670066372"><ele>205.0</ele><time>2026-04-26T08:23:15.015Z</time></trkpt><trkpt lat="42.760334078871395" lon="10.211545139197492"><ele>205.0</ele><time>2026-04-26T08:23:16.015Z</time></trkpt><trkpt lat="42.76021019448295" lon="10.211647750055823"><ele>204.2</ele><time>2026-04-26T08:23:17.015Z</time></trkpt><trkpt lat="42.76010345519325" lon="10.211730281527709"><ele>203.4</ele><time>2026-04-26T08:23:18.015Z</time></trkpt><trkpt lat="42.75999719710451" lon="10.211801648233935"><ele>202.60000000000002</ele><time>2026-04-26T08:23:19.015Z</time></trkpt><trkpt lat="42.75989978724081" lon="10.2118475409309"><ele>201.8</ele><time>2026-04-26T08:23:20.015Z</time></trkpt><trkpt lat="42.75979838830086" lon="10.211858957642576"><ele>201.0</ele><time>2026-04-26T08:23:21.015Z</time></trkpt><trkpt lat="42.75971460495654" lon="10.211802750271639"><ele>201.0</ele><time>2026-04-26T08:23:22.015Z</time></trkpt><trkpt lat="42.759648642737424" lon="10.211709644140303"><ele>201.0</ele><time>2026-04-26T08:23:23.015Z</time></trkpt><trkpt lat="42.75961469068521" lon="10.21159766665"><ele>201.0</ele><time>2026-04-26T08:23:24.015Z</time></trkpt><trkpt lat="42.75962329592881" lon="10.211438006710306"><ele>201.0</ele><time>2026-04-26T08:23:25.015Z</time></trkpt><trkpt lat="42.75962085528984" lon="10.211250311936235"><ele>201.0</ele><time>2026-04-26T08:23:26.015Z</time></trkpt><trkpt lat="42.75959187329073" lon="10.211070265156701"><ele>204.0</ele><time>2026-04-26T08:23:27.015Z</time></trkpt><trkpt lat="42.75953704084515" lon="10.210870640817381"><ele>207.0</ele><time>2026-04-26T08:23:28.015Z</time></trkpt><trkpt lat="42.759472051770736" lon="10.210675499145559"><ele>210.0</ele><time>2026-04-26T08:23:29.015Z</time></trkpt><trkpt lat="42.75941920772889" lon="10.210492166462165"><ele>211.5</ele><time>2026-04-26T08:23:30.015Z</time></trkpt><trkpt lat="42.75939324426091" lon="10.210320074056938"><ele>213.0</ele><time>2026-04-26T08:23:31.015Z</time></trkpt><trkpt lat="42.75940097530953" lon="10.21014093620463"><ele>214.5</ele><time>2026-04-26T08:23:32.015Z</time></trkpt><trkpt lat="42.75943721359012" lon="10.20995694121157"><ele>216.0</ele><time>2026-04-26T08:23:33.015Z</time></trkpt><trkpt lat="42.75948187601423" lon="10.209767899636763"><ele>216.5</ele><time>2026-04-26T08:23:34.015Z</time></trkpt><trkpt lat="42.759511776662926" lon="10.209568742717465"><ele>217.0</ele><time>2026-04-26T08:23:35.015Z</time></trkpt><trkpt lat="42.759520426840595" lon="10.209379815627"><ele>217.5</ele><time>2026-04-26T08:23:36.015Z</time></trkpt><trkpt lat="42.75951661579814" lon="10.209194667595217"><ele>218.0</ele><time>2026-04-26T08:23:37.015Z</time></trkpt><trkpt lat="42.75952031054522" lon="10.209031965285607"><ele>217.0</ele><time>2026-04-26T08:23:38.015Z</time></trkpt><trkpt lat="42.75953527556256" lon="10.208864068143834"><ele>216.0</ele><time>2026-04-26T08:23:39.015Z</time></trkpt><trkpt lat="42.75956974437364" lon="10.208693801126733"><ele>215.0</ele><time>2026-04-26T08:23:40.015Z</time></trkpt><trkpt lat="42.759610426243896" lon="10.208554041106424"><ele>214.0</ele><time>2026-04-26T08:23:41.015Z</time></trkpt><trkpt lat="42.75967137875562" lon="10.208425459109826"><ele>214.0</ele><time>2026-04-26T08:23:42.015Z</time></trkpt><trkpt lat="42.75974463610558" lon="10.20832469920802"><ele>213.99999999999997</ele><time>2026-04-26T08:23:43.015Z</time></trkpt><trkpt lat="42.75984341565663" lon="10.208257576487563"><ele>213.99999999999997</ele><time>2026-04-26T08:23:44.015Z</time></trkpt><trkpt lat="42.75993312781315" lon="10.208174895234638"><ele>214.0</ele><time>2026-04-26T08:23:45.015Z</time></trkpt><trkpt lat="42.760002877605594" lon="10.208073417822055"><ele>214.0</ele><time>2026-04-26T08:23:46.015Z</time></trkpt><trkpt lat="42.760026183497715" lon="10.207953121298523"><ele>215.25</ele><time>2026-04-26T08:23:47.015Z</time></trkpt><trkpt lat="42.759991031032165" lon="10.207840686038898"><ele>216.5</ele><time>2026-04-26T08:23:48.015Z</time></trkpt><trkpt lat="42.759896116925006" lon="10.207750056524716"><ele>217.75</ele><time>2026-04-26T08:23:49.015Z</time></trkpt><trkpt lat="42.759785459431626" lon="10.207682109097053"><ele>219.0</ele><time>2026-04-26T08:23:50.015Z</time></trkpt><trkpt lat="42.75966602462341" lon="10.207630074660926"><ele>219.0</ele><time>2026-04-26T08:23:51.015Z</time></trkpt><trkpt lat="42.759563487584266" lon="10.20756876467592"><ele>218.99999999999997</ele><time>2026-04-26T08:23:52.015Z</time></trkpt><trkpt lat="42.759489417179246" lon="10.207503199534788"><ele>218.99999999999997</ele><time>2026-04-26T08:23:53.015Z</time></trkpt><trkpt lat="42.75943155393163" lon="10.20741373133881"><ele>219.0</ele><time>2026-04-26T08:23:54.015Z</time></trkpt><trkpt lat="42.759407547685456" lon="10.207301971451026"><ele>219.0</ele><time>2026-04-26T08:23:55.015Z</time></trkpt><trkpt lat="42.759414651137845" lon="10.207166258800646"><ele>219.79999999999998</ele><time>2026-04-26T08:23:56.015Z</time></trkpt><trkpt lat="42.75941964460631" lon="10.207049441081663"><ele>220.59999999999997</ele><time>2026-04-26T08:23:57.015Z</time></trkpt><trkpt lat="42.75939746155598" lon="10.206936866682529"><ele>221.4</ele><time>2026-04-26T08:23:58.015Z</time></trkpt><trkpt lat="42.75936192064237" lon="10.206850791096338"><ele>222.2</ele><time>2026-04-26T08:23:59.015Z</time></trkpt><trkpt lat="42.759233218452536" lon="10.206833737584107"><ele>223.0</ele><time>2026-04-26T08:24:01.015Z</time></trkpt><trkpt lat="42.75913121768158" lon="10.206909260891544"><ele>223.0</ele><time>2026-04-26T08:24:02.015Z</time></trkpt><trkpt lat="42.759044882041785" lon="10.207008082129038"><ele>223.0</ele><time>2026-04-26T08:24:03.015Z</time></trkpt><trkpt lat="42.75897596554423" lon="10.207149481989735"><ele>223.0</ele><time>2026-04-26T08:24:04.015Z</time></trkpt><trkpt lat="42.758924175316395" lon="10.207284446556637"><ele>223.0</ele><time>2026-04-26T08:24:05.015Z</time></trkpt><trkpt lat="42.7588610183306" lon="10.207398045229718"><ele>221.0</ele><time>2026-04-26T08:24:06.015Z</time></trkpt><trkpt lat="42.75875456487987" lon="10.207471970421166"><ele>219.0</ele><time>2026-04-26T08:24:07.015Z</time></trkpt><trkpt lat="42.758649818047544" lon="10.20753125842641"><ele>217.0</ele><time>2026-04-26T08:24:08.017Z</time></trkpt><trkpt lat="42.758523997762644" lon="10.207582187736183"><ele>215.0</ele><time>2026-04-26T08:24:09.016Z</time></trkpt><trkpt lat="42.758394398431655" lon="10.207631503554092"><ele>215.0</ele><time>2026-04-26T08:24:10.016Z</time></trkpt><trkpt lat="42.75827435155105" lon="10.207655186451248"><ele>215.0</ele><time>2026-04-26T08:24:11.017Z</time></trkpt><trkpt lat="42.758168251352444" lon="10.207622303148245"><ele>215.0</ele><time>2026-04-26T08:24:12.016Z</time></trkpt><trkpt lat="42.75807033816646" lon="10.207543155757522"><ele>215.0</ele><time>2026-04-26T08:24:13.016Z</time></trkpt><trkpt lat="42.757981449712055" lon="10.207430410360056"><ele>215.0</ele><time>2026-04-26T08:24:14.017Z</time></trkpt><trkpt lat="42.75787697587634" lon="10.207333548243778"><ele>215.0</ele><time>2026-04-26T08:24:15.016Z</time></trkpt><trkpt lat="42.75774879616103" lon="10.20726372114474"><ele>215.0</ele><time>2026-04-26T08:24:16.016Z</time></trkpt><trkpt lat="42.75762395357361" lon="10.207231840885242"><ele>215.0</ele><time>2026-04-26T08:24:17.017Z</time></trkpt><trkpt lat="42.757511495461344" lon="10.207245611167675"><ele>215.2</ele><time>2026-04-26T08:24:18.016Z</time></trkpt><trkpt lat="42.75741183694517" lon="10.207289761580912"><ele>215.4</ele><time>2026-04-26T08:24:19.016Z</time></trkpt><trkpt lat="42.757331392284264" lon="10.2073702031262"><ele>215.60000000000002</ele><time>2026-04-26T08:24:20.016Z</time></trkpt><trkpt lat="42.7572393722954" lon="10.207443544728552"><ele>215.8</ele><time>2026-04-26T08:24:21.017Z</time></trkpt><trkpt lat="42.757121061675846" lon="10.20747132647522"><ele>216.0</ele><time>2026-04-26T08:24:22.017Z</time></trkpt><trkpt lat="42.75700600375243" lon="10.207445890940319"><ele>216.0</ele><time>2026-04-26T08:24:23.017Z</time></trkpt><trkpt lat="42.75689956947469" lon="10.20738833390112"><ele>216.0</ele><time>2026-04-26T08:24:24.017Z</time></trkpt><trkpt lat="42.7567969297065" lon="10.20730696999846"><ele>216.0</ele><time>2026-04-26T08:24:25.017Z</time></trkpt><trkpt lat="42.75668691480924" lon="10.207228494122957"><ele>216.0</ele><time>2026-04-26T08:24:26.017Z</time></trkpt><trkpt lat="42.75657962146717" lon="10.207194776031903"><ele>215.60000000000002</ele><time>2026-04-26T08:24:27.017Z</time></trkpt><trkpt lat="42.75646958442099" lon="10.207175676634227"><ele>215.20000000000002</ele><time>2026-04-26T08:24:28.017Z</time></trkpt><trkpt lat="42.75636282908311" lon="10.207223378382063"><ele>214.79999999999998</ele><time>2026-04-26T08:24:29.017Z</time></trkpt><trkpt lat="42.75627466525443" lon="10.20731872994114"><ele>214.39999999999998</ele><time>2026-04-26T08:24:30.017Z</time></trkpt><trkpt lat="42.75621309657421" lon="10.207421636174288"><ele>214.0</ele><time>2026-04-26T08:24:31.017Z</time></trkpt><trkpt lat="42.756181981772755" lon="10.207538685041785"><ele>214.0</ele><time>2026-04-26T08:24:32.017Z</time></trkpt><trkpt lat="42.75619139677849" lon="10.207655444577117"><ele>213.99999999999997</ele><time>2026-04-26T08:24:33.017Z</time></trkpt><trkpt lat="42.75622436686704" lon="10.20776693501068"><ele>213.99999999999997</ele><time>2026-04-26T08:24:34.017Z</time></trkpt><trkpt lat="42.756248721665635" lon="10.207900046021393"><ele>214.0</ele><time>2026-04-26T08:24:35.017Z</time></trkpt><trkpt lat="42.756259687177376" lon="10.208045609146486"><ele>214.0</ele><time>2026-04-26T08:24:36.017Z</time></trkpt><trkpt lat="42.75626483711903" lon="10.20819207179334"><ele>211.0</ele><time>2026-04-26T08:24:37.017Z</time></trkpt><trkpt lat="42.75625567451052" lon="10.208354007465095"><ele>208.0</ele><time>2026-04-26T08:24:38.017Z</time></trkpt><trkpt lat="42.75622354842443" lon="10.208523898316855"><ele>205.0</ele><time>2026-04-26T08:24:39.017Z</time></trkpt><trkpt lat="42.756192225985416" lon="10.208674025951634"><ele>202.0</ele><time>2026-04-26T08:24:40.017Z</time></trkpt><trkpt lat="42.756187484703425" lon="10.208816811287498"><ele>202.0</ele><time>2026-04-26T08:24:41.017Z</time></trkpt><trkpt lat="42.75622039615515" lon="10.208940573826528"><ele>202.0</ele><time>2026-04-26T08:24:42.017Z</time></trkpt><trkpt lat="42.756290307815036" lon="10.209046362975212"><ele>202.0</ele><time>2026-04-26T08:24:43.017Z</time></trkpt><trkpt lat="42.75638109764534" lon="10.209120503666401"><ele>202.0</ele><time>2026-04-26T08:24:44.017Z</time></trkpt><trkpt lat="42.75646745264663" lon="10.209185364866304"><ele>202.0</ele><time>2026-04-26T08:24:45.017Z</time></trkpt><trkpt lat="42.756537712587324" lon="10.209262843558712"><ele>201.2</ele><time>2026-04-26T08:24:46.017Z</time></trkpt><trkpt lat="42.75657745614831" lon="10.20936005956137"><ele>200.39999999999998</ele><time>2026-04-26T08:24:47.017Z</time></trkpt><trkpt lat="42.75656571969592" lon="10.209470708752633"><ele>199.60000000000002</ele><time>2026-04-26T08:24:48.017Z</time></trkpt><trkpt lat="42.7565111883865" lon="10.209570281200644"><ele>198.8</ele><time>2026-04-26T08:24:49.017Z</time></trkpt><trkpt lat="42.75642623144426" lon="10.209654198667744"><ele>198.0</ele><time>2026-04-26T08:24:50.016Z</time></trkpt><trkpt lat="42.7563339384756" lon="10.209741838057825"><ele>197.4</ele><time>2026-04-26T08:24:51.016Z</time></trkpt><trkpt lat="42.75624365518731" lon="10.209830929083799"><ele>196.8</ele><time>2026-04-26T08:24:52.016Z</time></trkpt><trkpt lat="42.75615664740778" lon="10.209915921956702"><ele>196.2</ele><time>2026-04-26T08:24:53.016Z</time></trkpt><trkpt lat="42.75607055280773" lon="10.209993290666317"><ele>195.6</ele><time>2026-04-26T08:24:54.016Z</time></trkpt><trkpt lat="42.755983694101225" lon="10.210061298135516"><ele>195.0</ele><time>2026-04-26T08:24:55.016Z</time></trkpt><trkpt lat="42.75589766951558" lon="10.210109549230705"><ele>196.6</ele><time>2026-04-26T08:24:56.016Z</time></trkpt><trkpt lat="42.755809337520226" lon="10.210143081733007"><ele>198.2</ele><time>2026-04-26T08:24:57.016Z</time></trkpt><trkpt lat="42.75571374832512" lon="10.210174278255796"><ele>199.8</ele><time>2026-04-26T08:24:58.016Z</time></trkpt><trkpt lat="42.7556268381873" lon="10.210211156467306"><ele>201.4</ele><time>2026-04-26T08:24:59.016Z</time></trkpt><trkpt lat="42.75554760802661" lon="10.210278657908376"><ele>203.0</ele><time>2026-04-26T08:25:00.016Z</time></trkpt><trkpt lat="42.75547737069273" lon="10.210352803373587"><ele>203.00000000000003</ele><time>2026-04-26T08:25:01.016Z</time></trkpt><trkpt lat="42.755397700537465" lon="10.210409350394315"><ele>203.0</ele><time>2026-04-26T08:25:02.016Z</time></trkpt><trkpt lat="42.75531741866368" lon="10.210440554402744"><ele>203.0</ele><time>2026-04-26T08:25:03.016Z</time></trkpt><trkpt lat="42.755240329728956" lon="10.210446407477567"><ele>203.0</ele><time>2026-04-26T08:25:04.016Z</time></trkpt><trkpt lat="42.755161137070985" lon="10.210425483220419"><ele>203.00000000000003</ele><time>2026-04-26T08:25:05.016Z</time></trkpt><trkpt lat="42.75509739235506" lon="10.21036252848963"><ele>203.0</ele><time>2026-04-26T08:25:06.016Z</time></trkpt><trkpt lat="42.755038349450174" lon="10.210260883545159"><ele>202.33333333333334</ele><time>2026-04-26T08:25:07.016Z</time></trkpt><trkpt lat="42.755014745294034" lon="10.210145371880316"><ele>201.66666666666669</ele><time>2026-04-26T08:25:08.016Z</time></trkpt><trkpt lat="42.75501503463805" lon="10.210026252778087"><ele>201.0</ele><time>2026-04-26T08:25:09.016Z</time></trkpt><trkpt lat="42.75503462730179" lon="10.209902243654223"><ele>200.33333333333331</ele><time>2026-04-26T08:25:10.016Z</time></trkpt><trkpt lat="42.75504886343664" lon="10.20979127638182"><ele>199.66666666666666</ele><time>2026-04-26T08:25:11.016Z</time></trkpt><trkpt lat="42.755034637742426" lon="10.209691224776787"><ele>199.0</ele><time>2026-04-26T08:25:12.016Z</time></trkpt><trkpt lat="42.75499681982323" lon="10.209605088513845"><ele>199.0</ele><time>2026-04-26T08:25:13.016Z</time></trkpt><trkpt lat="42.75492888302503" lon="10.209560378526003"><ele>199.0</ele><time>2026-04-26T08:25:14.016Z</time></trkpt><trkpt lat="42.75486139461044" lon="10.209564239818087"><ele>199.0</ele><time>2026-04-26T08:25:15.016Z</time></trkpt><trkpt lat="42.754797031069344" lon="10.20963846877847"><ele>199.0</ele><time>2026-04-26T08:25:16.016Z</time></trkpt><trkpt lat="42.754721917003785" lon="10.20974959141672"><ele>199.0</ele><time>2026-04-26T08:25:17.016Z</time></trkpt><trkpt lat="42.75464115868945" lon="10.209871034907295"><ele>199.0</ele><time>2026-04-26T08:25:18.016Z</time></trkpt><trkpt lat="42.75455305748875" lon="10.209994275840394"><ele>199.0</ele><time>2026-04-26T08:25:19.016Z</time></trkpt><trkpt lat="42.75447653858345" lon="10.21010758809503"><ele>199.0</ele><time>2026-04-26T08:25:20.016Z</time></trkpt><trkpt lat="42.7544048393562" lon="10.210208679802316"><ele>199.0</ele><time>2026-04-26T08:25:21.016Z</time></trkpt><trkpt lat="42.75432806676166" lon="10.210287679306749"><ele>199.0</ele><time>2026-04-26T08:25:22.016Z</time></trkpt><trkpt lat="42.754252413886746" lon="10.210325186181576"><ele>199.66666666666666</ele><time>2026-04-26T08:25:23.016Z</time></trkpt><trkpt lat="42.754159547207884" lon="10.210338256132045"><ele>200.33333333333331</ele><time>2026-04-26T08:25:24.016Z</time></trkpt><trkpt lat="42.754083904094244" lon="10.210393775179073"><ele>201.0</ele><time>2026-04-26T08:25:25.016Z</time></trkpt><trkpt lat="42.75401167856618" lon="10.210469386938378"><ele>201.66666666666669</ele><time>2026-04-26T08:25:26.016Z</time></trkpt><trkpt lat="42.753987108604" lon="10.210559617804726"><ele>202.33333333333334</ele><time>2026-04-26T08:25:27.016Z</time></trkpt><trkpt lat="42.75398338854075" lon="10.210696655781089"><ele>203.0</ele><time>2026-04-26T08:25:28.016Z</time></trkpt><trkpt lat="42.754000510225296" lon="10.210839150134307"><ele>199.60000000000002</ele><time>2026-04-26T08:25:29.016Z</time></trkpt><trkpt lat="42.754015910609006" lon="10.210976964964491"><ele>196.20000000000002</ele><time>2026-04-26T08:25:30.016Z</time></trkpt><trkpt lat="42.7540178029733" lon="10.211107512378334"><ele>192.8</ele><time>2026-04-26T08:25:31.016Z</time></trkpt><trkpt lat="42.7539734321751" lon="10.21126554531937"><ele>189.4</ele><time>2026-04-26T08:25:32.016Z</time></trkpt><trkpt lat="42.753926552236926" lon="10.2114141489128"><ele>186.0</ele><time>2026-04-26T08:25:33.016Z</time></trkpt><trkpt lat="42.75389927315612" lon="10.211557906101982"><ele>184.20000000000002</ele><time>2026-04-26T08:25:34.016Z</time></trkpt><trkpt lat="42.75389359884176" lon="10.211702360333762"><ele>182.4</ele><time>2026-04-26T08:25:35.016Z</time></trkpt><trkpt lat="42.75391252779011" lon="10.211840926587273"><ele>180.6</ele><time>2026-04-26T08:25:36.016Z</time></trkpt><trkpt lat="42.75394636655404" lon="10.211981422230014"><ele>178.8</ele><time>2026-04-26T08:25:37.016Z</time></trkpt><trkpt lat="42.753977397754085" lon="10.212118066517291"><ele>177.0</ele><time>2026-04-26T08:25:38.016Z</time></trkpt><trkpt lat="42.75399475296536" lon="10.21224384198869"><ele>176.0</ele><time>2026-04-26T08:25:39.016Z</time></trkpt><trkpt lat="42.75398697009544" lon="10.212368311378661"><ele>175.0</ele><time>2026-04-26T08:25:40.016Z</time></trkpt><trkpt lat="42.75394095593688" lon="10.212480053164287"><ele>174.0</ele><time>2026-04-26T08:25:41.016Z</time></trkpt><trkpt lat="42.75386228587064" lon="10.21256504747771"><ele>173.0</ele><time>2026-04-26T08:25:42.016Z</time></trkpt><trkpt lat="42.75375732859" lon="10.21262713808555"><ele>172.0</ele><time>2026-04-26T08:25:43.016Z</time></trkpt><trkpt lat="42.753641831823984" lon="10.21269812766399"><ele>173.0</ele><time>2026-04-26T08:25:44.016Z</time></trkpt><trkpt lat="42.7535247030627" lon="10.212811840041537"><ele>174.0</ele><time>2026-04-26T08:25:45.016Z</time></trkpt><trkpt lat="42.753414167528376" lon="10.212930263697055"><ele>175.0</ele><time>2026-04-26T08:25:46.016Z</time></trkpt><trkpt lat="42.75331496242035" lon="10.213044258996634"><ele>176.0</ele><time>2026-04-26T08:25:47.016Z</time></trkpt><trkpt lat="42.7532342114566" lon="10.213159550005237"><ele>176.0</ele><time>2026-04-26T08:25:48.016Z</time></trkpt><trkpt lat="42.75317737517345" lon="10.213296389173335"><ele>176.0</ele><time>2026-04-26T08:25:49.016Z</time></trkpt><trkpt lat="42.75314947883757" lon="10.213449191093412"><ele>176.0</ele><time>2026-04-26T08:25:50.016Z</time></trkpt><trkpt lat="42.75312595025116" lon="10.21362136079385"><ele>176.0</ele><time>2026-04-26T08:25:51.016Z</time></trkpt><trkpt lat="42.753094268177804" lon="10.213794081737806"><ele>176.0</ele><time>2026-04-26T08:25:52.016Z</time></trkpt><trkpt lat="42.75306639078089" lon="10.21397411564958"><ele>176.0</ele><time>2026-04-26T08:25:53.016Z</time></trkpt><trkpt lat="42.75304935568406" lon="10.214142826540037"><ele>176.0</ele><time>2026-04-26T08:25:54.015Z</time></trkpt><trkpt lat="42.75304611353435" lon="10.214322225592046"><ele>176.0</ele><time>2026-04-26T08:25:55.015Z</time></trkpt><trkpt lat="42.753034696594945" lon="10.214505987962452"><ele>172.0</ele><time>2026-04-26T08:25:56.015Z</time></trkpt><trkpt lat="42.75304580906182" lon="10.214694741818569"><ele>168.0</ele><time>2026-04-26T08:25:57.015Z</time></trkpt><trkpt lat="42.753054471831035" lon="10.214885884347622"><ele>164.0</ele><time>2026-04-26T08:25:58.015Z</time></trkpt><trkpt lat="42.75307151689964" lon="10.215091929072422"><ele>160.0</ele><time>2026-04-26T08:25:59.015Z</time></trkpt><trkpt lat="42.753095474862704" lon="10.215264192490025"><ele>160.0</ele><time>2026-04-26T08:26:00.015Z</time></trkpt><trkpt lat="42.75311132556773" lon="10.215433442694883"><ele>160.0</ele><time>2026-04-26T08:26:01.015Z</time></trkpt><trkpt lat="42.753112884014385" lon="10.215559885985225"><ele>160.0</ele><time>2026-04-26T08:26:02.015Z</time></trkpt><trkpt lat="42.7530959547184" lon="10.215658510269462"><ele>160.0</ele><time>2026-04-26T08:26:03.015Z</time></trkpt><trkpt lat="42.75303703241451" lon="10.215748614409149"><ele>160.0</ele><time>2026-04-26T08:26:04.015Z</time></trkpt><trkpt lat="42.75293854317528" lon="10.215806287874843"><ele>160.33333333333334</ele><time>2026-04-26T08:26:06.015Z</time></trkpt><trkpt lat="42.7528571956335" lon="10.215817352860023"><ele>160.66666666666669</ele><time>2026-04-26T08:26:09.015Z</time></trkpt><trkpt lat="42.75278905176829" lon="10.215793523189186"><ele>161.0</ele><time>2026-04-26T08:26:12.015Z</time></trkpt><trkpt lat="42.752737637570284" lon="10.215859717665785"><ele>161.33333333333334</ele><time>2026-04-26T08:26:16.016Z</time></trkpt><trkpt lat="42.7526154884078" lon="10.215851909924396"><ele>161.66666666666666</ele><time>2026-04-26T08:27:44.016Z</time></trkpt><trkpt lat="42.752672560324086" lon="10.215907228425"><ele>162.0</ele><time>2026-04-26T08:28:14.015Z</time></trkpt><trkpt lat="42.75272615102615" lon="10.215973158297503"><ele>160.83333333333334</ele><time>2026-04-26T08:28:21.017Z</time></trkpt><trkpt lat="42.752754459176344" lon="10.216066697856592"><ele>159.66666666666666</ele><time>2026-04-26T08:28:23.017Z</time></trkpt><trkpt lat="42.75277177613299" lon="10.21616361288492"><ele>158.5</ele><time>2026-04-26T08:28:25.017Z</time></trkpt><trkpt lat="42.75282399259343" lon="10.216259234775727"><ele>157.33333333333331</ele><time>2026-04-26T08:28:27.018Z</time></trkpt><trkpt lat="42.752907175193265" lon="10.21634402838988"><ele>156.16666666666666</ele><time>2026-04-26T08:28:29.017Z</time></trkpt><trkpt lat="42.752995046002624" lon="10.216406948477925"><ele>155.0</ele><time>2026-04-26T08:28:31.017Z</time></trkpt><trkpt lat="42.75308274172805" lon="10.216471667559908"><ele>153.33333333333331</ele><time>2026-04-26T08:28:33.017Z</time></trkpt><trkpt lat="42.75314860952898" lon="10.216551249359258"><ele>151.66666666666666</ele><time>2026-04-26T08:28:35.017Z</time></trkpt><trkpt lat="42.75321206758208" lon="10.216593607471905"><ele>150.0</ele><time>2026-04-26T08:28:37.017Z</time></trkpt><trkpt lat="42.75324947971888" lon="10.216675692362644"><ele>148.33333333333334</ele><time>2026-04-26T08:28:39.017Z</time></trkpt><trkpt lat="42.753240608826495" lon="10.216803989976514"><ele>146.66666666666669</ele><time>2026-04-26T08:28:41.017Z</time></trkpt><trkpt lat="42.7532114951471" lon="10.216886894654621"><ele>145.0</ele><time>2026-04-26T08:28:43.017Z</time></trkpt><trkpt lat="42.75314675938382" lon="10.216914486860874"><ele>145.0</ele><time>2026-04-26T08:28:45.017Z</time></trkpt><trkpt lat="42.75308608703039" lon="10.216829705287427"><ele>145.0</ele><time>2026-04-26T08:28:48.017Z</time></trkpt><trkpt lat="42.753024206666325" lon="10.216804447304293"><ele>145.0</ele><time>2026-04-26T08:28:50.017Z</time></trkpt><trkpt lat="42.75297767112154" lon="10.216866314884724"><ele>145.0</ele><time>2026-04-26T08:28:53.017Z</time></trkpt><trkpt lat="42.75300582519948" lon="10.21697261128701"><ele>145.0</ele><time>2026-04-26T08:28:56.017Z</time></trkpt><trkpt lat="42.75303569615933" lon="10.217064906196065"><ele>145.0</ele><time>2026-04-26T08:28:58.017Z</time></trkpt><trkpt lat="42.75303975289737" lon="10.217166174577846"><ele>145.0</ele><time>2026-04-26T08:29:01.016Z</time></trkpt><trkpt lat="42.753067267213545" lon="10.217269861859346"><ele>142.83333333333334</ele><time>2026-04-26T08:29:05.016Z</time></trkpt><trkpt lat="42.75309169872317" lon="10.217360377307958"><ele>140.66666666666669</ele><time>2026-04-26T08:29:07.016Z</time></trkpt><trkpt lat="42.75315017304981" lon="10.217436315416958"><ele>138.5</ele><time>2026-04-26T08:29:09.016Z</time></trkpt><trkpt lat="42.753208042921116" lon="10.21752313024021"><ele>136.33333333333334</ele><time>2026-04-26T08:29:11.016Z</time></trkpt><trkpt lat="42.753292156767344" lon="10.21760032285717"><ele>134.16666666666666</ele><time>2026-04-26T08:29:13.016Z</time></trkpt><trkpt lat="42.75333684337248" lon="10.21767855747911"><ele>132.0</ele><time>2026-04-26T08:29:15.016Z</time></trkpt><trkpt lat="42.75340891029067" lon="10.217766377563102"><ele>132.0</ele><time>2026-04-26T08:29:17.016Z</time></trkpt><trkpt lat="42.75345138828494" lon="10.217873128725191"><ele>132.0</ele><time>2026-04-26T08:29:20.016Z</time></trkpt><trkpt lat="42.75352177820141" lon="10.217927333650158"><ele>132.0</ele><time>2026-04-26T08:29:23.016Z</time></trkpt><trkpt lat="42.75360495300767" lon="10.217965656542166"><ele>132.0</ele><time>2026-04-26T08:29:26.016Z</time></trkpt><trkpt lat="42.75368124118641" lon="10.21800166564532"><ele>132.0</ele><time>2026-04-26T08:29:28.016Z</time></trkpt><trkpt lat="42.753742398983405" lon="10.218074261582174"><ele>132.0</ele><time>2026-04-26T08:29:30.016Z</time></trkpt><trkpt lat="42.753802413088465" lon="10.218102077925613"><ele>128.57142857142856</ele><time>2026-04-26T08:29:32.016Z</time></trkpt><trkpt lat="42.75386888972788" lon="10.218104515618279"><ele>125.14285714285715</ele><time>2026-04-26T08:29:34.016Z</time></trkpt><trkpt lat="42.7539156817524" lon="10.218027094365839"><ele>121.71428571428572</ele><time>2026-04-26T08:29:36.016Z</time></trkpt><trkpt lat="42.75395566190084" lon="10.217949213700177"><ele>118.28571428571428</ele><time>2026-04-26T08:29:39.016Z</time></trkpt><trkpt lat="42.75400694337693" lon="10.217885107661369"><ele>114.85714285714286</ele><time>2026-04-26T08:29:42.016Z</time></trkpt><trkpt lat="42.75402631139057" lon="10.217977213288226"><ele>111.42857142857143</ele><time>2026-04-26T08:29:46.016Z</time></trkpt><trkpt lat="42.75402500192754" lon="10.218063057652449"><ele>108.0</ele><time>2026-04-26T08:29:49.016Z</time></trkpt><trkpt lat="42.754027551093735" lon="10.21816424646654"><ele>106.5</ele><time>2026-04-26T08:29:51.016Z</time></trkpt><trkpt lat="42.75402919181126" lon="10.218265888485913"><ele>105.0</ele><time>2026-04-26T08:29:53.016Z</time></trkpt><trkpt lat="42.75400950835404" lon="10.218366462013737"><ele>103.5</ele><time>2026-04-26T08:29:56.016Z</time></trkpt><trkpt lat="42.75398778024872" lon="10.218458853310594"><ele>102.0</ele><time>2026-04-26T08:30:00.016Z</time></trkpt><trkpt lat="42.75397527027196" lon="10.218562989767442"><ele>100.5</ele><time>2026-04-26T08:30:02.016Z</time></trkpt><trkpt lat="42.75396134632852" lon="10.218672093705816"><ele>99.0</ele><time>2026-04-26T08:30:04.015Z</time></trkpt><trkpt lat="42.75395666230642" lon="10.21876798360987"><ele>99.0</ele><time>2026-04-26T08:30:06.015Z</time></trkpt><trkpt lat="42.753943814902776" lon="10.218877634550811"><ele>99.0</ele><time>2026-04-26T08:30:09.015Z</time></trkpt><trkpt lat="42.75391784727132" lon="10.218994539083164"><ele>99.0</ele><time>2026-04-26T08:30:18.015Z</time></trkpt><trkpt lat="42.75388117025069" lon="10.219114536736576"><ele>99.0</ele><time>2026-04-26T08:30:21.015Z</time></trkpt><trkpt lat="42.753848061823454" lon="10.219216113560242"><ele>99.0</ele><time>2026-04-26T08:30:23.015Z</time></trkpt><trkpt lat="42.75377849407516" lon="10.219235518297621"><ele>99.0</ele><time>2026-04-26T08:30:25.017Z</time></trkpt><trkpt lat="42.75370799377224" lon="10.219239348047134"><ele>97.85714285714286</ele><time>2026-04-26T08:30:27.015Z</time></trkpt><trkpt lat="42.753625471034184" lon="10.219269106012458"><ele>96.71428571428571</ele><time>2026-04-26T08:30:29.013Z</time></trkpt><trkpt lat="42.75356330281433" lon="10.219352910579786"><ele>95.57142857142857</ele><time>2026-04-26T08:30:31.011Z</time></trkpt><trkpt lat="42.75350081651065" lon="10.219395545432011"><ele>94.42857142857143</ele><time>2026-04-26T08:30:33.01Z</time></trkpt><trkpt lat="42.75343746922151" lon="10.219374031681976"><ele>93.28571428571428</ele><time>2026-04-26T08:30:53.002Z</time></trkpt><trkpt lat="42.7533722863696" lon="10.219387325118714"><ele>92.14285714285714</ele><time>2026-04-26T08:30:57.001Z</time></trkpt><trkpt lat="42.75330228645975" lon="10.21938726682715"><ele>91.0</ele><time>2026-04-26T08:31:27.999Z</time></trkpt><trkpt lat="42.7532390456991" lon="10.219411745399105"><ele>91.0</ele><time>2026-04-26T08:31:31.999Z</time></trkpt><trkpt lat="42.75317611524106" lon="10.219404052962318"><ele>91.0</ele><time>2026-04-26T08:31:37.998Z</time></trkpt><trkpt lat="42.75311999065666" lon="10.219488716710083"><ele>91.0</ele><time>2026-04-26T08:31:41.998Z</time></trkpt><trkpt lat="42.75305826633831" lon="10.21956691052294"><ele>91.0</ele><time>2026-04-26T08:31:44.998Z</time></trkpt><trkpt lat="42.75301078225634" lon="10.21963053205717"><ele>91.0</ele><time>2026-04-26T08:31:47.998Z</time></trkpt><trkpt lat="42.75293757488165" lon="10.219686270710717"><ele>91.0</ele><time>2026-04-26T08:31:51.998Z</time></trkpt><trkpt lat="42.75287795824896" lon="10.219748899407048"><ele>88.57142857142857</ele><time>2026-04-26T08:31:54.998Z</time></trkpt><trkpt lat="42.7528576853638" lon="10.219831084766382"><ele>86.14285714285714</ele><time>2026-04-26T08:31:57.998Z</time></trkpt><trkpt lat="42.75286917119986" lon="10.219924394935992"><ele>83.71428571428572</ele><time>2026-04-26T08:32:01.998Z</time></trkpt><trkpt lat="42.752875174996646" lon="10.220016125539946"><ele>81.28571428571428</ele><time>2026-04-26T08:32:04.998Z</time></trkpt><trkpt lat="42.752830755619634" lon="10.220086148533518"><ele>78.85714285714286</ele><time>2026-04-26T08:32:07.998Z</time></trkpt><trkpt lat="42.75279798175317" lon="10.220196931730094"><ele>76.42857142857143</ele><time>2026-04-26T08:32:11.998Z</time></trkpt><trkpt lat="42.75285587642861" lon="10.220237179753086"><ele>74.0</ele><time>2026-04-26T08:32:14.997Z</time></trkpt><trkpt lat="42.75287503889645" lon="10.220319235899629"><ele>74.0</ele><time>2026-04-26T08:32:17.997Z</time></trkpt><trkpt lat="42.752822228740506" lon="10.220419886846255"><ele>74.0</ele><time>2026-04-26T08:32:20.997Z</time></trkpt><trkpt lat="42.752746700505554" lon="10.220480230974498"><ele>74.0</ele><time>2026-04-26T08:32:23.997Z</time></trkpt><trkpt lat="42.75270515047171" lon="10.220544925184194"><ele>74.0</ele><time>2026-04-26T08:32:24.997Z</time></trkpt><trkpt lat="42.75267145639752" lon="10.22061885122339"><ele>74.0</ele><time>2026-04-26T08:32:25.997Z</time></trkpt><trkpt lat="42.75269785810477" lon="10.22071361674129"><ele>74.0</ele><time>2026-04-26T08:32:27.997Z</time></trkpt><trkpt lat="42.75267585651033" lon="10.220834231628535"><ele>70.5</ele><time>2026-04-26T08:32:30.999Z</time></trkpt><trkpt lat="42.75258657879518" lon="10.220920718923868"><ele>67.0</ele><time>2026-04-26T08:32:32.999Z</time></trkpt><trkpt lat="42.75251820923772" lon="10.220906671285237"><ele>63.5</ele><time>2026-04-26T08:32:34.999Z</time></trkpt><trkpt lat="42.752460660891565" lon="10.220945829720455"><ele>60.0</ele><time>2026-04-26T08:32:38.999Z</time></trkpt><trkpt lat="42.75240751190429" lon="10.221061244476692"><ele>56.50000000000001</ele><time>2026-04-26T08:33:03.999Z</time></trkpt><trkpt lat="42.752309750696554" lon="10.221065164161354"><ele>53.0</ele><time>2026-04-26T08:33:36.999Z</time></trkpt><trkpt lat="42.7522268045055" lon="10.221054685252415"><ele>53.00000000000001</ele><time>2026-04-26T08:33:38.999Z</time></trkpt><trkpt lat="42.752164312448265" lon="10.221100341823703"><ele>53.0</ele><time>2026-04-26T08:33:40.999Z</time></trkpt><trkpt lat="42.75211895608641" lon="10.221172200089866"><ele>53.0</ele><time>2026-04-26T08:33:41.999Z</time></trkpt><trkpt lat="42.75205280063471" lon="10.221243836990501"><ele>53.0</ele><time>2026-04-26T08:33:42.999Z</time></trkpt><trkpt lat="42.751991136821" lon="10.221329213849875"><ele>53.00000000000001</ele><time>2026-04-26T08:33:43.999Z</time></trkpt><trkpt lat="42.75194249717911" lon="10.221410259032695"><ele>53.0</ele><time>2026-04-26T08:33:44.999Z</time></trkpt><trkpt lat="42.75189175004315" lon="10.221539126150537"><ele>49.6</ele><time>2026-04-26T08:33:46.999Z</time></trkpt><trkpt lat="42.75187188995278" lon="10.221651681417905"><ele>46.199999999999996</ele><time>2026-04-26T08:33:48.999Z</time></trkpt><trkpt lat="42.75183274833969" lon="10.221777762721171"><ele>42.8</ele><time>2026-04-26T08:33:50.999Z</time></trkpt><trkpt lat="42.751788286567084" lon="10.221890323841581"><ele>39.4</ele><time>2026-04-26T08:33:52.999Z</time></trkpt><trkpt lat="42.75173884805746" lon="10.22199551913631"><ele>36.0</ele><time>2026-04-26T08:33:54.998Z</time></trkpt><trkpt lat="42.75173523635225" lon="10.222137324512493"><ele>36.0</ele><time>2026-04-26T08:33:57.998Z</time></trkpt><trkpt lat="42.75173109322734" lon="10.222244139861747"><ele>36.0</ele><time>2026-04-26T08:33:58.998Z</time></trkpt><trkpt lat="42.751737820398866" lon="10.222369721226032"><ele>36.0</ele><time>2026-04-26T08:33:59.998Z</time></trkpt><trkpt lat="42.751738053629346" lon="10.222481837218922"><ele>36.0</ele><time>2026-04-26T08:34:00.998Z</time></trkpt><trkpt lat="42.75173050349477" lon="10.222595614971084"><ele>36.0</ele><time>2026-04-26T08:34:01.998Z</time></trkpt><trkpt lat="42.751712815004545" lon="10.22271682927323"><ele>36.0</ele><time>2026-04-26T08:34:02.998Z</time></trkpt><trkpt lat="42.75169590861126" lon="10.222822243690857"><ele>35.0</ele><time>2026-04-26T08:34:03.998Z</time></trkpt><trkpt lat="42.751696925892226" lon="10.222916513334424"><ele>34.0</ele><time>2026-04-26T08:34:04.998Z</time></trkpt><trkpt lat="42.75171317656319" lon="10.223019800730391"><ele>33.0</ele><time>2026-04-26T08:34:05.998Z</time></trkpt><trkpt lat="42.751730343103155" lon="10.22313963508071"><ele>32.0</ele><time>2026-04-26T08:34:06.998Z</time></trkpt><trkpt lat="42.75173985987087" lon="10.223263179357481"><ele>31.0</ele><time>2026-04-26T08:34:07.998Z</time></trkpt><trkpt lat="42.75173740131829" lon="10.22338669333578"><ele>30.0</ele><time>2026-04-26T08:34:08.998Z</time></trkpt><trkpt lat="42.75174234454931" lon="10.223498021513654"><ele>29.333333333333332</ele><time>2026-04-26T08:34:09.998Z</time></trkpt><trkpt lat="42.75175034554576" lon="10.22361093391263"><ele>28.666666666666664</ele><time>2026-04-26T08:34:10.998Z</time></trkpt><trkpt lat="42.751755398937014" lon="10.2237166503536"><ele>28.0</ele><time>2026-04-26T08:34:11.998Z</time></trkpt><trkpt lat="42.75176506910937" lon="10.223824896402684"><ele>27.333333333333332</ele><time>2026-04-26T08:34:12.998Z</time></trkpt><trkpt lat="42.75177484433445" lon="10.223924334006862"><ele>26.666666666666664</ele><time>2026-04-26T08:34:13.998Z</time></trkpt><trkpt lat="42.75178314598844" lon="10.224041218096954"><ele>26.0</ele><time>2026-04-26T08:34:14.998Z</time></trkpt><trkpt lat="42.75182221714793" lon="10.224146012285718"><ele>25.333333333333332</ele><time>2026-04-26T08:34:15.998Z</time></trkpt><trkpt lat="42.75186489239639" lon="10.224235488251388"><ele>24.666666666666664</ele><time>2026-04-26T08:34:16.998Z</time></trkpt><trkpt lat="42.75189060914281" lon="10.224318281831536"><ele>24.0</ele><time>2026-04-26T08:34:17.998Z</time></trkpt><trkpt lat="42.751914035658615" lon="10.224437178153494"><ele>23.333333333333332</ele><time>2026-04-26T08:34:18.998Z</time></trkpt><trkpt lat="42.75193161072587" lon="10.224535220782483"><ele>22.666666666666664</ele><time>2026-04-26T08:34:19.998Z</time></trkpt><trkpt lat="42.75194262346042" lon="10.224646908220976"><ele>22.0</ele><time>2026-04-26T08:34:20.998Z</time></trkpt><trkpt lat="42.75195421870443" lon="10.224737158736884"><ele>21.0</ele><time>2026-04-26T08:34:21.998Z</time></trkpt><trkpt lat="42.75196807052968" lon="10.224836792537722"><ele>20.0</ele><time>2026-04-26T08:34:22.998Z</time></trkpt><trkpt lat="42.7519813514597" lon="10.224944526600623"><ele>19.0</ele><time>2026-04-26T08:34:23.998Z</time></trkpt><trkpt lat="42.75200005310663" lon="10.225045921306602"><ele>18.0</ele><time>2026-04-26T08:34:24.998Z</time></trkpt><trkpt lat="42.75201953383825" lon="10.225167518254604"><ele>17.0</ele><time>2026-04-26T08:34:25.998Z</time></trkpt><trkpt lat="42.752034073752334" lon="10.22528115093236"><ele>16.0</ele><time>2026-04-26T08:34:26.998Z</time></trkpt><trkpt lat="42.752032603295376" lon="10.2253738471528"><ele>15.999999999999998</ele><time>2026-04-26T08:34:27.998Z</time></trkpt><trkpt lat="42.75203274473419" lon="10.225529511597419"><ele>16.0</ele><time>2026-04-26T08:34:29.998Z</time></trkpt><trkpt lat="42.75202965173008" lon="10.225620531652387"><ele>16.0</ele><time>2026-04-26T08:34:32.998Z</time></trkpt><trkpt lat="42.75206043531779" lon="10.225722948286547"><ele>16.0</ele><time>2026-04-26T08:34:34.998Z</time></trkpt><trkpt lat="42.752067025160734" lon="10.225833916222493"><ele>15.999999999999998</ele><time>2026-04-26T08:34:37Z</time></trkpt><trkpt lat="42.752071548266045" lon="10.225925516138927"><ele>16.0</ele><time>2026-04-26T08:34:39Z</time></trkpt><trkpt lat="42.75208902206942" lon="10.226032256953498"><ele>15.666666666666666</ele><time>2026-04-26T08:34:41Z</time></trkpt><trkpt lat="42.75213596246043" lon="10.226130903456255"><ele>15.333333333333332</ele><time>2026-04-26T08:34:43Z</time></trkpt><trkpt lat="42.75219258617562" lon="10.226181484831772"><ele>15.0</ele><time>2026-04-26T08:34:45Z</time></trkpt><trkpt lat="42.75225499176565" lon="10.22621237339226"><ele>14.666666666666668</ele><time>2026-04-26T08:34:47Z</time></trkpt><trkpt lat="42.75233233242822" lon="10.226246394673888"><ele>14.333333333333334</ele><time>2026-04-26T08:34:49Z</time></trkpt><trkpt lat="42.75241405794651" lon="10.226282113339591"><ele>14.0</ele><time>2026-04-26T08:34:51Z</time></trkpt><trkpt lat="42.75248987241292" lon="10.226315356763273"><ele>14.0</ele><time>2026-04-26T08:34:53Z</time></trkpt><trkpt lat="42.75256158370399" lon="10.226357547112054"><ele>13.999999999999998</ele><time>2026-04-26T08:34:56Z</time></trkpt><trkpt lat="42.752636151586444" lon="10.22640773950806"><ele>13.999999999999998</ele><time>2026-04-26T08:34:58Z</time></trkpt><trkpt lat="42.75273272787042" lon="10.226462458914249"><ele>14.0</ele><time>2026-04-26T08:35:00Z</time></trkpt><trkpt lat="42.7528144093459" lon="10.226585117018425"><ele>14.0</ele><time>2026-04-26T08:35:02Z</time></trkpt><trkpt lat="42.7528319477321" lon="10.226731234416386"><ele>13.833333333333334</ele><time>2026-04-26T08:35:04Z</time></trkpt><trkpt lat="42.75282833555463" lon="10.226877760969238"><ele>13.666666666666668</ele><time>2026-04-26T08:35:06Z</time></trkpt><trkpt lat="42.752844261611585" lon="10.226985076941457"><ele>13.5</ele><time>2026-04-26T08:35:08Z</time></trkpt><trkpt lat="42.75285774545676" lon="10.227072785721312"><ele>13.333333333333332</ele><time>2026-04-26T08:35:09Z</time></trkpt><trkpt lat="42.7528601715433" lon="10.227166301539622"><ele>13.166666666666666</ele><time>2026-04-26T08:35:10Z</time></trkpt><trkpt lat="42.75286366928532" lon="10.227261021111019"><ele>13.0</ele><time>2026-04-26T08:35:11Z</time></trkpt><trkpt lat="42.75285034555942" lon="10.227361642974111"><ele>12.999999999999998</ele><time>2026-04-26T08:35:12Z</time></trkpt><trkpt lat="42.75283132015865" lon="10.227463482495935"><ele>13.0</ele><time>2026-04-26T08:35:13Z</time></trkpt><trkpt lat="42.75279704543043" lon="10.227565437411926"><ele>13.0</ele><time>2026-04-26T08:35:14Z</time></trkpt><trkpt lat="42.75276314747254" lon="10.227672566595807"><ele>13.0</ele><time>2026-04-26T08:35:15Z</time></trkpt><trkpt lat="42.7527261399281" lon="10.227783401814477"><ele>12.999999999999998</ele><time>2026-04-26T08:35:16Z</time></trkpt><trkpt lat="42.75269648236411" lon="10.227893266156725"><ele>13.0</ele><time>2026-04-26T08:35:17Z</time></trkpt><trkpt lat="42.75266629588173" lon="10.227985814986905"><ele>12.499999999999998</ele><time>2026-04-26T08:35:18Z</time></trkpt><trkpt lat="42.75263998144813" lon="10.228064064510837"><ele>12.0</ele><time>2026-04-26T08:35:19Z</time></trkpt><trkpt lat="42.75265983124765" lon="10.228178662488956"><ele>11.5</ele><time>2026-04-26T08:35:21Z</time></trkpt><trkpt lat="42.75266057323174" lon="10.228311238689402"><ele>11.0</ele><time>2026-04-26T08:35:22.999Z</time></trkpt><trkpt lat="42.752623143774116" lon="10.22838294749407"><ele>10.5</ele><time>2026-04-26T08:35:23.999Z</time></trkpt><trkpt lat="42.752545610992144" lon="10.228452996213496"><ele>10.0</ele><time>2026-04-26T08:35:24.999Z</time></trkpt><trkpt lat="42.752455549867136" lon="10.228551121172474"><ele>10.0</ele><time>2026-04-26T08:35:25.999Z</time></trkpt><trkpt lat="42.752366070750824" lon="10.228651946469851"><ele>10.0</ele><time>2026-04-26T08:35:26.999Z</time></trkpt><trkpt lat="42.752277676758894" lon="10.228754526285158"><ele>10.0</ele><time>2026-04-26T08:35:27.999Z</time></trkpt><trkpt lat="42.75220151233054" lon="10.228854691604996"><ele>10.0</ele><time>2026-04-26T08:35:28.999Z</time></trkpt><trkpt lat="42.75212644454227" lon="10.228955062056695"><ele>10.0</ele><time>2026-04-26T08:35:29.999Z</time></trkpt><trkpt lat="42.75206282617148" lon="10.229058774810765"><ele>9.8</ele><time>2026-04-26T08:35:30.999Z</time></trkpt><trkpt lat="42.75200329134441" lon="10.229178478632045"><ele>9.6</ele><time>2026-04-26T08:35:31.999Z</time></trkpt><trkpt lat="42.7519465723912" lon="10.229287740069868"><ele>9.4</ele><time>2026-04-26T08:35:32.999Z</time></trkpt><trkpt lat="42.75189560824583" lon="10.229397912930636"><ele>9.2</ele><time>2026-04-26T08:35:33.999Z</time></trkpt><trkpt lat="42.75184374626212" lon="10.229508750605886"><ele>9.0</ele><time>2026-04-26T08:35:34.999Z</time></trkpt><trkpt lat="42.75179952440766" lon="10.229620810440421"><ele>8.833333333333334</ele><time>2026-04-26T08:35:35.999Z</time></trkpt><trkpt lat="42.75176960342898" lon="10.229738628593573"><ele>8.666666666666666</ele><time>2026-04-26T08:35:36.999Z</time></trkpt><trkpt lat="42.751760718812875" lon="10.229853949827794"><ele>8.5</ele><time>2026-04-26T08:35:37.999Z</time></trkpt><trkpt lat="42.75176062111277" lon="10.22995095875617"><ele>8.333333333333332</ele><time>2026-04-26T08:35:38.999Z</time></trkpt><trkpt lat="42.75176608571994" lon="10.2300453307376"><ele>8.166666666666666</ele><time>2026-04-26T08:35:39.999Z</time></trkpt><trkpt lat="42.75175867054883" lon="10.230187928922161"><ele>8.0</ele><time>2026-04-26T08:35:40.999Z</time></trkpt><trkpt lat="42.75173006787866" lon="10.230326926602357"><ele>8.0</ele><time>2026-04-26T08:35:41.999Z</time></trkpt><trkpt lat="42.75169270555709" lon="10.230459618967911"><ele>8.0</ele><time>2026-04-26T08:35:42.999Z</time></trkpt><trkpt lat="42.75162548549115" lon="10.230579590035257"><ele>8.0</ele><time>2026-04-26T08:35:43.999Z</time></trkpt><trkpt lat="42.75157174861799" lon="10.230690704741656"><ele>8.0</ele><time>2026-04-26T08:35:44.999Z</time></trkpt><trkpt lat="42.75151189147163" lon="10.230816955881705"><ele>8.0</ele><time>2026-04-26T08:35:45.999Z</time></trkpt><trkpt lat="42.751443472527306" lon="10.230940267436557"><ele>7.75</ele><time>2026-04-26T08:35:46.999Z</time></trkpt><trkpt lat="42.75138688599909" lon="10.231075179209851"><ele>7.5</ele><time>2026-04-26T08:35:47.999Z</time></trkpt><trkpt lat="42.75133971720351" lon="10.231214001125572"><ele>7.25</ele><time>2026-04-26T08:35:48.999Z</time></trkpt><trkpt lat="42.75129701023408" lon="10.231356185967897"><ele>7.0</ele><time>2026-04-26T08:35:49.999Z</time></trkpt><trkpt lat="42.751262149526255" lon="10.231503685309473"><ele>6.5</ele><time>2026-04-26T08:35:50.999Z</time></trkpt><trkpt lat="42.75122958713704" lon="10.23166243671473"><ele>6.0</ele><time>2026-04-26T08:35:51.999Z</time></trkpt><trkpt lat="42.75119368262426" lon="10.231820026631643"><ele>5.5</ele><time>2026-04-26T08:35:52.999Z</time></trkpt><trkpt lat="42.75114955848568" lon="10.231983550576127"><ele>5.0</ele><time>2026-04-26T08:35:53.999Z</time></trkpt><trkpt lat="42.751102787357624" lon="10.23213248513768"><ele>5.0</ele><time>2026-04-26T08:35:54.999Z</time></trkpt><trkpt lat="42.75106083892689" lon="10.232309901064637"><ele>5.0</ele><time>2026-04-26T08:35:55.999Z</time></trkpt><trkpt lat="42.751015920257885" lon="10.23246845953503"><ele>5.0</ele><time>2026-04-26T08:35:56.999Z</time></trkpt><trkpt lat="42.750975471178485" lon="10.23264181155242"><ele>5.0</ele><time>2026-04-26T08:35:57.999Z</time></trkpt><trkpt lat="42.75093223229383" lon="10.232809326858764"><ele>5.0</ele><time>2026-04-26T08:35:58.999Z</time></trkpt><trkpt lat="42.75088636363943" lon="10.232971092897786"><ele>5.0</ele><time>2026-04-26T08:35:59.999Z</time></trkpt><trkpt lat="42.75084372264721" lon="10.233130481856854"><ele>5.0</ele><time>2026-04-26T08:36:00.999Z</time></trkpt><trkpt lat="42.75080502418239" lon="10.233281517969244"><ele>5.0</ele><time>2026-04-26T08:36:01.999Z</time></trkpt><trkpt lat="42.75078126643544" lon="10.233413426343166"><ele>5.0</ele><time>2026-04-26T08:36:02.999Z</time></trkpt><trkpt lat="42.75074635749744" lon="10.23355589290344"><ele>5.0</ele><time>2026-04-26T08:36:03.999Z</time></trkpt><trkpt lat="42.75071589036398" lon="10.233683288769885"><ele>5.0</ele><time>2026-04-26T08:36:04.999Z</time></trkpt><trkpt lat="42.75068348130488" lon="10.233794652811909"><ele>5.0</ele><time>2026-04-26T08:36:05.999Z</time></trkpt><trkpt lat="42.75065071068504" lon="10.233902844501458"><ele>5.0</ele><time>2026-04-26T08:36:06.999Z</time></trkpt><trkpt lat="42.75062694895054" lon="10.234019483827906"><ele>5.0</ele><time>2026-04-26T08:36:07.999Z</time></trkpt><trkpt lat="42.75059097616934" lon="10.234124136295907"><ele>5.0</ele><time>2026-04-26T08:36:08.999Z</time></trkpt><trkpt lat="42.750558584505704" lon="10.234221420919603"><ele>5.0</ele><time>2026-04-26T08:36:09.999Z</time></trkpt><trkpt lat="42.75053502624672" lon="10.234306309071837"><ele>5.0</ele><time>2026-04-26T08:36:10.999Z</time></trkpt><trkpt lat="42.75051443976078" lon="10.234397389253875"><ele>5.0</ele><time>2026-04-26T08:36:12.999Z</time></trkpt><trkpt lat="42.75057200410768" lon="10.234472233725551"><ele>5.0</ele><time>2026-04-26T08:36:16.998Z</time></trkpt><trkpt lat="42.75063575546333" lon="10.234466270620501"><ele>5.0</ele><time>2026-04-26T08:36:19.998Z</time></trkpt><trkpt lat="42.750734494202476" lon="10.234454062259127"><ele>5.0</ele><time>2026-04-26T08:36:28.998Z</time></trkpt><trkpt lat="42.750804798854126" lon="10.234452725839175"><ele>5.0</ele><time>2026-04-26T08:36:29.998Z</time></trkpt><trkpt lat="42.750886486449375" lon="10.234446363958465"><ele>5.0</ele><time>2026-04-26T08:36:30.998Z</time></trkpt><trkpt lat="42.75096740699197" lon="10.234463629284566"><ele>5.0</ele><time>2026-04-26T08:36:31.998Z</time></trkpt><trkpt lat="42.751034578772625" lon="10.234477003419572"><ele>5.0</ele><time>2026-04-26T08:36:32.998Z</time></trkpt><trkpt lat="42.751134809669246" lon="10.234488577203749"><ele>5.0</ele><time>2026-04-26T08:36:33.998Z</time></trkpt><trkpt lat="42.75123532606223" lon="10.234503227291922"><ele>4.6</ele><time>2026-04-26T08:36:34.998Z</time></trkpt><trkpt lat="42.751347475130174" lon="10.234519625132773"><ele>4.2</ele><time>2026-04-26T08:36:35.998Z</time></trkpt><trkpt lat="42.75146602161046" lon="10.234543932388831"><ele>3.8</ele><time>2026-04-26T08:36:36.998Z</time></trkpt><trkpt lat="42.751563645273855" lon="10.23456476399754"><ele>3.4</ele><time>2026-04-26T08:36:37.998Z</time></trkpt><trkpt lat="42.75164813398402" lon="10.234583626109131"><ele>3.0</ele><time>2026-04-26T08:36:38.998Z</time></trkpt><trkpt lat="42.75173398534429" lon="10.234597610202162"><ele>3.0</ele><time>2026-04-26T08:36:39.998Z</time></trkpt><trkpt lat="42.75181137390144" lon="10.234606914235666"><ele>3.0</ele><time>2026-04-26T08:36:40.998Z</time></trkpt><trkpt lat="42.75188519721074" lon="10.234619891016248"><ele>3.0</ele><time>2026-04-26T08:36:41.998Z</time></trkpt><trkpt lat="42.751990548015876" lon="10.23464379601533"><ele>3.0</ele><time>2026-04-26T08:36:43.998Z</time></trkpt><trkpt lat="42.75206123168658" lon="10.234689636519816"><ele>3.0</ele><time>2026-04-26T08:36:45.998Z</time></trkpt><trkpt lat="42.75209384421655" lon="10.234810275646026"><ele>3.0</ele><time>2026-04-26T08:36:48.998Z</time></trkpt><trkpt lat="42.75212596727187" lon="10.234896932860215"><ele>3.0</ele><time>2026-04-26T08:36:51.998Z</time></trkpt><trkpt lat="42.75220554628026" lon="10.234828933238735"><ele>3.0</ele><time>2026-04-26T08:43:04.991Z</time></trkpt><trkpt lat="42.75226373186199" lon="10.234759707865352"><ele>3.0</ele><time>2026-04-26T08:43:07.991Z</time></trkpt><trkpt lat="42.75235656958" lon="10.23472566389435"><ele>3.0</ele><time>2026-04-26T08:43:11.991Z</time></trkpt><trkpt lat="42.75246252667796" lon="10.234736680497692"><ele>3.0</ele><time>2026-04-26T08:43:13.991Z</time></trkpt><trkpt lat="42.75253786140469" lon="10.234749105019525"><ele>3.0</ele><time>2026-04-26T08:43:14.991Z</time></trkpt><trkpt lat="42.752629797025115" lon="10.234764278033209"><ele>3.0</ele><time>2026-04-26T08:43:15.991Z</time></trkpt><trkpt lat="42.75273283721205" lon="10.234776036107192"><ele>3.0</ele><time>2026-04-26T08:43:16.991Z</time></trkpt><trkpt lat="42.752835434525466" lon="10.234786776444908"><ele>3.0</ele><time>2026-04-26T08:43:17.991Z</time></trkpt><trkpt lat="42.752936934200484" lon="10.234801120517727"><ele>3.0</ele><time>2026-04-26T08:43:18.991Z</time></trkpt><trkpt lat="42.753034528709016" lon="10.234817946914427"><ele>3.0</ele><time>2026-04-26T08:43:19.991Z</time></trkpt><trkpt lat="42.75313462357843" lon="10.23484554517529"><ele>3.0</ele><time>2026-04-26T08:43:20.991Z</time></trkpt><trkpt lat="42.75324752148499" lon="10.23485911281045"><ele>3.0</ele><time>2026-04-26T08:43:21.991Z</time></trkpt><trkpt lat="42.753349473721855" lon="10.234910721542189"><ele>3.0</ele><time>2026-04-26T08:43:22.991Z</time></trkpt><trkpt lat="42.753453228704636" lon="10.234970598044917"><ele>3.0</ele><time>2026-04-26T08:43:23.991Z</time></trkpt><trkpt lat="42.75354969965829" lon="10.235038482167457"><ele>3.0</ele><time>2026-04-26T08:43:24.991Z</time></trkpt><trkpt lat="42.75364302753744" lon="10.23511624877839"><ele>3.0</ele><time>2026-04-26T08:43:25.991Z</time></trkpt><trkpt lat="42.75373301398126" lon="10.235212161942338"><ele>3.0</ele><time>2026-04-26T08:43:26.991Z</time></trkpt><trkpt lat="42.75381678100321" lon="10.235310047912444"><ele>3.0</ele><time>2026-04-26T08:43:27.991Z</time></trkpt><trkpt lat="42.753903050250585" lon="10.235432190057043"><ele>3.0</ele><time>2026-04-26T08:43:28.991Z</time></trkpt><trkpt lat="42.753973791907256" lon="10.235561141749603"><ele>2.75</ele><time>2026-04-26T08:43:29.991Z</time></trkpt><trkpt lat="42.75403938875888" lon="10.235707565100508"><ele>2.5</ele><time>2026-04-26T08:43:30.991Z</time></trkpt><trkpt lat="42.754095753222366" lon="10.235858311911754"><ele>2.25</ele><time>2026-04-26T08:43:31.991Z</time></trkpt><trkpt lat="42.7541438009621" lon="10.236004055524962"><ele>2.0</ele><time>2026-04-26T08:43:32.991Z</time></trkpt><trkpt lat="42.75419720281991" lon="10.236149676258249"><ele>2.0</ele><time>2026-04-26T08:43:33.991Z</time></trkpt><trkpt lat="42.75424582978377" lon="10.236286521023258"><ele>2.0</ele><time>2026-04-26T08:43:34.991Z</time></trkpt><trkpt lat="42.75429348430666" lon="10.236426023502366"><ele>2.0</ele><time>2026-04-26T08:43:35.991Z</time></trkpt><trkpt lat="42.75434092499595" lon="10.236561121755004"><ele>2.0</ele><time>2026-04-26T08:43:36.99Z</time></trkpt><trkpt lat="42.75438930091757" lon="10.236693210134229"><ele>2.0</ele><time>2026-04-26T08:43:37.99Z</time></trkpt><trkpt lat="42.75443768232223" lon="10.2368307802837"><ele>2.6</ele><time>2026-04-26T08:43:38.99Z</time></trkpt><trkpt lat="42.75448263638663" lon="10.236964965755176"><ele>3.2</ele><time>2026-04-26T08:43:39.99Z</time></trkpt><trkpt lat="42.75452804997408" lon="10.237100998004694"><ele>3.8</ele><time>2026-04-26T08:43:40.99Z</time></trkpt><trkpt lat="42.754572906172996" lon="10.237235156371078"><ele>4.4</ele><time>2026-04-26T08:43:41.99Z</time></trkpt><trkpt lat="42.75461685676124" lon="10.23736787080046"><ele>5.0</ele><time>2026-04-26T08:43:42.99Z</time></trkpt><trkpt lat="42.75465920589473" lon="10.23750320420634"><ele>5.0</ele><time>2026-04-26T08:43:43.99Z</time></trkpt><trkpt lat="42.754696004061074" lon="10.2376389812454"><ele>5.0</ele><time>2026-04-26T08:43:44.99Z</time></trkpt><trkpt lat="42.75472882926099" lon="10.237777991987976"><ele>5.0</ele><time>2026-04-26T08:43:45.99Z</time></trkpt><trkpt lat="42.75475759201635" lon="10.237900066953381"><ele>5.0</ele><time>2026-04-26T08:43:46.99Z</time></trkpt><trkpt lat="42.754777250422876" lon="10.238009650507607"><ele>5.0</ele><time>2026-04-26T08:43:47.99Z</time></trkpt><trkpt lat="42.75477208406262" lon="10.238096846038124"><ele>4.6</ele><time>2026-04-26T08:43:48.99Z</time></trkpt><trkpt lat="42.75473692520052" lon="10.238210276170173"><ele>4.2</ele><time>2026-04-26T08:43:49.99Z</time></trkpt><trkpt lat="42.75469204426147" lon="10.238321784085308"><ele>3.8</ele><time>2026-04-26T08:43:50.99Z</time></trkpt><trkpt lat="42.754640760372496" lon="10.238450131629904"><ele>3.4</ele><time>2026-04-26T08:43:51.99Z</time></trkpt><trkpt lat="42.75457513045586" lon="10.238578633828677"><ele>3.0</ele><time>2026-04-26T08:43:52.99Z</time></trkpt><trkpt lat="42.75448812611777" lon="10.238690092719256"><ele>3.0</ele><time>2026-04-26T08:43:53.99Z</time></trkpt><trkpt lat="42.754384777115355" lon="10.238785008088437"><ele>3.0</ele><time>2026-04-26T08:43:54.99Z</time></trkpt><trkpt lat="42.75427288479079" lon="10.238881487680457"><ele>3.0</ele><time>2026-04-26T08:43:55.99Z</time></trkpt><trkpt lat="42.75416043145612" lon="10.238979381298451"><ele>3.0</ele><time>2026-04-26T08:43:56.99Z</time></trkpt><trkpt lat="42.754048698373346" lon="10.239079034130757"><ele>2.5</ele><time>2026-04-26T08:43:57.99Z</time></trkpt><trkpt lat="42.75394920645455" lon="10.239176410378983"><ele>2.0</ele><time>2026-04-26T08:43:58.99Z</time></trkpt><trkpt lat="42.75385585607113" lon="10.239276912995724"><ele>1.5</ele><time>2026-04-26T08:43:59.99Z</time></trkpt><trkpt lat="42.7537695293357" lon="10.239393170193198"><ele>1.0</ele><time>2026-04-26T08:44:00.99Z</time></trkpt><trkpt lat="42.753690376976245" lon="10.239522227576668"><ele>1.0</ele><time>2026-04-26T08:44:01.99Z</time></trkpt><trkpt lat="42.75361764893253" lon="10.23966397945004"><ele>1.0</ele><time>2026-04-26T08:44:02.99Z</time></trkpt><trkpt lat="42.7535496094404" lon="10.239816816564808"><ele>1.0</ele><time>2026-04-26T08:44:03.99Z</time></trkpt><trkpt lat="42.75348897556819" lon="10.23998035313752"><ele>1.0</ele><time>2026-04-26T08:44:04.99Z</time></trkpt><trkpt lat="42.75343040034566" lon="10.240143739211138"><ele>0.75</ele><time>2026-04-26T08:44:05.99Z</time></trkpt><trkpt lat="42.753368431014465" lon="10.240307310885358"><ele>0.5</ele><time>2026-04-26T08:44:06.99Z</time></trkpt><trkpt lat="42.753306115897765" lon="10.240468536040309"><ele>0.25</ele><time>2026-04-26T08:44:07.99Z</time></trkpt><trkpt lat="42.75324370384476" lon="10.240631392849611"><ele>0.0</ele><time>2026-04-26T08:44:08.99Z</time></trkpt><trkpt lat="42.7531812613974" lon="10.2407953388277"><ele>0.0</ele><time>2026-04-26T08:44:09.99Z</time></trkpt><trkpt lat="42.75312104014226" lon="10.240955014532089"><ele>0.0</ele><time>2026-04-26T08:44:10.99Z</time></trkpt><trkpt lat="42.75306296056683" lon="10.241108749497315"><ele>0.0</ele><time>2026-04-26T08:44:11.99Z</time></trkpt><trkpt lat="42.75300347044405" lon="10.241265051176908"><ele>0.0</ele><time>2026-04-26T08:44:12.99Z</time></trkpt><trkpt lat="42.75294546565441" lon="10.241424970898008"><ele>0.5</ele><time>2026-04-26T08:44:13.99Z</time></trkpt><trkpt lat="42.75288749640749" lon="10.241582302608183"><ele>1.0</ele><time>2026-04-26T08:44:14.99Z</time></trkpt><trkpt lat="42.75282807611154" lon="10.241745135471307"><ele>1.5</ele><time>2026-04-26T08:44:15.99Z</time></trkpt><trkpt lat="42.752768249273245" lon="10.241903098498558"><ele>2.0</ele><time>2026-04-26T08:44:16.99Z</time></trkpt><trkpt lat="42.752708908090185" lon="10.242060013689324"><ele>2.0</ele><time>2026-04-26T08:44:17.99Z</time></trkpt><trkpt lat="42.75265132074023" lon="10.242218949662059"><ele>2.0</ele><time>2026-04-26T08:44:18.99Z</time></trkpt><trkpt lat="42.75259095929312" lon="10.242379570506975"><ele>2.0</ele><time>2026-04-26T08:44:19.99Z</time></trkpt><trkpt lat="42.75253123232136" lon="10.24254080307914"><ele>2.0</ele><time>2026-04-26T08:44:20.99Z</time></trkpt><trkpt lat="42.75247116279315" lon="10.24269815899432"><ele>1.75</ele><time>2026-04-26T08:44:21.99Z</time></trkpt><trkpt lat="42.75241450823903" lon="10.24285205815341"><ele>1.5</ele><time>2026-04-26T08:44:22.99Z</time></trkpt><trkpt lat="42.75236407916348" lon="10.24300262629437"><ele>1.25</ele><time>2026-04-26T08:44:23.99Z</time></trkpt><trkpt lat="42.752321458042225" lon="10.243143104485865"><ele>1.0</ele><time>2026-04-26T08:44:24.99Z</time></trkpt><trkpt lat="42.7522948975807" lon="10.243288476616115"><ele>1.0</ele><time>2026-04-26T08:44:25.99Z</time></trkpt><trkpt lat="42.75229064766195" lon="10.243431217488762"><ele>1.0</ele><time>2026-04-26T08:44:26.99Z</time></trkpt><trkpt lat="42.752316230278275" lon="10.243564645988286"><ele>1.0</ele><time>2026-04-26T08:44:27.99Z</time></trkpt><trkpt lat="42.75235875857308" lon="10.243695514941683"><ele>1.0</ele><time>2026-04-26T08:44:28.99Z</time></trkpt><trkpt lat="42.752406614837305" lon="10.243828114435606"><ele>1.0</ele><time>2026-04-26T08:44:29.99Z</time></trkpt><trkpt lat="42.75246068949537" lon="10.243964828268625"><ele>1.0</ele><time>2026-04-26T08:44:30.99Z</time></trkpt><trkpt lat="42.7525109703658" lon="10.244103226009205"><ele>1.0</ele><time>2026-04-26T08:44:31.989Z</time></trkpt><trkpt lat="42.7525681124953" lon="10.244251729813316"><ele>1.0</ele><time>2026-04-26T08:44:32.989Z</time></trkpt><trkpt lat="42.75262957773204" lon="10.244405258033288"><ele>1.0</ele><time>2026-04-26T08:44:33.989Z</time></trkpt><trkpt lat="42.75270078603169" lon="10.244563593451641"><ele>1.0</ele><time>2026-04-26T08:44:34.989Z</time></trkpt><trkpt lat="42.75277637695012" lon="10.244712509458962"><ele>1.0</ele><time>2026-04-26T08:44:35.989Z</time></trkpt><trkpt lat="42.752860212407114" lon="10.244854680187661"><ele>1.0</ele><time>2026-04-26T08:44:36.989Z</time></trkpt><trkpt lat="42.752944040087854" lon="10.244993460184592"><ele>1.0</ele><time>2026-04-26T08:44:37.989Z</time></trkpt><trkpt lat="42.75302795817565" lon="10.245130380301756"><ele>1.0</ele><time>2026-04-26T08:44:38.989Z</time></trkpt><trkpt lat="42.75311023479378" lon="10.245264878265857"><ele>1.0</ele><time>2026-04-26T08:44:39.989Z</time></trkpt><trkpt lat="42.75319479769125" lon="10.245398806303436"><ele>1.0</ele><time>2026-04-26T08:44:40.989Z</time></trkpt><trkpt lat="42.7532836181624" lon="10.245536343640673"><ele>1.0</ele><time>2026-04-26T08:44:41.989Z</time></trkpt><trkpt lat="42.75337170079379" lon="10.245670468394026"><ele>1.0</ele><time>2026-04-26T08:44:42.989Z</time></trkpt><trkpt lat="42.753457190865625" lon="10.24580529771609"><ele>1.0</ele><time>2026-04-26T08:44:43.989Z</time></trkpt><trkpt lat="42.75354317455379" lon="10.245942655085782"><ele>1.0</ele><time>2026-04-26T08:44:44.989Z</time></trkpt><trkpt lat="42.753632259801606" lon="10.246078578729078"><ele>1.0</ele><time>2026-04-26T08:44:45.989Z</time></trkpt><trkpt lat="42.75372433642501" lon="10.246220997702375"><ele>1.0</ele><time>2026-04-26T08:44:46.989Z</time></trkpt><trkpt lat="42.753817087432445" lon="10.246364764046438"><ele>1.0</ele><time>2026-04-26T08:44:47.989Z</time></trkpt><trkpt lat="42.753903442634204" lon="10.246494425717838"><ele>1.0</ele><time>2026-04-26T08:44:48.989Z</time></trkpt><trkpt lat="42.753988613392295" lon="10.246614680887205"><ele>1.0</ele><time>2026-04-26T08:44:49.989Z</time></trkpt><trkpt lat="42.75407109032806" lon="10.246729535489049"><ele>1.1666666666666665</ele><time>2026-04-26T08:44:50.989Z</time></trkpt><trkpt lat="42.754141781597994" lon="10.246840508269587"><ele>1.3333333333333333</ele><time>2026-04-26T08:44:51.989Z</time></trkpt><trkpt lat="42.75420583562062" lon="10.246940529770718"><ele>1.5</ele><time>2026-04-26T08:44:52.989Z</time></trkpt><trkpt lat="42.754261341211325" lon="10.247027948970612"><ele>1.6666666666666665</ele><time>2026-04-26T08:44:53.989Z</time></trkpt><trkpt lat="42.75431153959196" lon="10.247110039352958"><ele>1.8333333333333333</ele><time>2026-04-26T08:44:54.989Z</time></trkpt><trkpt lat="42.75435960523821" lon="10.247176031172879"><ele>2.0</ele><time>2026-04-26T08:44:55.989Z</time></trkpt><trkpt lat="42.75447671467226" lon="10.247177311887064"><ele>2.0</ele><time>2026-04-26T08:44:57.989Z</time></trkpt><trkpt lat="42.754534746932585" lon="10.247108379088802"><ele>2.0</ele><time>2026-04-26T08:44:58.989Z</time></trkpt><trkpt lat="42.75459459560801" lon="10.247046675705207"><ele>2.0</ele><time>2026-04-26T08:44:59.989Z</time></trkpt><trkpt lat="42.754659761199115" lon="10.24696840793964"><ele>2.0</ele><time>2026-04-26T08:45:00.989Z</time></trkpt><trkpt lat="42.75472757959976" lon="10.24686707324155"><ele>2.0</ele><time>2026-04-26T08:45:01.989Z</time></trkpt><trkpt lat="42.75480471959266" lon="10.24675256932801"><ele>2.0</ele><time>2026-04-26T08:45:02.989Z</time></trkpt><trkpt lat="42.75488451394929" lon="10.246632339743973"><ele>2.0</ele><time>2026-04-26T08:45:03.989Z</time></trkpt><trkpt lat="42.75495771754797" lon="10.24652108373166"><ele>2.0</ele><time>2026-04-26T08:45:04.989Z</time></trkpt><trkpt lat="42.75502120514754" lon="10.246414653434012"><ele>2.0</ele><time>2026-04-26T08:45:05.989Z</time></trkpt><trkpt lat="42.755085090128595" lon="10.246318751775183"><ele>2.0</ele><time>2026-04-26T08:45:06.989Z</time></trkpt><trkpt lat="42.75513940290822" lon="10.246235071330123"><ele>1.8</ele><time>2026-04-26T08:45:07.989Z</time></trkpt><trkpt lat="42.75519116816796" lon="10.246169392443974"><ele>1.6</ele><time>2026-04-26T08:45:08.989Z</time></trkpt><trkpt lat="42.755230850518764" lon="10.24607451326202"><ele>1.4000000000000001</ele><time>2026-04-26T08:45:10.989Z</time></trkpt><trkpt lat="42.755215035714606" lon="10.245969404830356"><ele>1.2000000000000002</ele><time>2026-04-26T08:45:12.989Z</time></trkpt><trkpt lat="42.75510123679152" lon="10.245847253005577"><ele>1.0</ele><time>2026-04-26T08:45:14.989Z</time></trkpt><trkpt lat="42.755016259022156" lon="10.245760003628655"><ele>1.0</ele><time>2026-04-26T08:45:15.989Z</time></trkpt><trkpt lat="42.75492610055759" lon="10.245665435592747"><ele>1.0</ele><time>2026-04-26T08:45:16.989Z</time></trkpt><trkpt lat="42.75484054644825" lon="10.245585872194717"><ele>1.0</ele><time>2026-04-26T08:45:17.989Z</time></trkpt><trkpt lat="42.754767086726304" lon="10.245519157662196"><ele>1.0</ele><time>2026-04-26T08:45:18.989Z</time></trkpt><trkpt lat="42.75470220924051" lon="10.245462527496167"><ele>1.0</ele><time>2026-04-26T08:45:19.989Z</time></trkpt><trkpt lat="42.7546444378473" lon="10.245408453414502"><ele>1.0</ele><time>2026-04-26T08:45:20.989Z</time></trkpt><trkpt lat="42.75458742399112" lon="10.245358463812332"><ele>1.0</ele><time>2026-04-26T08:45:21.989Z</time></trkpt><trkpt lat="42.754482169684955" lon="10.245268200865691"><ele>1.0</ele><time>2026-04-26T08:45:23.989Z</time></trkpt><trkpt lat="42.754388759736564" lon="10.245176169602972"><ele>1.0</ele><time>2026-04-26T08:45:25.989Z</time></trkpt><trkpt lat="42.75430914929129" lon="10.245099768302977"><ele>1.0</ele><time>2026-04-26T08:45:27.988Z</time></trkpt><trkpt lat="42.754244663333225" lon="10.245030738826298"><ele>1.0</ele><time>2026-04-26T08:45:29.988Z</time></trkpt><trkpt lat="42.75416093065045" lon="10.244960880267723"><ele>1.0</ele><time>2026-04-26T08:45:31.988Z</time></trkpt><trkpt lat="42.75406897000461" lon="10.244884718403453"><ele>1.0</ele><time>2026-04-26T08:45:33.988Z</time></trkpt><trkpt lat="42.75396566430436" lon="10.244790959617486"><ele>1.0</ele><time>2026-04-26T08:45:35.988Z</time></trkpt><trkpt lat="42.75390829932622" lon="10.244743137537968"><ele>1.0</ele><time>2026-04-26T08:45:36.988Z</time></trkpt><trkpt lat="42.7538471737004" lon="10.244695717831066"><ele>0.6666666666666666</ele><time>2026-04-26T08:45:37.988Z</time></trkpt><trkpt lat="42.75379053721656" lon="10.244650380907823"><ele>0.3333333333333333</ele><time>2026-04-26T08:45:38.988Z</time></trkpt><trkpt lat="42.75372655498273" lon="10.24460417303897"><ele>0.0</ele><time>2026-04-26T08:45:39.988Z</time></trkpt><trkpt lat="42.753662127340185" lon="10.244556029135229"><ele>-0.3333333333333333</ele><time>2026-04-26T08:45:40.988Z</time></trkpt><trkpt lat="42.75358849290231" lon="10.244503212614685"><ele>-0.6666666666666666</ele><time>2026-04-26T08:45:41.988Z</time></trkpt><trkpt lat="42.75351317394325" lon="10.244451108473568"><ele>-1.0</ele><time>2026-04-26T08:45:42.988Z</time></trkpt><trkpt lat="42.75343252886541" lon="10.24439920157619"><ele>-0.9999999999999999</ele><time>2026-04-26T08:45:43.988Z</time></trkpt><trkpt lat="42.75334898249119" lon="10.244345337368264"><ele>-1.0</ele><time>2026-04-26T08:45:44.988Z</time></trkpt><trkpt lat="42.75326700924317" lon="10.244293439417852"><ele>-1.0</ele><time>2026-04-26T08:45:45.988Z</time></trkpt><trkpt lat="42.75319029624178" lon="10.244249336402806"><ele>-1.0</ele><time>2026-04-26T08:45:46.988Z</time></trkpt><trkpt lat="42.75311719159246" lon="10.244207050759519"><ele>-0.9999999999999999</ele><time>2026-04-26T08:45:47.988Z</time></trkpt><trkpt lat="42.75305077839286" lon="10.244169081033652"><ele>-1.0</ele><time>2026-04-26T08:45:48.988Z</time></trkpt><trkpt lat="42.752987923236375" lon="10.244135932563005"><ele>-0.9999999999999999</ele><time>2026-04-26T08:45:49.988Z</time></trkpt><trkpt lat="42.752922268979304" lon="10.24410999546929"><ele>-1.0</ele><time>2026-04-26T08:45:50.988Z</time></trkpt><trkpt lat="42.752835355940505" lon="10.244088102313718"><ele>-1.0</ele><time>2026-04-26T08:45:52.988Z</time></trkpt><trkpt lat="42.752773327513566" lon="10.244025745103425"><ele>-1.0</ele><time>2026-04-26T08:45:54.988Z</time></trkpt><trkpt lat="42.75281354805124" lon="10.243942082380906"><ele>-0.9999999999999999</ele><time>2026-04-26T08:46:01.988Z</time></trkpt><trkpt lat="42.75292370250449" lon="10.24391844396073"><ele>-1.0</ele><time>2026-04-26T08:46:03.988Z</time></trkpt><trkpt lat="42.75300470408905" lon="10.243877685711238"><ele>-0.75</ele><time>2026-04-26T08:46:05.988Z</time></trkpt><trkpt lat="42.75311852060234" lon="10.243821371928476"><ele>-0.5</ele><time>2026-04-26T08:46:08.988Z</time></trkpt><trkpt lat="42.75318920458972" lon="10.243799517143001"><ele>-0.25</ele><time>2026-04-26T08:46:09.988Z</time></trkpt><trkpt lat="42.753330257579414" lon="10.243740683607028"><ele>0.0</ele><time>2026-04-26T08:46:10.988Z</time></trkpt><trkpt lat="42.75344473405844" lon="10.243685616716693"><ele>0.0</ele><time>2026-04-26T08:46:11.988Z</time></trkpt><trkpt lat="42.753547934877474" lon="10.24364241736162"><ele>0.0</ele><time>2026-04-26T08:46:12.988Z</time></trkpt><trkpt lat="42.7536520731304" lon="10.243603612854153"><ele>0.0</ele><time>2026-04-26T08:46:13.988Z</time></trkpt><trkpt lat="42.753756131280085" lon="10.243566932439041"><ele>0.0</ele><time>2026-04-26T08:46:14.988Z</time></trkpt><trkpt lat="42.753853904811294" lon="10.243532480531698"><ele>0.0</ele><time>2026-04-26T08:46:15.988Z</time></trkpt><trkpt lat="42.7539434754544" lon="10.243503600440556"><ele>0.0</ele><time>2026-04-26T08:46:16.988Z</time></trkpt><trkpt lat="42.75402725451787" lon="10.243470318639181"><ele>0.0</ele><time>2026-04-26T08:46:17.988Z</time></trkpt><trkpt lat="42.75411617439934" lon="10.243435429174376"><ele>0.0</ele><time>2026-04-26T08:46:18.988Z</time></trkpt><trkpt lat="42.754213295327816" lon="10.243398432077043"><ele>0.0</ele><time>2026-04-26T08:46:19.988Z</time></trkpt><trkpt lat="42.75429421638322" lon="10.243372275717347"><ele>0.0</ele><time>2026-04-26T08:46:20.988Z</time></trkpt><trkpt lat="42.75437163226366" lon="10.243345042577037"><ele>0.0</ele><time>2026-04-26T08:46:21.987Z</time></trkpt><trkpt lat="42.7544429679317" lon="10.243315901633519"><ele>0.0</ele><time>2026-04-26T08:46:22.987Z</time></trkpt><trkpt lat="42.75451081331442" lon="10.243289556384793"><ele>0.0</ele><time>2026-04-26T08:46:23.987Z</time></trkpt><trkpt lat="42.75458019997624" lon="10.24326815618181"><ele>0.0</ele><time>2026-04-26T08:46:24.987Z</time></trkpt><trkpt lat="42.754645480958715" lon="10.24324408401045"><ele>0.0</ele><time>2026-04-26T08:46:25.987Z</time></trkpt><trkpt lat="42.75471775836419" lon="10.243220781312418"><ele>0.0</ele><time>2026-04-26T08:46:26.987Z</time></trkpt><trkpt lat="42.754779264375244" lon="10.24319438652739"><ele>0.0</ele><time>2026-04-26T08:46:27.987Z</time></trkpt><trkpt lat="42.7548533870862" lon="10.243168795612831"><ele>0.0</ele><time>2026-04-26T08:46:28.987Z</time></trkpt><trkpt lat="42.75492637924559" lon="10.243142740855346"><ele>0.0</ele><time>2026-04-26T08:46:29.987Z</time></trkpt><trkpt lat="42.754994762542275" lon="10.243118644607504"><ele>0.0</ele><time>2026-04-26T08:46:30.987Z</time></trkpt><trkpt lat="42.75508996448981" lon="10.243085405538727"><ele>0.0</ele><time>2026-04-26T08:46:32.987Z</time></trkpt><trkpt lat="42.75519411651605" lon="10.243059248671923"><ele>0.0</ele><time>2026-04-26T08:46:34.987Z</time></trkpt><trkpt lat="42.755257794011555" lon="10.243042468869637"><ele>0.0</ele><time>2026-04-26T08:46:35.987Z</time></trkpt><trkpt lat="42.755333445782796" lon="10.243014139418062"><ele>0.0</ele><time>2026-04-26T08:46:36.987Z</time></trkpt><trkpt lat="42.75540843281075" lon="10.24298381730872"><ele>0.0</ele><time>2026-04-26T08:46:37.987Z</time></trkpt><trkpt lat="42.75548234336381" lon="10.242950310592688"><ele>0.0</ele><time>2026-04-26T08:46:38.987Z</time></trkpt><trkpt lat="42.75555812223821" lon="10.24292179891251"><ele>0.0</ele><time>2026-04-26T08:46:39.987Z</time></trkpt><trkpt lat="42.755631009249456" lon="10.24289242785867"><ele>0.0</ele><time>2026-04-26T08:46:40.987Z</time></trkpt><trkpt lat="42.755700030333394" lon="10.242867285810322"><ele>0.0</ele><time>2026-04-26T08:46:41.987Z</time></trkpt><trkpt lat="42.75576624010142" lon="10.242838843168611"><ele>0.0</ele><time>2026-04-26T08:46:42.987Z</time></trkpt><trkpt lat="42.75583500646946" lon="10.242808529532732"><ele>0.0</ele><time>2026-04-26T08:46:43.987Z</time></trkpt><trkpt lat="42.75589890250211" lon="10.242777114165252"><ele>0.0</ele><time>2026-04-26T08:46:44.987Z</time></trkpt><trkpt lat="42.755966927831125" lon="10.242747552483184"><ele>0.0</ele><time>2026-04-26T08:46:45.987Z</time></trkpt><trkpt lat="42.756032487527435" lon="10.24271953378937"><ele>0.0</ele><time>2026-04-26T08:46:46.987Z</time></trkpt><trkpt lat="42.75610106335054" lon="10.242693388533516"><ele>0.0</ele><time>2026-04-26T08:46:47.987Z</time></trkpt><trkpt lat="42.75616991597564" lon="10.242663940736985"><ele>0.0</ele><time>2026-04-26T08:46:48.987Z</time></trkpt><trkpt lat="42.7562429386624" lon="10.242633785462104"><ele>0.0</ele><time>2026-04-26T08:46:49.987Z</time></trkpt><trkpt lat="42.75631415240558" lon="10.242605353388708"><ele>0.0</ele><time>2026-04-26T08:46:50.987Z</time></trkpt><trkpt lat="42.75639708166767" lon="10.242568868756994"><ele>0.16666666666666666</ele><time>2026-04-26T08:46:51.987Z</time></trkpt><trkpt lat="42.756476354084214" lon="10.242537877798068"><ele>0.3333333333333333</ele><time>2026-04-26T08:46:52.987Z</time></trkpt><trkpt lat="42.75656114566501" lon="10.242501448084393"><ele>0.5</ele><time>2026-04-26T08:46:53.987Z</time></trkpt><trkpt lat="42.75664057596006" lon="10.242466680328215"><ele>0.6666666666666666</ele><time>2026-04-26T08:46:54.987Z</time></trkpt><trkpt lat="42.756726792766074" lon="10.242434131641948"><ele>0.8333333333333333</ele><time>2026-04-26T08:46:55.987Z</time></trkpt><trkpt lat="42.75680695487763" lon="10.2423922448962"><ele>1.0</ele><time>2026-04-26T08:46:56.987Z</time></trkpt><trkpt lat="42.75688483242893" lon="10.242366575778455"><ele>0.9999999999999999</ele><time>2026-04-26T08:46:57.987Z</time></trkpt><trkpt lat="42.75696037005153" lon="10.242339186634121"><ele>1.0</ele><time>2026-04-26T08:46:58.987Z</time></trkpt><trkpt lat="42.757036891441764" lon="10.242308600449329"><ele>1.0</ele><time>2026-04-26T08:46:59.987Z</time></trkpt><trkpt lat="42.75710692868307" lon="10.242283189631275"><ele>1.0</ele><time>2026-04-26T08:47:00.987Z</time></trkpt><trkpt lat="42.75718200107107" lon="10.242252951790157"><ele>0.9999999999999999</ele><time>2026-04-26T08:47:01.987Z</time></trkpt><trkpt lat="42.75725979540589" lon="10.242225122550229"><ele>1.0</ele><time>2026-04-26T08:47:02.987Z</time></trkpt><trkpt lat="42.757330140721464" lon="10.242201953813247"><ele>1.2000000000000002</ele><time>2026-04-26T08:47:03.987Z</time></trkpt><trkpt lat="42.757454504810504" lon="10.242142547956165"><ele>1.4000000000000001</ele><time>2026-04-26T08:47:05.987Z</time></trkpt><trkpt lat="42.75753924422906" lon="10.24209287871093"><ele>1.6</ele><time>2026-04-26T08:47:06.987Z</time></trkpt><trkpt lat="42.7576288418268" lon="10.242055701044041"><ele>1.8</ele><time>2026-04-26T08:47:07.987Z</time></trkpt><trkpt lat="42.757718669315175" lon="10.24202094160561"><ele>2.0</ele><time>2026-04-26T08:47:08.987Z</time></trkpt><trkpt lat="42.75780522181627" lon="10.241984582746564"><ele>2.1666666666666665</ele><time>2026-04-26T08:47:09.987Z</time></trkpt><trkpt lat="42.757888565689534" lon="10.241949992422187"><ele>2.333333333333333</ele><time>2026-04-26T08:47:10.987Z</time></trkpt><trkpt lat="42.757977702592065" lon="10.241914350136543"><ele>2.5</ele><time>2026-04-26T08:47:11.987Z</time></trkpt><trkpt lat="42.75806559732237" lon="10.241876805987095"><ele>2.6666666666666665</ele><time>2026-04-26T08:47:12.987Z</time></trkpt><trkpt lat="42.75814847461819" lon="10.241842405388693"><ele>2.8333333333333335</ele><time>2026-04-26T08:47:13.987Z</time></trkpt><trkpt lat="42.758232375192456" lon="10.241808476743781"><ele>3.0</ele><time>2026-04-26T08:47:14.987Z</time></trkpt><trkpt lat="42.7583177273609" lon="10.241772830272678"><ele>3.0</ele><time>2026-04-26T08:47:15.987Z</time></trkpt><trkpt lat="42.75840805814569" lon="10.241733316038419"><ele>3.0</ele><time>2026-04-26T08:47:16.986Z</time></trkpt><trkpt lat="42.75849118530339" lon="10.241696483787338"><ele>3.0</ele><time>2026-04-26T08:47:17.986Z</time></trkpt><trkpt lat="42.7585847725501" lon="10.241650957211986"><ele>3.0</ele><time>2026-04-26T08:47:18.986Z</time></trkpt><trkpt lat="42.75867367557829" lon="10.241619081940387"><ele>3.0</ele><time>2026-04-26T08:47:19.986Z</time></trkpt><trkpt lat="42.75876306855085" lon="10.24158421062407"><ele>3.2</ele><time>2026-04-26T08:47:20.986Z</time></trkpt><trkpt lat="42.75885263364252" lon="10.241544006979058"><ele>3.4</ele><time>2026-04-26T08:47:21.986Z</time></trkpt><trkpt lat="42.75894011896509" lon="10.241509721644022"><ele>3.6000000000000005</ele><time>2026-04-26T08:47:22.986Z</time></trkpt><trkpt lat="42.75902781927612" lon="10.241474554588537"><ele>3.8000000000000003</ele><time>2026-04-26T08:47:23.986Z</time></trkpt><trkpt lat="42.75911482063886" lon="10.241437706335738"><ele>4.0</ele><time>2026-04-26T08:47:24.986Z</time></trkpt><trkpt lat="42.75920640942301" lon="10.241398306609673"><ele>3.8000000000000003</ele><time>2026-04-26T08:47:25.986Z</time></trkpt><trkpt lat="42.75928888952816" lon="10.241354798417623"><ele>3.6000000000000005</ele><time>2026-04-26T08:47:26.986Z</time></trkpt><trkpt lat="42.759378506103175" lon="10.241312720021156"><ele>3.4</ele><time>2026-04-26T08:47:27.986Z</time></trkpt><trkpt lat="42.759469890760435" lon="10.241277670166658"><ele>3.2</ele><time>2026-04-26T08:47:28.986Z</time></trkpt><trkpt lat="42.75955941811012" lon="10.241239944600032"><ele>3.0</ele><time>2026-04-26T08:47:29.986Z</time></trkpt><trkpt lat="42.75964700383221" lon="10.241204162171009"><ele>3.0</ele><time>2026-04-26T08:47:30.986Z</time></trkpt><trkpt lat="42.759734753865395" lon="10.241165539363667"><ele>3.0</ele><time>2026-04-26T08:47:31.986Z</time></trkpt><trkpt lat="42.75982219991326" lon="10.241126193618422"><ele>3.0</ele><time>2026-04-26T08:47:32.986Z</time></trkpt><trkpt lat="42.75991063798231" lon="10.24108598408427"><ele>3.0</ele><time>2026-04-26T08:47:33.986Z</time></trkpt><trkpt lat="42.75999753748009" lon="10.241045522553339"><ele>3.0</ele><time>2026-04-26T08:47:34.986Z</time></trkpt><trkpt lat="42.760090986887306" lon="10.241006053392818"><ele>3.0</ele><time>2026-04-26T08:47:35.986Z</time></trkpt><trkpt lat="42.76018093279983" lon="10.240964583829905"><ele>3.0</ele><time>2026-04-26T08:47:36.986Z</time></trkpt><trkpt lat="42.760274150213085" lon="10.240923331561335"><ele>3.0</ele><time>2026-04-26T08:47:37.986Z</time></trkpt><trkpt lat="42.760369251131216" lon="10.24088066229345"><ele>3.0</ele><time>2026-04-26T08:47:38.986Z</time></trkpt><trkpt lat="42.760466761727066" lon="10.240836494226492"><ele>3.0</ele><time>2026-04-26T08:47:39.986Z</time></trkpt><trkpt lat="42.760567094218466" lon="10.240790915108677"><ele>3.2</ele><time>2026-04-26T08:47:40.986Z</time></trkpt><trkpt lat="42.76066829887191" lon="10.240744955856506"><ele>3.4</ele><time>2026-04-26T08:47:41.986Z</time></trkpt><trkpt lat="42.760770371800476" lon="10.24070344106703"><ele>3.6000000000000005</ele><time>2026-04-26T08:47:42.986Z</time></trkpt><trkpt lat="42.76086523586933" lon="10.240661898043864"><ele>3.8000000000000003</ele><time>2026-04-26T08:47:43.986Z</time></trkpt><trkpt lat="42.760954869666435" lon="10.240620948421068"><ele>4.0</ele><time>2026-04-26T08:47:44.986Z</time></trkpt><trkpt lat="42.76104529583271" lon="10.240577001412086"><ele>4.0</ele><time>2026-04-26T08:47:45.986Z</time></trkpt><trkpt lat="42.76114303946623" lon="10.24053180327176"><ele>4.0</ele><time>2026-04-26T08:47:46.986Z</time></trkpt><trkpt lat="42.761244583347846" lon="10.240487424366107"><ele>4.0</ele><time>2026-04-26T08:47:47.986Z</time></trkpt><trkpt lat="42.761351506311215" lon="10.240442960192503"><ele>4.0</ele><time>2026-04-26T08:47:48.986Z</time></trkpt><trkpt lat="42.76145534943758" lon="10.240397431178645"><ele>4.0</ele><time>2026-04-26T08:47:49.986Z</time></trkpt><trkpt lat="42.76155848047566" lon="10.2403508615567"><ele>4.0</ele><time>2026-04-26T08:47:50.986Z</time></trkpt><trkpt lat="42.761662093303855" lon="10.240304998693754"><ele>4.0</ele><time>2026-04-26T08:47:51.986Z</time></trkpt><trkpt lat="42.761762744142516" lon="10.240264442800745"><ele>4.0</ele><time>2026-04-26T08:47:52.986Z</time></trkpt><trkpt lat="42.76185684778562" lon="10.240226361467375"><ele>4.0</ele><time>2026-04-26T08:47:53.986Z</time></trkpt><trkpt lat="42.76193475191516" lon="10.240190151830022"><ele>4.0</ele><time>2026-04-26T08:47:54.986Z</time></trkpt><trkpt lat="42.7620260572169" lon="10.240155862190276"><ele>4.0</ele><time>2026-04-26T08:47:55.986Z</time></trkpt><trkpt lat="42.762111187985326" lon="10.240118682041157"><ele>4.0</ele><time>2026-04-26T08:47:56.986Z</time></trkpt><trkpt lat="42.76220512711087" lon="10.240080975841504"><ele>4.0</ele><time>2026-04-26T08:47:57.986Z</time></trkpt><trkpt lat="42.76229744798748" lon="10.2400449944423"><ele>4.0</ele><time>2026-04-26T08:47:58.986Z</time></trkpt><trkpt lat="42.76238547169116" lon="10.240014726753934"><ele>4.0</ele><time>2026-04-26T08:47:59.986Z</time></trkpt><trkpt lat="42.76247069690829" lon="10.23998577805478"><ele>3.9999999999999996</ele><time>2026-04-26T08:48:00.986Z</time></trkpt><trkpt lat="42.76255852241427" lon="10.239954193789215"><ele>4.0</ele><time>2026-04-26T08:48:01.986Z</time></trkpt><trkpt lat="42.76264307825078" lon="10.239919694285149"><ele>4.0</ele><time>2026-04-26T08:48:02.986Z</time></trkpt><trkpt lat="42.762725241548154" lon="10.239888919447333"><ele>4.0</ele><time>2026-04-26T08:48:03.986Z</time></trkpt><trkpt lat="42.76280109628763" lon="10.239861984397404"><ele>3.9999999999999996</ele><time>2026-04-26T08:48:04.986Z</time></trkpt><trkpt lat="42.762865219003245" lon="10.23984199006044"><ele>4.0</ele><time>2026-04-26T08:48:05.986Z</time></trkpt><trkpt lat="42.762939761665294" lon="10.239838587790686"><ele>4.2</ele><time>2026-04-26T08:48:07.986Z</time></trkpt><trkpt lat="42.763028254325896" lon="10.239840667520603"><ele>4.4</ele><time>2026-04-26T08:48:12.985Z</time></trkpt><trkpt lat="42.763115134515225" lon="10.239840563087006"><ele>4.6</ele><time>2026-04-26T08:48:14.985Z</time></trkpt><trkpt lat="42.76321840475716" lon="10.239855045334412"><ele>4.8</ele><time>2026-04-26T08:48:16.985Z</time></trkpt><trkpt lat="42.763321867754684" lon="10.239851725582845"><ele>5.0</ele><time>2026-04-26T08:48:18.985Z</time></trkpt><trkpt lat="42.76343389057934" lon="10.239833932827395"><ele>5.166666666666667</ele><time>2026-04-26T08:48:20.985Z</time></trkpt><trkpt lat="42.7635539298384" lon="10.239818709291821"><ele>5.333333333333334</ele><time>2026-04-26T08:48:22.985Z</time></trkpt><trkpt lat="42.763618919651066" lon="10.239810751599814"><ele>5.5</ele><time>2026-04-26T08:48:23.985Z</time></trkpt><trkpt lat="42.76368142908012" lon="10.239796821510076"><ele>5.666666666666667</ele><time>2026-04-26T08:48:24.985Z</time></trkpt><trkpt lat="42.763751251325225" lon="10.239783110655981"><ele>5.833333333333333</ele><time>2026-04-26T08:48:25.985Z</time></trkpt><trkpt lat="42.76383975036434" lon="10.239769413410283"><ele>6.0</ele><time>2026-04-26T08:48:26.985Z</time></trkpt><trkpt lat="42.763955210868524" lon="10.239745429792496"><ele>6.0</ele><time>2026-04-26T08:48:27.985Z</time></trkpt><trkpt lat="42.76408614176786" lon="10.239707564408688"><ele>6.0</ele><time>2026-04-26T08:48:28.985Z</time></trkpt><trkpt lat="42.7642258647521" lon="10.239673093904328"><ele>6.0</ele><time>2026-04-26T08:48:29.985Z</time></trkpt><trkpt lat="42.7643620664153" lon="10.239644575333486"><ele>6.0</ele><time>2026-04-26T08:48:30.985Z</time></trkpt><trkpt lat="42.76450549679442" lon="10.239632391320251"><ele>6.333333333333334</ele><time>2026-04-26T08:48:31.985Z</time></trkpt><trkpt lat="42.7646495601468" lon="10.239612377042702"><ele>6.666666666666667</ele><time>2026-04-26T08:48:32.985Z</time></trkpt><trkpt lat="42.76479622760486" lon="10.239568480709018"><ele>7.0</ele><time>2026-04-26T08:48:33.985Z</time></trkpt><trkpt lat="42.76495799660235" lon="10.23953197969766"><ele>7.0</ele><time>2026-04-26T08:48:34.985Z</time></trkpt><trkpt lat="42.76512411447866" lon="10.239502920318088"><ele>7.0</ele><time>2026-04-26T08:48:35.985Z</time></trkpt><trkpt lat="42.76526879306378" lon="10.23947121227538"><ele>7.0</ele><time>2026-04-26T08:48:36.985Z</time></trkpt><trkpt lat="42.76541077386084" lon="10.239443249145632"><ele>7.25</ele><time>2026-04-26T08:48:37.985Z</time></trkpt><trkpt lat="42.76553935559017" lon="10.239414699562202"><ele>7.5</ele><time>2026-04-26T08:48:38.985Z</time></trkpt><trkpt lat="42.76566452771051" lon="10.239389994104997"><ele>7.75</ele><time>2026-04-26T08:48:39.985Z</time></trkpt><trkpt lat="42.765792314677824" lon="10.239370487086763"><ele>8.0</ele><time>2026-04-26T08:48:40.985Z</time></trkpt><trkpt lat="42.7659179173468" lon="10.23933951155078"><ele>7.75</ele><time>2026-04-26T08:48:41.985Z</time></trkpt><trkpt lat="42.76604110178994" lon="10.239310212662769"><ele>7.5</ele><time>2026-04-26T08:48:42.985Z</time></trkpt><trkpt lat="42.766169570113725" lon="10.239284694441585"><ele>7.25</ele><time>2026-04-26T08:48:43.985Z</time></trkpt><trkpt lat="42.76628351744398" lon="10.239273069136232"><ele>7.0</ele><time>2026-04-26T08:48:44.985Z</time></trkpt><trkpt lat="42.766381076833106" lon="10.239261984953556"><ele>7.0</ele><time>2026-04-26T08:48:45.985Z</time></trkpt><trkpt lat="42.76645735270247" lon="10.239256541439131"><ele>7.0</ele><time>2026-04-26T08:48:46.985Z</time></trkpt><trkpt lat="42.766530012989016" lon="10.239241705146263"><ele>7.0</ele><time>2026-04-26T08:48:47.985Z</time></trkpt><trkpt lat="42.76661088884565" lon="10.23921529310783"><ele>7.0</ele><time>2026-04-26T08:48:48.985Z</time></trkpt><trkpt lat="42.76668162384039" lon="10.239206061946032"><ele>7.0</ele><time>2026-04-26T08:48:49.985Z</time></trkpt><trkpt lat="42.766748633111895" lon="10.239207851419152"><ele>7.0</ele><time>2026-04-26T08:48:50.985Z</time></trkpt><trkpt lat="42.766825608588285" lon="10.239196538022526"><ele>7.0</ele><time>2026-04-26T08:48:51.985Z</time></trkpt><trkpt lat="42.766892437349526" lon="10.23918317868257"><ele>7.6</ele><time>2026-04-26T08:48:52.985Z</time></trkpt><trkpt lat="42.766970093970656" lon="10.239180116266278"><ele>8.2</ele><time>2026-04-26T08:48:53.985Z</time></trkpt><trkpt lat="42.76705818097218" lon="10.239171025974658"><ele>8.8</ele><time>2026-04-26T08:48:54.985Z</time></trkpt><trkpt lat="42.76716544694769" lon="10.239166395290715"><ele>9.4</ele><time>2026-04-26T08:48:55.985Z</time></trkpt><trkpt lat="42.76728113318437" lon="10.239173309494024"><ele>10.0</ele><time>2026-04-26T08:48:56.985Z</time></trkpt><trkpt lat="42.7674137095568" lon="10.239177460292204"><ele>10.0</ele><time>2026-04-26T08:48:57.985Z</time></trkpt><trkpt lat="42.7675588456062" lon="10.239186995021514"><ele>10.0</ele><time>2026-04-26T08:48:58.985Z</time></trkpt><trkpt lat="42.767693765919745" lon="10.239195715408195"><ele>10.0</ele><time>2026-04-26T08:48:59.985Z</time></trkpt><trkpt lat="42.76780465095688" lon="10.239202513411552"><ele>10.0</ele><time>2026-04-26T08:49:00.985Z</time></trkpt><trkpt lat="42.76790424917302" lon="10.239210149025263"><ele>10.2</ele><time>2026-04-26T08:49:01.985Z</time></trkpt><trkpt lat="42.76799192151009" lon="10.239215380859669"><ele>10.4</ele><time>2026-04-26T08:49:02.985Z</time></trkpt><trkpt lat="42.76805565040139" lon="10.239211830405829"><ele>10.600000000000001</ele><time>2026-04-26T08:49:03.985Z</time></trkpt><trkpt lat="42.76810926391575" lon="10.23910838232059"><ele>10.8</ele><time>2026-04-26T08:49:06.984Z</time></trkpt><trkpt lat="42.76820435416536" lon="10.23903910940711"><ele>11.0</ele><time>2026-04-26T08:49:08.984Z</time></trkpt><trkpt lat="42.76827480956376" lon="10.238946695181422"><ele>11.200000000000001</ele><time>2026-04-26T08:49:10.984Z</time></trkpt><trkpt lat="42.76825095754188" lon="10.238843742036167"><ele>11.4</ele><time>2026-04-26T08:49:12.984Z</time></trkpt><trkpt lat="42.76832717097373" lon="10.238795663243431"><ele>11.6</ele><time>2026-04-26T08:49:16.984Z</time></trkpt><trkpt lat="42.76844033706477" lon="10.23876868859355"><ele>11.8</ele><time>2026-04-26T08:49:19.984Z</time></trkpt><trkpt lat="42.76851706243308" lon="10.238742318664524"><ele>12.0</ele><time>2026-04-26T08:49:20.984Z</time></trkpt><trkpt lat="42.76860902972019" lon="10.238712297075752"><ele>12.2</ele><time>2026-04-26T08:49:21.984Z</time></trkpt><trkpt lat="42.76870765137167" lon="10.238690043384857"><ele>12.399999999999999</ele><time>2026-04-26T08:49:22.984Z</time></trkpt><trkpt lat="42.76880090695955" lon="10.238672819604401"><ele>12.600000000000001</ele><time>2026-04-26T08:49:23.984Z</time></trkpt><trkpt lat="42.768891962269926" lon="10.238662759563072"><ele>12.8</ele><time>2026-04-26T08:49:24.984Z</time></trkpt><trkpt lat="42.768969571891795" lon="10.238647942551637"><ele>13.0</ele><time>2026-04-26T08:49:25.984Z</time></trkpt><trkpt lat="42.76906334732077" lon="10.23864532304521"><ele>13.0</ele><time>2026-04-26T08:49:26.984Z</time></trkpt><trkpt lat="42.76914809728556" lon="10.238640376422035"><ele>13.0</ele><time>2026-04-26T08:49:27.984Z</time></trkpt><trkpt lat="42.76923769383557" lon="10.238639795257953"><ele>13.0</ele><time>2026-04-26T08:49:28.984Z</time></trkpt><trkpt lat="42.76932903366764" lon="10.238650004361238"><ele>13.0</ele><time>2026-04-26T08:49:29.984Z</time></trkpt><trkpt lat="42.76942366823627" lon="10.238648327189745"><ele>13.0</ele><time>2026-04-26T08:49:30.984Z</time></trkpt><trkpt lat="42.76951583705304" lon="10.23864486686344"><ele>13.0</ele><time>2026-04-26T08:49:31.984Z</time></trkpt><trkpt lat="42.76961750335128" lon="10.23863647661575"><ele>13.0</ele><time>2026-04-26T08:49:32.984Z</time></trkpt><trkpt lat="42.769728843119076" lon="10.23862656051684"><ele>13.0</ele><time>2026-04-26T08:49:33.984Z</time></trkpt><trkpt lat="42.7698264793173" lon="10.238616729193707"><ele>13.0</ele><time>2026-04-26T08:49:34.984Z</time></trkpt><trkpt lat="42.76990056485506" lon="10.238608947551086"><ele>13.0</ele><time>2026-04-26T08:49:35.984Z</time></trkpt><trkpt lat="42.76997608141822" lon="10.238583257536064"><ele>13.0</ele><time>2026-04-26T08:49:36.984Z</time></trkpt><trkpt lat="42.77003845987632" lon="10.238550870836413"><ele>13.0</ele><time>2026-04-26T08:49:37.984Z</time></trkpt><trkpt lat="42.77012055950529" lon="10.238499756520628"><ele>13.0</ele><time>2026-04-26T08:49:39.984Z</time></trkpt><trkpt lat="42.77024612449284" lon="10.23850322151471"><ele>13.0</ele><time>2026-04-26T08:49:41.984Z</time></trkpt><trkpt lat="42.77033531970028" lon="10.238524261431305"><ele>13.0</ele><time>2026-04-26T08:49:42.984Z</time></trkpt><trkpt lat="42.77043988590942" lon="10.238539962430446"><ele>13.25</ele><time>2026-04-26T08:49:43.984Z</time></trkpt><trkpt lat="42.77055021168644" lon="10.238538592204653"><ele>13.5</ele><time>2026-04-26T08:49:44.984Z</time></trkpt><trkpt lat="42.77066661612997" lon="10.23852511476705"><ele>13.75</ele><time>2026-04-26T08:49:45.984Z</time></trkpt><trkpt lat="42.77079774176364" lon="10.23851201943484"><ele>14.0</ele><time>2026-04-26T08:49:46.984Z</time></trkpt><trkpt lat="42.77093195794836" lon="10.23849541088333"><ele>14.75</ele><time>2026-04-26T08:49:47.984Z</time></trkpt><trkpt lat="42.77105685344863" lon="10.238482445861939"><ele>15.5</ele><time>2026-04-26T08:49:48.984Z</time></trkpt><trkpt lat="42.771184724736464" lon="10.238487130132931"><ele>16.25</ele><time>2026-04-26T08:49:49.984Z</time></trkpt><trkpt lat="42.77132075748978" lon="10.238519367859451"><ele>17.0</ele><time>2026-04-26T08:49:50.984Z</time></trkpt><trkpt lat="42.771443602860394" lon="10.238580816390762"><ele>17.0</ele><time>2026-04-26T08:49:51.984Z</time></trkpt><trkpt lat="42.77156645102614" lon="10.238653815337997"><ele>17.0</ele><time>2026-04-26T08:49:52.984Z</time></trkpt><trkpt lat="42.77169094820937" lon="10.238741418393252"><ele>17.0</ele><time>2026-04-26T08:49:53.984Z</time></trkpt><trkpt lat="42.77181476234681" lon="10.238844623000794"><ele>17.0</ele><time>2026-04-26T08:49:54.984Z</time></trkpt><trkpt lat="42.77193660555303" lon="10.238953606442717"><ele>17.5</ele><time>2026-04-26T08:49:55.984Z</time></trkpt><trkpt lat="42.77204607267684" lon="10.239068367287825"><ele>18.0</ele><time>2026-04-26T08:49:56.984Z</time></trkpt><trkpt lat="42.77214524843973" lon="10.239194825371152"><ele>18.5</ele><time>2026-04-26T08:49:57.984Z</time></trkpt><trkpt lat="42.772239827529766" lon="10.239331281769147"><ele>19.0</ele><time>2026-04-26T08:49:58.984Z</time></trkpt><trkpt lat="42.77233749176905" lon="10.239481168152107"><ele>19.0</ele><time>2026-04-26T08:49:59.984Z</time></trkpt><trkpt lat="42.772429272879386" lon="10.239629240467098"><ele>19.0</ele><time>2026-04-26T08:50:00.984Z</time></trkpt><trkpt lat="42.77251358632811" lon="10.239782728233438"><ele>19.0</ele><time>2026-04-26T08:50:01.983Z</time></trkpt><trkpt lat="42.772601946917575" lon="10.239937603898701"><ele>19.0</ele><time>2026-04-26T08:50:02.983Z</time></trkpt><trkpt lat="42.77269394107772" lon="10.240084925835882"><ele>19.0</ele><time>2026-04-26T08:50:03.983Z</time></trkpt><trkpt lat="42.772795824598326" lon="10.240243100336773"><ele>19.0</ele><time>2026-04-26T08:50:04.983Z</time></trkpt><trkpt lat="42.772903731796866" lon="10.240420426123327"><ele>19.0</ele><time>2026-04-26T08:50:05.983Z</time></trkpt><trkpt lat="42.77300552183344" lon="10.240612034978719"><ele>19.0</ele><time>2026-04-26T08:50:06.983Z</time></trkpt><trkpt lat="42.77309193614383" lon="10.240797225867837"><ele>19.0</ele><time>2026-04-26T08:50:07.983Z</time></trkpt><trkpt lat="42.77314913678598" lon="10.240980440395369"><ele>19.0</ele><time>2026-04-26T08:50:08.983Z</time></trkpt><trkpt lat="42.77320505372661" lon="10.24117498748667"><ele>19.0</ele><time>2026-04-26T08:50:09.983Z</time></trkpt><trkpt lat="42.77324913248395" lon="10.241369331895754"><ele>19.0</ele><time>2026-04-26T08:50:10.983Z</time></trkpt><trkpt lat="42.7732966831329" lon="10.241573893980222"><ele>19.0</ele><time>2026-04-26T08:50:11.983Z</time></trkpt><trkpt lat="42.77333662605558" lon="10.241755060927034"><ele>19.0</ele><time>2026-04-26T08:50:12.983Z</time></trkpt><trkpt lat="42.77338098059902" lon="10.241925562857906"><ele>19.0</ele><time>2026-04-26T08:50:13.983Z</time></trkpt><trkpt lat="42.77343741268455" lon="10.242105414851888"><ele>19.0</ele><time>2026-04-26T08:50:14.983Z</time></trkpt><trkpt lat="42.77350013795505" lon="10.24227132081171"><ele>19.0</ele><time>2026-04-26T08:50:15.983Z</time></trkpt><trkpt lat="42.77357665039572" lon="10.242427245566535"><ele>19.0</ele><time>2026-04-26T08:50:16.983Z</time></trkpt><trkpt lat="42.77366899928278" lon="10.242572241935239"><ele>19.75</ele><time>2026-04-26T08:50:17.983Z</time></trkpt><trkpt lat="42.77377614812587" lon="10.242704481668904"><ele>20.5</ele><time>2026-04-26T08:50:18.983Z</time></trkpt><trkpt lat="42.77388673942853" lon="10.242823394344867"><ele>21.25</ele><time>2026-04-26T08:50:19.983Z</time></trkpt><trkpt lat="42.774002386159985" lon="10.242954019210954"><ele>22.0</ele><time>2026-04-26T08:50:20.983Z</time></trkpt><trkpt lat="42.77411494725984" lon="10.243082599827304"><ele>22.25</ele><time>2026-04-26T08:50:21.983Z</time></trkpt><trkpt lat="42.774230055166235" lon="10.243212283869621"><ele>22.5</ele><time>2026-04-26T08:50:22.983Z</time></trkpt><trkpt lat="42.77433798539726" lon="10.243329815106849"><ele>22.75</ele><time>2026-04-26T08:50:23.983Z</time></trkpt><trkpt lat="42.77444629613488" lon="10.243436076674556"><ele>23.0</ele><time>2026-04-26T08:50:24.983Z</time></trkpt><trkpt lat="42.77455376086589" lon="10.243534066252266"><ele>24.5</ele><time>2026-04-26T08:50:25.983Z</time></trkpt><trkpt lat="42.77466406338965" lon="10.2436257083669"><ele>26.0</ele><time>2026-04-26T08:50:26.983Z</time></trkpt><trkpt lat="42.77477183680225" lon="10.243715676568813"><ele>27.5</ele><time>2026-04-26T08:50:27.983Z</time></trkpt><trkpt lat="42.77487535341199" lon="10.243803789224348"><ele>29.0</ele><time>2026-04-26T08:50:28.983Z</time></trkpt><trkpt lat="42.77497801590979" lon="10.243893662008771"><ele>28.799999999999997</ele><time>2026-04-26T08:50:29.983Z</time></trkpt><trkpt lat="42.77508214239824" lon="10.243980916220968"><ele>28.599999999999998</ele><time>2026-04-26T08:50:30.983Z</time></trkpt><trkpt lat="42.775180890371544" lon="10.244060318012723"><ele>28.4</ele><time>2026-04-26T08:50:31.983Z</time></trkpt><trkpt lat="42.77526124131331" lon="10.24412713841777"><ele>28.2</ele><time>2026-04-26T08:50:32.983Z</time></trkpt><trkpt lat="42.77531583623113" lon="10.244172567067004"><ele>28.0</ele><time>2026-04-26T08:50:33.983Z</time></trkpt><trkpt lat="42.775309912331025" lon="10.244275653426204"><ele>28.0</ele><time>2026-04-26T08:50:36.983Z</time></trkpt><trkpt lat="42.775246792618425" lon="10.24440566793494"><ele>27.999999999999996</ele><time>2026-04-26T08:50:42.983Z</time></trkpt><trkpt lat="42.77519445372642" lon="10.244506765128081"><ele>27.999999999999996</ele><time>2026-04-26T08:50:43.983Z</time></trkpt><trkpt lat="42.77512812274906" lon="10.244632745124981"><ele>28.0</ele><time>2026-04-26T08:50:44.983Z</time></trkpt><trkpt lat="42.77505482203219" lon="10.244762907138549"><ele>28.0</ele><time>2026-04-26T08:50:45.983Z</time></trkpt><trkpt lat="42.77498365496723" lon="10.244881724937084"><ele>28.0</ele><time>2026-04-26T08:50:46.983Z</time></trkpt><trkpt lat="42.77490840766766" lon="10.244989573713246"><ele>27.999999999999996</ele><time>2026-04-26T08:50:47.983Z</time></trkpt><trkpt lat="42.774829653706405" lon="10.24508590813097"><ele>27.999999999999996</ele><time>2026-04-26T08:50:48.983Z</time></trkpt><trkpt lat="42.77475355585613" lon="10.24517612649488"><ele>28.0</ele><time>2026-04-26T08:50:49.983Z</time></trkpt><trkpt lat="42.77468561384103" lon="10.245245583058532"><ele>28.0</ele><time>2026-04-26T08:50:50.983Z</time></trkpt><trkpt lat="42.774612195532946" lon="10.245277341734244"><ele>28.000000000000004</ele><time>2026-04-26T08:50:51.983Z</time></trkpt><trkpt lat="42.77452847804785" lon="10.245265214874587"><ele>28.0</ele><time>2026-04-26T08:50:52.983Z</time></trkpt><trkpt lat="42.774444440392614" lon="10.245254043712547"><ele>28.0</ele><time>2026-04-26T08:50:53.983Z</time></trkpt><trkpt lat="42.774359157837324" lon="10.245262499152181"><ele>28.0</ele><time>2026-04-26T08:50:54.983Z</time></trkpt><trkpt lat="42.774290101444066" lon="10.245307164688127"><ele>28.000000000000004</ele><time>2026-04-26T08:50:55.983Z</time></trkpt><trkpt lat="42.77423105016169" lon="10.245358788700196"><ele>28.0</ele><time>2026-04-26T08:50:56.982Z</time></trkpt><trkpt lat="42.774173352186835" lon="10.245432294113128"><ele>27.799999999999997</ele><time>2026-04-26T08:50:57.982Z</time></trkpt><trkpt lat="42.77414295233732" lon="10.24551530335074"><ele>27.599999999999998</ele><time>2026-04-26T08:50:58.982Z</time></trkpt><trkpt lat="42.77414874471956" lon="10.2456272006829"><ele>27.400000000000002</ele><time>2026-04-26T08:51:00.982Z</time></trkpt><trkpt lat="42.77417591129509" lon="10.24577803280852"><ele>27.200000000000003</ele><time>2026-04-26T08:51:01.982Z</time></trkpt><trkpt lat="42.774206889290085" lon="10.245931699683615"><ele>27.0</ele><time>2026-04-26T08:51:02.982Z</time></trkpt><trkpt lat="42.774234180639944" lon="10.246089075703527"><ele>27.0</ele><time>2026-04-26T08:51:03.982Z</time></trkpt><trkpt lat="42.774247188490996" lon="10.246241079594899"><ele>27.0</ele><time>2026-04-26T08:51:04.982Z</time></trkpt><trkpt lat="42.77423770235194" lon="10.246403103425065"><ele>27.0</ele><time>2026-04-26T08:51:05.982Z</time></trkpt><trkpt lat="42.77422528059563" lon="10.246556480421642"><ele>27.0</ele><time>2026-04-26T08:51:06.982Z</time></trkpt><trkpt lat="42.774213349220446" lon="10.246699685470558"><ele>27.0</ele><time>2026-04-26T08:51:07.982Z</time></trkpt><trkpt lat="42.774199032743944" lon="10.246851450869094"><ele>27.000000000000004</ele><time>2026-04-26T08:51:08.982Z</time></trkpt><trkpt lat="42.774188227972346" lon="10.246994851972275"><ele>27.000000000000004</ele><time>2026-04-26T08:51:09.982Z</time></trkpt><trkpt lat="42.774179496293684" lon="10.247117991576463"><ele>27.0</ele><time>2026-04-26T08:51:10.982Z</time></trkpt><trkpt lat="42.77417021834895" lon="10.247237227646515"><ele>27.0</ele><time>2026-04-26T08:51:11.982Z</time></trkpt><trkpt lat="42.77415988781509" lon="10.247342404806858"><ele>27.166666666666668</ele><time>2026-04-26T08:51:12.982Z</time></trkpt><trkpt lat="42.77415083130968" lon="10.247438738657928"><ele>27.333333333333336</ele><time>2026-04-26T08:51:13.982Z</time></trkpt><trkpt lat="42.77414429052124" lon="10.247524723692031"><ele>27.5</ele><time>2026-04-26T08:51:14.982Z</time></trkpt><trkpt lat="42.77414968206614" lon="10.247665382712965"><ele>27.666666666666668</ele><time>2026-04-26T08:51:16.982Z</time></trkpt><trkpt lat="42.77417258765306" lon="10.247781535794045"><ele>27.833333333333336</ele><time>2026-04-26T08:51:19.982Z</time></trkpt><trkpt lat="42.774192346959865" lon="10.247895604460385"><ele>28.0</ele><time>2026-04-26T08:51:21.982Z</time></trkpt><trkpt lat="42.77423565036497" lon="10.248025690294876"><ele>28.166666666666668</ele><time>2026-04-26T08:51:23.982Z</time></trkpt><trkpt lat="42.77431547553812" lon="10.248149648104372"><ele>28.333333333333336</ele><time>2026-04-26T08:51:25.982Z</time></trkpt><trkpt lat="42.774375703671936" lon="10.248198013084147"><ele>28.5</ele><time>2026-04-26T08:51:26.982Z</time></trkpt><trkpt lat="42.77444737546273" lon="10.248211857509665"><ele>28.666666666666664</ele><time>2026-04-26T08:51:27.982Z</time></trkpt><trkpt lat="42.774520307318745" lon="10.248210386345042"><ele>28.833333333333332</ele><time>2026-04-26T08:51:28.982Z</time></trkpt><trkpt lat="42.77459583698758" lon="10.248233355740169"><ele>29.0</ele><time>2026-04-26T08:51:29.982Z</time></trkpt><trkpt lat="42.77465973784549" lon="10.248260406606565"><ele>29.571428571428577</ele><time>2026-04-26T08:51:30.982Z</time></trkpt><trkpt lat="42.77472475405329" lon="10.248297327660683"><ele>30.142857142857146</ele><time>2026-04-26T08:51:31.982Z</time></trkpt><trkpt lat="42.77478024913977" lon="10.248343054124607"><ele>30.714285714285715</ele><time>2026-04-26T08:51:32.982Z</time></trkpt><trkpt lat="42.774829970776196" lon="10.248413009879254"><ele>31.28571428571429</ele><time>2026-04-26T08:51:33.982Z</time></trkpt><trkpt lat="42.77487085005688" lon="10.248485726019279"><ele>31.85714285714286</ele><time>2026-04-26T08:51:34.982Z</time></trkpt><trkpt lat="42.77489267195864" lon="10.248584586345334"><ele>32.42857142857143</ele><time>2026-04-26T08:51:35.982Z</time></trkpt><trkpt lat="42.77490893410298" lon="10.248695206262495"><ele>33.0</ele><time>2026-04-26T08:51:36.982Z</time></trkpt><trkpt lat="42.77491333500643" lon="10.248788624217074"><ele>33.0</ele><time>2026-04-26T08:51:37.982Z</time></trkpt><trkpt lat="42.77492706942489" lon="10.248882089039162"><ele>33.0</ele><time>2026-04-26T08:51:38.982Z</time></trkpt><trkpt lat="42.77493817582887" lon="10.248996075087167"><ele>33.0</ele><time>2026-04-26T08:51:39.982Z</time></trkpt><trkpt lat="42.77496795558281" lon="10.249110458425534"><ele>33.0</ele><time>2026-04-26T08:51:40.982Z</time></trkpt><trkpt lat="42.77499993034796" lon="10.249217606116652"><ele>33.0</ele><time>2026-04-26T08:51:41.982Z</time></trkpt><trkpt lat="42.77502588884499" lon="10.24931570924202"><ele>33.0</ele><time>2026-04-26T08:51:42.982Z</time></trkpt><trkpt lat="42.775043991107395" lon="10.249420555661898"><ele>33.166666666666664</ele><time>2026-04-26T08:51:43.982Z</time></trkpt><trkpt lat="42.77505814387753" lon="10.249511715616293"><ele>33.333333333333336</ele><time>2026-04-26T08:51:44.982Z</time></trkpt><trkpt lat="42.77506237448569" lon="10.249655562275615"><ele>33.5</ele><time>2026-04-26T08:51:46.982Z</time></trkpt><trkpt lat="42.7750405840694" lon="10.249784080628041"><ele>33.66666666666667</ele><time>2026-04-26T08:51:50.982Z</time></trkpt><trkpt lat="42.775032262581185" lon="10.24990717375924"><ele>33.833333333333336</ele><time>2026-04-26T08:51:52.981Z</time></trkpt><trkpt lat="42.77499223828767" lon="10.249997925480255"><ele>34.0</ele><time>2026-04-26T08:51:54.981Z</time></trkpt><trkpt lat="42.77490722606957" lon="10.25013079725759"><ele>34.25</ele><time>2026-04-26T08:51:56.981Z</time></trkpt><trkpt lat="42.77492983319969" lon="10.250351649463227"><ele>34.5</ele><time>2026-04-26T08:51:57.981Z</time></trkpt><trkpt lat="42.774883875711815" lon="10.250497897907028"><ele>34.75</ele><time>2026-04-26T08:51:58.981Z</time></trkpt><trkpt lat="42.774846653937196" lon="10.250625877512778"><ele>35.0</ele><time>2026-04-26T08:51:59.981Z</time></trkpt><trkpt lat="42.77481141471883" lon="10.250734658847193"><ele>35.0</ele><time>2026-04-26T08:52:00.981Z</time></trkpt><trkpt lat="42.77478199030737" lon="10.250834866237124"><ele>35.0</ele><time>2026-04-26T08:52:01.981Z</time></trkpt><trkpt lat="42.77475210214094" lon="10.2509323025"><ele>35.0</ele><time>2026-04-26T08:52:02.981Z</time></trkpt><trkpt lat="42.77471768108213" lon="10.251015516594332"><ele>35.0</ele><time>2026-04-26T08:52:03.981Z</time></trkpt><trkpt lat="42.77467930404109" lon="10.251101485921119"><ele>35.0</ele><time>2026-04-26T08:52:04.981Z</time></trkpt><trkpt lat="42.77465289155782" lon="10.25117936080289"><ele>35.0</ele><time>2026-04-26T08:52:05.981Z</time></trkpt><trkpt lat="42.774644431930845" lon="10.251274799677672"><ele>35.0</ele><time>2026-04-26T08:52:06.981Z</time></trkpt><trkpt lat="42.774642426895326" lon="10.251371416634935"><ele>35.6</ele><time>2026-04-26T08:52:07.981Z</time></trkpt><trkpt lat="42.774668117331366" lon="10.251469375059484"><ele>36.2</ele><time>2026-04-26T08:52:08.981Z</time></trkpt><trkpt lat="42.774717298148154" lon="10.251584142204262"><ele>36.8</ele><time>2026-04-26T08:52:09.981Z</time></trkpt><trkpt lat="42.77478502432696" lon="10.251704604317785"><ele>37.4</ele><time>2026-04-26T08:52:10.981Z</time></trkpt><trkpt lat="42.77485576143854" lon="10.25182953617074"><ele>38.0</ele><time>2026-04-26T08:52:11.981Z</time></trkpt><trkpt lat="42.7749163548374" lon="10.251950396552555"><ele>38.0</ele><time>2026-04-26T08:52:12.981Z</time></trkpt><trkpt lat="42.77497410442892" lon="10.252073869997723"><ele>38.0</ele><time>2026-04-26T08:52:13.981Z</time></trkpt><trkpt lat="42.77503004976479" lon="10.252179361549636"><ele>38.0</ele><time>2026-04-26T08:52:14.981Z</time></trkpt><trkpt lat="42.775089855528776" lon="10.252321552384435"><ele>38.0</ele><time>2026-04-26T08:52:15.981Z</time></trkpt><trkpt lat="42.775150944811955" lon="10.252448853112398"><ele>38.0</ele><time>2026-04-26T08:52:16.981Z</time></trkpt><trkpt lat="42.77521599101212" lon="10.252571132511376"><ele>40.4</ele><time>2026-04-26T08:52:17.981Z</time></trkpt><trkpt lat="42.775261873274225" lon="10.252681182191589"><ele>42.8</ele><time>2026-04-26T08:52:18.981Z</time></trkpt><trkpt lat="42.77530598577546" lon="10.25280628028934"><ele>45.2</ele><time>2026-04-26T08:52:19.981Z</time></trkpt><trkpt lat="42.775338631528506" lon="10.252930965394038"><ele>47.6</ele><time>2026-04-26T08:52:20.981Z</time></trkpt><trkpt lat="42.77538099120666" lon="10.253061420636836"><ele>50.0</ele><time>2026-04-26T08:52:21.981Z</time></trkpt><trkpt lat="42.7754184352352" lon="10.253198462695515"><ele>50.66666666666667</ele><time>2026-04-26T08:52:22.981Z</time></trkpt><trkpt lat="42.77545541007855" lon="10.253325692853545"><ele>51.333333333333336</ele><time>2026-04-26T08:52:23.981Z</time></trkpt><trkpt lat="42.775484716157465" lon="10.25343669901129"><ele>52.0</ele><time>2026-04-26T08:52:24.981Z</time></trkpt><trkpt lat="42.775499883417666" lon="10.253545535151558"><ele>52.66666666666667</ele><time>2026-04-26T08:52:25.981Z</time></trkpt><trkpt lat="42.77548906391828" lon="10.253644500078126"><ele>53.333333333333336</ele><time>2026-04-26T08:52:26.981Z</time></trkpt><trkpt lat="42.77545946760702" lon="10.253733965745335"><ele>54.0</ele><time>2026-04-26T08:52:27.981Z</time></trkpt><trkpt lat="42.775420625440944" lon="10.253815713129262"><ele>54.0</ele><time>2026-04-26T08:52:28.981Z</time></trkpt><trkpt lat="42.77537278645429" lon="10.253894367451274"><ele>54.0</ele><time>2026-04-26T08:52:29.981Z</time></trkpt><trkpt lat="42.77531464937932" lon="10.253978146351328"><ele>54.0</ele><time>2026-04-26T08:52:30.981Z</time></trkpt><trkpt lat="42.775252942317465" lon="10.254057572363715"><ele>54.0</ele><time>2026-04-26T08:52:31.981Z</time></trkpt><trkpt lat="42.77520311598453" lon="10.254134652244607"><ele>54.0</ele><time>2026-04-26T08:52:32.981Z</time></trkpt><trkpt lat="42.77517899554963" lon="10.254215372878994"><ele>54.0</ele><time>2026-04-26T08:52:33.981Z</time></trkpt><trkpt lat="42.77521056467422" lon="10.254374872242318"><ele>54.5</ele><time>2026-04-26T08:52:35.981Z</time></trkpt><trkpt lat="42.77522109220651" lon="10.254542064893972"><ele>55.0</ele><time>2026-04-26T08:52:37.981Z</time></trkpt><trkpt lat="42.77520036242242" lon="10.254655254016381"><ele>55.5</ele><time>2026-04-26T08:52:38.981Z</time></trkpt><trkpt lat="42.775167264442246" lon="10.254861371750499"><ele>56.0</ele><time>2026-04-26T08:52:40.981Z</time></trkpt><trkpt lat="42.775123998274786" lon="10.255004637470543"><ele>55.199999999999996</ele><time>2026-04-26T08:52:41.981Z</time></trkpt><trkpt lat="42.77508218984662" lon="10.255158473438536"><ele>54.39999999999999</ele><time>2026-04-26T08:52:42.981Z</time></trkpt><trkpt lat="42.77502704002508" lon="10.25525334048543"><ele>53.6</ele><time>2026-04-26T08:52:43.981Z</time></trkpt><trkpt lat="42.77498328888149" lon="10.255360304228075"><ele>52.8</ele><time>2026-04-26T08:52:44.981Z</time></trkpt><trkpt lat="42.774949406338635" lon="10.25547122964082"><ele>52.0</ele><time>2026-04-26T08:52:45.981Z</time></trkpt><trkpt lat="42.774914494075006" lon="10.25557926418347"><ele>52.25</ele><time>2026-04-26T08:52:46.98Z</time></trkpt><trkpt lat="42.774846880718826" lon="10.255721737253175"><ele>52.5</ele><time>2026-04-26T08:52:48.98Z</time></trkpt><trkpt lat="42.77477953747288" lon="10.255857602356642"><ele>52.75</ele><time>2026-04-26T08:52:50.98Z</time></trkpt><trkpt lat="42.77475926572677" lon="10.256004427694515"><ele>53.0</ele><time>2026-04-26T08:52:52.98Z</time></trkpt><trkpt lat="42.77474779597405" lon="10.256160520503565"><ele>53.0</ele><time>2026-04-26T08:52:54.98Z</time></trkpt><trkpt lat="42.77473033296655" lon="10.25625451864948"><ele>53.0</ele><time>2026-04-26T08:52:55.98Z</time></trkpt><trkpt lat="42.77472557470702" lon="10.256347508249943"><ele>53.0</ele><time>2026-04-26T08:52:56.98Z</time></trkpt><trkpt lat="42.77479277248401" lon="10.25649498115514"><ele>53.0</ele><time>2026-04-26T08:52:58.98Z</time></trkpt><trkpt lat="42.7748636503333" lon="10.256580057704586"><ele>53.0</ele><time>2026-04-26T08:52:59.98Z</time></trkpt><trkpt lat="42.77493102743255" lon="10.256664766129639"><ele>53.16666666666667</ele><time>2026-04-26T08:53:00.98Z</time></trkpt><trkpt lat="42.77499486735759" lon="10.256757109369406"><ele>53.333333333333336</ele><time>2026-04-26T08:53:01.98Z</time></trkpt><trkpt lat="42.77503406012786" lon="10.25684590872255"><ele>53.5</ele><time>2026-04-26T08:53:02.98Z</time></trkpt><trkpt lat="42.775069759751" lon="10.256939620117912"><ele>53.66666666666667</ele><time>2026-04-26T08:53:03.98Z</time></trkpt><trkpt lat="42.77510429049185" lon="10.25705026095222"><ele>53.833333333333336</ele><time>2026-04-26T08:53:04.98Z</time></trkpt><trkpt lat="42.77514788175607" lon="10.257161973146504"><ele>54.0</ele><time>2026-04-26T08:53:05.98Z</time></trkpt><trkpt lat="42.77519761300055" lon="10.257256504526794"><ele>57.5</ele><time>2026-04-26T08:53:06.98Z</time></trkpt><trkpt lat="42.7752488737584" lon="10.257336210911149"><ele>61.0</ele><time>2026-04-26T08:53:07.98Z</time></trkpt><trkpt lat="42.77531090257549" lon="10.257426771937293"><ele>64.5</ele><time>2026-04-26T08:53:08.98Z</time></trkpt><trkpt lat="42.77537171505556" lon="10.257501749351281"><ele>68.0</ele><time>2026-04-26T08:53:09.98Z</time></trkpt><trkpt lat="42.77542115107615" lon="10.257555525691787"><ele>71.5</ele><time>2026-04-26T08:53:10.98Z</time></trkpt><trkpt lat="42.77542582526113" lon="10.257697038446826"><ele>75.0</ele><time>2026-04-26T08:53:13.98Z</time></trkpt><trkpt lat="42.7754255437315" lon="10.25779169603805"><ele>75.0</ele><time>2026-04-26T08:53:14.98Z</time></trkpt><trkpt lat="42.77541862592563" lon="10.257950844466771"><ele>75.0</ele><time>2026-04-26T08:53:15.98Z</time></trkpt><trkpt lat="42.7754131297789" lon="10.258153017580272"><ele>75.0</ele><time>2026-04-26T08:53:16.98Z</time></trkpt><trkpt lat="42.77539761602786" lon="10.258299508443045"><ele>75.0</ele><time>2026-04-26T08:53:17.98Z</time></trkpt><trkpt lat="42.77537085002501" lon="10.258409614616697"><ele>75.16666666666667</ele><time>2026-04-26T08:53:18.98Z</time></trkpt><trkpt lat="42.77536911906439" lon="10.25854150365563"><ele>75.33333333333333</ele><time>2026-04-26T08:53:20.98Z</time></trkpt><trkpt lat="42.77539383541631" lon="10.25867135683261"><ele>75.5</ele><time>2026-04-26T08:53:22.98Z</time></trkpt><trkpt lat="42.77539327523978" lon="10.258825402585863"><ele>75.66666666666666</ele><time>2026-04-26T08:53:24.98Z</time></trkpt><trkpt lat="42.775388826211845" lon="10.2589204285116"><ele>75.83333333333333</ele><time>2026-04-26T08:53:25.98Z</time></trkpt><trkpt lat="42.77537753116321" lon="10.259016160222897"><ele>76.0</ele><time>2026-04-26T08:53:26.98Z</time></trkpt><trkpt lat="42.77535588371534" lon="10.259134031444683"><ele>77.5</ele><time>2026-04-26T08:53:28.98Z</time></trkpt><trkpt lat="42.77534945662622" lon="10.259260086209881"><ele>79.0</ele><time>2026-04-26T08:53:30.98Z</time></trkpt><trkpt lat="42.77536244373866" lon="10.259412805818455"><ele>80.5</ele><time>2026-04-26T08:53:32.98Z</time></trkpt><trkpt lat="42.77537142893863" lon="10.259503124919398"><ele>82.0</ele><time>2026-04-26T08:53:33.98Z</time></trkpt><trkpt lat="42.77537886206855" lon="10.259591442873521"><ele>83.5</ele><time>2026-04-26T08:53:35.98Z</time></trkpt><trkpt lat="42.775361198973975" lon="10.259738848118515"><ele>85.0</ele><time>2026-04-26T08:53:38.98Z</time></trkpt><trkpt lat="42.775361627042784" lon="10.259841771011976"><ele>86.16666666666666</ele><time>2026-04-26T08:53:39.98Z</time></trkpt><trkpt lat="42.77535481158648" lon="10.259933789813086"><ele>87.33333333333333</ele><time>2026-04-26T08:53:40.98Z</time></trkpt><trkpt lat="42.77534383855386" lon="10.260018943421137"><ele>88.5</ele><time>2026-04-26T08:53:41.979Z</time></trkpt><trkpt lat="42.77531883477645" lon="10.26017366384802"><ele>89.66666666666667</ele><time>2026-04-26T08:53:43.979Z</time></trkpt><trkpt lat="42.77531723743029" lon="10.260306842843251"><ele>90.83333333333334</ele><time>2026-04-26T08:53:45.979Z</time></trkpt><trkpt lat="42.77533303472499" lon="10.260397918150025"><ele>92.0</ele><time>2026-04-26T08:53:46.979Z</time></trkpt><trkpt lat="42.77533128275246" lon="10.260494996852556"><ele>91.0</ele><time>2026-04-26T08:53:47.979Z</time></trkpt><trkpt lat="42.77533468975422" lon="10.260651875626243"><ele>90.0</ele><time>2026-04-26T08:53:49.979Z</time></trkpt><trkpt lat="42.7753063762404" lon="10.260812814589755"><ele>89.0</ele><time>2026-04-26T08:53:51.979Z</time></trkpt><trkpt lat="42.775255081276065" lon="10.260978962588108"><ele>88.0</ele><time>2026-04-26T08:53:53.979Z</time></trkpt><trkpt lat="42.77523020888743" lon="10.261063727908702"><ele>87.0</ele><time>2026-04-26T08:53:54.979Z</time></trkpt><trkpt lat="42.775190880396906" lon="10.261203031491629"><ele>87.0</ele><time>2026-04-26T08:53:56.979Z</time></trkpt><trkpt lat="42.7751428389841" lon="10.26126067539894"><ele>87.0</ele><time>2026-04-26T08:54:05.979Z</time></trkpt><trkpt lat="42.775098216519766" lon="10.261331411679535"><ele>87.0</ele><time>2026-04-26T08:54:10.979Z</time></trkpt><trkpt lat="42.77516604632362" lon="10.2613479704152"><ele>87.0</ele><time>2026-04-26T08:54:13.979Z</time></trkpt><trkpt lat="42.77519122302911" lon="10.261426634227153"><ele>87.0</ele><time>2026-04-26T08:54:50.999Z</time></trkpt><trkpt lat="42.77523103024754" lon="10.261506724352623"><ele>87.0</ele><time>2026-04-26T08:55:23.998Z</time></trkpt><trkpt lat="42.775222202802865" lon="10.261607382425758"><ele>87.0</ele><time>2026-04-26T08:56:33.999Z</time></trkpt><trkpt lat="42.775191585732586" lon="10.261750046757598"><ele>85.85714285714286</ele><time>2026-04-26T08:57:12.998Z</time></trkpt><trkpt lat="42.77516230408844" lon="10.261833710734425"><ele>84.71428571428572</ele><time>2026-04-26T08:58:11.999Z</time></trkpt><trkpt lat="42.7751270153934" lon="10.26193119605637"><ele>83.57142857142858</ele><time>2026-04-26T08:58:16.999Z</time></trkpt><trkpt lat="42.77510823768457" lon="10.262020876265124"><ele>82.42857142857143</ele><time>2026-04-26T08:58:20.998Z</time></trkpt><trkpt lat="42.77513866617363" lon="10.262117404849684"><ele>81.28571428571429</ele><time>2026-04-26T08:58:29.998Z</time></trkpt><trkpt lat="42.775190755023395" lon="10.26218844278403"><ele>80.14285714285715</ele><time>2026-04-26T08:58:33.998Z</time></trkpt><trkpt lat="42.77523238491521" lon="10.26226259100616"><ele>79.0</ele><time>2026-04-26T08:58:36.998Z</time></trkpt><trkpt lat="42.77523112336926" lon="10.262354038843743"><ele>79.00000000000001</ele><time>2026-04-26T08:58:42.998Z</time></trkpt><trkpt lat="42.77523917101547" lon="10.26245241704101"><ele>79.0</ele><time>2026-04-26T08:58:49.998Z</time></trkpt><trkpt lat="42.77525007632024" lon="10.26254855479914"><ele>79.0</ele><time>2026-04-26T08:58:59.998Z</time></trkpt><trkpt lat="42.7752285111733" lon="10.262663338087409"><ele>79.0</ele><time>2026-04-26T08:59:08.998Z</time></trkpt><trkpt lat="42.77524365590644" lon="10.262768236075381"><ele>79.0</ele><time>2026-04-26T08:59:25.997Z</time></trkpt><trkpt lat="42.7752345866613" lon="10.26285852268351"><ele>79.00000000000001</ele><time>2026-04-26T08:59:35.997Z</time></trkpt><trkpt lat="42.77524208391092" lon="10.262947029182612"><ele>79.0</ele><time>2026-04-26T08:59:43.997Z</time></trkpt><trkpt lat="42.77522780802645" lon="10.263037264380037"><ele>80.16666666666666</ele><time>2026-04-26T08:59:47.997Z</time></trkpt><trkpt lat="42.77521432999414" lon="10.263188789359761"><ele>81.33333333333333</ele><time>2026-04-26T09:00:43.999Z</time></trkpt><trkpt lat="42.77523071320449" lon="10.263307620935569"><ele>82.5</ele><time>2026-04-26T09:00:49.999Z</time></trkpt><trkpt lat="42.775215376607235" lon="10.263401270979452"><ele>83.66666666666667</ele><time>2026-04-26T09:00:52.999Z</time></trkpt><trkpt lat="42.77521879555219" lon="10.263518185196991"><ele>84.83333333333334</ele><time>2026-04-26T09:00:56.998Z</time></trkpt><trkpt lat="42.77523301658745" lon="10.26363928295706"><ele>86.0</ele><time>2026-04-26T09:00:59.998Z</time></trkpt><trkpt lat="42.77524341022608" lon="10.263736068641995"><ele>86.00000000000001</ele><time>2026-04-26T09:01:03.998Z</time></trkpt><trkpt lat="42.775227980089554" lon="10.263826364332816"><ele>86.0</ele><time>2026-04-26T09:01:06.998Z</time></trkpt><trkpt lat="42.77522768844655" lon="10.263917849907237"><ele>86.0</ele><time>2026-04-26T09:01:09.998Z</time></trkpt><trkpt lat="42.77524165722677" lon="10.264011820745246"><ele>86.0</ele><time>2026-04-26T09:01:12.998Z</time></trkpt><trkpt lat="42.77523946662109" lon="10.264099261246278"><ele>86.0</ele><time>2026-04-26T09:01:15.998Z</time></trkpt><trkpt lat="42.77524530876944" lon="10.264205573421576"><ele>86.00000000000001</ele><time>2026-04-26T09:01:18.998Z</time></trkpt><trkpt lat="42.77524839108951" lon="10.2643064594255"><ele>86.0</ele><time>2026-04-26T09:01:21.998Z</time></trkpt><trkpt lat="42.77524231070188" lon="10.264417680285476"><ele>87.16666666666667</ele><time>2026-04-26T09:01:24.998Z</time></trkpt><trkpt lat="42.77524544686898" lon="10.264530061851998"><ele>88.33333333333334</ele><time>2026-04-26T09:01:27.998Z</time></trkpt><trkpt lat="42.77526072441504" lon="10.264643479305075"><ele>89.5</ele><time>2026-04-26T09:01:30.998Z</time></trkpt><trkpt lat="42.77525929751456" lon="10.264769866571942"><ele>90.66666666666667</ele><time>2026-04-26T09:01:33.998Z</time></trkpt><trkpt lat="42.77524976344366" lon="10.264873821285367"><ele>91.83333333333333</ele><time>2026-04-26T09:01:36.998Z</time></trkpt><trkpt lat="42.77524805824042" lon="10.264971534547346"><ele>93.0</ele><time>2026-04-26T09:01:39.998Z</time></trkpt><trkpt lat="42.775228743061746" lon="10.265068664425495"><ele>93.85714285714286</ele><time>2026-04-26T09:01:42.998Z</time></trkpt><trkpt lat="42.775223905124896" lon="10.265158126543964"><ele>94.71428571428572</ele><time>2026-04-26T09:01:46.998Z</time></trkpt><trkpt lat="42.7752319471655" lon="10.265251589298225"><ele>95.57142857142858</ele><time>2026-04-26T09:01:54.999Z</time></trkpt><trkpt lat="42.7752259816887" lon="10.265385733269385"><ele>96.42857142857143</ele><time>2026-04-26T09:02:15Z</time></trkpt><trkpt lat="42.77523154124638" lon="10.265478290576423"><ele>97.28571428571428</ele><time>2026-04-26T09:02:19.999Z</time></trkpt><trkpt lat="42.77522819219344" lon="10.265564966464128"><ele>98.14285714285715</ele><time>2026-04-26T09:02:23.999Z</time></trkpt><trkpt lat="42.77521102413593" lon="10.265667412015254"><ele>99.0</ele><time>2026-04-26T09:02:28.999Z</time></trkpt><trkpt lat="42.7751934454231" lon="10.265840925903934"><ele>100.0</ele><time>2026-04-26T09:02:57.999Z</time></trkpt><trkpt lat="42.77516804161472" lon="10.26595561333077"><ele>101.0</ele><time>2026-04-26T09:03:58.998Z</time></trkpt><trkpt lat="42.77513946449858" lon="10.266044509882256"><ele>102.0</ele><time>2026-04-26T09:04:10Z</time></trkpt><trkpt lat="42.77513887148564" lon="10.266150132788207"><ele>103.0</ele><time>2026-04-26T09:04:16.999Z</time></trkpt><trkpt lat="42.77513103186727" lon="10.26624662911327"><ele>104.0</ele><time>2026-04-26T09:04:20.999Z</time></trkpt><trkpt lat="42.77514252204282" lon="10.266330986564737"><ele>105.0</ele><time>2026-04-26T09:04:23.999Z</time></trkpt><trkpt lat="42.77518764412519" lon="10.266392503667763"><ele>106.0</ele><time>2026-04-26T09:04:27.999Z</time></trkpt><trkpt lat="42.77518157733876" lon="10.266486802528792"><ele>107.50000000000001</ele><time>2026-04-26T09:04:32.999Z</time></trkpt><trkpt lat="42.77520280116801" lon="10.266572839032943"><ele>109.0</ele><time>2026-04-26T09:04:42.998Z</time></trkpt><trkpt lat="42.775201089720994" lon="10.266662548036408"><ele>110.5</ele><time>2026-04-26T09:04:50.998Z</time></trkpt><trkpt lat="42.775146490402825" lon="10.26676038565793"><ele>112.0</ele><time>2026-04-26T09:06:00.997Z</time></trkpt><trkpt lat="42.77508219817716" lon="10.266880359827903"><ele>113.50000000000001</ele><time>2026-04-26T09:08:47.999Z</time></trkpt><trkpt lat="42.77504820568575" lon="10.266973557812644"><ele>115.0</ele><time>2026-04-26T09:09:13.999Z</time></trkpt><trkpt lat="42.775041762545726" lon="10.267059621309308"><ele>118.50000000000001</ele><time>2026-04-26T09:09:53.998Z</time></trkpt><trkpt lat="42.77500519985586" lon="10.267134540602628"><ele>122.0</ele><time>2026-04-26T09:09:59.998Z</time></trkpt><trkpt lat="42.77500871199072" lon="10.267225622753655"><ele>125.5</ele><time>2026-04-26T09:10:04.998Z</time></trkpt><trkpt lat="42.77499471048937" lon="10.2673193275415"><ele>129.0</ele><time>2026-04-26T09:10:08.998Z</time></trkpt><trkpt lat="42.775005298759446" lon="10.267440239566092"><ele>132.5</ele><time>2026-04-26T09:10:12.998Z</time></trkpt><trkpt lat="42.774995571793255" lon="10.267548559139511"><ele>136.0</ele><time>2026-04-26T09:10:15.998Z</time></trkpt><trkpt lat="42.77499164670682" lon="10.267667741673861"><ele>138.0</ele><time>2026-04-26T09:10:20Z</time></trkpt><trkpt lat="42.77498558604453" lon="10.26778726734316"><ele>140.0</ele><time>2026-04-26T09:10:23.998Z</time></trkpt><trkpt lat="42.77498376282993" lon="10.267883808363216"><ele>142.0</ele><time>2026-04-26T09:10:26.999Z</time></trkpt><trkpt lat="42.774952165004" lon="10.267971611610262"><ele>144.0</ele><time>2026-04-26T09:10:29.999Z</time></trkpt><trkpt lat="42.77496472862573" lon="10.26806910235738"><ele>146.0</ele><time>2026-04-26T09:10:33.999Z</time></trkpt><trkpt lat="42.77496938720461" lon="10.268177526634382"><ele>148.0</ele><time>2026-04-26T09:10:37.999Z</time></trkpt><trkpt lat="42.77499139806051" lon="10.268279554431974"><ele>149.42857142857144</ele><time>2026-04-26T09:10:40.999Z</time></trkpt><trkpt lat="42.77499552935645" lon="10.268384489498356"><ele>150.85714285714286</ele><time>2026-04-26T09:10:44.999Z</time></trkpt><trkpt lat="42.77500055076129" lon="10.268482826691043"><ele>152.28571428571428</ele><time>2026-04-26T09:10:47.999Z</time></trkpt><trkpt lat="42.77503683396399" lon="10.26856463500964"><ele>153.71428571428572</ele><time>2026-04-26T09:10:50.999Z</time></trkpt><trkpt lat="42.77504726682574" lon="10.268672614130516"><ele>155.14285714285714</ele><time>2026-04-26T09:10:53.999Z</time></trkpt><trkpt lat="42.77503426553862" lon="10.268765414987268"><ele>156.57142857142858</ele><time>2026-04-26T09:10:56.999Z</time></trkpt><trkpt lat="42.77501262098104" lon="10.268847571447013"><ele>158.0</ele><time>2026-04-26T09:10:59.999Z</time></trkpt><trkpt lat="42.775006279140946" lon="10.268936903304615"><ele>160.33333333333331</ele><time>2026-04-26T09:11:05.999Z</time></trkpt><trkpt lat="42.77503939814814" lon="10.269018226927322"><ele>162.66666666666666</ele><time>2026-04-26T09:11:10.999Z</time></trkpt><trkpt lat="42.775060308933405" lon="10.269194879079695"><ele>165.0</ele><time>2026-04-26T09:11:32.998Z</time></trkpt><trkpt lat="42.77507317558703" lon="10.26929200085223"><ele>167.33333333333334</ele><time>2026-04-26T09:11:38.998Z</time></trkpt><trkpt lat="42.77509063451266" lon="10.269388525405656"><ele>169.66666666666669</ele><time>2026-04-26T09:11:44.998Z</time></trkpt><trkpt lat="42.77508882990981" lon="10.269475918445961"><ele>172.0</ele><time>2026-04-26T09:11:49.998Z</time></trkpt><trkpt lat="42.77508998398683" lon="10.26956602774643"><ele>172.00000000000003</ele><time>2026-04-26T09:11:56.998Z</time></trkpt><trkpt lat="42.77509766730227" lon="10.269678728533123"><ele>172.0</ele><time>2026-04-26T09:12:14.997Z</time></trkpt><trkpt lat="42.775021767423546" lon="10.269698185273034"><ele>172.0</ele><time>2026-04-26T09:12:49.998Z</time></trkpt><trkpt lat="42.77498090981348" lon="10.26978496229447"><ele>172.0</ele><time>2026-04-26T09:12:55.998Z</time></trkpt><trkpt lat="42.77492280467286" lon="10.269853463890932"><ele>172.0</ele><time>2026-04-26T09:12:59.998Z</time></trkpt><trkpt lat="42.774887544545805" lon="10.269926196372436"><ele>172.00000000000003</ele><time>2026-04-26T09:13:05.998Z</time></trkpt><trkpt lat="42.77485530876119" lon="10.270012476854289"><ele>172.0</ele><time>2026-04-26T09:13:26.998Z</time></trkpt><trkpt lat="42.77489593072385" lon="10.270089924396572"><ele>174.71428571428572</ele><time>2026-04-26T09:13:32.998Z</time></trkpt><trkpt lat="42.77494222558763" lon="10.27015103709705"><ele>177.42857142857144</ele><time>2026-04-26T09:13:40.998Z</time></trkpt><trkpt lat="42.77496708158638" lon="10.270247447331364"><ele>180.14285714285717</ele><time>2026-04-26T09:14:08.997Z</time></trkpt><trkpt lat="42.77495957499207" lon="10.270333099012808"><ele>182.85714285714286</ele><time>2026-04-26T09:14:15.997Z</time></trkpt><trkpt lat="42.77496956277903" lon="10.270441921287754"><ele>185.57142857142856</ele><time>2026-04-26T09:14:50.999Z</time></trkpt><trkpt lat="42.77498187898185" lon="10.270528882427728"><ele>188.2857142857143</ele><time>2026-04-26T09:16:14.997Z</time></trkpt><trkpt lat="42.775032702050005" lon="10.270600087119812"><ele>191.0</ele><time>2026-04-26T09:16:19.997Z</time></trkpt><trkpt lat="42.77508060240826" lon="10.270691245619302"><ele>194.0</ele><time>2026-04-26T09:16:23.997Z</time></trkpt><trkpt lat="42.77512687685925" lon="10.270789507297762"><ele>197.0</ele><time>2026-04-26T09:16:27.997Z</time></trkpt><trkpt lat="42.77508269701959" lon="10.270856338317296"><ele>200.0</ele><time>2026-04-26T09:16:32.997Z</time></trkpt><trkpt lat="42.77505288317941" lon="10.270947257029055"><ele>203.0</ele><time>2026-04-26T09:16:35.997Z</time></trkpt><trkpt lat="42.775066086323406" lon="10.271037231744463"><ele>206.0</ele><time>2026-04-26T09:16:38.999Z</time></trkpt><trkpt lat="42.77504708689705" lon="10.271149230657063"><ele>209.0</ele><time>2026-04-26T09:16:41.998Z</time></trkpt><trkpt lat="42.77505733765094" lon="10.271238256572806"><ele>212.0</ele><time>2026-04-26T09:16:44.999Z</time></trkpt><trkpt lat="42.775099666487094" lon="10.271315127464957"><ele>212.00000000000003</ele><time>2026-04-26T09:16:46.998Z</time></trkpt><trkpt lat="42.775128973566204" lon="10.27142272426539"><ele>212.0</ele><time>2026-04-26T09:16:49.999Z</time></trkpt><trkpt lat="42.775145740617006" lon="10.271533459158428"><ele>212.0</ele><time>2026-04-26T09:16:52.999Z</time></trkpt><trkpt lat="42.77514203835804" lon="10.271655628725478"><ele>212.0</ele><time>2026-04-26T09:16:56.999Z</time></trkpt><trkpt lat="42.775153772776164" lon="10.271764688205472"><ele>212.00000000000003</ele><time>2026-04-26T09:16:59.998Z</time></trkpt><trkpt lat="42.77516024910473" lon="10.27186225246352"><ele>212.0</ele><time>2026-04-26T09:17:01.998Z</time></trkpt><trkpt lat="42.775180885810336" lon="10.271949134986583"><ele>210.33333333333334</ele><time>2026-04-26T09:17:03.998Z</time></trkpt><trkpt lat="42.775179797226286" lon="10.272062586339656"><ele>208.66666666666669</ele><time>2026-04-26T09:17:06.998Z</time></trkpt><trkpt lat="42.77519192429162" lon="10.27217572020641"><ele>207.0</ele><time>2026-04-26T09:17:09.998Z</time></trkpt><trkpt lat="42.77520529876828" lon="10.272261133329618"><ele>205.33333333333331</ele><time>2026-04-26T09:17:17.998Z</time></trkpt><trkpt lat="42.775202941297074" lon="10.272352391847464"><ele>203.66666666666666</ele><time>2026-04-26T09:17:25.998Z</time></trkpt><trkpt lat="42.775207134070385" lon="10.272468065985796"><ele>202.0</ele><time>2026-04-26T09:17:32.998Z</time></trkpt><trkpt lat="42.77521742445872" lon="10.272572316318834"><ele>215.5</ele><time>2026-04-26T09:17:46.998Z</time></trkpt><trkpt lat="42.77522187372089" lon="10.272658800474238"><ele>229.0</ele><time>2026-04-26T09:18:07.997Z</time></trkpt><trkpt lat="42.774696987963296" lon="10.272774683125947"><ele>231.0</ele><time>2026-04-26T09:52:51.001Z</time></trkpt><trkpt lat="42.77477362553626" lon="10.272763097709701"><ele>232.99999999999997</ele><time>2026-04-26T09:52:55Z</time></trkpt><trkpt lat="42.77483898368797" lon="10.272753217420393"><ele>234.99999999999997</ele><time>2026-04-26T09:52:56Z</time></trkpt><trkpt lat="42.774942257761445" lon="10.27273760532462"><ele>237.0</ele><time>2026-04-26T09:52:57Z</time></trkpt><trkpt lat="42.775071998436005" lon="10.272717992233277"><ele>239.0</ele><time>2026-04-26T09:52:58Z</time></trkpt><trkpt lat="42.77517693033971" lon="10.272702129520837"><ele>239.0</ele><time>2026-04-26T09:52:59Z</time></trkpt><trkpt lat="42.77528983435755" lon="10.27265588363594"><ele>239.0</ele><time>2026-04-26T09:53:46Z</time></trkpt><trkpt lat="42.77469668925545" lon="10.27234810175221"><ele>229.0</ele><time>2026-04-26T09:54:53Z</time></trkpt><trkpt lat="42.77522647489249" lon="10.272672939860692"><ele>231.0</ele><time>2026-04-26T09:54:56Z</time></trkpt><trkpt lat="42.775168695551265" lon="10.272614392206949"><ele>232.99999999999997</ele><time>2026-04-26T09:58:28.999Z</time></trkpt><trkpt lat="42.77506600470121" lon="10.272619613539058"><ele>234.99999999999997</ele><time>2026-04-26T09:58:31.999Z</time></trkpt><trkpt lat="42.7750016859715" lon="10.27264727461218"><ele>237.0</ele><time>2026-04-26T09:58:32.999Z</time></trkpt><trkpt lat="42.774876572970534" lon="10.272740030414887"><ele>239.0</ele><time>2026-04-26T09:58:34.999Z</time></trkpt><trkpt lat="42.774822529226185" lon="10.272804699435277"><ele>239.0</ele><time>2026-04-26T09:58:35.999Z</time></trkpt><trkpt lat="42.77476785338502" lon="10.272876365391754"><ele>238.99999999999997</ele><time>2026-04-26T09:58:37.001Z</time></trkpt><trkpt lat="42.77473003704108" lon="10.273038783675544"><ele>238.99999999999997</ele><time>2026-04-26T09:58:39.001Z</time></trkpt><trkpt lat="42.774720068038384" lon="10.273127761135374"><ele>239.0</ele><time>2026-04-26T09:58:40.002Z</time></trkpt><trkpt lat="42.77473424593841" lon="10.273281231153826"><ele>239.0</ele><time>2026-04-26T09:58:42.001Z</time></trkpt><trkpt lat="42.774793779691755" lon="10.273402397040808"><ele>242.6</ele><time>2026-04-26T09:58:44.001Z</time></trkpt><trkpt lat="42.77478901669968" lon="10.273580822298603"><ele>246.2</ele><time>2026-04-26T09:58:46.001Z</time></trkpt><trkpt lat="42.77477940183812" lon="10.273700569409229"><ele>249.79999999999998</ele><time>2026-04-26T09:58:47.001Z</time></trkpt><trkpt lat="42.774782556857424" lon="10.273816617911379"><ele>253.39999999999998</ele><time>2026-04-26T09:58:48.001Z</time></trkpt><trkpt lat="42.774784035965375" lon="10.273970291339232"><ele>257.0</ele><time>2026-04-26T09:58:49.001Z</time></trkpt><trkpt lat="42.774804613435606" lon="10.274121072762556"><ele>260.2</ele><time>2026-04-26T09:58:50.001Z</time></trkpt><trkpt lat="42.77482021380375" lon="10.274259209329133"><ele>263.4</ele><time>2026-04-26T09:58:51.001Z</time></trkpt><trkpt lat="42.774822065624946" lon="10.274364694923875"><ele>266.6</ele><time>2026-04-26T09:58:52.001Z</time></trkpt><trkpt lat="42.774815988827385" lon="10.274485165706341"><ele>269.8</ele><time>2026-04-26T09:58:53.001Z</time></trkpt><trkpt lat="42.77478593998127" lon="10.274613064396"><ele>273.0</ele><time>2026-04-26T09:58:54.001Z</time></trkpt><trkpt lat="42.77477633414195" lon="10.27474050050173"><ele>275.8</ele><time>2026-04-26T09:58:55.001Z</time></trkpt><trkpt lat="42.77476657619573" lon="10.274878599844138"><ele>278.6</ele><time>2026-04-26T09:58:56.001Z</time></trkpt><trkpt lat="42.774774620404706" lon="10.275001770360157"><ele>281.4</ele><time>2026-04-26T09:58:57.001Z</time></trkpt><trkpt lat="42.77477132980455" lon="10.275150332635734"><ele>284.2</ele><time>2026-04-26T09:58:59.001Z</time></trkpt><trkpt lat="42.77469882372894" lon="10.275166007292574"><ele>287.0</ele><time>2026-04-26T09:59:02.001Z</time></trkpt><trkpt lat="42.774604100197784" lon="10.275134641570078"><ele>287.0</ele><time>2026-04-26T09:59:03.001Z</time></trkpt><trkpt lat="42.77445794161601" lon="10.275097574933776"><ele>287.0</ele><time>2026-04-26T09:59:04.001Z</time></trkpt><trkpt lat="42.77435936498217" lon="10.275048008899752"><ele>287.0</ele><time>2026-04-26T09:59:05.001Z</time></trkpt><trkpt lat="42.7742649874036" lon="10.275033616693515"><ele>287.0</ele><time>2026-04-26T09:59:06.001Z</time></trkpt><trkpt lat="42.7741829158826" lon="10.275034414613325"><ele>287.0</ele><time>2026-04-26T09:59:07.001Z</time></trkpt><trkpt lat="42.77411957852783" lon="10.275024251791145"><ele>284.6666666666667</ele><time>2026-04-26T09:59:08.001Z</time></trkpt><trkpt lat="42.774048349323294" lon="10.275013521495236"><ele>282.33333333333337</ele><time>2026-04-26T09:59:09.001Z</time></trkpt><trkpt lat="42.77395807798728" lon="10.27501974046801"><ele>280.0</ele><time>2026-04-26T09:59:10.001Z</time></trkpt><trkpt lat="42.77385454481271" lon="10.275062040475056"><ele>277.6666666666667</ele><time>2026-04-26T09:59:11.001Z</time></trkpt><trkpt lat="42.77377317026654" lon="10.275087235778514"><ele>275.3333333333333</ele><time>2026-04-26T09:59:12.001Z</time></trkpt><trkpt lat="42.773695705298444" lon="10.275095236721903"><ele>273.0</ele><time>2026-04-26T09:59:13.001Z</time></trkpt><trkpt lat="42.77362288498384" lon="10.27509233295305"><ele>273.0</ele><time>2026-04-26T09:59:14.001Z</time></trkpt><trkpt lat="42.77356106264344" lon="10.275069622075245"><ele>273.0</ele><time>2026-04-26T09:59:15.001Z</time></trkpt><trkpt lat="42.77348993589936" lon="10.27503016711657"><ele>273.0</ele><time>2026-04-26T09:59:16.001Z</time></trkpt><trkpt lat="42.77343018134587" lon="10.2749803780713"><ele>273.0</ele><time>2026-04-26T09:59:17.001Z</time></trkpt><trkpt lat="42.77335071944211" lon="10.274921418863148"><ele>273.0</ele><time>2026-04-26T09:59:18.001Z</time></trkpt><trkpt lat="42.773269556894256" lon="10.274858892111585"><ele>273.0</ele><time>2026-04-26T09:59:19.001Z</time></trkpt><trkpt lat="42.77316616165031" lon="10.274778338356434"><ele>270.6</ele><time>2026-04-26T09:59:20.001Z</time></trkpt><trkpt lat="42.773087347221214" lon="10.27471103497308"><ele>268.20000000000005</ele><time>2026-04-26T09:59:21.001Z</time></trkpt><trkpt lat="42.77301376207535" lon="10.274630716153323"><ele>265.8</ele><time>2026-04-26T09:59:22.001Z</time></trkpt><trkpt lat="42.77295369163579" lon="10.274558321110673"><ele>263.40000000000003</ele><time>2026-04-26T09:59:23.001Z</time></trkpt><trkpt lat="42.77289150962228" lon="10.274513659421691"><ele>261.0</ele><time>2026-04-26T09:59:24.001Z</time></trkpt><trkpt lat="42.772762495782715" lon="10.274462738639649"><ele>266.6</ele><time>2026-04-26T09:59:26.001Z</time></trkpt><trkpt lat="42.77267901267259" lon="10.274472117581935"><ele>272.20000000000005</ele><time>2026-04-26T09:59:27.001Z</time></trkpt><trkpt lat="42.77257587117403" lon="10.274490707710537"><ele>277.79999999999995</ele><time>2026-04-26T09:59:28.001Z</time></trkpt><trkpt lat="42.77246595436016" lon="10.274526373042795"><ele>283.4</ele><time>2026-04-26T09:59:29.001Z</time></trkpt><trkpt lat="42.77236532816428" lon="10.27454782065474"><ele>289.0</ele><time>2026-04-26T09:59:30.001Z</time></trkpt><trkpt lat="42.772265015670655" lon="10.274563222817623"><ele>289.0</ele><time>2026-04-26T09:59:31.001Z</time></trkpt><trkpt lat="42.772175281985064" lon="10.274575719020705"><ele>289.0</ele><time>2026-04-26T09:59:32Z</time></trkpt><trkpt lat="42.77210150157537" lon="10.274562982000525"><ele>289.0</ele><time>2026-04-26T09:59:33Z</time></trkpt><trkpt lat="42.77202202868262" lon="10.274543230831929"><ele>289.0</ele><time>2026-04-26T09:59:34Z</time></trkpt><trkpt lat="42.77193815290172" lon="10.274529929124544"><ele>289.0</ele><time>2026-04-26T09:59:35Z</time></trkpt><trkpt lat="42.77185636343773" lon="10.27453168375432"><ele>289.0</ele><time>2026-04-26T09:59:36Z</time></trkpt><trkpt lat="42.77176587053273" lon="10.27454075627495"><ele>291.59999999999997</ele><time>2026-04-26T09:59:37Z</time></trkpt><trkpt lat="42.771667177972105" lon="10.27453198571113"><ele>294.2</ele><time>2026-04-26T09:59:38Z</time></trkpt><trkpt lat="42.771554758046506" lon="10.27451493538058"><ele>296.79999999999995</ele><time>2026-04-26T09:59:39Z</time></trkpt><trkpt lat="42.77144488034733" lon="10.274496920446065"><ele>299.4</ele><time>2026-04-26T09:59:40Z</time></trkpt><trkpt lat="42.77133422392952" lon="10.274480323563097"><ele>302.0</ele><time>2026-04-26T09:59:41Z</time></trkpt><trkpt lat="42.771239671238376" lon="10.274461648721214"><ele>302.0</ele><time>2026-04-26T09:59:42Z</time></trkpt><trkpt lat="42.771145528578295" lon="10.274453386222413"><ele>302.0</ele><time>2026-04-26T09:59:43Z</time></trkpt><trkpt lat="42.77105196931035" lon="10.274444532866315"><ele>302.0</ele><time>2026-04-26T09:59:44Z</time></trkpt><trkpt lat="42.77095992283507" lon="10.274448291888136"><ele>302.0</ele><time>2026-04-26T09:59:45Z</time></trkpt><trkpt lat="42.77086643814331" lon="10.27444445482875"><ele>302.0</ele><time>2026-04-26T09:59:46Z</time></trkpt><trkpt lat="42.770766931948096" lon="10.274436336932286"><ele>301.4</ele><time>2026-04-26T09:59:47Z</time></trkpt><trkpt lat="42.770675632322884" lon="10.274426911280456"><ele>300.79999999999995</ele><time>2026-04-26T09:59:48Z</time></trkpt><trkpt lat="42.770580827304045" lon="10.274431346494824"><ele>300.2</ele><time>2026-04-26T09:59:49Z</time></trkpt><trkpt lat="42.77048354856481" lon="10.274447046665635"><ele>299.59999999999997</ele><time>2026-04-26T09:59:50Z</time></trkpt><trkpt lat="42.770390311725556" lon="10.274443073709348"><ele>299.0</ele><time>2026-04-26T09:59:51Z</time></trkpt><trkpt lat="42.77030843628508" lon="10.274440494306322"><ele>299.0</ele><time>2026-04-26T09:59:52Z</time></trkpt><trkpt lat="42.77023067559913" lon="10.274438419291059"><ele>299.0</ele><time>2026-04-26T09:59:53Z</time></trkpt><trkpt lat="42.77014210880606" lon="10.274448816021968"><ele>299.0</ele><time>2026-04-26T09:59:54Z</time></trkpt><trkpt lat="42.77002843829714" lon="10.274496424328499"><ele>299.0</ele><time>2026-04-26T09:59:55Z</time></trkpt><trkpt lat="42.769915151531215" lon="10.274556936267338"><ele>299.0</ele><time>2026-04-26T09:59:56Z</time></trkpt><trkpt lat="42.76981647008334" lon="10.274610776446858"><ele>298.83333333333337</ele><time>2026-04-26T09:59:57Z</time></trkpt><trkpt lat="42.769722669485944" lon="10.274646447548527"><ele>298.6666666666667</ele><time>2026-04-26T09:59:58Z</time></trkpt><trkpt lat="42.7696317714529" lon="10.274666075813498"><ele>298.5</ele><time>2026-04-26T09:59:59Z</time></trkpt><trkpt lat="42.76954119499412" lon="10.274676829774247"><ele>298.3333333333333</ele><time>2026-04-26T10:00:00Z</time></trkpt><trkpt lat="42.76946382976908" lon="10.274661452056314"><ele>298.16666666666663</ele><time>2026-04-26T10:00:01Z</time></trkpt><trkpt lat="42.76939207452603" lon="10.274622598582127"><ele>298.0</ele><time>2026-04-26T10:00:02Z</time></trkpt><trkpt lat="42.76932386378707" lon="10.274563385315474"><ele>296.2</ele><time>2026-04-26T10:00:03Z</time></trkpt><trkpt lat="42.76924302183681" lon="10.274497321041876"><ele>294.4</ele><time>2026-04-26T10:00:04Z</time></trkpt><trkpt lat="42.769158854913115" lon="10.274446506509689"><ele>292.59999999999997</ele><time>2026-04-26T10:00:05Z</time></trkpt><trkpt lat="42.769064158086884" lon="10.27440657261297"><ele>290.8</ele><time>2026-04-26T10:00:06Z</time></trkpt><trkpt lat="42.768965383283025" lon="10.274387489186845"><ele>289.0</ele><time>2026-04-26T10:00:07Z</time></trkpt><trkpt lat="42.76886533935521" lon="10.274373919893284"><ele>289.0</ele><time>2026-04-26T10:00:08Z</time></trkpt><trkpt lat="42.768771610625045" lon="10.27436092424748"><ele>289.0</ele><time>2026-04-26T10:00:09Z</time></trkpt><trkpt lat="42.76868107234725" lon="10.274338601624065"><ele>289.0</ele><time>2026-04-26T10:00:10Z</time></trkpt><trkpt lat="42.76858974508355" lon="10.27431536717337"><ele>289.0</ele><time>2026-04-26T10:00:11Z</time></trkpt><trkpt lat="42.76850988064074" lon="10.274311776413915"><ele>289.0</ele><time>2026-04-26T10:00:12Z</time></trkpt><trkpt lat="42.76843537380937" lon="10.274340770317455"><ele>289.0</ele><time>2026-04-26T10:00:13Z</time></trkpt><trkpt lat="42.76835883490725" lon="10.274386059503364"><ele>287.3333333333333</ele><time>2026-04-26T10:00:14Z</time></trkpt><trkpt lat="42.76828104667452" lon="10.274420535998676"><ele>285.66666666666663</ele><time>2026-04-26T10:00:15Z</time></trkpt><trkpt lat="42.76819506706118" lon="10.27443295557638"><ele>284.0</ele><time>2026-04-26T10:00:16Z</time></trkpt><trkpt lat="42.76810460931391" lon="10.274414349343337"><ele>282.3333333333333</ele><time>2026-04-26T10:00:17Z</time></trkpt><trkpt lat="42.76801876851901" lon="10.274382443667742"><ele>280.6666666666667</ele><time>2026-04-26T10:00:18Z</time></trkpt><trkpt lat="42.767932342272275" lon="10.274334916955304"><ele>279.0</ele><time>2026-04-26T10:00:19Z</time></trkpt><trkpt lat="42.7678545391839" lon="10.274267463796384"><ele>279.0</ele><time>2026-04-26T10:00:20Z</time></trkpt><trkpt lat="42.76777949651067" lon="10.274203212292932"><ele>279.0</ele><time>2026-04-26T10:00:21Z</time></trkpt><trkpt lat="42.767705758386114" lon="10.274150963770603"><ele>279.0</ele><time>2026-04-26T10:00:22Z</time></trkpt><trkpt lat="42.767632744682345" lon="10.27411039223804"><ele>279.0</ele><time>2026-04-26T10:00:23Z</time></trkpt><trkpt lat="42.767562660727535" lon="10.274097632911662"><ele>279.0</ele><time>2026-04-26T10:00:24Z</time></trkpt><trkpt lat="42.767483490553154" lon="10.274091016706237"><ele>279.0</ele><time>2026-04-26T10:00:25Z</time></trkpt><trkpt lat="42.767397588554836" lon="10.27409554702058"><ele>276.6666666666667</ele><time>2026-04-26T10:00:26Z</time></trkpt><trkpt lat="42.76730226614432" lon="10.274108922246352"><ele>274.3333333333333</ele><time>2026-04-26T10:00:27Z</time></trkpt><trkpt lat="42.76721761852021" lon="10.274136503861435"><ele>272.0</ele><time>2026-04-26T10:00:28Z</time></trkpt><trkpt lat="42.76714077257744" lon="10.274161160147314"><ele>269.66666666666663</ele><time>2026-04-26T10:00:28.999Z</time></trkpt><trkpt lat="42.76706922655222" lon="10.274186428164368"><ele>267.3333333333333</ele><time>2026-04-26T10:00:29.999Z</time></trkpt><trkpt lat="42.76699257927435" lon="10.274213633643136"><ele>265.0</ele><time>2026-04-26T10:00:30.999Z</time></trkpt><trkpt lat="42.766912470814795" lon="10.274241346321253"><ele>263.16666666666663</ele><time>2026-04-26T10:00:31.999Z</time></trkpt><trkpt lat="42.76683627305025" lon="10.274256461305505"><ele>261.3333333333333</ele><time>2026-04-26T10:00:32.999Z</time></trkpt><trkpt lat="42.76675971307697" lon="10.274262060941798"><ele>259.5</ele><time>2026-04-26T10:00:33.999Z</time></trkpt><trkpt lat="42.76668539671013" lon="10.274236494355225"><ele>257.6666666666667</ele><time>2026-04-26T10:00:34.999Z</time></trkpt><trkpt lat="42.76661410754141" lon="10.274195364590234"><ele>255.83333333333334</ele><time>2026-04-26T10:00:35.999Z</time></trkpt><trkpt lat="42.7665494281873" lon="10.274131302843013"><ele>254.0</ele><time>2026-04-26T10:00:36.999Z</time></trkpt><trkpt lat="42.766485685081655" lon="10.274062825733958"><ele>254.0</ele><time>2026-04-26T10:00:37.999Z</time></trkpt><trkpt lat="42.76643977461677" lon="10.273984441285172"><ele>254.0</ele><time>2026-04-26T10:00:38.999Z</time></trkpt><trkpt lat="42.76640494392479" lon="10.273894999865774"><ele>254.0</ele><time>2026-04-26T10:00:39.999Z</time></trkpt><trkpt lat="42.766375358523355" lon="10.273803885696385"><ele>254.0</ele><time>2026-04-26T10:00:40.999Z</time></trkpt><trkpt lat="42.766342237408736" lon="10.273727440595188"><ele>254.0</ele><time>2026-04-26T10:00:41.999Z</time></trkpt><trkpt lat="42.76628582828348" lon="10.27367160230566"><ele>254.0</ele><time>2026-04-26T10:00:43.002Z</time></trkpt><trkpt lat="42.766203399372" lon="10.27363019157636"><ele>254.0</ele><time>2026-04-26T10:00:44.001Z</time></trkpt><trkpt lat="42.76612156411641" lon="10.273580328222032"><ele>254.28571428571428</ele><time>2026-04-26T10:00:45.001Z</time></trkpt><trkpt lat="42.76604310255302" lon="10.273529557577177"><ele>254.57142857142856</ele><time>2026-04-26T10:00:46.001Z</time></trkpt><trkpt lat="42.765970684155334" lon="10.273481766700035"><ele>254.85714285714283</ele><time>2026-04-26T10:00:47.001Z</time></trkpt><trkpt lat="42.765906080926456" lon="10.273450240339196"><ele>255.14285714285714</ele><time>2026-04-26T10:00:48.001Z</time></trkpt><trkpt lat="42.76583907881032" lon="10.273447472362935"><ele>255.4285714285714</ele><time>2026-04-26T10:00:49.001Z</time></trkpt><trkpt lat="42.765774377612736" lon="10.273478184611934"><ele>255.7142857142857</ele><time>2026-04-26T10:00:50.001Z</time></trkpt><trkpt lat="42.765718872416706" lon="10.273538326170694"><ele>256.0</ele><time>2026-04-26T10:00:51.001Z</time></trkpt><trkpt lat="42.76565787597619" lon="10.27357552305369"><ele>256.0</ele><time>2026-04-26T10:00:52.001Z</time></trkpt><trkpt lat="42.76556512417457" lon="10.273628771667331"><ele>256.0</ele><time>2026-04-26T10:00:54.001Z</time></trkpt><trkpt lat="42.765489646024534" lon="10.273658679272396"><ele>256.0</ele><time>2026-04-26T10:01:02.001Z</time></trkpt><trkpt lat="42.765427440511395" lon="10.273780689767815"><ele>256.0</ele><time>2026-04-26T10:01:05.001Z</time></trkpt><trkpt lat="42.76538620164784" lon="10.273928067326237"><ele>256.0</ele><time>2026-04-26T10:01:07.001Z</time></trkpt><trkpt lat="42.76534958187785" lon="10.274005925012444"><ele>255.0</ele><time>2026-04-26T10:01:08.001Z</time></trkpt><trkpt lat="42.76528939188959" lon="10.27406471064324"><ele>254.00000000000003</ele><time>2026-04-26T10:01:09.001Z</time></trkpt><trkpt lat="42.765215832840845" lon="10.274090891933046"><ele>253.00000000000003</ele><time>2026-04-26T10:01:10.001Z</time></trkpt><trkpt lat="42.76513136958507" lon="10.27408597850143"><ele>252.0</ele><time>2026-04-26T10:01:11.001Z</time></trkpt><trkpt lat="42.765037705559465" lon="10.274081015458853"><ele>251.0</ele><time>2026-04-26T10:01:12.001Z</time></trkpt><trkpt lat="42.76491825010111" lon="10.274110358842467"><ele>251.0</ele><time>2026-04-26T10:01:13.001Z</time></trkpt><trkpt lat="42.76477629871945" lon="10.274153245639367"><ele>251.0</ele><time>2026-04-26T10:01:14.001Z</time></trkpt><trkpt lat="42.76463569732875" lon="10.274181968680779"><ele>251.0</ele><time>2026-04-26T10:01:15.001Z</time></trkpt><trkpt lat="42.76449594863169" lon="10.274224796004598"><ele>251.0</ele><time>2026-04-26T10:01:16.001Z</time></trkpt><trkpt lat="42.764362016837666" lon="10.274268252261187"><ele>253.25</ele><time>2026-04-26T10:01:17Z</time></trkpt><trkpt lat="42.76423470526105" lon="10.274332532759901"><ele>255.5</ele><time>2026-04-26T10:01:18Z</time></trkpt><trkpt lat="42.76411062281548" lon="10.274401207153927"><ele>257.75</ele><time>2026-04-26T10:01:19Z</time></trkpt><trkpt lat="42.76399489875882" lon="10.274472956163242"><ele>260.0</ele><time>2026-04-26T10:01:20Z</time></trkpt><trkpt lat="42.76386470838996" lon="10.27454169763776"><ele>260.0</ele><time>2026-04-26T10:01:21Z</time></trkpt><trkpt lat="42.763738308482495" lon="10.274619071259687"><ele>260.0</ele><time>2026-04-26T10:01:22Z</time></trkpt><trkpt lat="42.76361396619595" lon="10.27468456322661"><ele>260.0</ele><time>2026-04-26T10:01:23Z</time></trkpt><trkpt lat="42.76346555107111" lon="10.274736791727273"><ele>260.0</ele><time>2026-04-26T10:01:24Z</time></trkpt><trkpt lat="42.76331939866386" lon="10.27477245184022"><ele>252.75</ele><time>2026-04-26T10:01:25Z</time></trkpt><trkpt lat="42.76317966474053" lon="10.274810581912623"><ele>245.5</ele><time>2026-04-26T10:01:26Z</time></trkpt><trkpt lat="42.76305689570655" lon="10.274857944219786"><ele>238.25</ele><time>2026-04-26T10:01:27Z</time></trkpt><trkpt lat="42.762923446710815" lon="10.274872922426226"><ele>231.0</ele><time>2026-04-26T10:01:28Z</time></trkpt><trkpt lat="42.76279580684041" lon="10.274861813399141"><ele>231.25</ele><time>2026-04-26T10:01:29Z</time></trkpt><trkpt lat="42.762671221401895" lon="10.274857894224265"><ele>231.5</ele><time>2026-04-26T10:01:30Z</time></trkpt><trkpt lat="42.762561837919186" lon="10.274885852085122"><ele>231.75</ele><time>2026-04-26T10:01:31Z</time></trkpt><trkpt lat="42.76243983506886" lon="10.2749792901612"><ele>232.0</ele><time>2026-04-26T10:01:32Z</time></trkpt><trkpt lat="42.7623434851441" lon="10.275079296959925"><ele>232.0</ele><time>2026-04-26T10:01:33Z</time></trkpt><trkpt lat="42.76225345293671" lon="10.275121194734696"><ele>232.0</ele><time>2026-04-26T10:01:34Z</time></trkpt><trkpt lat="42.7621064531752" lon="10.275045278188157"><ele>232.0</ele><time>2026-04-26T10:01:36Z</time></trkpt><trkpt lat="42.762004337483006" lon="10.274939464687895"><ele>232.0</ele><time>2026-04-26T10:01:37Z</time></trkpt><trkpt lat="42.76190349192799" lon="10.27477484920767"><ele>233.5</ele><time>2026-04-26T10:01:38Z</time></trkpt><trkpt lat="42.76180496196359" lon="10.274640465030297"><ele>235.0</ele><time>2026-04-26T10:01:39Z</time></trkpt><trkpt lat="42.76170312906948" lon="10.274523855325201"><ele>236.5</ele><time>2026-04-26T10:01:40Z</time></trkpt><trkpt lat="42.76159467147546" lon="10.274424817254458"><ele>238.0</ele><time>2026-04-26T10:01:41Z</time></trkpt><trkpt lat="42.76149825612469" lon="10.274328680908704"><ele>238.0</ele><time>2026-04-26T10:01:42Z</time></trkpt><trkpt lat="42.761408896028115" lon="10.274212479887264"><ele>238.0</ele><time>2026-04-26T10:01:43Z</time></trkpt><trkpt lat="42.76132252238064" lon="10.274128761679"><ele>238.0</ele><time>2026-04-26T10:01:44Z</time></trkpt><trkpt lat="42.761224939445505" lon="10.27408936224351"><ele>238.0</ele><time>2026-04-26T10:01:45Z</time></trkpt><trkpt lat="42.76111845262021" lon="10.274121052431846"><ele>238.0</ele><time>2026-04-26T10:01:46Z</time></trkpt><trkpt lat="42.761008798421" lon="10.274181401298184"><ele>233.25</ele><time>2026-04-26T10:01:47Z</time></trkpt><trkpt lat="42.76090094843545" lon="10.274226002169659"><ele>228.5</ele><time>2026-04-26T10:01:48Z</time></trkpt><trkpt lat="42.7607561130122" lon="10.274219817902322"><ele>223.75</ele><time>2026-04-26T10:01:49Z</time></trkpt><trkpt lat="42.760611488793025" lon="10.274205438239063"><ele>219.0</ele><time>2026-04-26T10:01:50Z</time></trkpt><trkpt lat="42.76048031595644" lon="10.274215014876424"><ele>219.0</ele><time>2026-04-26T10:01:51Z</time></trkpt><trkpt lat="42.76034376687509" lon="10.27422421565412"><ele>219.0</ele><time>2026-04-26T10:01:52Z</time></trkpt><trkpt lat="42.760207630016055" lon="10.2742439744341"><ele>219.0</ele><time>2026-04-26T10:01:53Z</time></trkpt><trkpt lat="42.76008124635402" lon="10.27425384447474"><ele>219.0</ele><time>2026-04-26T10:01:54Z</time></trkpt><trkpt lat="42.759972211362005" lon="10.274267246119697"><ele>219.79999999999998</ele><time>2026-04-26T10:01:55Z</time></trkpt><trkpt lat="42.759887637594886" lon="10.274304159607032"><ele>220.59999999999997</ele><time>2026-04-26T10:01:56Z</time></trkpt><trkpt lat="42.759806641030124" lon="10.274365509269401"><ele>221.4</ele><time>2026-04-26T10:01:57Z</time></trkpt><trkpt lat="42.75975056973416" lon="10.274491809482836"><ele>222.2</ele><time>2026-04-26T10:01:58Z</time></trkpt><trkpt lat="42.75971894283951" lon="10.274621879723455"><ele>223.0</ele><time>2026-04-26T10:01:59Z</time></trkpt><trkpt lat="42.75969029440835" lon="10.274749348694176"><ele>221.5</ele><time>2026-04-26T10:02:00Z</time></trkpt><trkpt lat="42.759545159161405" lon="10.274971150632913"><ele>220.0</ele><time>2026-04-26T10:02:02Z</time></trkpt><trkpt lat="42.75945034466517" lon="10.275054532997613"><ele>218.5</ele><time>2026-04-26T10:02:03Z</time></trkpt><trkpt lat="42.75936846356755" lon="10.27514847333875"><ele>217.0</ele><time>2026-04-26T10:02:04Z</time></trkpt><trkpt lat="42.75930563112543" lon="10.275248876344957"><ele>217.0</ele><time>2026-04-26T10:02:05Z</time></trkpt><trkpt lat="42.759295228472205" lon="10.275378237554632"><ele>217.0</ele><time>2026-04-26T10:02:06Z</time></trkpt><trkpt lat="42.75933400834947" lon="10.275492983105625"><ele>217.0</ele><time>2026-04-26T10:02:07Z</time></trkpt><trkpt lat="42.75940182483292" lon="10.275576155064146"><ele>217.0</ele><time>2026-04-26T10:02:08Z</time></trkpt><trkpt lat="42.75946673241548" lon="10.275664046627623"><ele>217.0</ele><time>2026-04-26T10:02:09Z</time></trkpt><trkpt lat="42.75949953617691" lon="10.275779604746228"><ele>206.5</ele><time>2026-04-26T10:02:10Z</time></trkpt><trkpt lat="42.759496447701785" lon="10.275925265330528"><ele>196.0</ele><time>2026-04-26T10:02:11Z</time></trkpt><trkpt lat="42.75947499265308" lon="10.276101287673745"><ele>185.5</ele><time>2026-04-26T10:02:12Z</time></trkpt><trkpt lat="42.75944585695938" lon="10.276308610953011"><ele>175.0</ele><time>2026-04-26T10:02:13Z</time></trkpt><trkpt lat="42.75943111733421" lon="10.276506231315365"><ele>172.75</ele><time>2026-04-26T10:02:14Z</time></trkpt><trkpt lat="42.75943648114626" lon="10.276690144569159"><ele>170.5</ele><time>2026-04-26T10:02:14.999Z</time></trkpt><trkpt lat="42.759444440431004" lon="10.276875338728244"><ele>168.25</ele><time>2026-04-26T10:02:15.999Z</time></trkpt><trkpt lat="42.75944480183359" lon="10.277056097292679"><ele>166.0</ele><time>2026-04-26T10:02:16.999Z</time></trkpt><trkpt lat="42.75943561558593" lon="10.27724026953211"><ele>164.5</ele><time>2026-04-26T10:02:17.999Z</time></trkpt><trkpt lat="42.75943989962948" lon="10.27742275820641"><ele>163.0</ele><time>2026-04-26T10:02:18.999Z</time></trkpt><trkpt lat="42.75944921426759" lon="10.277603914255073"><ele>161.5</ele><time>2026-04-26T10:02:19.999Z</time></trkpt><trkpt lat="42.7594463933047" lon="10.277759849263916"><ele>160.0</ele><time>2026-04-26T10:02:20.999Z</time></trkpt><trkpt lat="42.75943453394856" lon="10.277899788822468"><ele>160.0</ele><time>2026-04-26T10:02:21.999Z</time></trkpt><trkpt lat="42.75945257262449" lon="10.278034940701279"><ele>160.0</ele><time>2026-04-26T10:02:22.999Z</time></trkpt><trkpt lat="42.75951861614319" lon="10.278171334635417"><ele>160.0</ele><time>2026-04-26T10:02:23.999Z</time></trkpt><trkpt lat="42.75961120751828" lon="10.278295056900728"><ele>160.0</ele><time>2026-04-26T10:02:24.999Z</time></trkpt><trkpt lat="42.759683700120284" lon="10.278435701209338"><ele>160.0</ele><time>2026-04-26T10:02:25.999Z</time></trkpt><trkpt lat="42.75974116763563" lon="10.27859133735756"><ele>160.0</ele><time>2026-04-26T10:02:26.999Z</time></trkpt><trkpt lat="42.75978255003342" lon="10.278780539495148"><ele>160.0</ele><time>2026-04-26T10:02:27.999Z</time></trkpt><trkpt lat="42.759802779612606" lon="10.279027345922259"><ele>159.66666666666669</ele><time>2026-04-26T10:02:28.999Z</time></trkpt><trkpt lat="42.75983154523754" lon="10.279273288623733"><ele>159.33333333333334</ele><time>2026-04-26T10:02:29.999Z</time></trkpt><trkpt lat="42.7598537801441" lon="10.27949698494216"><ele>159.0</ele><time>2026-04-26T10:02:30.999Z</time></trkpt><trkpt lat="42.75987059583814" lon="10.27968584298908"><ele>158.6</ele><time>2026-04-26T10:02:31.999Z</time></trkpt><trkpt lat="42.759874856190585" lon="10.279829727293876"><ele>158.2</ele><time>2026-04-26T10:02:32.999Z</time></trkpt><trkpt lat="42.75985853553497" lon="10.279939880452853"><ele>157.79999999999998</ele><time>2026-04-26T10:02:33.999Z</time></trkpt><trkpt lat="42.75981671688634" lon="10.280038425246499"><ele>157.4</ele><time>2026-04-26T10:02:34.999Z</time></trkpt><trkpt lat="42.75975286681288" lon="10.280153010453608"><ele>157.0</ele><time>2026-04-26T10:02:35.999Z</time></trkpt><trkpt lat="42.759680822450235" lon="10.280249147280564"><ele>157.0</ele><time>2026-04-26T10:02:36.999Z</time></trkpt><trkpt lat="42.75963613887485" lon="10.280342056058924"><ele>157.0</ele><time>2026-04-26T10:02:37.999Z</time></trkpt><trkpt lat="42.75959027112533" lon="10.280452213959776"><ele>157.0</ele><time>2026-04-26T10:02:38.999Z</time></trkpt><trkpt lat="42.75961866554095" lon="10.280548787403708"><ele>157.0</ele><time>2026-04-26T10:02:39.999Z</time></trkpt><trkpt lat="42.75968229123813" lon="10.280620377148264"><ele>157.0</ele><time>2026-04-26T10:02:40.999Z</time></trkpt><trkpt lat="42.75979269726987" lon="10.280646998325109"><ele>157.0</ele><time>2026-04-26T10:02:41.999Z</time></trkpt><trkpt lat="42.759921055420456" lon="10.280703779327588"><ele>156.6</ele><time>2026-04-26T10:02:42.999Z</time></trkpt><trkpt lat="42.76002431163826" lon="10.280790127085712"><ele>156.2</ele><time>2026-04-26T10:02:43.999Z</time></trkpt><trkpt lat="42.760112713901194" lon="10.280882626961345"><ele>155.8</ele><time>2026-04-26T10:02:44.999Z</time></trkpt><trkpt lat="42.760175741685416" lon="10.280964427834508"><ele>155.4</ele><time>2026-04-26T10:02:45.999Z</time></trkpt><trkpt lat="42.76021053614086" lon="10.2810372086957"><ele>155.0</ele><time>2026-04-26T10:02:46.999Z</time></trkpt><trkpt lat="42.76027024094519" lon="10.281126202712683"><ele>152.6</ele><time>2026-04-26T10:03:03.001Z</time></trkpt><trkpt lat="42.760343118373655" lon="10.281194225013843"><ele>150.2</ele><time>2026-04-26T10:03:05.001Z</time></trkpt><trkpt lat="42.76040102865115" lon="10.28123134093567"><ele>147.8</ele><time>2026-04-26T10:03:06.001Z</time></trkpt><trkpt lat="42.76047894799211" lon="10.281301843010063"><ele>145.4</ele><time>2026-04-26T10:03:07.001Z</time></trkpt><trkpt lat="42.76057448722616" lon="10.281405751996887"><ele>143.0</ele><time>2026-04-26T10:03:08.001Z</time></trkpt><trkpt lat="42.760668641384655" lon="10.281512263324814"><ele>143.0</ele><time>2026-04-26T10:03:09.001Z</time></trkpt><trkpt lat="42.76075320644746" lon="10.28161116232492"><ele>143.0</ele><time>2026-04-26T10:03:10.001Z</time></trkpt><trkpt lat="42.76084266258432" lon="10.28170680772773"><ele>143.0</ele><time>2026-04-26T10:03:11.001Z</time></trkpt><trkpt lat="42.760923769238005" lon="10.281799470097619"><ele>143.0</ele><time>2026-04-26T10:03:12.001Z</time></trkpt><trkpt lat="42.760992101438056" lon="10.28188695096108"><ele>143.0</ele><time>2026-04-26T10:03:13.001Z</time></trkpt><trkpt lat="42.761050209284896" lon="10.281980432852125"><ele>138.25</ele><time>2026-04-26T10:03:14.001Z</time></trkpt><trkpt lat="42.761100006472454" lon="10.282094727523646"><ele>133.5</ele><time>2026-04-26T10:03:15.001Z</time></trkpt><trkpt lat="42.76114442709242" lon="10.282228804541075"><ele>128.75</ele><time>2026-04-26T10:03:16.001Z</time></trkpt><trkpt lat="42.761206081795606" lon="10.282373678442996"><ele>124.0</ele><time>2026-04-26T10:03:17.001Z</time></trkpt><trkpt lat="42.76127811287566" lon="10.282510874768096"><ele>124.0</ele><time>2026-04-26T10:03:18.001Z</time></trkpt><trkpt lat="42.761355698502996" lon="10.282647376063688"><ele>124.0</ele><time>2026-04-26T10:03:19.001Z</time></trkpt><trkpt lat="42.761430495772366" lon="10.282781698609288"><ele>124.0</ele><time>2026-04-26T10:03:20.001Z</time></trkpt><trkpt lat="42.76150400936434" lon="10.282923252056909"><ele>124.0</ele><time>2026-04-26T10:03:21.001Z</time></trkpt><trkpt lat="42.76158063033957" lon="10.283064193585403"><ele>126.75</ele><time>2026-04-26T10:03:22.001Z</time></trkpt><trkpt lat="42.76166368986529" lon="10.283186761276715"><ele>129.5</ele><time>2026-04-26T10:03:23.001Z</time></trkpt><trkpt lat="42.761757425013286" lon="10.283288838666047"><ele>132.25</ele><time>2026-04-26T10:03:24.001Z</time></trkpt><trkpt lat="42.76185884510028" lon="10.28335178493987"><ele>135.0</ele><time>2026-04-26T10:03:25.001Z</time></trkpt><trkpt lat="42.76197266280534" lon="10.283423367803506"><ele>128.5</ele><time>2026-04-26T10:03:26.001Z</time></trkpt><trkpt lat="42.7620685835245" lon="10.283518887140874"><ele>122.0</ele><time>2026-04-26T10:03:27.001Z</time></trkpt><trkpt lat="42.762148811001055" lon="10.283632951105188"><ele>115.5</ele><time>2026-04-26T10:03:28.001Z</time></trkpt><trkpt lat="42.76223072206053" lon="10.283758264803451"><ele>109.0</ele><time>2026-04-26T10:03:29.001Z</time></trkpt><trkpt lat="42.76232822915287" lon="10.283882556191482"><ele>112.25</ele><time>2026-04-26T10:03:30.001Z</time></trkpt><trkpt lat="42.762427405342464" lon="10.283987399387396"><ele>115.5</ele><time>2026-04-26T10:03:31.001Z</time></trkpt><trkpt lat="42.7625249581128" lon="10.284087183562567"><ele>118.75</ele><time>2026-04-26T10:03:32.001Z</time></trkpt><trkpt lat="42.762614100835194" lon="10.284200459406865"><ele>122.0</ele><time>2026-04-26T10:03:33.001Z</time></trkpt><trkpt lat="42.762684800693755" lon="10.284331624388164"><ele>115.5</ele><time>2026-04-26T10:03:34.001Z</time></trkpt><trkpt lat="42.762732560456755" lon="10.28448899683842"><ele>109.0</ele><time>2026-04-26T10:03:35.001Z</time></trkpt><trkpt lat="42.76276612288629" lon="10.284653066704001"><ele>102.5</ele><time>2026-04-26T10:03:36.001Z</time></trkpt><trkpt lat="42.76280477109309" lon="10.284817930372096"><ele>96.0</ele><time>2026-04-26T10:03:37.001Z</time></trkpt><trkpt lat="42.7628725903038" lon="10.28497358726626"><ele>96.0</ele><time>2026-04-26T10:03:38.001Z</time></trkpt><trkpt lat="42.762964377649574" lon="10.285105105461033"><ele>96.0</ele><time>2026-04-26T10:03:39.001Z</time></trkpt><trkpt lat="42.76305664131014" lon="10.285235019221389"><ele>96.0</ele><time>2026-04-26T10:03:40.001Z</time></trkpt><trkpt lat="42.76312985977151" lon="10.285383865585292"><ele>96.0</ele><time>2026-04-26T10:03:41.001Z</time></trkpt><trkpt lat="42.76319434128745" lon="10.28553993900837"><ele>97.75</ele><time>2026-04-26T10:03:42.001Z</time></trkpt><trkpt lat="42.763252372740496" lon="10.285696837968691"><ele>99.5</ele><time>2026-04-26T10:03:43.001Z</time></trkpt><trkpt lat="42.76329884743" lon="10.285861437902216"><ele>101.25</ele><time>2026-04-26T10:03:44.001Z</time></trkpt><trkpt lat="42.76333565763338" lon="10.286038790247792"><ele>103.0</ele><time>2026-04-26T10:03:45.001Z</time></trkpt><trkpt lat="42.76337355036954" lon="10.286215871856777"><ele>103.0</ele><time>2026-04-26T10:03:46.001Z</time></trkpt><trkpt lat="42.763426498704845" lon="10.286397627172947"><ele>103.0</ele><time>2026-04-26T10:03:47.001Z</time></trkpt><trkpt lat="42.7634789021203" lon="10.286567160728803"><ele>103.0</ele><time>2026-04-26T10:03:48Z</time></trkpt><trkpt lat="42.76351754557526" lon="10.286740286103246"><ele>103.0</ele><time>2026-04-26T10:03:49Z</time></trkpt><trkpt lat="42.76353887256503" lon="10.28691238408154"><ele>103.5</ele><time>2026-04-26T10:03:50Z</time></trkpt><trkpt lat="42.76353942049586" lon="10.287061894486307"><ele>104.0</ele><time>2026-04-26T10:03:51Z</time></trkpt><trkpt lat="42.76352424977651" lon="10.287224550625599"><ele>104.5</ele><time>2026-04-26T10:03:52Z</time></trkpt><trkpt lat="42.76348861246737" lon="10.28739919239651"><ele>105.0</ele><time>2026-04-26T10:03:53Z</time></trkpt><trkpt lat="42.76344224115215" lon="10.287585181883088"><ele>103.75</ele><time>2026-04-26T10:03:54Z</time></trkpt><trkpt lat="42.76338931879777" lon="10.28776963126381"><ele>102.5</ele><time>2026-04-26T10:03:55Z</time></trkpt><trkpt lat="42.76332934060843" lon="10.28795346420199"><ele>101.25</ele><time>2026-04-26T10:03:56Z</time></trkpt><trkpt lat="42.76326814910902" lon="10.288136573438228"><ele>100.0</ele><time>2026-04-26T10:03:57Z</time></trkpt><trkpt lat="42.76321633704494" lon="10.288328247803106"><ele>95.25</ele><time>2026-04-26T10:03:58Z</time></trkpt><trkpt lat="42.763176267988776" lon="10.288529142326228"><ele>90.5</ele><time>2026-04-26T10:03:59Z</time></trkpt><trkpt lat="42.76315098915671" lon="10.288714775128883"><ele>85.75</ele><time>2026-04-26T10:04:00Z</time></trkpt><trkpt lat="42.763115164114495" lon="10.288906193977171"><ele>81.0</ele><time>2026-04-26T10:04:01Z</time></trkpt><trkpt lat="42.76307305583763" lon="10.28906449072853"><ele>77.8</ele><time>2026-04-26T10:04:02Z</time></trkpt><trkpt lat="42.76302985900071" lon="10.289188030493355"><ele>74.6</ele><time>2026-04-26T10:04:03Z</time></trkpt><trkpt lat="42.7629777773929" lon="10.28930288901286"><ele>71.4</ele><time>2026-04-26T10:04:04Z</time></trkpt><trkpt lat="42.762906441653456" lon="10.289389625221428"><ele>68.2</ele><time>2026-04-26T10:04:05Z</time></trkpt><trkpt lat="42.76283110316403" lon="10.289420443406796"><ele>65.0</ele><time>2026-04-26T10:04:06Z</time></trkpt><trkpt lat="42.76274615107493" lon="10.289396878968546"><ele>68.4</ele><time>2026-04-26T10:04:07Z</time></trkpt><trkpt lat="42.762636373929595" lon="10.289341998401431"><ele>71.8</ele><time>2026-04-26T10:04:08Z</time></trkpt><trkpt lat="42.76252840344338" lon="10.28927053912379"><ele>75.19999999999999</ele><time>2026-04-26T10:04:09Z</time></trkpt><trkpt lat="42.76242875458141" lon="10.2892104092464"><ele>78.6</ele><time>2026-04-26T10:04:10Z</time></trkpt><trkpt lat="42.762345044420975" lon="10.289174802007706"><ele>82.0</ele><time>2026-04-26T10:04:11Z</time></trkpt><trkpt lat="42.762267287002" lon="10.289185375636826"><ele>82.0</ele><time>2026-04-26T10:04:12Z</time></trkpt><trkpt lat="42.76219236413442" lon="10.289252211159548"><ele>82.0</ele><time>2026-04-26T10:04:13Z</time></trkpt><trkpt lat="42.7621447190544" lon="10.289361351984393"><ele>82.0</ele><time>2026-04-26T10:04:14Z</time></trkpt><trkpt lat="42.762110057012634" lon="10.289507219573458"><ele>82.0</ele><time>2026-04-26T10:04:15Z</time></trkpt><trkpt lat="42.76207533529674" lon="10.289670780559632"><ele>82.0</ele><time>2026-04-26T10:04:16Z</time></trkpt><trkpt lat="42.762046228567804" lon="10.289822632481396"><ele>78.8</ele><time>2026-04-26T10:04:17Z</time></trkpt><trkpt lat="42.762003955946675" lon="10.289975769962771"><ele>75.6</ele><time>2026-04-26T10:04:18Z</time></trkpt><trkpt lat="42.761941555072646" lon="10.290123540101082"><ele>72.39999999999999</ele><time>2026-04-26T10:04:19Z</time></trkpt><trkpt lat="42.76188062260433" lon="10.29024058540645"><ele>69.19999999999999</ele><time>2026-04-26T10:04:20Z</time></trkpt><trkpt lat="42.761823148928805" lon="10.290318579406422"><ele>66.0</ele><time>2026-04-26T10:04:21Z</time></trkpt><trkpt lat="42.761745161976286" lon="10.290368638001162"><ele>66.0</ele><time>2026-04-26T10:04:22Z</time></trkpt><trkpt lat="42.76164812783901" lon="10.290363804578444"><ele>66.0</ele><time>2026-04-26T10:04:23Z</time></trkpt><trkpt lat="42.76154166087543" lon="10.29030836931734"><ele>66.0</ele><time>2026-04-26T10:04:24Z</time></trkpt><trkpt lat="42.761441641795045" lon="10.290226861796537"><ele>66.0</ele><time>2026-04-26T10:04:25Z</time></trkpt><trkpt lat="42.76135759664851" lon="10.290138370596488"><ele>66.0</ele><time>2026-04-26T10:04:26Z</time></trkpt><trkpt lat="42.761271994922524" lon="10.29007975444374"><ele>66.0</ele><time>2026-04-26T10:04:27Z</time></trkpt><trkpt lat="42.76118737080943" lon="10.290067785781146"><ele>66.0</ele><time>2026-04-26T10:04:28Z</time></trkpt><trkpt lat="42.761107839190544" lon="10.290111414504118"><ele>66.0</ele><time>2026-04-26T10:04:29Z</time></trkpt><trkpt lat="42.76105462689029" lon="10.290201916840228"><ele>66.0</ele><time>2026-04-26T10:04:30Z</time></trkpt><trkpt lat="42.76103743719585" lon="10.290318521486054"><ele>66.0</ele><time>2026-04-26T10:04:31Z</time></trkpt><trkpt lat="42.76104123714277" lon="10.29045618108354"><ele>66.0</ele><time>2026-04-26T10:04:32Z</time></trkpt><trkpt lat="42.761055286665076" lon="10.290629057159707"><ele>60.33333333333333</ele><time>2026-04-26T10:04:33Z</time></trkpt><trkpt lat="42.76107084167825" lon="10.290838286428253"><ele>54.666666666666664</ele><time>2026-04-26T10:04:34Z</time></trkpt><trkpt lat="42.761104776501654" lon="10.291063056790334"><ele>49.0</ele><time>2026-04-26T10:04:35Z</time></trkpt><trkpt lat="42.76115426841905" lon="10.29127828571087"><ele>46.33333333333333</ele><time>2026-04-26T10:04:36Z</time></trkpt><trkpt lat="42.76119499299058" lon="10.291488479643355"><ele>43.666666666666664</ele><time>2026-04-26T10:04:37Z</time></trkpt><trkpt lat="42.7612265315626" lon="10.291698856874776"><ele>41.0</ele><time>2026-04-26T10:04:38Z</time></trkpt><trkpt lat="42.76125126477375" lon="10.29190514115435"><ele>41.0</ele><time>2026-04-26T10:04:39Z</time></trkpt><trkpt lat="42.76128075371465" lon="10.292101954841028"><ele>41.0</ele><time>2026-04-26T10:04:40Z</time></trkpt><trkpt lat="42.76131581528489" lon="10.292302488214345"><ele>41.0</ele><time>2026-04-26T10:04:41Z</time></trkpt><trkpt lat="42.76135281894039" lon="10.292495552811188"><ele>41.0</ele><time>2026-04-26T10:04:42Z</time></trkpt><trkpt lat="42.761394969144455" lon="10.292682805793836"><ele>39.75</ele><time>2026-04-26T10:04:43Z</time></trkpt><trkpt lat="42.76144457550361" lon="10.292872601302674"><ele>38.5</ele><time>2026-04-26T10:04:44Z</time></trkpt><trkpt lat="42.76149494045836" lon="10.293061301817866"><ele>37.25</ele><time>2026-04-26T10:04:45Z</time></trkpt><trkpt lat="42.761551829433365" lon="10.293246324011994"><ele>36.0</ele><time>2026-04-26T10:04:45.999Z</time></trkpt><trkpt lat="42.76160957419816" lon="10.293436043617168"><ele>35.0</ele><time>2026-04-26T10:04:46.999Z</time></trkpt><trkpt lat="42.76166280665781" lon="10.293617011248175"><ele>34.0</ele><time>2026-04-26T10:04:47.999Z</time></trkpt><trkpt lat="42.76171495880708" lon="10.293787741907305"><ele>33.0</ele><time>2026-04-26T10:04:48.999Z</time></trkpt><trkpt lat="42.76176552660978" lon="10.293953403476388"><ele>32.0</ele><time>2026-04-26T10:04:49.999Z</time></trkpt><trkpt lat="42.76181513391359" lon="10.294104078640803"><ele>32.0</ele><time>2026-04-26T10:04:50.999Z</time></trkpt><trkpt lat="42.761858949221235" lon="10.29425524108853"><ele>32.0</ele><time>2026-04-26T10:04:51.999Z</time></trkpt><trkpt lat="42.76190197848007" lon="10.294407525874616"><ele>32.0</ele><time>2026-04-26T10:04:52.999Z</time></trkpt><trkpt lat="42.76192577312697" lon="10.29457251064516"><ele>32.0</ele><time>2026-04-26T10:04:53.999Z</time></trkpt><trkpt lat="42.76192802125403" lon="10.294739105346085"><ele>31.25</ele><time>2026-04-26T10:04:55.002Z</time></trkpt><trkpt lat="42.761909447385094" lon="10.29490209124272"><ele>30.5</ele><time>2026-04-26T10:04:56.002Z</time></trkpt><trkpt lat="42.761877550895214" lon="10.295049542462436"><ele>29.75</ele><time>2026-04-26T10:04:57.002Z</time></trkpt><trkpt lat="42.761858366310875" lon="10.295209592853668"><ele>29.0</ele><time>2026-04-26T10:04:58.001Z</time></trkpt><trkpt lat="42.76184764248377" lon="10.29535199130788"><ele>29.0</ele><time>2026-04-26T10:04:59.002Z</time></trkpt><trkpt lat="42.76183968309824" lon="10.29547033985943"><ele>29.0</ele><time>2026-04-26T10:05:00.002Z</time></trkpt><trkpt lat="42.761847147893086" lon="10.295595909953207"><ele>29.0</ele><time>2026-04-26T10:05:01.002Z</time></trkpt><trkpt lat="42.76185883510441" lon="10.295711384339198"><ele>29.0</ele><time>2026-04-26T10:05:02.001Z</time></trkpt><trkpt lat="42.76188874916162" lon="10.295827577810911"><ele>29.0</ele><time>2026-04-26T10:05:03.001Z</time></trkpt><trkpt lat="42.76193973399634" lon="10.295947551977534"><ele>26.4</ele><time>2026-04-26T10:05:04.002Z</time></trkpt><trkpt lat="42.76200801854143" lon="10.296055870157334"><ele>23.799999999999997</ele><time>2026-04-26T10:05:05.002Z</time></trkpt><trkpt lat="42.76207224561209" lon="10.296165615588368"><ele>21.200000000000003</ele><time>2026-04-26T10:05:06.002Z</time></trkpt><trkpt lat="42.76213322700146" lon="10.296276308519877"><ele>18.6</ele><time>2026-04-26T10:05:07.001Z</time></trkpt><trkpt lat="42.762195141596244" lon="10.296381428506326"><ele>16.0</ele><time>2026-04-26T10:05:08.001Z</time></trkpt><trkpt lat="42.76224799152675" lon="10.296474649319503"><ele>16.0</ele><time>2026-04-26T10:05:09.001Z</time></trkpt><trkpt lat="42.762181135290305" lon="10.296391721494759"><ele>16.0</ele><time>2026-04-26T10:05:33.001Z</time></trkpt><trkpt lat="42.762108728456965" lon="10.29630571972023"><ele>16.0</ele><time>2026-04-26T10:05:36.001Z</time></trkpt><trkpt lat="42.762071587450826" lon="10.296217044945891"><ele>16.0</ele><time>2026-04-26T10:05:38.001Z</time></trkpt><trkpt lat="42.762026998532654" lon="10.296142822900647"><ele>16.0</ele><time>2026-04-26T10:05:41.001Z</time></trkpt><trkpt lat="42.76209489927324" lon="10.296284844617405"><ele>16.0</ele><time>2026-04-26T10:05:45.001Z</time></trkpt><trkpt lat="42.76215371112074" lon="10.296381167152052"><ele>16.0</ele><time>2026-04-26T10:05:46.001Z</time></trkpt><trkpt lat="42.762213846285476" lon="10.296477040772665"><ele>16.0</ele><time>2026-04-26T10:05:47.001Z</time></trkpt><trkpt lat="42.76228456228317" lon="10.296591115564985"><ele>16.0</ele><time>2026-04-26T10:05:48.001Z</time></trkpt><trkpt lat="42.76236221104103" lon="10.296722921292405"><ele>16.0</ele><time>2026-04-26T10:05:49.001Z</time></trkpt><trkpt lat="42.762427205827876" lon="10.296850626226123"><ele>15.25</ele><time>2026-04-26T10:05:50.001Z</time></trkpt><trkpt lat="42.76249009463872" lon="10.296986562505811"><ele>14.5</ele><time>2026-04-26T10:05:51.001Z</time></trkpt><trkpt lat="42.76252930442517" lon="10.297125364850537"><ele>13.75</ele><time>2026-04-26T10:05:52.001Z</time></trkpt><trkpt lat="42.76255812268732" lon="10.297277276803747"><ele>13.0</ele><time>2026-04-26T10:05:53.001Z</time></trkpt><trkpt lat="42.76256801530794" lon="10.297429777288778"><ele>12.5</ele><time>2026-04-26T10:05:54.001Z</time></trkpt><trkpt lat="42.76255958153052" lon="10.297579710814366"><ele>12.0</ele><time>2026-04-26T10:05:55.001Z</time></trkpt><trkpt lat="42.762535034587536" lon="10.297732232235745"><ele>11.5</ele><time>2026-04-26T10:05:56.001Z</time></trkpt><trkpt lat="42.76249314231494" lon="10.297870064967368"><ele>11.0</ele><time>2026-04-26T10:05:57.001Z</time></trkpt><trkpt lat="42.76244469168618" lon="10.29801419004739"><ele>11.25</ele><time>2026-04-26T10:05:58.001Z</time></trkpt><trkpt lat="42.762404736386394" lon="10.298154204038044"><ele>11.5</ele><time>2026-04-26T10:05:59.001Z</time></trkpt><trkpt lat="42.76237228818764" lon="10.298302566445566"><ele>11.75</ele><time>2026-04-26T10:06:00.001Z</time></trkpt><trkpt lat="42.76234385392858" lon="10.298458168740948"><ele>12.0</ele><time>2026-04-26T10:06:01.001Z</time></trkpt><trkpt lat="42.762313585840275" lon="10.298611798635308"><ele>12.0</ele><time>2026-04-26T10:06:02.001Z</time></trkpt><trkpt lat="42.76227887825358" lon="10.29877323791843"><ele>12.0</ele><time>2026-04-26T10:06:03.001Z</time></trkpt><trkpt lat="42.76224376478625" lon="10.298925210282706"><ele>12.0</ele><time>2026-04-26T10:06:04.001Z</time></trkpt><trkpt lat="42.76220705662242" lon="10.299075397828524"><ele>12.0</ele><time>2026-04-26T10:06:05Z</time></trkpt><trkpt lat="42.76217413903463" lon="10.299221297609733"><ele>12.2</ele><time>2026-04-26T10:06:06Z</time></trkpt><trkpt lat="42.76213486817201" lon="10.299352170419068"><ele>12.399999999999999</ele><time>2026-04-26T10:06:07Z</time></trkpt><trkpt lat="42.76208191394118" lon="10.299475579380923"><ele>12.600000000000001</ele><time>2026-04-26T10:06:08Z</time></trkpt><trkpt lat="42.76202220768646" lon="10.299594219381492"><ele>12.8</ele><time>2026-04-26T10:06:09Z</time></trkpt><trkpt lat="42.761966299258916" lon="10.299724781370879"><ele>13.0</ele><time>2026-04-26T10:06:10Z</time></trkpt><trkpt lat="42.761910580137084" lon="10.299861548330433"><ele>11.0</ele><time>2026-04-26T10:06:11Z</time></trkpt><trkpt lat="42.76186008808491" lon="10.299999343478042"><ele>9.0</ele><time>2026-04-26T10:06:12Z</time></trkpt><trkpt lat="42.76181923682293" lon="10.300147888878726"><ele>7.0</ele><time>2026-04-26T10:06:13Z</time></trkpt><trkpt lat="42.76179626545399" lon="10.300310249309094"><ele>5.0</ele><time>2026-04-26T10:06:14Z</time></trkpt><trkpt lat="42.76179287814066" lon="10.3004721203358"><ele>5.0</ele><time>2026-04-26T10:06:15Z</time></trkpt><trkpt lat="42.76179929033897" lon="10.300639110464179"><ele>5.0</ele><time>2026-04-26T10:06:16Z</time></trkpt><trkpt lat="42.76180883567747" lon="10.300807365264516"><ele>5.0</ele><time>2026-04-26T10:06:17Z</time></trkpt><trkpt lat="42.761811074445" lon="10.30097423468491"><ele>5.0</ele><time>2026-04-26T10:06:18Z</time></trkpt><trkpt lat="42.761822662730935" lon="10.30112973628451"><ele>5.0</ele><time>2026-04-26T10:06:19Z</time></trkpt><trkpt lat="42.761840192149855" lon="10.30127098014945"><ele>5.0</ele><time>2026-04-26T10:06:20Z</time></trkpt><trkpt lat="42.76184905685547" lon="10.301398652337406"><ele>5.0</ele><time>2026-04-26T10:06:21Z</time></trkpt><trkpt lat="42.76185355968445" lon="10.301510355692963"><ele>5.0</ele><time>2026-04-26T10:06:22Z</time></trkpt><trkpt lat="42.7618592753032" lon="10.301609089603307"><ele>5.0</ele><time>2026-04-26T10:06:23Z</time></trkpt><trkpt lat="42.76186690349483" lon="10.30175244635556"><ele>5.0</ele><time>2026-04-26T10:06:25Z</time></trkpt><trkpt lat="42.76182553071411" lon="10.301818450276796"><ele>5.0</ele><time>2026-04-26T10:06:28Z</time></trkpt><trkpt lat="42.76173331273787" lon="10.301812456718281"><ele>5.0</ele><time>2026-04-26T10:06:30Z</time></trkpt><trkpt lat="42.76163303090263" lon="10.301806138296262"><ele>5.0</ele><time>2026-04-26T10:06:32Z</time></trkpt><trkpt lat="42.761527552432064" lon="10.30180695108561"><ele>5.0</ele><time>2026-04-26T10:06:34Z</time></trkpt><trkpt lat="42.76143717681664" lon="10.30179252433048"><ele>5.0</ele><time>2026-04-26T10:06:36Z</time></trkpt><trkpt lat="42.76132222877513" lon="10.301791908573774"><ele>5.0</ele><time>2026-04-26T10:06:38Z</time></trkpt><trkpt lat="42.761207495330076" lon="10.30178214057346"><ele>5.0</ele><time>2026-04-26T10:06:40Z</time></trkpt><trkpt lat="42.761138644206156" lon="10.301741336949938"><ele>5.0</ele><time>2026-04-26T10:06:42Z</time></trkpt><trkpt lat="42.7610834135668" lon="10.301623081085117"><ele>5.0</ele><time>2026-04-26T10:06:44Z</time></trkpt><trkpt lat="42.76107940848845" lon="10.301505953334143"><ele>5.0</ele><time>2026-04-26T10:06:46Z</time></trkpt><trkpt lat="42.76103596406986" lon="10.301399034288616"><ele>5.0</ele><time>2026-04-26T10:06:49Z</time></trkpt><trkpt lat="42.760962973766894" lon="10.301421337960562"><ele>5.0</ele><time>2026-04-26T10:06:52Z</time></trkpt><trkpt lat="42.760874366883236" lon="10.30147198361438"><ele>5.0</ele><time>2026-04-26T10:06:56Z</time></trkpt><trkpt lat="42.76080261083649" lon="10.301504980457217"><ele>5.0</ele><time>2026-04-26T10:06:58Z</time></trkpt><trkpt lat="42.76074099290789" lon="10.301535856539907"><ele>5.0</ele><time>2026-04-26T10:07:02.002Z</time></trkpt><trkpt lat="42.76064597477717" lon="10.301568608236318"><ele>4.666666666666667</ele><time>2026-04-26T10:07:04.002Z</time></trkpt><trkpt lat="42.76054451052838" lon="10.301587553324866"><ele>4.333333333333334</ele><time>2026-04-26T10:07:06.002Z</time></trkpt><trkpt lat="42.76046116302748" lon="10.301622738799482"><ele>4.0</ele><time>2026-04-26T10:07:08.002Z</time></trkpt><trkpt lat="42.760400185270214" lon="10.301669562610458"><ele>3.666666666666667</ele><time>2026-04-26T10:07:10.002Z</time></trkpt><trkpt lat="42.760323516440025" lon="10.301691311925238"><ele>3.3333333333333335</ele><time>2026-04-26T10:07:12.001Z</time></trkpt><trkpt lat="42.760256349719285" lon="10.301715082941387"><ele>3.0</ele><time>2026-04-26T10:07:15.002Z</time></trkpt><trkpt lat="42.76018941244626" lon="10.301728096677486"><ele>3.0</ele><time>2026-04-26T10:07:23.001Z</time></trkpt><trkpt lat="42.76011613661786" lon="10.30178109922299"><ele>3.0</ele><time>2026-04-26T10:07:53.001Z</time></trkpt><trkpt lat="42.76005797455646" lon="10.301814448519195"><ele>3.0</ele><time>2026-04-26T10:08:05.001Z</time></trkpt><trkpt lat="42.75996027446089" lon="10.301911999719808"><ele>3.0</ele><time>2026-04-26T10:12:57Z</time></trkpt><trkpt lat="42.75993924086952" lon="10.301993964678607"><ele>3.0</ele><time>2026-04-26T10:13:10Z</time></trkpt><trkpt lat="42.75988334483882" lon="10.302042540089554"><ele>3.0</ele><time>2026-04-26T10:13:33.001Z</time></trkpt><trkpt lat="42.759901917520885" lon="10.30212759773063"><ele>3.0</ele><time>2026-04-26T10:13:41.001Z</time></trkpt><trkpt lat="42.759909142333505" lon="10.301996345282333"><ele>3.0</ele><time>2026-04-26T10:15:48Z</time></trkpt><trkpt lat="42.759909142333505" lon="10.301996345282333"><ele>3.0</ele><time>2026-04-26T10:15:48Z</time></trkpt><trkpt lat="42.759909142333505" lon="10.301996345282333"><ele>3.0</ele><time>2026-04-26T10:15:48Z</time></trkpt></trkseg></trk></gpx>